<?xml version='1.0' encoding='UTF-8'?><gpx version="1.1" creator="JPX - https://github.com/jenetics/jpx" xmlns="http://www.topografix.com/GPX/1/1"><trk><trkseg><trkpt lat="36.7998866308323" lon="-108.12572506907786"><ele>1746.0</ele><time>2026-04-14T23:36:49.478Z</time></trkpt><trkpt lat="36.79982202221651" lon="-108.12572980042331"><ele>1746.0</ele><time>2026-04-14T23:37:05.008Z</time></trkpt><trkpt lat="36.799775934904254" lon="-108.12563005411819"><ele>1746.0</ele><time>2026-04-14T23:38:03Z</time></trkpt><trkpt lat="36.79976231006072" lon="-108.12571086609988"><ele>1746.0</ele><time>2026-04-14T23:39:01Z</time></trkpt><trkpt lat="36.799716929302136" lon="-108.12578490793695"><ele>1746.0</ele><time>2026-04-14T23:40:49Z</time></trkpt><trkpt lat="36.79978676391276" lon="-108.12590297727333"><ele>1746.0</ele><time>2026-04-14T23:40:52Z</time></trkpt><trkpt lat="36.799794128105624" lon="-108.12601140135746"><ele>1746.1999999999998</ele><time>2026-04-14T23:40:53Z</time></trkpt><trkpt lat="36.79978048221607" lon="-108.12611686725315"><ele>1746.3999999999999</ele><time>2026-04-14T23:40:54Z</time></trkpt><trkpt lat="36.79976561236064" lon="-108.12621538277172"><ele>1746.6</ele><time>2026-04-14T23:40:55Z</time></trkpt><trkpt lat="36.79973661824417" lon="-108.1263341105136"><ele>1746.8</ele><time>2026-04-14T23:40:57Z</time></trkpt><trkpt lat="36.799647343486726" lon="-108.12640227427165"><ele>1747.0</ele><time>2026-04-14T23:40:59Z</time></trkpt><trkpt lat="36.79955158750507" lon="-108.12642476595704"><ele>1747.0</ele><time>2026-04-14T23:41:00Z</time></trkpt><trkpt lat="36.79945570773714" lon="-108.1264423451729"><ele>1746.9999999999998</ele><time>2026-04-14T23:41:01Z</time></trkpt><trkpt lat="36.79935835237766" lon="-108.12644374955995"><ele>1746.9999999999998</ele><time>2026-04-14T23:41:02Z</time></trkpt><trkpt lat="36.799249906253614" lon="-108.12644577659269"><ele>1747.0</ele><time>2026-04-14T23:41:03Z</time></trkpt><trkpt lat="36.79913089372904" lon="-108.12644800112766"><ele>1747.0</ele><time>2026-04-14T23:41:04Z</time></trkpt><trkpt lat="36.798996843902884" lon="-108.12645068796515"><ele>1745.75</ele><time>2026-04-14T23:41:05Z</time></trkpt><trkpt lat="36.79885341021243" lon="-108.1264535411982"><ele>1744.5</ele><time>2026-04-14T23:41:06Z</time></trkpt><trkpt lat="36.79869557876023" lon="-108.1264391171207"><ele>1743.25</ele><time>2026-04-14T23:41:07Z</time></trkpt><trkpt lat="36.798564337733026" lon="-108.12644545759987"><ele>1742.0</ele><time>2026-04-14T23:41:08Z</time></trkpt><trkpt lat="36.7984571634743" lon="-108.12644325003647"><ele>1741.8</ele><time>2026-04-14T23:41:09Z</time></trkpt><trkpt lat="36.79836354913977" lon="-108.12644692087854"><ele>1741.6</ele><time>2026-04-14T23:41:10Z</time></trkpt><trkpt lat="36.79829254486366" lon="-108.1264751666964"><ele>1741.3999999999999</ele><time>2026-04-14T23:41:11Z</time></trkpt><trkpt lat="36.798243030767445" lon="-108.12666306056491"><ele>1741.1999999999998</ele><time>2026-04-14T23:41:13Z</time></trkpt><trkpt lat="36.79823861574768" lon="-108.126808345392"><ele>1741.0</ele><time>2026-04-14T23:41:14Z</time></trkpt><trkpt lat="36.79821855599769" lon="-108.12694478641427"><ele>1742.75</ele><time>2026-04-14T23:41:15Z</time></trkpt><trkpt lat="36.79822676062721" lon="-108.12710979795479"><ele>1744.5</ele><time>2026-04-14T23:41:16Z</time></trkpt><trkpt lat="36.79823527952618" lon="-108.12727717692023"><ele>1746.25</ele><time>2026-04-14T23:41:17Z</time></trkpt><trkpt lat="36.79823981488673" lon="-108.12747826676731"><ele>1748.0</ele><time>2026-04-14T23:41:18Z</time></trkpt><trkpt lat="36.798253097275875" lon="-108.12766555462349"><ele>1750.25</ele><time>2026-04-14T23:41:19Z</time></trkpt><trkpt lat="36.79826864456757" lon="-108.12780963161245"><ele>1752.5</ele><time>2026-04-14T23:41:20Z</time></trkpt><trkpt lat="36.79829563949747" lon="-108.12793825969791"><ele>1754.75</ele><time>2026-04-14T23:41:21Z</time></trkpt><trkpt lat="36.79833374901906" lon="-108.12806707965005"><ele>1757.0</ele><time>2026-04-14T23:41:22Z</time></trkpt><trkpt lat="36.798378397154124" lon="-108.12820243176903"><ele>1757.0</ele><time>2026-04-14T23:41:23Z</time></trkpt><trkpt lat="36.79843556826533" lon="-108.12835703388461"><ele>1757.0</ele><time>2026-04-14T23:41:24Z</time></trkpt><trkpt lat="36.79849758317455" lon="-108.12850286791294"><ele>1757.0</ele><time>2026-04-14T23:41:25Z</time></trkpt><trkpt lat="36.798582315789034" lon="-108.12863621822557"><ele>1757.0</ele><time>2026-04-14T23:41:26Z</time></trkpt><trkpt lat="36.798653502298734" lon="-108.12878065368056"><ele>1757.0</ele><time>2026-04-14T23:41:27Z</time></trkpt><trkpt lat="36.798743898568674" lon="-108.1289089250239"><ele>1757.0</ele><time>2026-04-14T23:41:28Z</time></trkpt><trkpt lat="36.798853950828345" lon="-108.12901918931951"><ele>1757.0</ele><time>2026-04-14T23:41:29Z</time></trkpt><trkpt lat="36.79895639433296" lon="-108.12914688921647"><ele>1757.0</ele><time>2026-04-14T23:41:30Z</time></trkpt><trkpt lat="36.79906815025458" lon="-108.129243044807"><ele>1756.5</ele><time>2026-04-14T23:41:31Z</time></trkpt><trkpt lat="36.79918075087513" lon="-108.12933192014651"><ele>1756.0</ele><time>2026-04-14T23:41:32Z</time></trkpt><trkpt lat="36.799301725175205" lon="-108.12941648399816"><ele>1755.5</ele><time>2026-04-14T23:41:33Z</time></trkpt><trkpt lat="36.79945154718371" lon="-108.12948261771679"><ele>1755.0</ele><time>2026-04-14T23:41:34Z</time></trkpt><trkpt lat="36.7995929259653" lon="-108.12951714859695"><ele>1755.0</ele><time>2026-04-14T23:41:35Z</time></trkpt><trkpt lat="36.79973572146922" lon="-108.12954378658706"><ele>1755.0</ele><time>2026-04-14T23:41:36Z</time></trkpt><trkpt lat="36.79989161862052" lon="-108.12957860245385"><ele>1755.0</ele><time>2026-04-14T23:41:37Z</time></trkpt><trkpt lat="36.800072642517186" lon="-108.1296208431878"><ele>1756.0</ele><time>2026-04-14T23:41:38Z</time></trkpt><trkpt lat="36.80024267719124" lon="-108.12966714512399"><ele>1757.0</ele><time>2026-04-14T23:41:39Z</time></trkpt><trkpt lat="36.800425473554256" lon="-108.1297311364773"><ele>1758.0</ele><time>2026-04-14T23:41:40Z</time></trkpt><trkpt lat="36.80059684288215" lon="-108.1298191421582"><ele>1757.75</ele><time>2026-04-14T23:41:41Z</time></trkpt><trkpt lat="36.800733643513645" lon="-108.12991882341711"><ele>1757.5</ele><time>2026-04-14T23:41:42Z</time></trkpt><trkpt lat="36.80083644003023" lon="-108.1300366840116"><ele>1757.25</ele><time>2026-04-14T23:41:43Z</time></trkpt><trkpt lat="36.80093330282863" lon="-108.13016127590657"><ele>1757.0</ele><time>2026-04-14T23:41:44Z</time></trkpt><trkpt lat="36.801027764305935" lon="-108.13031408051614"><ele>1758.6666666666665</ele><time>2026-04-14T23:41:45Z</time></trkpt><trkpt lat="36.8011175502366" lon="-108.13048864899321"><ele>1760.3333333333335</ele><time>2026-04-14T23:41:46Z</time></trkpt><trkpt lat="36.80119748365112" lon="-108.13067831112296"><ele>1762.0</ele><time>2026-04-14T23:41:47Z</time></trkpt><trkpt lat="36.801253723138" lon="-108.13087158680932"><ele>1762.6666666666667</ele><time>2026-04-14T23:41:48Z</time></trkpt><trkpt lat="36.80128520910927" lon="-108.13107714167793"><ele>1763.3333333333335</ele><time>2026-04-14T23:41:49Z</time></trkpt><trkpt lat="36.801288104208" lon="-108.13128213465738"><ele>1764.0</ele><time>2026-04-14T23:41:50Z</time></trkpt><trkpt lat="36.80129145685468" lon="-108.13148402120224"><ele>1765.0</ele><time>2026-04-14T23:41:51Z</time></trkpt><trkpt lat="36.80130270567161" lon="-108.1316945070337"><ele>1766.0</ele><time>2026-04-14T23:41:52Z</time></trkpt><trkpt lat="36.801326546502516" lon="-108.13191483422146"><ele>1767.0</ele><time>2026-04-14T23:41:53Z</time></trkpt><trkpt lat="36.801352679081916" lon="-108.13212809576422"><ele>1767.0</ele><time>2026-04-14T23:41:54Z</time></trkpt><trkpt lat="36.80141099201776" lon="-108.1323348475932"><ele>1767.0</ele><time>2026-04-14T23:41:55Z</time></trkpt><trkpt lat="36.80147377586266" lon="-108.13252956790016"><ele>1767.0</ele><time>2026-04-14T23:41:56Z</time></trkpt><trkpt lat="36.801528948385496" lon="-108.13269301655886"><ele>1767.75</ele><time>2026-04-14T23:41:57Z</time></trkpt><trkpt lat="36.80160778954735" lon="-108.1328548313543"><ele>1768.5</ele><time>2026-04-14T23:41:58Z</time></trkpt><trkpt lat="36.8017080767781" lon="-108.1329995229634"><ele>1769.25</ele><time>2026-04-14T23:41:59Z</time></trkpt><trkpt lat="36.80176993606225" lon="-108.13312620267682"><ele>1770.0</ele><time>2026-04-14T23:42:00Z</time></trkpt><trkpt lat="36.80183863646946" lon="-108.13318127276104"><ele>1771.0</ele><time>2026-04-14T23:42:01Z</time></trkpt><trkpt lat="36.80196202396056" lon="-108.13305688805593"><ele>1772.0</ele><time>2026-04-14T23:42:03Z</time></trkpt><trkpt lat="36.80206006634286" lon="-108.13297990607171"><ele>1773.0</ele><time>2026-04-14T23:42:04Z</time></trkpt><trkpt lat="36.80216125988431" lon="-108.13290684531786"><ele>1774.0</ele><time>2026-04-14T23:42:05Z</time></trkpt><trkpt lat="36.80226918778054" lon="-108.1328406416604"><ele>1774.0</ele><time>2026-04-14T23:42:06Z</time></trkpt><trkpt lat="36.80239818439693" lon="-108.13279904758288"><ele>1774.0</ele><time>2026-04-14T23:42:07Z</time></trkpt><trkpt lat="36.80256466540093" lon="-108.13278728146253"><ele>1774.0</ele><time>2026-04-14T23:42:08Z</time></trkpt><trkpt lat="36.802708750638686" lon="-108.13278104793869"><ele>1774.0</ele><time>2026-04-14T23:42:09Z</time></trkpt><trkpt lat="36.802853193136926" lon="-108.1327765654711"><ele>1774.5</ele><time>2026-04-14T23:42:10Z</time></trkpt><trkpt lat="36.80299926268771" lon="-108.13277284123997"><ele>1775.0</ele><time>2026-04-14T23:42:11Z</time></trkpt><trkpt lat="36.80314870957859" lon="-108.1327690659061"><ele>1775.5</ele><time>2026-04-14T23:42:12Z</time></trkpt><trkpt lat="36.80329736885989" lon="-108.13276531047012"><ele>1776.0</ele><time>2026-04-14T23:42:13Z</time></trkpt><trkpt lat="36.80345011431939" lon="-108.13276145180883"><ele>1777.6666666666665</ele><time>2026-04-14T23:42:14Z</time></trkpt><trkpt lat="36.80359656554457" lon="-108.13275775215543"><ele>1779.3333333333333</ele><time>2026-04-14T23:42:15Z</time></trkpt><trkpt lat="36.803757280352485" lon="-108.13275425540303"><ele>1781.0</ele><time>2026-04-14T23:42:16Z</time></trkpt><trkpt lat="36.80394113171573" lon="-108.1327486678248"><ele>1781.0</ele><time>2026-04-14T23:42:17Z</time></trkpt><trkpt lat="36.80413842478537" lon="-108.13274048797759"><ele>1781.0</ele><time>2026-04-14T23:42:18Z</time></trkpt><trkpt lat="36.80432341037291" lon="-108.13273411810171"><ele>1781.0</ele><time>2026-04-14T23:42:19Z</time></trkpt><trkpt lat="36.80449300824574" lon="-108.13272980522682"><ele>1781.25</ele><time>2026-04-14T23:42:20Z</time></trkpt><trkpt lat="36.80464745972588" lon="-108.13272566512487"><ele>1781.5</ele><time>2026-04-14T23:42:21Z</time></trkpt><trkpt lat="36.804778721726365" lon="-108.13274375669302"><ele>1781.75</ele><time>2026-04-14T23:42:22Z</time></trkpt><trkpt lat="36.804874569485406" lon="-108.13271545972802"><ele>1782.0</ele><time>2026-04-14T23:42:23Z</time></trkpt><trkpt lat="36.804930896349646" lon="-108.13266214635686"><ele>1782.0</ele><time>2026-04-14T23:42:24Z</time></trkpt><trkpt lat="36.80495825665804" lon="-108.13255781794527"><ele>1782.0</ele><time>2026-04-14T23:42:25Z</time></trkpt><trkpt lat="36.80496097535947" lon="-108.13243088384063"><ele>1782.0</ele><time>2026-04-14T23:42:26Z</time></trkpt><trkpt lat="36.804955860047365" lon="-108.13225930112628"><ele>1782.0</ele><time>2026-04-14T23:42:27Z</time></trkpt><trkpt lat="36.8049531055845" lon="-108.13207146878379"><ele>1780.6666666666665</ele><time>2026-04-14T23:42:28Z</time></trkpt><trkpt lat="36.80495272099246" lon="-108.13188513955586"><ele>1779.3333333333333</ele><time>2026-04-14T23:42:29Z</time></trkpt><trkpt lat="36.804957434953536" lon="-108.131669968234"><ele>1778.0</ele><time>2026-04-14T23:42:30Z</time></trkpt><trkpt lat="36.804960159985946" lon="-108.1314897781263"><ele>1777.75</ele><time>2026-04-14T23:42:31Z</time></trkpt><trkpt lat="36.804962339496534" lon="-108.13132484317768"><ele>1777.5</ele><time>2026-04-14T23:42:32Z</time></trkpt><trkpt lat="36.804963784904366" lon="-108.13115912130444"><ele>1777.25</ele><time>2026-04-14T23:42:33Z</time></trkpt><trkpt lat="36.80496476057126" lon="-108.13099602322043"><ele>1777.0</ele><time>2026-04-14T23:42:34Z</time></trkpt><trkpt lat="36.804962041937586" lon="-108.13083919173981"><ele>1776.8</ele><time>2026-04-14T23:42:35Z</time></trkpt><trkpt lat="36.80497032789953" lon="-108.13069530775591"><ele>1776.6</ele><time>2026-04-14T23:42:36Z</time></trkpt><trkpt lat="36.804967669608" lon="-108.13054872045124"><ele>1776.3999999999999</ele><time>2026-04-14T23:42:37Z</time></trkpt><trkpt lat="36.80497091595958" lon="-108.13041876902454"><ele>1776.1999999999998</ele><time>2026-04-14T23:42:38Z</time></trkpt><trkpt lat="36.80496932831335" lon="-108.13027867558185"><ele>1776.0</ele><time>2026-04-14T23:42:39Z</time></trkpt><trkpt lat="36.804962944755296" lon="-108.1301116963462"><ele>1776.0</ele><time>2026-04-14T23:42:40Z</time></trkpt><trkpt lat="36.80496943124902" lon="-108.12990929244069"><ele>1776.0</ele><time>2026-04-14T23:42:41Z</time></trkpt><trkpt lat="36.80497729251764" lon="-108.12972275147061"><ele>1776.0</ele><time>2026-04-14T23:42:42Z</time></trkpt><trkpt lat="36.804972228860386" lon="-108.12959330445413"><ele>1776.0</ele><time>2026-04-14T23:42:43Z</time></trkpt><trkpt lat="36.80498904519138" lon="-108.1294796670751"><ele>1776.1999999999998</ele><time>2026-04-14T23:42:44Z</time></trkpt><trkpt lat="36.805023417163035" lon="-108.12936497825658"><ele>1776.3999999999999</ele><time>2026-04-14T23:42:45Z</time></trkpt><trkpt lat="36.80507834597128" lon="-108.1292352789247"><ele>1776.6</ele><time>2026-04-14T23:42:46Z</time></trkpt><trkpt lat="36.805117594320585" lon="-108.12912504034786"><ele>1776.8</ele><time>2026-04-14T23:42:47Z</time></trkpt><trkpt lat="36.80515175841136" lon="-108.12904994600316"><ele>1777.0</ele><time>2026-04-14T23:42:48Z</time></trkpt><trkpt lat="36.805240532803005" lon="-108.12898828479062"><ele>1778.3999999999999</ele><time>2026-04-14T23:42:49Z</time></trkpt><trkpt lat="36.805340760629875" lon="-108.12892365395669"><ele>1779.7999999999997</ele><time>2026-04-14T23:42:50Z</time></trkpt><trkpt lat="36.80543267449615" lon="-108.12881784197606"><ele>1781.2</ele><time>2026-04-14T23:42:51Z</time></trkpt><trkpt lat="36.80550760179313" lon="-108.12873648150688"><ele>1782.6</ele><time>2026-04-14T23:42:52Z</time></trkpt><trkpt lat="36.80559989699343" lon="-108.12870697694704"><ele>1784.0</ele><time>2026-04-14T23:42:53Z</time></trkpt><trkpt lat="36.805694218330125" lon="-108.1287149125613"><ele>1784.0</ele><time>2026-04-14T23:42:54Z</time></trkpt><trkpt lat="36.80581592837867" lon="-108.12871516703407"><ele>1784.0</ele><time>2026-04-14T23:42:55Z</time></trkpt><trkpt lat="36.80594141996987" lon="-108.12865318951063"><ele>1784.0</ele><time>2026-04-14T23:42:56Z</time></trkpt><trkpt lat="36.806046212827226" lon="-108.12857988926335"><ele>1784.0</ele><time>2026-04-14T23:42:57Z</time></trkpt><trkpt lat="36.80616456465235" lon="-108.12855739811631"><ele>1784.6666666666665</ele><time>2026-04-14T23:42:58Z</time></trkpt><trkpt lat="36.80632366190248" lon="-108.12846986206894"><ele>1785.3333333333335</ele><time>2026-04-14T23:42:59Z</time></trkpt><trkpt lat="36.80647588564149" lon="-108.12832143314364"><ele>1786.0</ele><time>2026-04-14T23:43:00Z</time></trkpt><trkpt lat="36.80658850886647" lon="-108.1282050675608"><ele>1786.0</ele><time>2026-04-14T23:43:01Z</time></trkpt><trkpt lat="36.80669228375475" lon="-108.12814288537142"><ele>1786.0</ele><time>2026-04-14T23:43:02Z</time></trkpt><trkpt lat="36.80684034957232" lon="-108.12813911880316"><ele>1786.0</ele><time>2026-04-14T23:43:03Z</time></trkpt><trkpt lat="36.807006451296566" lon="-108.1281401583268"><ele>1786.0</ele><time>2026-04-14T23:43:04Z</time></trkpt><trkpt lat="36.807162204404094" lon="-108.12815066197794"><ele>1786.3333333333335</ele><time>2026-04-14T23:43:05Z</time></trkpt><trkpt lat="36.80731817349985" lon="-108.12816873311584"><ele>1786.6666666666665</ele><time>2026-04-14T23:43:06Z</time></trkpt><trkpt lat="36.80749916669566" lon="-108.12816264718495"><ele>1787.0</ele><time>2026-04-14T23:43:07Z</time></trkpt><trkpt lat="36.80763797229487" lon="-108.12814475051061"><ele>1788.25</ele><time>2026-04-14T23:43:08Z</time></trkpt><trkpt lat="36.8077589234339" lon="-108.1281664445841"><ele>1789.5</ele><time>2026-04-14T23:43:09Z</time></trkpt><trkpt lat="36.80786406603805" lon="-108.12820288363726"><ele>1790.75</ele><time>2026-04-14T23:43:10Z</time></trkpt><trkpt lat="36.80785872236648" lon="-108.12800904259521"><ele>1792.0</ele><time>2026-04-14T23:43:12Z</time></trkpt><trkpt lat="36.80784094058876" lon="-108.12790538513799"><ele>1792.0</ele><time>2026-04-14T23:43:13Z</time></trkpt><trkpt lat="36.80785753515664" lon="-108.12779306385076"><ele>1791.9999999999998</ele><time>2026-04-14T23:43:14Z</time></trkpt><trkpt lat="36.80792094321357" lon="-108.12772761295086"><ele>1791.9999999999998</ele><time>2026-04-14T23:43:15Z</time></trkpt><trkpt lat="36.80803614516385" lon="-108.1276424439697"><ele>1792.0</ele><time>2026-04-14T23:43:16Z</time></trkpt><trkpt lat="36.80814592786265" lon="-108.12755163996326"><ele>1792.0</ele><time>2026-04-14T23:43:17Z</time></trkpt><trkpt lat="36.808243123390696" lon="-108.12743063571507"><ele>1791.25</ele><time>2026-04-14T23:43:18Z</time></trkpt><trkpt lat="36.80835840357191" lon="-108.12731014579376"><ele>1790.5</ele><time>2026-04-14T23:43:19Z</time></trkpt><trkpt lat="36.80845788374594" lon="-108.12718904026708"><ele>1789.75</ele><time>2026-04-14T23:43:20Z</time></trkpt><trkpt lat="36.808547073275854" lon="-108.12705856715218"><ele>1789.0</ele><time>2026-04-14T23:43:21Z</time></trkpt><trkpt lat="36.80862238043292" lon="-108.12693420504812"><ele>1789.0</ele><time>2026-04-14T23:43:22Z</time></trkpt><trkpt lat="36.80870475910121" lon="-108.12681075722395"><ele>1789.0</ele><time>2026-04-14T23:43:23Z</time></trkpt><trkpt lat="36.8088055784525" lon="-108.12670813346121"><ele>1789.0</ele><time>2026-04-14T23:43:24Z</time></trkpt><trkpt lat="36.80892073831348" lon="-108.12664398002451"><ele>1789.0</ele><time>2026-04-14T23:43:25Z</time></trkpt><trkpt lat="36.80906702292931" lon="-108.12656607659115"><ele>1788.0</ele><time>2026-04-14T23:43:26Z</time></trkpt><trkpt lat="36.809236947356446" lon="-108.12647183822115"><ele>1787.0</ele><time>2026-04-14T23:43:27Z</time></trkpt><trkpt lat="36.8094169052485" lon="-108.12636731534722"><ele>1786.0</ele><time>2026-04-14T23:43:28Z</time></trkpt><trkpt lat="36.80958546728556" lon="-108.12629328624838"><ele>1788.5</ele><time>2026-04-14T23:43:29Z</time></trkpt><trkpt lat="36.809721729843545" lon="-108.12626054381529"><ele>1791.0</ele><time>2026-04-14T23:43:30Z</time></trkpt><trkpt lat="36.80984370415894" lon="-108.12628238310748"><ele>1793.5</ele><time>2026-04-14T23:43:31Z</time></trkpt><trkpt lat="36.80998584562083" lon="-108.1263491974245"><ele>1796.0</ele><time>2026-04-14T23:43:32Z</time></trkpt><trkpt lat="36.81010690628903" lon="-108.12640897205154"><ele>1797.25</ele><time>2026-04-14T23:43:33Z</time></trkpt><trkpt lat="36.81019794771509" lon="-108.12643566517511"><ele>1798.5</ele><time>2026-04-14T23:43:35Z</time></trkpt><trkpt lat="36.81030977375832" lon="-108.1265090183384"><ele>1799.75</ele><time>2026-04-14T23:43:36Z</time></trkpt><trkpt lat="36.81041262879193" lon="-108.12659612040743"><ele>1801.0</ele><time>2026-04-14T23:43:37Z</time></trkpt><trkpt lat="36.81054674357587" lon="-108.12666478281412"><ele>1801.0</ele><time>2026-04-14T23:43:38Z</time></trkpt><trkpt lat="36.810674315135465" lon="-108.12673940590163"><ele>1801.0</ele><time>2026-04-14T23:43:39Z</time></trkpt><trkpt lat="36.81078156678162" lon="-108.12681551816405"><ele>1801.0</ele><time>2026-04-14T23:43:40Z</time></trkpt><trkpt lat="36.810876501563506" lon="-108.12691422376844"><ele>1801.0</ele><time>2026-04-14T23:43:41Z</time></trkpt><trkpt lat="36.81095212974637" lon="-108.12698418218307"><ele>1801.0</ele><time>2026-04-14T23:43:42Z</time></trkpt><trkpt lat="36.811005865782555" lon="-108.1269415103172"><ele>1801.0</ele><time>2026-04-14T23:43:43Z</time></trkpt><trkpt lat="36.8110609177919" lon="-108.12682409856455"><ele>1801.0</ele><time>2026-04-14T23:43:44Z</time></trkpt><trkpt lat="36.81112883200188" lon="-108.12672170505593"><ele>1801.0</ele><time>2026-04-14T23:43:45Z</time></trkpt><trkpt lat="36.81121221824155" lon="-108.1266567882844"><ele>1801.0</ele><time>2026-04-14T23:43:46Z</time></trkpt><trkpt lat="36.811284324620836" lon="-108.12658060801873"><ele>1800.25</ele><time>2026-04-14T23:43:47Z</time></trkpt><trkpt lat="36.81138264255896" lon="-108.12653489413697"><ele>1799.5</ele><time>2026-04-14T23:43:48Z</time></trkpt><trkpt lat="36.81153263856741" lon="-108.1265069891481"><ele>1798.75</ele><time>2026-04-14T23:43:49Z</time></trkpt><trkpt lat="36.81171844440598" lon="-108.1264849154793"><ele>1798.0</ele><time>2026-04-14T23:43:50Z</time></trkpt><trkpt lat="36.81187785763056" lon="-108.12640907655094"><ele>1797.5</ele><time>2026-04-14T23:43:51Z</time></trkpt><trkpt lat="36.811991242538" lon="-108.12636645170225"><ele>1797.0</ele><time>2026-04-14T23:43:52Z</time></trkpt><trkpt lat="36.81210309631846" lon="-108.12631047807139"><ele>1796.5</ele><time>2026-04-14T23:43:53Z</time></trkpt><trkpt lat="36.8122146682174" lon="-108.12625723355137"><ele>1796.0</ele><time>2026-04-14T23:43:54Z</time></trkpt><trkpt lat="36.81236947346502" lon="-108.12622229316531"><ele>1796.0</ele><time>2026-04-14T23:43:55Z</time></trkpt><trkpt lat="36.81251615534515" lon="-108.12625272490772"><ele>1796.0</ele><time>2026-04-14T23:43:56Z</time></trkpt><trkpt lat="36.812655972416216" lon="-108.12629022829503"><ele>1796.0</ele><time>2026-04-14T23:43:57Z</time></trkpt><trkpt lat="36.81276553882941" lon="-108.12631670141994"><ele>1796.0</ele><time>2026-04-14T23:43:58Z</time></trkpt><trkpt lat="36.81287898473116" lon="-108.12629194483404"><ele>1796.0</ele><time>2026-04-14T23:43:59Z</time></trkpt><trkpt lat="36.81299852655637" lon="-108.12622402754461"><ele>1796.0</ele><time>2026-04-14T23:44:00Z</time></trkpt><trkpt lat="36.81310240749937" lon="-108.12610657645455"><ele>1796.0</ele><time>2026-04-14T23:44:01Z</time></trkpt><trkpt lat="36.81320129878912" lon="-108.12598835473442"><ele>1796.0</ele><time>2026-04-14T23:44:02Z</time></trkpt><trkpt lat="36.81328875194827" lon="-108.12587027451366"><ele>1796.0</ele><time>2026-04-14T23:44:03Z</time></trkpt><trkpt lat="36.81338306454226" lon="-108.12573135220806"><ele>1796.0</ele><time>2026-04-14T23:44:04Z</time></trkpt><trkpt lat="36.81348394069689" lon="-108.1256239177801"><ele>1796.0</ele><time>2026-04-14T23:44:05Z</time></trkpt><trkpt lat="36.813595766087566" lon="-108.1255757520152"><ele>1796.0</ele><time>2026-04-14T23:44:06Z</time></trkpt><trkpt lat="36.813728816008336" lon="-108.12556181889776"><ele>1795.0</ele><time>2026-04-14T23:44:07Z</time></trkpt><trkpt lat="36.81389595121474" lon="-108.12550740589617"><ele>1794.0</ele><time>2026-04-14T23:44:08Z</time></trkpt><trkpt lat="36.81403851555465" lon="-108.12543859663428"><ele>1793.0</ele><time>2026-04-14T23:44:09Z</time></trkpt><trkpt lat="36.81415565834526" lon="-108.12538545693535"><ele>1793.0</ele><time>2026-04-14T23:44:10Z</time></trkpt><trkpt lat="36.81425997841505" lon="-108.125347493902"><ele>1793.0000000000002</ele><time>2026-04-14T23:44:11Z</time></trkpt><trkpt lat="36.81437531083843" lon="-108.12542543355123"><ele>1793.0000000000002</ele><time>2026-04-14T23:44:13Z</time></trkpt><trkpt lat="36.81443803896223" lon="-108.12552833911184"><ele>1793.0</ele><time>2026-04-14T23:44:14Z</time></trkpt><trkpt lat="36.81450528878409" lon="-108.12556563273694"><ele>1793.0</ele><time>2026-04-14T23:44:15Z</time></trkpt><trkpt lat="36.81459688542481" lon="-108.12549866767756"><ele>1792.25</ele><time>2026-04-14T23:44:16Z</time></trkpt><trkpt lat="36.81473254914445" lon="-108.12544025780241"><ele>1791.5</ele><time>2026-04-14T23:44:17Z</time></trkpt><trkpt lat="36.81487807141938" lon="-108.1254244280294"><ele>1790.75</ele><time>2026-04-14T23:44:18Z</time></trkpt><trkpt lat="36.81501586373994" lon="-108.12540546848011"><ele>1790.0</ele><time>2026-04-14T23:44:19Z</time></trkpt><trkpt lat="36.81513686552563" lon="-108.1253647159501"><ele>1789.25</ele><time>2026-04-14T23:44:20Z</time></trkpt><trkpt lat="36.81522643488241" lon="-108.12533261395433"><ele>1788.5</ele><time>2026-04-14T23:44:21Z</time></trkpt><trkpt lat="36.815362106237515" lon="-108.12534690042132"><ele>1787.75</ele><time>2026-04-14T23:44:22Z</time></trkpt><trkpt lat="36.81551765624835" lon="-108.12540966753023"><ele>1787.0</ele><time>2026-04-14T23:44:23Z</time></trkpt><trkpt lat="36.81567293699162" lon="-108.125425140414"><ele>1787.0</ele><time>2026-04-14T23:44:24Z</time></trkpt><trkpt lat="36.8158052106221" lon="-108.1253913513063"><ele>1787.0</ele><time>2026-04-14T23:44:25Z</time></trkpt><trkpt lat="36.815924657803194" lon="-108.12538233673784"><ele>1787.0</ele><time>2026-04-14T23:44:26Z</time></trkpt><trkpt lat="36.8160757906932" lon="-108.12541605755828"><ele>1787.0</ele><time>2026-04-14T23:44:27Z</time></trkpt><trkpt lat="36.81622602821838" lon="-108.1254387095389"><ele>1787.6</ele><time>2026-04-14T23:44:28Z</time></trkpt><trkpt lat="36.81635217085441" lon="-108.12544887793963"><ele>1788.1999999999998</ele><time>2026-04-14T23:44:29Z</time></trkpt><trkpt lat="36.8164364465428" lon="-108.12541488478712"><ele>1788.8</ele><time>2026-04-14T23:44:30Z</time></trkpt><trkpt lat="36.81649792482726" lon="-108.12532339522288"><ele>1789.4</ele><time>2026-04-14T23:44:31Z</time></trkpt><trkpt lat="36.81659821524715" lon="-108.12521857673002"><ele>1790.0</ele><time>2026-04-14T23:44:32Z</time></trkpt><trkpt lat="36.81673811334849" lon="-108.12518944476446"><ele>1790.75</ele><time>2026-04-14T23:44:33Z</time></trkpt><trkpt lat="36.81690319955822" lon="-108.12518004942386"><ele>1791.5</ele><time>2026-04-14T23:44:34Z</time></trkpt><trkpt lat="36.81703708280919" lon="-108.12519977320197"><ele>1792.25</ele><time>2026-04-14T23:44:35Z</time></trkpt><trkpt lat="36.81713501597304" lon="-108.12524533224472"><ele>1793.0</ele><time>2026-04-14T23:44:36Z</time></trkpt><trkpt lat="36.817218278700686" lon="-108.12529391970021"><ele>1793.0</ele><time>2026-04-14T23:44:37Z</time></trkpt><trkpt lat="36.817288699672055" lon="-108.12533372899448"><ele>1793.0000000000002</ele><time>2026-04-14T23:44:38Z</time></trkpt><trkpt lat="36.81735287361975" lon="-108.12539800957244"><ele>1793.0000000000002</ele><time>2026-04-14T23:44:39Z</time></trkpt><trkpt lat="36.81738144378441" lon="-108.12549202118124"><ele>1793.0</ele><time>2026-04-14T23:44:40Z</time></trkpt><trkpt lat="36.81738752932318" lon="-108.125641681486"><ele>1793.0</ele><time>2026-04-14T23:44:41Z</time></trkpt><trkpt lat="36.81743843073211" lon="-108.12578512054128"><ele>1793.25</ele><time>2026-04-14T23:44:42Z</time></trkpt><trkpt lat="36.81754629804103" lon="-108.1258992828674"><ele>1793.5</ele><time>2026-04-14T23:44:43Z</time></trkpt><trkpt lat="36.81765825191495" lon="-108.12599193431505"><ele>1793.75</ele><time>2026-04-14T23:44:44Z</time></trkpt><trkpt lat="36.81775147208351" lon="-108.1260232635473"><ele>1794.0</ele><time>2026-04-14T23:44:45Z</time></trkpt><trkpt lat="36.81786478524822" lon="-108.12600496383557"><ele>1794.0</ele><time>2026-04-14T23:44:46Z</time></trkpt><trkpt lat="36.818024155264716" lon="-108.12597666436395"><ele>1794.0</ele><time>2026-04-14T23:44:47Z</time></trkpt><trkpt lat="36.81815740675649" lon="-108.12599493670238"><ele>1794.0</ele><time>2026-04-14T23:44:48Z</time></trkpt><trkpt lat="36.81829063737309" lon="-108.1260284826282"><ele>1794.0</ele><time>2026-04-14T23:44:49Z</time></trkpt><trkpt lat="36.81843558035359" lon="-108.12601240553019"><ele>1792.3333333333335</ele><time>2026-04-14T23:44:50Z</time></trkpt><trkpt lat="36.81858885315454" lon="-108.12597877111251"><ele>1790.6666666666667</ele><time>2026-04-14T23:44:51Z</time></trkpt><trkpt lat="36.818740693478546" lon="-108.12598623997867"><ele>1789.0</ele><time>2026-04-14T23:44:52Z</time></trkpt><trkpt lat="36.818902344623645" lon="-108.12600482847182"><ele>1789.0</ele><time>2026-04-14T23:44:53Z</time></trkpt><trkpt lat="36.81904150215767" lon="-108.12601398219037"><ele>1789.0</ele><time>2026-04-14T23:44:54Z</time></trkpt><trkpt lat="36.819168490533784" lon="-108.12601193556067"><ele>1789.0</ele><time>2026-04-14T23:44:55Z</time></trkpt><trkpt lat="36.81929123353103" lon="-108.12600866499406"><ele>1789.0</ele><time>2026-04-14T23:44:56Z</time></trkpt><trkpt lat="36.819412293412626" lon="-108.12598043970605"><ele>1788.0</ele><time>2026-04-14T23:44:57Z</time></trkpt><trkpt lat="36.819518211556996" lon="-108.12592784248572"><ele>1787.0</ele><time>2026-04-14T23:44:58Z</time></trkpt><trkpt lat="36.81959815439112" lon="-108.12590554806387"><ele>1786.0</ele><time>2026-04-14T23:44:59Z</time></trkpt><trkpt lat="36.81965773264131" lon="-108.1259336372216"><ele>1785.0</ele><time>2026-04-14T23:45:00Z</time></trkpt><trkpt lat="36.81973589867283" lon="-108.1259854404585"><ele>1784.0</ele><time>2026-04-14T23:45:01Z</time></trkpt><trkpt lat="36.81983464148724" lon="-108.12604783124544"><ele>1784.0</ele><time>2026-04-14T23:45:02Z</time></trkpt><trkpt lat="36.819926009481286" lon="-108.12609732341006"><ele>1784.0</ele><time>2026-04-14T23:45:03Z</time></trkpt><trkpt lat="36.819994217432665" lon="-108.12614189510873"><ele>1784.0</ele><time>2026-04-14T23:45:04Z</time></trkpt><trkpt lat="36.820081972595375" lon="-108.12609240540087"><ele>1784.0</ele><time>2026-04-14T23:45:05Z</time></trkpt><trkpt lat="36.82018623970132" lon="-108.1260078364594"><ele>1784.0</ele><time>2026-04-14T23:45:06Z</time></trkpt><trkpt lat="36.82026227862605" lon="-108.12600995219603"><ele>1783.75</ele><time>2026-04-14T23:45:07Z</time></trkpt><trkpt lat="36.820349483694514" lon="-108.12607536910373"><ele>1783.5</ele><time>2026-04-14T23:45:08Z</time></trkpt><trkpt lat="36.82044673495918" lon="-108.12615132481471"><ele>1783.25</ele><time>2026-04-14T23:45:09Z</time></trkpt><trkpt lat="36.82055170706847" lon="-108.12624746521985"><ele>1783.0</ele><time>2026-04-14T23:45:10Z</time></trkpt><trkpt lat="36.82064118570189" lon="-108.1263382227969"><ele>1783.0</ele><time>2026-04-14T23:45:11Z</time></trkpt><trkpt lat="36.820748823438336" lon="-108.12646968389988"><ele>1783.0</ele><time>2026-04-14T23:45:12Z</time></trkpt><trkpt lat="36.82086720503244" lon="-108.12654523224036"><ele>1783.0</ele><time>2026-04-14T23:45:13Z</time></trkpt><trkpt lat="36.82097888095095" lon="-108.12656162690328"><ele>1783.0</ele><time>2026-04-14T23:45:14Z</time></trkpt><trkpt lat="36.8210999397214" lon="-108.12656441420904"><ele>1784.5</ele><time>2026-04-14T23:45:15Z</time></trkpt><trkpt lat="36.82122701868723" lon="-108.12660024289458"><ele>1786.0</ele><time>2026-04-14T23:45:16Z</time></trkpt><trkpt lat="36.821332413319396" lon="-108.12660229617357"><ele>1787.5</ele><time>2026-04-14T23:45:17Z</time></trkpt><trkpt lat="36.82145942026804" lon="-108.12665144617422"><ele>1789.0</ele><time>2026-04-14T23:45:18Z</time></trkpt><trkpt lat="36.821541660013494" lon="-108.12675261843405"><ele>1789.0</ele><time>2026-04-14T23:45:19Z</time></trkpt><trkpt lat="36.82163086558698" lon="-108.12687972290773"><ele>1789.0</ele><time>2026-04-14T23:45:20Z</time></trkpt><trkpt lat="36.8217328343194" lon="-108.12699373408928"><ele>1789.0</ele><time>2026-04-14T23:45:21Z</time></trkpt><trkpt lat="36.821828958024106" lon="-108.12710717000137"><ele>1789.0</ele><time>2026-04-14T23:45:22Z</time></trkpt><trkpt lat="36.82191229224166" lon="-108.12713920130722"><ele>1789.8000000000002</ele><time>2026-04-14T23:45:23Z</time></trkpt><trkpt lat="36.82203767476823" lon="-108.12711429260371"><ele>1790.6000000000001</ele><time>2026-04-14T23:45:24Z</time></trkpt><trkpt lat="36.82212632749578" lon="-108.12709610347065"><ele>1791.4</ele><time>2026-04-14T23:45:25Z</time></trkpt><trkpt lat="36.822147581377514" lon="-108.12702168631054"><ele>1792.2</ele><time>2026-04-14T23:45:26Z</time></trkpt><trkpt lat="36.8221778279023" lon="-108.12686638241838"><ele>1793.0</ele><time>2026-04-14T23:45:27Z</time></trkpt><trkpt lat="36.822242000961" lon="-108.12673897414713"><ele>1793.0</ele><time>2026-04-14T23:45:28Z</time></trkpt><trkpt lat="36.82223781917768" lon="-108.12662411803959"><ele>1793.0</ele><time>2026-04-14T23:45:29Z</time></trkpt><trkpt lat="36.82220795380369" lon="-108.12644629205889"><ele>1793.0</ele><time>2026-04-14T23:45:30Z</time></trkpt><trkpt lat="36.82217157404008" lon="-108.12626203659583"><ele>1793.0</ele><time>2026-04-14T23:45:31Z</time></trkpt><trkpt lat="36.822138614477645" lon="-108.12610047968245"><ele>1792.2</ele><time>2026-04-14T23:45:32Z</time></trkpt><trkpt lat="36.82208876822676" lon="-108.12600171899537"><ele>1791.4</ele><time>2026-04-14T23:45:33Z</time></trkpt><trkpt lat="36.82209611345843" lon="-108.12592273666321"><ele>1790.6000000000001</ele><time>2026-04-14T23:45:34Z</time></trkpt><trkpt lat="36.82215583140633" lon="-108.12580027172399"><ele>1789.8000000000002</ele><time>2026-04-14T23:45:35Z</time></trkpt><trkpt lat="36.822228653588226" lon="-108.12568416683085"><ele>1789.0</ele><time>2026-04-14T23:45:36Z</time></trkpt><trkpt lat="36.82232770358094" lon="-108.12560520559174"><ele>1789.0</ele><time>2026-04-14T23:45:37Z</time></trkpt><trkpt lat="36.82243483994225" lon="-108.12554016435269"><ele>1789.0</ele><time>2026-04-14T23:45:38Z</time></trkpt><trkpt lat="36.82253017126804" lon="-108.12543852835975"><ele>1789.0</ele><time>2026-04-14T23:45:39Z</time></trkpt><trkpt lat="36.82263537407936" lon="-108.12534539024549"><ele>1789.0</ele><time>2026-04-14T23:45:40Z</time></trkpt><trkpt lat="36.82274961226381" lon="-108.12523711402368"><ele>1789.4</ele><time>2026-04-14T23:45:41Z</time></trkpt><trkpt lat="36.82285204244497" lon="-108.1251254627047"><ele>1789.8000000000002</ele><time>2026-04-14T23:45:42Z</time></trkpt><trkpt lat="36.822933241013054" lon="-108.12502832125907"><ele>1790.1999999999998</ele><time>2026-04-14T23:45:43Z</time></trkpt><trkpt lat="36.822989198994904" lon="-108.12497501525444"><ele>1790.6</ele><time>2026-04-14T23:45:44Z</time></trkpt><trkpt lat="36.82305293998438" lon="-108.12492730984559"><ele>1791.0</ele><time>2026-04-14T23:45:45Z</time></trkpt><trkpt lat="36.82315860232636" lon="-108.12488747954374"><ele>1791.0</ele><time>2026-04-14T23:45:46Z</time></trkpt><trkpt lat="36.823251278573" lon="-108.12483827163459"><ele>1791.0</ele><time>2026-04-14T23:45:47Z</time></trkpt><trkpt lat="36.82330973882001" lon="-108.1247759981456"><ele>1791.0</ele><time>2026-04-14T23:45:48Z</time></trkpt><trkpt lat="36.82335696686791" lon="-108.12464967768652"><ele>1791.0</ele><time>2026-04-14T23:45:49Z</time></trkpt><trkpt lat="36.82338809454071" lon="-108.12453258356838"><ele>1791.0</ele><time>2026-04-14T23:45:50Z</time></trkpt><trkpt lat="36.823395242354664" lon="-108.12443852235955"><ele>1791.0</ele><time>2026-04-14T23:45:51Z</time></trkpt><trkpt lat="36.82342999225598" lon="-108.12434820030785"><ele>1791.0</ele><time>2026-04-14T23:45:52Z</time></trkpt><trkpt lat="36.823489678430285" lon="-108.1242646865945"><ele>1791.0</ele><time>2026-04-14T23:45:53Z</time></trkpt><trkpt lat="36.82358822673173" lon="-108.12422979936298"><ele>1791.0</ele><time>2026-04-14T23:45:54Z</time></trkpt><trkpt lat="36.82372315301535" lon="-108.12419941075913"><ele>1791.0</ele><time>2026-04-14T23:45:55Z</time></trkpt><trkpt lat="36.82384283848085" lon="-108.12416002765036"><ele>1791.0</ele><time>2026-04-14T23:45:56Z</time></trkpt><trkpt lat="36.82394109702872" lon="-108.12412016821452"><ele>1791.0</ele><time>2026-04-14T23:45:57Z</time></trkpt><trkpt lat="36.82401404743792" lon="-108.1241022274558"><ele>1791.0</ele><time>2026-04-14T23:45:58Z</time></trkpt><trkpt lat="36.82408820014911" lon="-108.12412779391508"><ele>1791.0</ele><time>2026-04-14T23:45:59Z</time></trkpt><trkpt lat="36.824143551815816" lon="-108.12422997860229"><ele>1791.0</ele><time>2026-04-14T23:46:00Z</time></trkpt><trkpt lat="36.82424064397881" lon="-108.12434684256105"><ele>1790.75</ele><time>2026-04-14T23:46:01Z</time></trkpt><trkpt lat="36.82438929893513" lon="-108.12443090731986"><ele>1790.5</ele><time>2026-04-14T23:46:02Z</time></trkpt><trkpt lat="36.82449973881004" lon="-108.12452548636453"><ele>1790.25</ele><time>2026-04-14T23:46:03Z</time></trkpt><trkpt lat="36.824579712825205" lon="-108.12459345833206"><ele>1790.0</ele><time>2026-04-14T23:46:04Z</time></trkpt><trkpt lat="36.82468453236745" lon="-108.1246183517977"><ele>1790.0</ele><time>2026-04-14T23:46:05Z</time></trkpt><trkpt lat="36.8247794651977" lon="-108.12465615209096"><ele>1790.0</ele><time>2026-04-14T23:46:06Z</time></trkpt><trkpt lat="36.82486482155558" lon="-108.12475072147568"><ele>1790.0</ele><time>2026-04-14T23:46:07Z</time></trkpt><trkpt lat="36.82495119787944" lon="-108.12484027409633"><ele>1790.0</ele><time>2026-04-14T23:46:08Z</time></trkpt><trkpt lat="36.8250610790845" lon="-108.1248860497349"><ele>1790.0</ele><time>2026-04-14T23:46:09Z</time></trkpt><trkpt lat="36.82517008412172" lon="-108.12495166559556"><ele>1791.0</ele><time>2026-04-14T23:46:10Z</time></trkpt><trkpt lat="36.82525162266464" lon="-108.12496541827619"><ele>1792.0</ele><time>2026-04-14T23:46:11Z</time></trkpt><trkpt lat="36.825320409191825" lon="-108.12491221576164"><ele>1793.0</ele><time>2026-04-14T23:46:12Z</time></trkpt><trkpt lat="36.82540820788423" lon="-108.12479372792079"><ele>1794.0</ele><time>2026-04-14T23:46:13Z</time></trkpt><trkpt lat="36.825524848578276" lon="-108.12470057461458"><ele>1795.0</ele><time>2026-04-14T23:46:14Z</time></trkpt><trkpt lat="36.8256643059585" lon="-108.12464482858795"><ele>1795.0</ele><time>2026-04-14T23:46:15Z</time></trkpt><trkpt lat="36.82578900383475" lon="-108.12457515722306"><ele>1795.0</ele><time>2026-04-14T23:46:16Z</time></trkpt><trkpt lat="36.825892245181485" lon="-108.1244584605746"><ele>1795.0</ele><time>2026-04-14T23:46:17Z</time></trkpt><trkpt lat="36.82602406752304" lon="-108.12434807703522"><ele>1795.0</ele><time>2026-04-14T23:46:18Z</time></trkpt><trkpt lat="36.826144146664" lon="-108.12425116938738"><ele>1795.5</ele><time>2026-04-14T23:46:19Z</time></trkpt><trkpt lat="36.82625705016239" lon="-108.12413645022264"><ele>1796.0</ele><time>2026-04-14T23:46:20Z</time></trkpt><trkpt lat="36.82638716130573" lon="-108.12401957818686"><ele>1796.5</ele><time>2026-04-14T23:46:21Z</time></trkpt><trkpt lat="36.82650292199772" lon="-108.12391777892482"><ele>1797.0</ele><time>2026-04-14T23:46:22Z</time></trkpt><trkpt lat="36.82661321872046" lon="-108.12380855098004"><ele>1797.0</ele><time>2026-04-14T23:46:23Z</time></trkpt><trkpt lat="36.8267233882514" lon="-108.12367666049276"><ele>1797.0</ele><time>2026-04-14T23:46:24Z</time></trkpt><trkpt lat="36.82683802528911" lon="-108.12355062385656"><ele>1797.0</ele><time>2026-04-14T23:46:25Z</time></trkpt><trkpt lat="36.82694057399614" lon="-108.12344204408934"><ele>1797.0</ele><time>2026-04-14T23:46:26Z</time></trkpt><trkpt lat="36.82706519721941" lon="-108.12332252994263"><ele>1796.6666666666665</ele><time>2026-04-14T23:46:27Z</time></trkpt><trkpt lat="36.82720206304533" lon="-108.12319651013543"><ele>1796.3333333333333</ele><time>2026-04-14T23:46:28Z</time></trkpt><trkpt lat="36.827349656527545" lon="-108.12306977214114"><ele>1796.0</ele><time>2026-04-14T23:46:29Z</time></trkpt><trkpt lat="36.827486927253986" lon="-108.12292515776336"><ele>1796.0</ele><time>2026-04-14T23:46:30Z</time></trkpt><trkpt lat="36.827625728475205" lon="-108.1227949038794"><ele>1796.0</ele><time>2026-04-14T23:46:31Z</time></trkpt><trkpt lat="36.82776353529906" lon="-108.12266402290291"><ele>1796.0</ele><time>2026-04-14T23:46:32Z</time></trkpt><trkpt lat="36.82786949323973" lon="-108.12254858713533"><ele>1795.25</ele><time>2026-04-14T23:46:33Z</time></trkpt><trkpt lat="36.82797365253455" lon="-108.12244354116677"><ele>1794.5</ele><time>2026-04-14T23:46:34Z</time></trkpt><trkpt lat="36.82809397197516" lon="-108.12233265598309"><ele>1793.75</ele><time>2026-04-14T23:46:35Z</time></trkpt><trkpt lat="36.82820929083742" lon="-108.12224110607505"><ele>1793.0</ele><time>2026-04-14T23:46:36Z</time></trkpt><trkpt lat="36.82832521144508" lon="-108.122158650411"><ele>1793.0</ele><time>2026-04-14T23:46:37Z</time></trkpt><trkpt lat="36.82846470338233" lon="-108.12210453642012"><ele>1793.0</ele><time>2026-04-14T23:46:38Z</time></trkpt><trkpt lat="36.8286119982754" lon="-108.12199543405083"><ele>1793.0</ele><time>2026-04-14T23:46:39Z</time></trkpt><trkpt lat="36.82873384750008" lon="-108.12181705522573"><ele>1793.0</ele><time>2026-04-14T23:46:40Z</time></trkpt><trkpt lat="36.82888251586398" lon="-108.12168286494628"><ele>1793.0</ele><time>2026-04-14T23:46:41Z</time></trkpt><trkpt lat="36.82900755978299" lon="-108.12155562717496"><ele>1793.0</ele><time>2026-04-14T23:46:42Z</time></trkpt><trkpt lat="36.829130983992876" lon="-108.12144585657602"><ele>1793.0</ele><time>2026-04-14T23:46:43Z</time></trkpt><trkpt lat="36.82922449515109" lon="-108.1213628523076"><ele>1793.0000000000002</ele><time>2026-04-14T23:46:44Z</time></trkpt><trkpt lat="36.829284279490025" lon="-108.12129491736974"><ele>1793.0000000000002</ele><time>2026-04-14T23:46:45Z</time></trkpt><trkpt lat="36.82936451840825" lon="-108.12121748512592"><ele>1793.0</ele><time>2026-04-14T23:46:47Z</time></trkpt><trkpt lat="36.829437859073046" lon="-108.12118363863335"><ele>1793.0</ele><time>2026-04-14T23:46:49Z</time></trkpt><trkpt lat="36.82959467343465" lon="-108.12119346756464"><ele>1792.0</ele><time>2026-04-14T23:46:51Z</time></trkpt><trkpt lat="36.82970796443147" lon="-108.12120358418498"><ele>1791.0</ele><time>2026-04-14T23:46:52Z</time></trkpt><trkpt lat="36.829845701102236" lon="-108.12121053647166"><ele>1790.0</ele><time>2026-04-14T23:46:53Z</time></trkpt><trkpt lat="36.82997901163268" lon="-108.1212197181707"><ele>1789.0</ele><time>2026-04-14T23:46:54Z</time></trkpt><trkpt lat="36.83008442705284" lon="-108.12121040065404"><ele>1787.75</ele><time>2026-04-14T23:46:55Z</time></trkpt><trkpt lat="36.83019490537296" lon="-108.12117966370045"><ele>1786.5</ele><time>2026-04-14T23:46:56Z</time></trkpt><trkpt lat="36.830340197595156" lon="-108.12119092485985"><ele>1785.25</ele><time>2026-04-14T23:46:57Z</time></trkpt><trkpt lat="36.83045139810984" lon="-108.12120005071343"><ele>1784.0</ele><time>2026-04-14T23:46:58Z</time></trkpt><trkpt lat="36.830585727964134" lon="-108.12121434952572"><ele>1784.0</ele><time>2026-04-14T23:46:59Z</time></trkpt><trkpt lat="36.83069726901487" lon="-108.12124891861713"><ele>1784.0</ele><time>2026-04-14T23:47:00Z</time></trkpt><trkpt lat="36.83080129868552" lon="-108.12128582012912"><ele>1784.0</ele><time>2026-04-14T23:47:01Z</time></trkpt><trkpt lat="36.83088687237659" lon="-108.1213217029051"><ele>1784.0</ele><time>2026-04-14T23:47:02Z</time></trkpt><trkpt lat="36.83097619093627" lon="-108.12131050038559"><ele>1784.0</ele><time>2026-04-14T23:47:03Z</time></trkpt><trkpt lat="36.83109705731473" lon="-108.12129190975794"><ele>1784.0</ele><time>2026-04-14T23:47:04Z</time></trkpt><trkpt lat="36.83119970194832" lon="-108.12131057723771"><ele>1784.0</ele><time>2026-04-14T23:47:05Z</time></trkpt><trkpt lat="36.83129040090667" lon="-108.12132534340452"><ele>1784.0</ele><time>2026-04-14T23:47:06Z</time></trkpt><trkpt lat="36.8314042298963" lon="-108.12135572711682"><ele>1784.0</ele><time>2026-04-14T23:47:07Z</time></trkpt><trkpt lat="36.831522772582275" lon="-108.12139574277491"><ele>1784.0</ele><time>2026-04-14T23:47:08Z</time></trkpt><trkpt lat="36.8316562505038" lon="-108.1214236496061"><ele>1784.0</ele><time>2026-04-14T23:47:09Z</time></trkpt><trkpt lat="36.831780976524044" lon="-108.12144319307508"><ele>1784.0</ele><time>2026-04-14T23:47:10Z</time></trkpt><trkpt lat="36.831904507263076" lon="-108.12147243003331"><ele>1784.0</ele><time>2026-04-14T23:47:11Z</time></trkpt><trkpt lat="36.832041782355574" lon="-108.12151496813941"><ele>1784.0</ele><time>2026-04-14T23:47:12Z</time></trkpt><trkpt lat="36.83219081026422" lon="-108.12156478768865"><ele>1784.3333333333333</ele><time>2026-04-14T23:47:13Z</time></trkpt><trkpt lat="36.83233409352663" lon="-108.12161809822837"><ele>1784.6666666666665</ele><time>2026-04-14T23:47:14Z</time></trkpt><trkpt lat="36.83248596434735" lon="-108.1216941512809"><ele>1785.0</ele><time>2026-04-14T23:47:15Z</time></trkpt><trkpt lat="36.8326417301929" lon="-108.1218089649967"><ele>1785.6666666666665</ele><time>2026-04-14T23:47:16Z</time></trkpt><trkpt lat="36.83279421865207" lon="-108.12192709830667"><ele>1786.3333333333333</ele><time>2026-04-14T23:47:17Z</time></trkpt><trkpt lat="36.83293159047555" lon="-108.12202182957796"><ele>1787.0</ele><time>2026-04-14T23:47:18Z</time></trkpt><trkpt lat="36.83305892245645" lon="-108.12209008912151"><ele>1787.0</ele><time>2026-04-14T23:47:19Z</time></trkpt><trkpt lat="36.83316067054366" lon="-108.12214274161803"><ele>1786.9999999999998</ele><time>2026-04-14T23:47:20Z</time></trkpt><trkpt lat="36.833239744717616" lon="-108.12214902649426"><ele>1786.9999999999998</ele><time>2026-04-14T23:47:21Z</time></trkpt><trkpt lat="36.83332930887225" lon="-108.12213090399315"><ele>1787.0</ele><time>2026-04-14T23:47:22Z</time></trkpt><trkpt lat="36.833445676194025" lon="-108.12215028332751"><ele>1787.0</ele><time>2026-04-14T23:47:23Z</time></trkpt><trkpt lat="36.833556894216116" lon="-108.1222099170993"><ele>1789.0</ele><time>2026-04-14T23:47:24Z</time></trkpt><trkpt lat="36.833676157724135" lon="-108.12227386577638"><ele>1791.0</ele><time>2026-04-14T23:47:25Z</time></trkpt><trkpt lat="36.83378902780206" lon="-108.12232883367851"><ele>1793.0</ele><time>2026-04-14T23:47:26.001Z</time></trkpt><trkpt lat="36.83387380857345" lon="-108.12239810150157"><ele>1795.0</ele><time>2026-04-14T23:47:27.001Z</time></trkpt><trkpt lat="36.83392324542063" lon="-108.12251665093413"><ele>1795.0</ele><time>2026-04-14T23:47:28.001Z</time></trkpt><trkpt lat="36.83398193253454" lon="-108.12264981854172"><ele>1795.0</ele><time>2026-04-14T23:47:29.001Z</time></trkpt><trkpt lat="36.834046774552526" lon="-108.12273946692854"><ele>1795.0</ele><time>2026-04-14T23:47:30.001Z</time></trkpt><trkpt lat="36.83415792691901" lon="-108.12274409276937"><ele>1795.0</ele><time>2026-04-14T23:47:32.001Z</time></trkpt><trkpt lat="36.834239479619704" lon="-108.12267481943852"><ele>1795.0</ele><time>2026-04-14T23:47:33.001Z</time></trkpt><trkpt lat="36.83435083473893" lon="-108.12260815748392"><ele>1796.0</ele><time>2026-04-14T23:47:34.001Z</time></trkpt><trkpt lat="36.8344875785565" lon="-108.12256452876872"><ele>1797.0</ele><time>2026-04-14T23:47:35Z</time></trkpt><trkpt lat="36.834623562310114" lon="-108.1225153767597"><ele>1798.0</ele><time>2026-04-14T23:47:36Z</time></trkpt><trkpt lat="36.83475824608729" lon="-108.12247123102607"><ele>1799.0</ele><time>2026-04-14T23:47:37Z</time></trkpt><trkpt lat="36.834905818481424" lon="-108.12244954986166"><ele>1799.0</ele><time>2026-04-14T23:47:38Z</time></trkpt><trkpt lat="36.835039245947065" lon="-108.1224061804961"><ele>1799.0</ele><time>2026-04-14T23:47:39Z</time></trkpt><trkpt lat="36.835134616284506" lon="-108.12238873968431"><ele>1799.0</ele><time>2026-04-14T23:47:40Z</time></trkpt><trkpt lat="36.83525859857841" lon="-108.12241976095262"><ele>1799.0</ele><time>2026-04-14T23:47:41Z</time></trkpt><trkpt lat="36.8354081978284" lon="-108.12245328870056"><ele>1799.6666666666665</ele><time>2026-04-14T23:47:42Z</time></trkpt><trkpt lat="36.835569762192314" lon="-108.1224844342619"><ele>1800.3333333333335</ele><time>2026-04-14T23:47:43Z</time></trkpt><trkpt lat="36.835710032821225" lon="-108.12245842556831"><ele>1801.0</ele><time>2026-04-14T23:47:44Z</time></trkpt><trkpt lat="36.83586198961848" lon="-108.12238788743218"><ele>1800.8</ele><time>2026-04-14T23:47:45Z</time></trkpt><trkpt lat="36.83599084387969" lon="-108.12232395079867"><ele>1800.6</ele><time>2026-04-14T23:47:46Z</time></trkpt><trkpt lat="36.83610779784834" lon="-108.1222927057175"><ele>1800.4</ele><time>2026-04-14T23:47:47Z</time></trkpt><trkpt lat="36.83619314301351" lon="-108.1222276785441"><ele>1800.2</ele><time>2026-04-14T23:47:48Z</time></trkpt><trkpt lat="36.83628135794868" lon="-108.12222151722756"><ele>1800.0</ele><time>2026-04-14T23:47:49Z</time></trkpt><trkpt lat="36.836420591149064" lon="-108.12223023015167"><ele>1800.0</ele><time>2026-04-14T23:47:50Z</time></trkpt><trkpt lat="36.836573328786116" lon="-108.12222391410555"><ele>1800.0</ele><time>2026-04-14T23:47:51Z</time></trkpt><trkpt lat="36.83670509902703" lon="-108.1222380010467"><ele>1800.0</ele><time>2026-04-14T23:47:52Z</time></trkpt><trkpt lat="36.83680814347434" lon="-108.12220894883465"><ele>1800.0</ele><time>2026-04-14T23:47:53Z</time></trkpt><trkpt lat="36.83692310298839" lon="-108.12220869153215"><ele>1800.0</ele><time>2026-04-14T23:47:54Z</time></trkpt><trkpt lat="36.836996449172375" lon="-108.12222396484385"><ele>1800.0</ele><time>2026-04-14T23:47:55Z</time></trkpt><trkpt lat="36.83714889762804" lon="-108.12218162608059"><ele>1800.0</ele><time>2026-04-14T23:47:57Z</time></trkpt><trkpt lat="36.83724698126264" lon="-108.1221726845612"><ele>1800.0</ele><time>2026-04-14T23:47:58Z</time></trkpt><trkpt lat="36.8373529249447" lon="-108.12219094449951"><ele>1800.0</ele><time>2026-04-14T23:47:59Z</time></trkpt><trkpt lat="36.837498554222016" lon="-108.1221639738527"><ele>1800.0</ele><time>2026-04-14T23:48:00Z</time></trkpt><trkpt lat="36.83761257188687" lon="-108.1221279196694"><ele>1800.0</ele><time>2026-04-14T23:48:01Z</time></trkpt><trkpt lat="36.83770594421387" lon="-108.12210243435216"><ele>1800.0</ele><time>2026-04-14T23:48:02Z</time></trkpt><trkpt lat="36.83781340365382" lon="-108.12208812915688"><ele>1800.0</ele><time>2026-04-14T23:48:03Z</time></trkpt><trkpt lat="36.837958976237445" lon="-108.12212690139705"><ele>1801.0</ele><time>2026-04-14T23:48:04Z</time></trkpt><trkpt lat="36.83810553586145" lon="-108.12214279577282"><ele>1802.0</ele><time>2026-04-14T23:48:05Z</time></trkpt><trkpt lat="36.83824562811635" lon="-108.12214097774364"><ele>1803.0</ele><time>2026-04-14T23:48:06Z</time></trkpt><trkpt lat="36.83836398630783" lon="-108.1221251396671"><ele>1804.0</ele><time>2026-04-14T23:48:07Z</time></trkpt><trkpt lat="36.838480490008486" lon="-108.12207910280658"><ele>1806.6666666666667</ele><time>2026-04-14T23:48:08Z</time></trkpt><trkpt lat="36.838631548978114" lon="-108.12204989419122"><ele>1809.3333333333335</ele><time>2026-04-14T23:48:09Z</time></trkpt><trkpt lat="36.838783826655714" lon="-108.12202862784338"><ele>1812.0</ele><time>2026-04-14T23:48:10Z</time></trkpt><trkpt lat="36.83894597195816" lon="-108.12195728921581"><ele>1812.0</ele><time>2026-04-14T23:48:11Z</time></trkpt><trkpt lat="36.83911658776875" lon="-108.12183787087328"><ele>1812.0</ele><time>2026-04-14T23:48:12Z</time></trkpt><trkpt lat="36.83926782897301" lon="-108.12176610423813"><ele>1812.0</ele><time>2026-04-14T23:48:13Z</time></trkpt><trkpt lat="36.83937044824759" lon="-108.12171055581985"><ele>1813.0</ele><time>2026-04-14T23:48:14Z</time></trkpt><trkpt lat="36.83941849281412" lon="-108.12153922616027"><ele>1814.0</ele><time>2026-04-14T23:48:16Z</time></trkpt><trkpt lat="36.83945819872027" lon="-108.12144436536731"><ele>1815.0</ele><time>2026-04-14T23:48:17Z</time></trkpt><trkpt lat="36.839599552975045" lon="-108.121358090119"><ele>1816.0</ele><time>2026-04-14T23:48:18.999Z</time></trkpt><trkpt lat="36.83967031114327" lon="-108.1213673230034"><ele>1816.0</ele><time>2026-04-14T23:48:19.999Z</time></trkpt><trkpt lat="36.83975874506205" lon="-108.12140424374367"><ele>1816.0</ele><time>2026-04-14T23:48:20.999Z</time></trkpt><trkpt lat="36.839853394513355" lon="-108.12141665663897"><ele>1816.0</ele><time>2026-04-14T23:48:21.999Z</time></trkpt><trkpt lat="36.83994922108066" lon="-108.12136021145525"><ele>1816.0</ele><time>2026-04-14T23:48:22.999Z</time></trkpt><trkpt lat="36.84005989994862" lon="-108.12126908652267"><ele>1816.0</ele><time>2026-04-14T23:48:23.999Z</time></trkpt><trkpt lat="36.84015744049806" lon="-108.12121772166617"><ele>1814.75</ele><time>2026-04-14T23:48:24.999Z</time></trkpt><trkpt lat="36.8402618983708" lon="-108.12116076968414"><ele>1813.5</ele><time>2026-04-14T23:48:25.999Z</time></trkpt><trkpt lat="36.84036153709496" lon="-108.12107091306794"><ele>1812.25</ele><time>2026-04-14T23:48:26.999Z</time></trkpt><trkpt lat="36.84041128016585" lon="-108.12096166470837"><ele>1811.0</ele><time>2026-04-14T23:48:27.999Z</time></trkpt><trkpt lat="36.84045795134812" lon="-108.1208163653977"><ele>1810.1999999999998</ele><time>2026-04-14T23:48:28.999Z</time></trkpt><trkpt lat="36.84049859884649" lon="-108.12067875049848"><ele>1809.3999999999999</ele><time>2026-04-14T23:48:29.999Z</time></trkpt><trkpt lat="36.84053808443189" lon="-108.12054836107559"><ele>1808.6</ele><time>2026-04-14T23:48:30.999Z</time></trkpt><trkpt lat="36.84057947101671" lon="-108.1204250253263"><ele>1807.8</ele><time>2026-04-14T23:48:31.999Z</time></trkpt><trkpt lat="36.84064463448916" lon="-108.12032236939298"><ele>1807.0</ele><time>2026-04-14T23:48:32.999Z</time></trkpt><trkpt lat="36.84071475833701" lon="-108.1202052266687"><ele>1807.0</ele><time>2026-04-14T23:48:33.999Z</time></trkpt><trkpt lat="36.840771309047845" lon="-108.12013826551964"><ele>1806.9999999999998</ele><time>2026-04-14T23:48:34.999Z</time></trkpt><trkpt lat="36.840879411550304" lon="-108.12009694272402"><ele>1806.9999999999998</ele><time>2026-04-14T23:48:35.999Z</time></trkpt><trkpt lat="36.840969912665685" lon="-108.12000310422962"><ele>1807.0</ele><time>2026-04-14T23:48:36.999Z</time></trkpt><trkpt lat="36.841059231075185" lon="-108.11991653265846"><ele>1807.0</ele><time>2026-04-14T23:48:37.999Z</time></trkpt><trkpt lat="36.84117774226638" lon="-108.11987881009667"><ele>1805.5</ele><time>2026-04-14T23:48:38.999Z</time></trkpt><trkpt lat="36.84131424326886" lon="-108.11981998637633"><ele>1804.0</ele><time>2026-04-14T23:48:39.999Z</time></trkpt><trkpt lat="36.84145337500826" lon="-108.11979506241063"><ele>1802.5</ele><time>2026-04-14T23:48:40.999Z</time></trkpt><trkpt lat="36.841598432056536" lon="-108.11981449160058"><ele>1801.0</ele><time>2026-04-14T23:48:41.999Z</time></trkpt><trkpt lat="36.8417377840779" lon="-108.11981240569229"><ele>1802.25</ele><time>2026-04-14T23:48:42.999Z</time></trkpt><trkpt lat="36.841875218256995" lon="-108.11980450128162"><ele>1803.5</ele><time>2026-04-14T23:48:43.999Z</time></trkpt><trkpt lat="36.84198832391355" lon="-108.11977193108741"><ele>1804.75</ele><time>2026-04-14T23:48:44.999Z</time></trkpt><trkpt lat="36.842128423824924" lon="-108.11972378935126"><ele>1806.0</ele><time>2026-04-14T23:48:45.999Z</time></trkpt><trkpt lat="36.8422275570316" lon="-108.11965167755638"><ele>1806.0</ele><time>2026-04-14T23:48:46.999Z</time></trkpt><trkpt lat="36.84234379386262" lon="-108.11962807013388"><ele>1806.0</ele><time>2026-04-14T23:48:47.999Z</time></trkpt><trkpt lat="36.84246904920854" lon="-108.11963425400936"><ele>1806.0</ele><time>2026-04-14T23:48:48.999Z</time></trkpt><trkpt lat="36.842552340480175" lon="-108.11958886909987"><ele>1806.0</ele><time>2026-04-14T23:48:49.999Z</time></trkpt><trkpt lat="36.84262224660309" lon="-108.11950144791555"><ele>1806.0</ele><time>2026-04-14T23:48:50.999Z</time></trkpt><trkpt lat="36.842678546792804" lon="-108.11944567116623"><ele>1806.1999999999998</ele><time>2026-04-14T23:48:51.999Z</time></trkpt><trkpt lat="36.842726820192404" lon="-108.11938666322257"><ele>1806.3999999999999</ele><time>2026-04-14T23:48:52.999Z</time></trkpt><trkpt lat="36.842769241763904" lon="-108.11929668377873"><ele>1806.6</ele><time>2026-04-14T23:48:53.999Z</time></trkpt><trkpt lat="36.84282637480164" lon="-108.11915558585508"><ele>1806.8</ele><time>2026-04-14T23:48:54.999Z</time></trkpt><trkpt lat="36.84292005862625" lon="-108.11904672872356"><ele>1807.0</ele><time>2026-04-14T23:48:55.999Z</time></trkpt><trkpt lat="36.843006411835546" lon="-108.11895008928126"><ele>1807.0</ele><time>2026-04-14T23:48:56.999Z</time></trkpt><trkpt lat="36.843052090892165" lon="-108.11884105276958"><ele>1806.9999999999998</ele><time>2026-04-14T23:48:57.999Z</time></trkpt><trkpt lat="36.84311045745322" lon="-108.11872385855456"><ele>1806.9999999999998</ele><time>2026-04-14T23:48:58.999Z</time></trkpt><trkpt lat="36.84314351640959" lon="-108.11860183690727"><ele>1807.0</ele><time>2026-04-14T23:48:59.999Z</time></trkpt><trkpt lat="36.84319429737254" lon="-108.11854326743781"><ele>1807.0</ele><time>2026-04-14T23:49:00.999Z</time></trkpt><trkpt lat="36.843310199706195" lon="-108.11854070607006"><ele>1807.0</ele><time>2026-04-14T23:49:01.999Z</time></trkpt><trkpt lat="36.84344430817387" lon="-108.11850371035082"><ele>1806.9999999999998</ele><time>2026-04-14T23:49:02.999Z</time></trkpt><trkpt lat="36.84355573437336" lon="-108.11843824346862"><ele>1806.9999999999998</ele><time>2026-04-14T23:49:03.999Z</time></trkpt><trkpt lat="36.84364556278869" lon="-108.11837505807387"><ele>1807.0</ele><time>2026-04-14T23:49:04.999Z</time></trkpt><trkpt lat="36.843696332354355" lon="-108.11830544759587"><ele>1807.0</ele><time>2026-04-14T23:49:05.999Z</time></trkpt><trkpt lat="36.84374936623478" lon="-108.11817573340049"><ele>1806.1999999999998</ele><time>2026-04-14T23:49:06.999Z</time></trkpt><trkpt lat="36.843812931911486" lon="-108.11803258628416"><ele>1805.3999999999999</ele><time>2026-04-14T23:49:07.999Z</time></trkpt><trkpt lat="36.843877540376816" lon="-108.11792924954534"><ele>1804.6000000000001</ele><time>2026-04-14T23:49:08.999Z</time></trkpt><trkpt lat="36.84394292849227" lon="-108.1178477525799"><ele>1803.8000000000002</ele><time>2026-04-14T23:49:09.999Z</time></trkpt><trkpt lat="36.84402674406814" lon="-108.1177945147617"><ele>1803.0</ele><time>2026-04-14T23:49:10.999Z</time></trkpt><trkpt lat="36.84412140018106" lon="-108.11770881986034"><ele>1803.0</ele><time>2026-04-14T23:49:11.999Z</time></trkpt><trkpt lat="36.844180871868105" lon="-108.11759791727398"><ele>1803.0000000000002</ele><time>2026-04-14T23:49:12.999Z</time></trkpt><trkpt lat="36.844221660633" lon="-108.11750067460561"><ele>1803.0000000000002</ele><time>2026-04-14T23:49:13.999Z</time></trkpt><trkpt lat="36.84429283133179" lon="-108.11745132597018"><ele>1803.0</ele><time>2026-04-14T23:49:14.999Z</time></trkpt><trkpt lat="36.844398324744844" lon="-108.11738248639547"><ele>1803.0</ele><time>2026-04-14T23:49:15.999Z</time></trkpt><trkpt lat="36.84449968076621" lon="-108.11729480091431"><ele>1801.5</ele><time>2026-04-14T23:49:16.999Z</time></trkpt><trkpt lat="36.84457175170965" lon="-108.11718134046784"><ele>1800.0</ele><time>2026-04-14T23:49:17.999Z</time></trkpt><trkpt lat="36.84461231037046" lon="-108.11699848110938"><ele>1798.5</ele><time>2026-04-14T23:49:18.999Z</time></trkpt><trkpt lat="36.84466296108966" lon="-108.11683119289548"><ele>1797.0</ele><time>2026-04-14T23:49:19.999Z</time></trkpt><trkpt lat="36.84471777218597" lon="-108.11670773512078"><ele>1797.0</ele><time>2026-04-14T23:49:20.999Z</time></trkpt><trkpt lat="36.84480109050994" lon="-108.11657984013632"><ele>1797.0</ele><time>2026-04-14T23:49:21.999Z</time></trkpt><trkpt lat="36.84491700906882" lon="-108.11647961780625"><ele>1797.0</ele><time>2026-04-14T23:49:22.999Z</time></trkpt><trkpt lat="36.84504551198563" lon="-108.11641947812"><ele>1797.0</ele><time>2026-04-14T23:49:23.999Z</time></trkpt><trkpt lat="36.84515850468519" lon="-108.11634804962932"><ele>1798.6</ele><time>2026-04-14T23:49:25Z</time></trkpt><trkpt lat="36.84522834356433" lon="-108.11621343359913"><ele>1800.1999999999998</ele><time>2026-04-14T23:49:26Z</time></trkpt><trkpt lat="36.84527623296484" lon="-108.11609445149661"><ele>1801.8</ele><time>2026-04-14T23:49:27Z</time></trkpt><trkpt lat="36.84530450748336" lon="-108.11599799675918"><ele>1803.4</ele><time>2026-04-14T23:49:28Z</time></trkpt><trkpt lat="36.845298257315164" lon="-108.11590955113068"><ele>1805.0</ele><time>2026-04-14T23:49:29Z</time></trkpt><trkpt lat="36.84522822552533" lon="-108.11583922056889"><ele>1805.0</ele><time>2026-04-14T23:49:30Z</time></trkpt><trkpt lat="36.845134718157695" lon="-108.11575685937436"><ele>1805.0</ele><time>2026-04-14T23:49:31Z</time></trkpt><trkpt lat="36.84503646712362" lon="-108.11564554518306"><ele>1805.0</ele><time>2026-04-14T23:49:32Z</time></trkpt><trkpt lat="36.8449579651945" lon="-108.11552749079456"><ele>1805.0</ele><time>2026-04-14T23:49:33Z</time></trkpt><trkpt lat="36.84490751119088" lon="-108.11541215709688"><ele>1805.2</ele><time>2026-04-14T23:49:34Z</time></trkpt><trkpt lat="36.844868562485104" lon="-108.11527942103447"><ele>1805.4</ele><time>2026-04-14T23:49:35Z</time></trkpt><trkpt lat="36.844840815702874" lon="-108.11512291622121"><ele>1805.6</ele><time>2026-04-14T23:49:36Z</time></trkpt><trkpt lat="36.844817879469055" lon="-108.11498835574312"><ele>1805.8</ele><time>2026-04-14T23:49:37Z</time></trkpt><trkpt lat="36.84485838290109" lon="-108.11488995402148"><ele>1806.0</ele><time>2026-04-14T23:49:39Z</time></trkpt><trkpt lat="36.844946929668396" lon="-108.11481921016139"><ele>1807.0</ele><time>2026-04-14T23:49:40Z</time></trkpt><trkpt lat="36.84498503510824" lon="-108.11471261969766"><ele>1808.0</ele><time>2026-04-14T23:49:41Z</time></trkpt><trkpt lat="36.84495658902955" lon="-108.11460556330603"><ele>1809.0</ele><time>2026-04-14T23:49:42Z</time></trkpt><trkpt lat="36.844911616667275" lon="-108.11449748294102"><ele>1810.0</ele><time>2026-04-14T23:49:43Z</time></trkpt><trkpt lat="36.84492701215545" lon="-108.11441263881304"><ele>1811.0</ele><time>2026-04-14T23:49:44Z</time></trkpt><trkpt lat="36.84498212491013" lon="-108.11430948868798"><ele>1811.0</ele><time>2026-04-14T23:49:45Z</time></trkpt><trkpt lat="36.844994367008475" lon="-108.11418663342032"><ele>1811.0</ele><time>2026-04-14T23:49:46Z</time></trkpt><trkpt lat="36.84495897837078" lon="-108.1140424967256"><ele>1811.0</ele><time>2026-04-14T23:49:47Z</time></trkpt><trkpt lat="36.844910697262996" lon="-108.11394049193963"><ele>1811.0</ele><time>2026-04-14T23:49:48Z</time></trkpt><trkpt lat="36.844916421960264" lon="-108.1138289305147"><ele>1811.0</ele><time>2026-04-14T23:49:50Z</time></trkpt><trkpt lat="36.84496391486955" lon="-108.11373843779947"><ele>1812.0</ele><time>2026-04-14T23:49:51Z</time></trkpt><trkpt lat="36.844947007319334" lon="-108.11362612939074"><ele>1813.0</ele><time>2026-04-14T23:49:52Z</time></trkpt><trkpt lat="36.844900320172776" lon="-108.11351185777923"><ele>1814.0</ele><time>2026-04-14T23:49:53Z</time></trkpt><trkpt lat="36.8448369421458" lon="-108.11343522598662"><ele>1815.0</ele><time>2026-04-14T23:49:54Z</time></trkpt><trkpt lat="36.84474667590647" lon="-108.11336300016039"><ele>1816.0</ele><time>2026-04-14T23:49:55Z</time></trkpt><trkpt lat="36.84464764738725" lon="-108.1132615337868"><ele>1816.0</ele><time>2026-04-14T23:49:56Z</time></trkpt><trkpt lat="36.84459160509875" lon="-108.11315119533889"><ele>1816.0</ele><time>2026-04-14T23:49:57Z</time></trkpt><trkpt lat="36.84453618497123" lon="-108.11299786677012"><ele>1816.0</ele><time>2026-04-14T23:49:57.999Z</time></trkpt><trkpt lat="36.844468855529925" lon="-108.11285757910136"><ele>1816.0</ele><time>2026-04-14T23:49:58.999Z</time></trkpt><trkpt lat="36.844394923634695" lon="-108.112754828643"><ele>1816.0</ele><time>2026-04-14T23:49:59.999Z</time></trkpt><trkpt lat="36.84434108455767" lon="-108.112589546596"><ele>1816.0</ele><time>2026-04-14T23:50:00.999Z</time></trkpt><trkpt lat="36.84433922195416" lon="-108.11240258845356"><ele>1816.0</ele><time>2026-04-14T23:50:01.999Z</time></trkpt><trkpt lat="36.84436279752465" lon="-108.11220997633913"><ele>1816.0</ele><time>2026-04-14T23:50:02.999Z</time></trkpt><trkpt lat="36.844360842649635" lon="-108.1120018085773"><ele>1816.4</ele><time>2026-04-14T23:50:03.999Z</time></trkpt><trkpt lat="36.84433120298175" lon="-108.11179093590988"><ele>1816.8</ele><time>2026-04-14T23:50:04.999Z</time></trkpt><trkpt lat="36.84431075709371" lon="-108.11165518163168"><ele>1817.2000000000003</ele><time>2026-04-14T23:50:05.999Z</time></trkpt><trkpt lat="36.844297988288226" lon="-108.11156057296331"><ele>1817.6000000000001</ele><time>2026-04-14T23:50:06.999Z</time></trkpt><trkpt lat="36.84425027291138" lon="-108.1114907114731"><ele>1818.0</ele><time>2026-04-14T23:50:07.999Z</time></trkpt><trkpt lat="36.84418499706523" lon="-108.11142729567037"><ele>1817.8000000000002</ele><time>2026-04-14T23:50:08.999Z</time></trkpt><trkpt lat="36.84409622947319" lon="-108.11140665641827"><ele>1817.6000000000001</ele><time>2026-04-14T23:50:09.999Z</time></trkpt><trkpt lat="36.844016715567506" lon="-108.11144045624278"><ele>1817.3999999999999</ele><time>2026-04-14T23:50:10.999Z</time></trkpt><trkpt lat="36.84394116053181" lon="-108.11148903215872"><ele>1817.1999999999998</ele><time>2026-04-14T23:50:11.999Z</time></trkpt><trkpt lat="36.843836856327044" lon="-108.11152641204279"><ele>1817.0</ele><time>2026-04-14T23:50:12.999Z</time></trkpt><trkpt lat="36.843721570758774" lon="-108.1115811154978"><ele>1816.9999999999998</ele><time>2026-04-14T23:50:13.999Z</time></trkpt><trkpt lat="36.84362687567941" lon="-108.11161820821312"><ele>1817.0</ele><time>2026-04-14T23:50:14.999Z</time></trkpt><trkpt lat="36.8435393395358" lon="-108.1116239055224"><ele>1817.0</ele><time>2026-04-14T23:50:15.999Z</time></trkpt><trkpt lat="36.8434482581515" lon="-108.11159734921549"><ele>1817.0</ele><time>2026-04-14T23:50:16.999Z</time></trkpt><trkpt lat="36.84337872522237" lon="-108.11160461421635"><ele>1816.9999999999998</ele><time>2026-04-14T23:50:17.999Z</time></trkpt><trkpt lat="36.84331374970232" lon="-108.11159123316494"><ele>1817.0</ele><time>2026-04-14T23:50:18.999Z</time></trkpt><trkpt lat="36.843231882657584" lon="-108.11152448577094"><ele>1815.6666666666665</ele><time>2026-04-14T23:50:19.999Z</time></trkpt><trkpt lat="36.84314788507794" lon="-108.11147382524837"><ele>1814.3333333333333</ele><time>2026-04-14T23:50:20.999Z</time></trkpt><trkpt lat="36.843067819117024" lon="-108.11143467949265"><ele>1813.0</ele><time>2026-04-14T23:50:21.999Z</time></trkpt><trkpt lat="36.84297199150743" lon="-108.11138121629023"><ele>1811.6666666666665</ele><time>2026-04-14T23:50:22.999Z</time></trkpt><trkpt lat="36.84289367924324" lon="-108.11132244951578"><ele>1810.3333333333333</ele><time>2026-04-14T23:50:24.999Z</time></trkpt><trkpt lat="36.84287449882329" lon="-108.11124236629816"><ele>1809.0</ele><time>2026-04-14T23:50:25.999Z</time></trkpt><trkpt lat="36.84281038778912" lon="-108.11113248797155"><ele>1809.0</ele><time>2026-04-14T23:50:26.999Z</time></trkpt><trkpt lat="36.842724175749424" lon="-108.11106199185048"><ele>1809.0</ele><time>2026-04-14T23:50:27.999Z</time></trkpt><trkpt lat="36.84264655714974" lon="-108.11098387105852"><ele>1809.0</ele><time>2026-04-14T23:50:28.999Z</time></trkpt><trkpt lat="36.84253547574296" lon="-108.11089115647938"><ele>1809.0</ele><time>2026-04-14T23:50:29.999Z</time></trkpt><trkpt lat="36.84242476280914" lon="-108.11078391542965"><ele>1808.0</ele><time>2026-04-14T23:50:30.999Z</time></trkpt><trkpt lat="36.84233092660778" lon="-108.11069437465542"><ele>1807.0</ele><time>2026-04-14T23:50:31.999Z</time></trkpt><trkpt lat="36.842236263397325" lon="-108.11061318958019"><ele>1806.0</ele><time>2026-04-14T23:50:32.999Z</time></trkpt><trkpt lat="36.842157846602916" lon="-108.11054450414198"><ele>1805.0</ele><time>2026-04-14T23:50:33.999Z</time></trkpt><trkpt lat="36.842103367496165" lon="-108.1104988427479"><ele>1804.0</ele><time>2026-04-14T23:50:34.999Z</time></trkpt><trkpt lat="36.84204816918859" lon="-108.11040532032175"><ele>1804.0</ele><time>2026-04-14T23:50:36.999Z</time></trkpt><trkpt lat="36.84207910350316" lon="-108.11025783110928"><ele>1804.0</ele><time>2026-04-14T23:50:38.999Z</time></trkpt><trkpt lat="36.84211078957952" lon="-108.11017000538192"><ele>1804.0</ele><time>2026-04-14T23:50:39.999Z</time></trkpt><trkpt lat="36.84216489481675" lon="-108.11005214124883"><ele>1804.0</ele><time>2026-04-14T23:50:40.999Z</time></trkpt><trkpt lat="36.84221079306427" lon="-108.10992475073351"><ele>1804.0</ele><time>2026-04-14T23:50:41.999Z</time></trkpt><trkpt lat="36.842255163498166" lon="-108.1098194819601"><ele>1804.6</ele><time>2026-04-14T23:50:42.999Z</time></trkpt><trkpt lat="36.84228893237033" lon="-108.10969882193226"><ele>1805.2</ele><time>2026-04-14T23:50:43.999Z</time></trkpt><trkpt lat="36.84226317972545" lon="-108.10959030899349"><ele>1805.7999999999997</ele><time>2026-04-14T23:50:44.999Z</time></trkpt><trkpt lat="36.842206115714276" lon="-108.10947110752875"><ele>1806.3999999999999</ele><time>2026-04-14T23:50:45.999Z</time></trkpt><trkpt lat="36.84217456185033" lon="-108.10937618279297"><ele>1807.0</ele><time>2026-04-14T23:50:46.999Z</time></trkpt><trkpt lat="36.84221759820698" lon="-108.10930974784608"><ele>1807.0</ele><time>2026-04-14T23:50:47.999Z</time></trkpt><trkpt lat="36.842292972204106" lon="-108.10922841249082"><ele>1806.9999999999998</ele><time>2026-04-14T23:50:48.999Z</time></trkpt><trkpt lat="36.84235519035988" lon="-108.10909618690464"><ele>1806.9999999999998</ele><time>2026-04-14T23:50:49.999Z</time></trkpt><trkpt lat="36.84237298518768" lon="-108.10895463900057"><ele>1807.0</ele><time>2026-04-14T23:50:50.999Z</time></trkpt><trkpt lat="36.84238029981205" lon="-108.1088417118324"><ele>1807.0</ele><time>2026-04-14T23:50:51.999Z</time></trkpt><trkpt lat="36.84239762144959" lon="-108.10872473279693"><ele>1805.3999999999999</ele><time>2026-04-14T23:50:52.999Z</time></trkpt><trkpt lat="36.842452051838315" lon="-108.10859625439116"><ele>1803.7999999999997</ele><time>2026-04-14T23:50:53.999Z</time></trkpt><trkpt lat="36.842495848443235" lon="-108.10848855100048"><ele>1802.2</ele><time>2026-04-14T23:50:54.999Z</time></trkpt><trkpt lat="36.84250811605042" lon="-108.10839625111277"><ele>1800.6</ele><time>2026-04-14T23:50:55.999Z</time></trkpt><trkpt lat="36.84248331720158" lon="-108.1083091759723"><ele>1799.0</ele><time>2026-04-14T23:50:56.999Z</time></trkpt><trkpt lat="36.84241911952536" lon="-108.10820599238951"><ele>1797.0</ele><time>2026-04-14T23:50:57.999Z</time></trkpt><trkpt lat="36.84232178497535" lon="-108.10813906836246"><ele>1795.0</ele><time>2026-04-14T23:50:58.999Z</time></trkpt><trkpt lat="36.84218123238826" lon="-108.10806420791907"><ele>1793.0</ele><time>2026-04-14T23:50:59.999Z</time></trkpt><trkpt lat="36.84207357806497" lon="-108.1079889810323"><ele>1791.0</ele><time>2026-04-14T23:51:00.999Z</time></trkpt><trkpt lat="36.84199000095929" lon="-108.10790890340958"><ele>1791.0</ele><time>2026-04-14T23:51:01.999Z</time></trkpt><trkpt lat="36.841913156862056" lon="-108.10782643096498"><ele>1791.0</ele><time>2026-04-14T23:51:02.999Z</time></trkpt><trkpt lat="36.84183245892264" lon="-108.10777821777191"><ele>1791.0</ele><time>2026-04-14T23:51:03.999Z</time></trkpt><trkpt lat="36.841799036252944" lon="-108.1076387138918"><ele>1791.0</ele><time>2026-04-14T23:51:05.999Z</time></trkpt><trkpt lat="36.84180334938537" lon="-108.10750416860773"><ele>1791.0</ele><time>2026-04-14T23:51:06.999Z</time></trkpt><trkpt lat="36.84175866226362" lon="-108.10737625092617"><ele>1790.4</ele><time>2026-04-14T23:51:07.999Z</time></trkpt><trkpt lat="36.84172965317782" lon="-108.10723447341185"><ele>1789.8</ele><time>2026-04-14T23:51:08.999Z</time></trkpt><trkpt lat="36.84172498777991" lon="-108.10713814485786"><ele>1789.2000000000003</ele><time>2026-04-14T23:51:10.999Z</time></trkpt><trkpt lat="36.84179361424647" lon="-108.10706209682077"><ele>1788.6000000000001</ele><time>2026-04-14T23:51:11.999Z</time></trkpt><trkpt lat="36.841871320144335" lon="-108.10694812214909"><ele>1788.0</ele><time>2026-04-14T23:51:12.999Z</time></trkpt><trkpt lat="36.841933648627986" lon="-108.1068167376635"><ele>1788.0</ele><time>2026-04-14T23:51:13.999Z</time></trkpt><trkpt lat="36.842026816748984" lon="-108.10669420420184"><ele>1788.0</ele><time>2026-04-14T23:51:14.999Z</time></trkpt><trkpt lat="36.842164755636105" lon="-108.1065873624909"><ele>1788.0</ele><time>2026-04-14T23:51:15.999Z</time></trkpt><trkpt lat="36.8422616419579" lon="-108.10648485898977"><ele>1788.0</ele><time>2026-04-14T23:51:16.999Z</time></trkpt><trkpt lat="36.84231602755751" lon="-108.10636091829655"><ele>1787.6000000000001</ele><time>2026-04-14T23:51:17.999Z</time></trkpt><trkpt lat="36.84235219638368" lon="-108.10621588890487"><ele>1787.2000000000003</ele><time>2026-04-14T23:51:18.999Z</time></trkpt><trkpt lat="36.84237801980981" lon="-108.10609898176936"><ele>1786.8</ele><time>2026-04-14T23:51:19.999Z</time></trkpt><trkpt lat="36.842389261950096" lon="-108.10600292104743"><ele>1786.4</ele><time>2026-04-14T23:51:20.999Z</time></trkpt><trkpt lat="36.842371755433795" lon="-108.10590264084756"><ele>1786.0</ele><time>2026-04-14T23:51:21.999Z</time></trkpt><trkpt lat="36.84230199552795" lon="-108.10579166070802"><ele>1785.8</ele><time>2026-04-14T23:51:22.999Z</time></trkpt><trkpt lat="36.84220169703837" lon="-108.10569244933377"><ele>1785.6</ele><time>2026-04-14T23:51:23.999Z</time></trkpt><trkpt lat="36.84210012952681" lon="-108.10556713188315"><ele>1785.4</ele><time>2026-04-14T23:51:24.999Z</time></trkpt><trkpt lat="36.842030980612876" lon="-108.10547247322916"><ele>1785.2</ele><time>2026-04-14T23:51:25.999Z</time></trkpt><trkpt lat="36.84198757682076" lon="-108.10540348274044"><ele>1785.0</ele><time>2026-04-14T23:51:26.999Z</time></trkpt><trkpt lat="36.8419269529322" lon="-108.1052916979212"><ele>1785.0</ele><time>2026-04-14T23:51:28.999Z</time></trkpt><trkpt lat="36.84190447595884" lon="-108.105147155329"><ele>1785.0</ele><time>2026-04-14T23:51:31Z</time></trkpt><trkpt lat="36.84196474945882" lon="-108.10507710714538"><ele>1785.0</ele><time>2026-04-14T23:51:32Z</time></trkpt><trkpt lat="36.84206688124178" lon="-108.10503159660585"><ele>1785.0</ele><time>2026-04-14T23:51:33Z</time></trkpt><trkpt lat="36.84218250198145" lon="-108.10499130089367"><ele>1785.0</ele><time>2026-04-14T23:51:34Z</time></trkpt><trkpt lat="36.842309422118305" lon="-108.10493935401287"><ele>1785.0</ele><time>2026-04-14T23:51:35Z</time></trkpt><trkpt lat="36.842414551037606" lon="-108.10491638194473"><ele>1785.0</ele><time>2026-04-14T23:51:36Z</time></trkpt><trkpt lat="36.842497505459" lon="-108.10488046527003"><ele>1785.0</ele><time>2026-04-14T23:51:37Z</time></trkpt><trkpt lat="36.84254759736094" lon="-108.1047945064513"><ele>1785.0</ele><time>2026-04-14T23:51:38Z</time></trkpt><trkpt lat="36.84262288322531" lon="-108.1047350281268"><ele>1785.0</ele><time>2026-04-14T23:51:39Z</time></trkpt><trkpt lat="36.842695476524824" lon="-108.1047322258786"><ele>1785.0</ele><time>2026-04-14T23:51:40Z</time></trkpt><trkpt lat="36.84276400367043" lon="-108.10458399103099"><ele>1785.5</ele><time>2026-04-14T23:51:42Z</time></trkpt><trkpt lat="36.842774983919874" lon="-108.10444823824572"><ele>1786.0</ele><time>2026-04-14T23:51:43Z</time></trkpt><trkpt lat="36.84276277080081" lon="-108.104306379507"><ele>1786.5</ele><time>2026-04-14T23:51:44Z</time></trkpt><trkpt lat="36.84279884025806" lon="-108.10416602160858"><ele>1787.0</ele><time>2026-04-14T23:51:45Z</time></trkpt><trkpt lat="36.842858175126906" lon="-108.10401374115132"><ele>1787.0</ele><time>2026-04-14T23:51:46Z</time></trkpt><trkpt lat="36.84292267773885" lon="-108.1038221549848"><ele>1787.0</ele><time>2026-04-14T23:51:47Z</time></trkpt><trkpt lat="36.84298768256334" lon="-108.10361485212111"><ele>1787.0</ele><time>2026-04-14T23:51:48Z</time></trkpt><trkpt lat="36.84306400385516" lon="-108.10337677919662"><ele>1788.3333333333333</ele><time>2026-04-14T23:51:49Z</time></trkpt><trkpt lat="36.84314495088008" lon="-108.10312280772627"><ele>1789.6666666666665</ele><time>2026-04-14T23:51:50Z</time></trkpt><trkpt lat="36.84320770917303" lon="-108.10290658176504"><ele>1791.0</ele><time>2026-04-14T23:51:51Z</time></trkpt><trkpt lat="36.843264920651" lon="-108.10270576201088"><ele>1791.0</ele><time>2026-04-14T23:51:52Z</time></trkpt><trkpt lat="36.84331794640099" lon="-108.10253120598564"><ele>1791.0</ele><time>2026-04-14T23:51:53Z</time></trkpt><trkpt lat="36.843377509154756" lon="-108.1023954191782"><ele>1791.0</ele><time>2026-04-14T23:51:54Z</time></trkpt><trkpt lat="36.84343752437012" lon="-108.10225792159979"><ele>1791.0</ele><time>2026-04-14T23:51:55Z</time></trkpt><trkpt lat="36.843466518763066" lon="-108.10212767530805"><ele>1792.1999999999998</ele><time>2026-04-14T23:51:56Z</time></trkpt><trkpt lat="36.84350939146558" lon="-108.10198832861678"><ele>1793.3999999999999</ele><time>2026-04-14T23:51:57Z</time></trkpt><trkpt lat="36.843505918092426" lon="-108.10188713667138"><ele>1794.6</ele><time>2026-04-14T23:51:58Z</time></trkpt><trkpt lat="36.84349138489159" lon="-108.10178498169299"><ele>1795.8</ele><time>2026-04-14T23:51:59Z</time></trkpt><trkpt lat="36.84347506152575" lon="-108.10164291395367"><ele>1797.0</ele><time>2026-04-14T23:52:00Z</time></trkpt><trkpt lat="36.84346715224237" lon="-108.10155734480178"><ele>1798.1999999999998</ele><time>2026-04-14T23:52:01Z</time></trkpt><trkpt lat="36.84350859556847" lon="-108.10147445442463"><ele>1799.3999999999999</ele><time>2026-04-14T23:52:02Z</time></trkpt><trkpt lat="36.843530957979425" lon="-108.10135483724599"><ele>1800.6000000000001</ele><time>2026-04-14T23:52:03Z</time></trkpt><trkpt lat="36.84348129569287" lon="-108.10124574343307"><ele>1801.8000000000002</ele><time>2026-04-14T23:52:04Z</time></trkpt><trkpt lat="36.84346625928318" lon="-108.10111950698744"><ele>1803.0</ele><time>2026-04-14T23:52:05Z</time></trkpt><trkpt lat="36.843479296845864" lon="-108.10099750541306"><ele>1803.0</ele><time>2026-04-14T23:52:06Z</time></trkpt><trkpt lat="36.84352195209862" lon="-108.10089814976472"><ele>1803.0</ele><time>2026-04-14T23:52:07Z</time></trkpt><trkpt lat="36.843569348901234" lon="-108.10083664928219"><ele>1803.0</ele><time>2026-04-14T23:52:08Z</time></trkpt><trkpt lat="36.84358760660027" lon="-108.1007488559015"><ele>1803.0</ele><time>2026-04-14T23:52:09Z</time></trkpt><trkpt lat="36.84359271121561" lon="-108.10065080442128"><ele>1803.0</ele><time>2026-04-14T23:52:10Z</time></trkpt><trkpt lat="36.84361050722211" lon="-108.10055170778053"><ele>1803.0</ele><time>2026-04-14T23:52:11Z</time></trkpt><trkpt lat="36.84369766698422" lon="-108.10047168167165"><ele>1803.8000000000002</ele><time>2026-04-14T23:52:12Z</time></trkpt><trkpt lat="36.843799302914945" lon="-108.10042332230212"><ele>1804.6000000000001</ele><time>2026-04-14T23:52:13Z</time></trkpt><trkpt lat="36.84388894592956" lon="-108.10036302598166"><ele>1805.3999999999999</ele><time>2026-04-14T23:52:14Z</time></trkpt><trkpt lat="36.843968623383375" lon="-108.1003031531673"><ele>1806.1999999999998</ele><time>2026-04-14T23:52:15Z</time></trkpt><trkpt lat="36.843999512107246" lon="-108.10021858688101"><ele>1807.0</ele><time>2026-04-14T23:52:16Z</time></trkpt><trkpt lat="36.8440562241843" lon="-108.1001269885436"><ele>1807.0000000000002</ele><time>2026-04-14T23:52:17Z</time></trkpt><trkpt lat="36.84415332175458" lon="-108.10007120679433"><ele>1807.0</ele><time>2026-04-14T23:52:18Z</time></trkpt><trkpt lat="36.8442446246336" lon="-108.10006130156701"><ele>1807.0</ele><time>2026-04-14T23:52:19Z</time></trkpt><trkpt lat="36.84431947128717" lon="-108.10003110568444"><ele>1807.0</ele><time>2026-04-14T23:52:20Z</time></trkpt><trkpt lat="36.84438528791812" lon="-108.09996757833912"><ele>1807.0000000000002</ele><time>2026-04-14T23:52:21Z</time></trkpt><trkpt lat="36.84444824168882" lon="-108.09991425988774"><ele>1807.0</ele><time>2026-04-14T23:52:22Z</time></trkpt><trkpt lat="36.84453749791499" lon="-108.09990678793986"><ele>1806.8</ele><time>2026-04-14T23:52:23Z</time></trkpt><trkpt lat="36.844607298208686" lon="-108.09992409114307"><ele>1806.6</ele><time>2026-04-14T23:52:24Z</time></trkpt><trkpt lat="36.844658871712596" lon="-108.10001199029381"><ele>1806.3999999999999</ele><time>2026-04-14T23:52:25Z</time></trkpt><trkpt lat="36.84470040299477" lon="-108.10012206666299"><ele>1806.1999999999998</ele><time>2026-04-14T23:52:26Z</time></trkpt><trkpt lat="36.84479341491578" lon="-108.10018875366076"><ele>1806.0</ele><time>2026-04-14T23:52:27Z</time></trkpt><trkpt lat="36.8448801823184" lon="-108.10026166967121"><ele>1806.0</ele><time>2026-04-14T23:52:28Z</time></trkpt><trkpt lat="36.84494797224833" lon="-108.10029937057085"><ele>1806.0</ele><time>2026-04-14T23:52:29Z</time></trkpt><trkpt lat="36.845013383385485" lon="-108.10027509598355"><ele>1806.0</ele><time>2026-04-14T23:52:30Z</time></trkpt><trkpt lat="36.84509885134131" lon="-108.10020857920102"><ele>1806.0</ele><time>2026-04-14T23:52:30.999Z</time></trkpt><trkpt lat="36.84520602095156" lon="-108.1001877472297"><ele>1806.0</ele><time>2026-04-14T23:52:31.999Z</time></trkpt><trkpt lat="36.84529165222571" lon="-108.10018711795972"><ele>1806.0</ele><time>2026-04-14T23:52:32.999Z</time></trkpt><trkpt lat="36.84537830521517" lon="-108.1001686978103"><ele>1805.8</ele><time>2026-04-14T23:52:33.999Z</time></trkpt><trkpt lat="36.84545923291582" lon="-108.10008348701771"><ele>1805.6</ele><time>2026-04-14T23:52:34.999Z</time></trkpt><trkpt lat="36.84556808618553" lon="-108.10001092846885"><ele>1805.4</ele><time>2026-04-14T23:52:35.999Z</time></trkpt><trkpt lat="36.845642314615496" lon="-108.09995544916988"><ele>1805.2</ele><time>2026-04-14T23:52:36.999Z</time></trkpt><trkpt lat="36.84571898362458" lon="-108.09987060915856"><ele>1805.0</ele><time>2026-04-14T23:52:37.999Z</time></trkpt><trkpt lat="36.84581702494272" lon="-108.09980756521044"><ele>1804.25</ele><time>2026-04-14T23:52:38.999Z</time></trkpt><trkpt lat="36.845923795771085" lon="-108.0999544289361"><ele>1803.5</ele><time>2026-04-14T23:52:40.999Z</time></trkpt><trkpt lat="36.846006940342754" lon="-108.10005364462776"><ele>1802.75</ele><time>2026-04-14T23:52:41.999Z</time></trkpt><trkpt lat="36.846133937590594" lon="-108.10007341767643"><ele>1802.0</ele><time>2026-04-14T23:52:42.999Z</time></trkpt><trkpt lat="36.84626363296061" lon="-108.10008611164433"><ele>1802.0</ele><time>2026-04-14T23:52:43.999Z</time></trkpt><trkpt lat="36.846386860057095" lon="-108.1001305623416"><ele>1802.0</ele><time>2026-04-14T23:52:44.999Z</time></trkpt><trkpt lat="36.846527134343035" lon="-108.10016561950033"><ele>1802.0</ele><time>2026-04-14T23:52:45.999Z</time></trkpt><trkpt lat="36.84666662184434" lon="-108.1001597633319"><ele>1802.0</ele><time>2026-04-14T23:52:46.999Z</time></trkpt><trkpt lat="36.846772660808284" lon="-108.10016090946729"><ele>1802.25</ele><time>2026-04-14T23:52:47.999Z</time></trkpt><trkpt lat="36.8468307652647" lon="-108.10008370595824"><ele>1802.5</ele><time>2026-04-14T23:52:48.999Z</time></trkpt><trkpt lat="36.84686726941432" lon="-108.0999476266209"><ele>1802.75</ele><time>2026-04-14T23:52:49.999Z</time></trkpt><trkpt lat="36.846921539717954" lon="-108.09978798420022"><ele>1803.0</ele><time>2026-04-14T23:52:50.999Z</time></trkpt><trkpt lat="36.84700010763424" lon="-108.09963843085616"><ele>1803.0</ele><time>2026-04-14T23:52:51.999Z</time></trkpt><trkpt lat="36.84710690258087" lon="-108.09952682466141"><ele>1803.0</ele><time>2026-04-14T23:52:52.999Z</time></trkpt><trkpt lat="36.8472456634987" lon="-108.09943847972413"><ele>1803.0</ele><time>2026-04-14T23:52:53.999Z</time></trkpt><trkpt lat="36.84737348953271" lon="-108.09931806840396"><ele>1803.0</ele><time>2026-04-14T23:52:54.999Z</time></trkpt><trkpt lat="36.84747954041787" lon="-108.09919804735958"><ele>1803.0</ele><time>2026-04-14T23:52:55.999Z</time></trkpt><trkpt lat="36.84753573445903" lon="-108.0990345129785"><ele>1803.0</ele><time>2026-04-14T23:52:56.999Z</time></trkpt><trkpt lat="36.84760341770506" lon="-108.09883239027072"><ele>1804.3333333333335</ele><time>2026-04-14T23:52:57.999Z</time></trkpt><trkpt lat="36.847708218799355" lon="-108.09865131124269"><ele>1805.6666666666667</ele><time>2026-04-14T23:52:58.999Z</time></trkpt><trkpt lat="36.84785770205955" lon="-108.0985030893552"><ele>1807.0</ele><time>2026-04-14T23:52:59.999Z</time></trkpt><trkpt lat="36.84799047758698" lon="-108.09837908323165"><ele>1807.0</ele><time>2026-04-14T23:53:00.999Z</time></trkpt><trkpt lat="36.84806479075603" lon="-108.09832396850366"><ele>1806.9999999999998</ele><time>2026-04-14T23:53:01.999Z</time></trkpt><trkpt lat="36.84816401931426" lon="-108.09831189552297"><ele>1806.9999999999998</ele><time>2026-04-14T23:53:02.999Z</time></trkpt><trkpt lat="36.84825323271687" lon="-108.09825814673776"><ele>1807.0</ele><time>2026-04-14T23:53:03.999Z</time></trkpt><trkpt lat="36.84834031390154" lon="-108.09816813800634"><ele>1807.0</ele><time>2026-04-14T23:53:04.999Z</time></trkpt><trkpt lat="36.84848062133636" lon="-108.09814216343652"><ele>1808.1999999999998</ele><time>2026-04-14T23:53:05.999Z</time></trkpt><trkpt lat="36.848593653217165" lon="-108.09808369981614"><ele>1809.3999999999999</ele><time>2026-04-14T23:53:06.999Z</time></trkpt><trkpt lat="36.84865870061505" lon="-108.0980596656808"><ele>1810.6000000000001</ele><time>2026-04-14T23:53:07.999Z</time></trkpt><trkpt lat="36.8487258611628" lon="-108.0980708099149"><ele>1811.8000000000002</ele><time>2026-04-14T23:53:08.999Z</time></trkpt><trkpt lat="36.84884417651478" lon="-108.0980591303097"><ele>1813.0</ele><time>2026-04-14T23:53:09.999Z</time></trkpt><trkpt lat="36.84893828265653" lon="-108.09801657214703"><ele>1813.0</ele><time>2026-04-14T23:53:10.999Z</time></trkpt><trkpt lat="36.849016140831466" lon="-108.09800512696233"><ele>1813.0000000000002</ele><time>2026-04-14T23:53:11.999Z</time></trkpt><trkpt lat="36.84906517098603" lon="-108.09789130870924"><ele>1813.0000000000002</ele><time>2026-04-14T23:53:13.999Z</time></trkpt><trkpt lat="36.849064012463224" lon="-108.09776381943561"><ele>1813.0</ele><time>2026-04-14T23:53:14.999Z</time></trkpt><trkpt lat="36.849092274732364" lon="-108.09764538025195"><ele>1813.0</ele><time>2026-04-14T23:53:15.999Z</time></trkpt><trkpt lat="36.849204072053276" lon="-108.0975945607967"><ele>1813.0</ele><time>2026-04-14T23:53:17.999Z</time></trkpt><trkpt lat="36.849312014351625" lon="-108.09763590856473"><ele>1813.0</ele><time>2026-04-14T23:53:18.999Z</time></trkpt><trkpt lat="36.84943084446338" lon="-108.09763580418503"><ele>1813.0</ele><time>2026-04-14T23:53:19.999Z</time></trkpt><trkpt lat="36.849557054843" lon="-108.09759426860641"><ele>1813.0</ele><time>2026-04-14T23:53:20.999Z</time></trkpt><trkpt lat="36.84967296556215" lon="-108.09753390766353"><ele>1813.0</ele><time>2026-04-14T23:53:21.999Z</time></trkpt><trkpt lat="36.84980866542308" lon="-108.09746359339002"><ele>1813.0</ele><time>2026-04-14T23:53:22.999Z</time></trkpt><trkpt lat="36.84993108870416" lon="-108.0974034590631"><ele>1813.0</ele><time>2026-04-14T23:53:23.999Z</time></trkpt><trkpt lat="36.85001424546915" lon="-108.09735545462533"><ele>1813.0</ele><time>2026-04-14T23:53:24.999Z</time></trkpt><trkpt lat="36.85009857123462" lon="-108.0972662393622"><ele>1815.25</ele><time>2026-04-14T23:53:25.999Z</time></trkpt><trkpt lat="36.8501467287664" lon="-108.09712119368295"><ele>1817.5</ele><time>2026-04-14T23:53:26.999Z</time></trkpt><trkpt lat="36.85017611588857" lon="-108.09696025660064"><ele>1819.75</ele><time>2026-04-14T23:53:27.999Z</time></trkpt><trkpt lat="36.85022695182992" lon="-108.09682514931798"><ele>1822.0</ele><time>2026-04-14T23:53:28.999Z</time></trkpt><trkpt lat="36.85025581277823" lon="-108.0966728403663"><ele>1822.3999999999999</ele><time>2026-04-14T23:53:29.999Z</time></trkpt><trkpt lat="36.85026367680665" lon="-108.09652082846982"><ele>1822.7999999999997</ele><time>2026-04-14T23:53:30.999Z</time></trkpt><trkpt lat="36.850275437501374" lon="-108.0963843919964"><ele>1823.2</ele><time>2026-04-14T23:53:31.999Z</time></trkpt><trkpt lat="36.85033758551568" lon="-108.09629300752349"><ele>1823.6</ele><time>2026-04-14T23:53:32.999Z</time></trkpt><trkpt lat="36.850435612776444" lon="-108.0962270274027"><ele>1824.0</ele><time>2026-04-14T23:53:33.999Z</time></trkpt><trkpt lat="36.85051352167478" lon="-108.09615544975846"><ele>1824.0</ele><time>2026-04-14T23:53:34.999Z</time></trkpt><trkpt lat="36.85052840845884" lon="-108.09599650846584"><ele>1824.0</ele><time>2026-04-14T23:53:37Z</time></trkpt><trkpt lat="36.85053518702682" lon="-108.09587564892723"><ele>1824.0</ele><time>2026-04-14T23:53:38Z</time></trkpt><trkpt lat="36.85059709873117" lon="-108.09580312911994"><ele>1824.0</ele><time>2026-04-14T23:53:39Z</time></trkpt><trkpt lat="36.85068133089516" lon="-108.09577342498987"><ele>1824.0</ele><time>2026-04-14T23:53:40Z</time></trkpt><trkpt lat="36.85073134846825" lon="-108.0957244525252"><ele>1825.6</ele><time>2026-04-14T23:53:41Z</time></trkpt><trkpt lat="36.85077834190977" lon="-108.09562906576915"><ele>1827.2</ele><time>2026-04-14T23:53:42Z</time></trkpt><trkpt lat="36.85081996634712" lon="-108.09550746590706"><ele>1828.7999999999997</ele><time>2026-04-14T23:53:43Z</time></trkpt><trkpt lat="36.85085292810351" lon="-108.09538343666338"><ele>1830.3999999999999</ele><time>2026-04-14T23:53:44Z</time></trkpt><trkpt lat="36.850876621900284" lon="-108.09527014900748"><ele>1832.0</ele><time>2026-04-14T23:53:45Z</time></trkpt><trkpt lat="36.850918264439336" lon="-108.09515083710482"><ele>1832.0</ele><time>2026-04-14T23:53:46Z</time></trkpt><trkpt lat="36.85094774744657" lon="-108.09503715872953"><ele>1831.9999999999998</ele><time>2026-04-14T23:53:47Z</time></trkpt><trkpt lat="36.85098310209087" lon="-108.0949125368277"><ele>1831.9999999999998</ele><time>2026-04-14T23:53:48Z</time></trkpt><trkpt lat="36.85103154600211" lon="-108.09482117087032"><ele>1832.0</ele><time>2026-04-14T23:53:49Z</time></trkpt><trkpt lat="36.85109793169269" lon="-108.09478326095301"><ele>1832.0</ele><time>2026-04-14T23:53:50Z</time></trkpt><trkpt lat="36.851182309088834" lon="-108.09481440109924"><ele>1833.25</ele><time>2026-04-14T23:53:51Z</time></trkpt><trkpt lat="36.851291120638784" lon="-108.09481209084854"><ele>1834.5</ele><time>2026-04-14T23:53:52Z</time></trkpt><trkpt lat="36.851437170191076" lon="-108.09477210977577"><ele>1835.75</ele><time>2026-04-14T23:53:53Z</time></trkpt><trkpt lat="36.85156783503076" lon="-108.0947275254017"><ele>1837.0</ele><time>2026-04-14T23:53:54Z</time></trkpt><trkpt lat="36.85166108714637" lon="-108.09470412959008"><ele>1837.0</ele><time>2026-04-14T23:53:55Z</time></trkpt><trkpt lat="36.85176474613139" lon="-108.09458625943748"><ele>1837.0</ele><time>2026-04-14T23:53:57Z</time></trkpt><trkpt lat="36.85188010757086" lon="-108.0945042067011"><ele>1837.0</ele><time>2026-04-14T23:53:58Z</time></trkpt><trkpt lat="36.85201480072332" lon="-108.09444817567241"><ele>1837.0</ele><time>2026-04-14T23:53:59Z</time></trkpt><trkpt lat="36.852105080288894" lon="-108.09442638154555"><ele>1837.6</ele><time>2026-04-14T23:54:00Z</time></trkpt><trkpt lat="36.8521928334752" lon="-108.09439828124579"><ele>1838.1999999999998</ele><time>2026-04-14T23:54:01Z</time></trkpt><trkpt lat="36.8522332306675" lon="-108.09448479465895"><ele>1838.8</ele><time>2026-04-14T23:54:03Z</time></trkpt><trkpt lat="36.852209799809486" lon="-108.09464459023906"><ele>1839.4</ele><time>2026-04-14T23:54:04Z</time></trkpt><trkpt lat="36.85221582269559" lon="-108.0947636807552"><ele>1840.0</ele><time>2026-04-14T23:54:05Z</time></trkpt><trkpt lat="36.852249763320515" lon="-108.09485935177274"><ele>1840.0</ele><time>2026-04-14T23:54:06Z</time></trkpt><trkpt lat="36.852316144545064" lon="-108.09491612100834"><ele>1840.0</ele><time>2026-04-14T23:54:07Z</time></trkpt><trkpt lat="36.85241616769638" lon="-108.09496368919454"><ele>1840.0</ele><time>2026-04-14T23:54:08Z</time></trkpt><trkpt lat="36.85253517063049" lon="-108.09500005294407"><ele>1840.0</ele><time>2026-04-14T23:54:09Z</time></trkpt><trkpt lat="36.85262079656731" lon="-108.09508998343937"><ele>1840.0</ele><time>2026-04-14T23:54:10Z</time></trkpt><trkpt lat="36.852678081037524" lon="-108.09520332504022"><ele>1841.0000000000002</ele><time>2026-04-14T23:54:11Z</time></trkpt><trkpt lat="36.85273835596269" lon="-108.095235855075"><ele>1842.0</ele><time>2026-04-14T23:54:12Z</time></trkpt><trkpt lat="36.85280562132198" lon="-108.0952726198283"><ele>1843.0</ele><time>2026-04-14T23:54:13Z</time></trkpt><trkpt lat="36.852880873037556" lon="-108.09533195098909"><ele>1844.0</ele><time>2026-04-14T23:54:14Z</time></trkpt><trkpt lat="36.852955995755735" lon="-108.09543133082687"><ele>1845.0000000000002</ele><time>2026-04-14T23:54:15Z</time></trkpt><trkpt lat="36.852987534104635" lon="-108.09555298556315"><ele>1846.0</ele><time>2026-04-14T23:54:16Z</time></trkpt><trkpt lat="36.853027340916626" lon="-108.09562596389812"><ele>1846.0</ele><time>2026-04-14T23:54:17Z</time></trkpt><trkpt lat="36.853110939594835" lon="-108.0956104531208"><ele>1846.0</ele><time>2026-04-14T23:54:18Z</time></trkpt><trkpt lat="36.853199601604814" lon="-108.09553971871487"><ele>1846.0</ele><time>2026-04-14T23:54:19Z</time></trkpt><trkpt lat="36.853288499967206" lon="-108.09544862873607"><ele>1846.0</ele><time>2026-04-14T23:54:20Z</time></trkpt><trkpt lat="36.85334498829041" lon="-108.09535551701543"><ele>1846.0</ele><time>2026-04-14T23:54:21Z</time></trkpt><trkpt lat="36.853417985315" lon="-108.09531443195564"><ele>1847.4</ele><time>2026-04-14T23:54:22Z</time></trkpt><trkpt lat="36.853501051100594" lon="-108.09530744673737"><ele>1848.8</ele><time>2026-04-14T23:54:23Z</time></trkpt><trkpt lat="36.85355405302809" lon="-108.09522080193703"><ele>1850.2000000000003</ele><time>2026-04-14T23:54:24Z</time></trkpt><trkpt lat="36.853606775021255" lon="-108.09511724063944"><ele>1851.6000000000001</ele><time>2026-04-14T23:54:25Z</time></trkpt><trkpt lat="36.85372409171311" lon="-108.09506523342745"><ele>1853.0</ele><time>2026-04-14T23:54:26Z</time></trkpt><trkpt lat="36.853818682519574" lon="-108.09501155461447"><ele>1853.0</ele><time>2026-04-14T23:54:27Z</time></trkpt><trkpt lat="36.85388652241355" lon="-108.09499727734105"><ele>1853.0000000000002</ele><time>2026-04-14T23:54:28Z</time></trkpt><trkpt lat="36.853999848603" lon="-108.09498779193677"><ele>1853.0000000000002</ele><time>2026-04-14T23:54:29Z</time></trkpt><trkpt lat="36.85409163035894" lon="-108.094916219593"><ele>1853.0</ele><time>2026-04-14T23:54:30Z</time></trkpt><trkpt lat="36.85415649766766" lon="-108.09485000517145"><ele>1853.0</ele><time>2026-04-14T23:54:31Z</time></trkpt><trkpt lat="36.85423553554852" lon="-108.09480386224284"><ele>1853.8333333333333</ele><time>2026-04-14T23:54:32Z</time></trkpt><trkpt lat="36.85432632410289" lon="-108.09478610891561"><ele>1854.6666666666665</ele><time>2026-04-14T23:54:33Z</time></trkpt><trkpt lat="36.85442991041337" lon="-108.09479268254621"><ele>1855.5</ele><time>2026-04-14T23:54:34Z</time></trkpt><trkpt lat="36.85451065241905" lon="-108.09479834800487"><ele>1856.3333333333335</ele><time>2026-04-14T23:54:35Z</time></trkpt><trkpt lat="36.85458610428937" lon="-108.09484348544967"><ele>1857.1666666666667</ele><time>2026-04-14T23:54:36Z</time></trkpt><trkpt lat="36.85461349293794" lon="-108.09494575752028"><ele>1858.0</ele><time>2026-04-14T23:54:37Z</time></trkpt><trkpt lat="36.85462627705293" lon="-108.09503065267214"><ele>1858.0</ele><time>2026-04-14T23:54:38Z</time></trkpt><trkpt lat="36.85475659895481" lon="-108.09497248862432"><ele>1858.0000000000002</ele><time>2026-04-14T23:54:40Z</time></trkpt><trkpt lat="36.8548475927179" lon="-108.09496273350335"><ele>1858.0000000000002</ele><time>2026-04-14T23:54:41Z</time></trkpt><trkpt lat="36.854915817939855" lon="-108.09496826051924"><ele>1858.0</ele><time>2026-04-14T23:54:42Z</time></trkpt><trkpt lat="36.85502605154568" lon="-108.09497378030213"><ele>1858.0</ele><time>2026-04-14T23:54:44Z</time></trkpt><trkpt lat="36.85510464213974" lon="-108.09491485759824"><ele>1859.3333333333335</ele><time>2026-04-14T23:54:45Z</time></trkpt><trkpt lat="36.85519439048613" lon="-108.09484539588382"><ele>1860.6666666666667</ele><time>2026-04-14T23:54:46Z</time></trkpt><trkpt lat="36.85526145380269" lon="-108.09485046994133"><ele>1862.0</ele><time>2026-04-14T23:54:47Z</time></trkpt><trkpt lat="36.85532816974421" lon="-108.09495649561616"><ele>1863.3333333333335</ele><time>2026-04-14T23:54:49Z</time></trkpt><trkpt lat="36.85536920847636" lon="-108.09502687464361"><ele>1864.6666666666667</ele><time>2026-04-14T23:54:50Z</time></trkpt><trkpt lat="36.855434317560665" lon="-108.0950837698942"><ele>1866.0</ele><time>2026-04-14T23:54:51Z</time></trkpt><trkpt lat="36.85553105542997" lon="-108.0950781603507"><ele>1866.1999999999998</ele><time>2026-04-14T23:54:52Z</time></trkpt><trkpt lat="36.855641704706414" lon="-108.09513008386979"><ele>1866.3999999999999</ele><time>2026-04-14T23:54:53Z</time></trkpt><trkpt lat="36.85572028293605" lon="-108.09521336775738"><ele>1866.6</ele><time>2026-04-14T23:54:54Z</time></trkpt><trkpt lat="36.855796004411054" lon="-108.09525576453792"><ele>1866.8</ele><time>2026-04-14T23:54:55Z</time></trkpt><trkpt lat="36.85585051702265" lon="-108.09532591818171"><ele>1867.0</ele><time>2026-04-14T23:54:56Z</time></trkpt><trkpt lat="36.8559186865256" lon="-108.09542176976043"><ele>1868.1666666666667</ele><time>2026-04-14T23:54:57Z</time></trkpt><trkpt lat="36.85599212626187" lon="-108.09548604213052"><ele>1869.3333333333335</ele><time>2026-04-14T23:54:58Z</time></trkpt><trkpt lat="36.85603401956227" lon="-108.09555289503203"><ele>1870.5</ele><time>2026-04-14T23:54:59Z</time></trkpt><trkpt lat="36.856104067594735" lon="-108.09561175100293"><ele>1871.6666666666665</ele><time>2026-04-14T23:55:00Z</time></trkpt><trkpt lat="36.85616672249057" lon="-108.09567554668625"><ele>1872.8333333333333</ele><time>2026-04-14T23:55:01Z</time></trkpt><trkpt lat="36.85621192697418" lon="-108.09576266642526"><ele>1874.0</ele><time>2026-04-14T23:55:02Z</time></trkpt><trkpt lat="36.85621982933557" lon="-108.09587300856995"><ele>1874.2857142857142</ele><time>2026-04-14T23:55:03Z</time></trkpt><trkpt lat="36.8562395272197" lon="-108.09596249118125"><ele>1874.5714285714287</ele><time>2026-04-14T23:55:04Z</time></trkpt><trkpt lat="36.856245036820994" lon="-108.09604267765042"><ele>1874.857142857143</ele><time>2026-04-14T23:55:04.999Z</time></trkpt><trkpt lat="36.856246552169004" lon="-108.09614111290735"><ele>1875.142857142857</ele><time>2026-04-14T23:55:05.999Z</time></trkpt><trkpt lat="36.85627832157503" lon="-108.09620947993427"><ele>1875.4285714285716</ele><time>2026-04-14T23:55:06.999Z</time></trkpt><trkpt lat="36.85634613483331" lon="-108.09621764961825"><ele>1875.7142857142858</ele><time>2026-04-14T23:55:07.999Z</time></trkpt><trkpt lat="36.85642303298966" lon="-108.09618098797597"><ele>1876.0</ele><time>2026-04-14T23:55:10.999Z</time></trkpt><trkpt lat="36.8565295251638" lon="-108.0961448656761"><ele>1876.0</ele><time>2026-04-14T23:56:57Z</time></trkpt><trkpt lat="36.85659784062501" lon="-108.09613048685449"><ele>1876.0</ele><time>2026-04-14T23:56:58Z</time></trkpt><trkpt lat="36.85667723362305" lon="-108.09610449258479"><ele>1876.0</ele><time>2026-04-14T23:56:59Z</time></trkpt><trkpt lat="36.85676278619655" lon="-108.0960686047937"><ele>1876.0</ele><time>2026-04-14T23:57:00Z</time></trkpt><trkpt lat="36.85688461808831" lon="-108.09605330052835"><ele>1876.0</ele><time>2026-04-14T23:57:02Z</time></trkpt><trkpt lat="36.85698424877729" lon="-108.09605229645196"><ele>1876.8</ele><time>2026-04-14T23:57:03Z</time></trkpt><trkpt lat="36.85708361433187" lon="-108.09605271373263"><ele>1877.6</ele><time>2026-04-14T23:57:04Z</time></trkpt><trkpt lat="36.85715979669195" lon="-108.09601601136018"><ele>1878.4</ele><time>2026-04-14T23:57:05Z</time></trkpt><trkpt lat="36.85724822020872" lon="-108.09598154590232"><ele>1879.2</ele><time>2026-04-14T23:57:06Z</time></trkpt><trkpt lat="36.85733361982571" lon="-108.0959723476244"><ele>1880.0</ele><time>2026-04-14T23:57:07Z</time></trkpt><trkpt lat="36.85742437451143" lon="-108.09595279103937"><ele>1880.0</ele><time>2026-04-14T23:57:08Z</time></trkpt><trkpt lat="36.857502721795306" lon="-108.09593963702969"><ele>1880.0</ele><time>2026-04-14T23:57:09Z</time></trkpt><trkpt lat="36.85762840360521" lon="-108.09596629070157"><ele>1880.0</ele><time>2026-04-14T23:57:11Z</time></trkpt><trkpt lat="36.85773503752441" lon="-108.09594639307319"><ele>1880.0</ele><time>2026-04-14T23:57:12Z</time></trkpt><trkpt lat="36.85782236955873" lon="-108.0959028113187"><ele>1880.0</ele><time>2026-04-14T23:57:13Z</time></trkpt><trkpt lat="36.85788320219348" lon="-108.0958323318415"><ele>1879.8333333333333</ele><time>2026-04-14T23:57:14Z</time></trkpt><trkpt lat="36.85793263923041" lon="-108.09576881701813"><ele>1879.6666666666665</ele><time>2026-04-14T23:57:15Z</time></trkpt><trkpt lat="36.85799327450452" lon="-108.09572279315765"><ele>1879.5</ele><time>2026-04-14T23:57:16Z</time></trkpt><trkpt lat="36.85808672187133" lon="-108.09569413960236"><ele>1879.3333333333335</ele><time>2026-04-14T23:57:17Z</time></trkpt><trkpt lat="36.85819947347368" lon="-108.09566915107776"><ele>1879.1666666666667</ele><time>2026-04-14T23:57:18Z</time></trkpt><trkpt lat="36.858275082056814" lon="-108.09564111815236"><ele>1879.0</ele><time>2026-04-14T23:57:19Z</time></trkpt><trkpt lat="36.85832573598934" lon="-108.0955781113526"><ele>1878.0000000000002</ele><time>2026-04-14T23:57:20Z</time></trkpt><trkpt lat="36.85838470528069" lon="-108.0955216458781"><ele>1877.0</ele><time>2026-04-14T23:57:21Z</time></trkpt><trkpt lat="36.85844620385714" lon="-108.09544903813375"><ele>1876.0</ele><time>2026-04-14T23:57:22Z</time></trkpt><trkpt lat="36.85850624525518" lon="-108.09537802549275"><ele>1875.0</ele><time>2026-04-14T23:57:23Z</time></trkpt><trkpt lat="36.85858100798249" lon="-108.09531106230462"><ele>1874.0000000000002</ele><time>2026-04-14T23:57:24Z</time></trkpt><trkpt lat="36.85864605636068" lon="-108.09526885725894"><ele>1873.0</ele><time>2026-04-14T23:57:25Z</time></trkpt><trkpt lat="36.85871575564672" lon="-108.09520984853972"><ele>1872.6666666666667</ele><time>2026-04-14T23:57:26Z</time></trkpt><trkpt lat="36.8587994690786" lon="-108.09514280178246"><ele>1872.3333333333335</ele><time>2026-04-14T23:57:27Z</time></trkpt><trkpt lat="36.85887070677975" lon="-108.09508715249893"><ele>1872.0</ele><time>2026-04-14T23:57:28Z</time></trkpt><trkpt lat="36.858944823767416" lon="-108.09502527556101"><ele>1871.6666666666665</ele><time>2026-04-14T23:57:29Z</time></trkpt><trkpt lat="36.85901162035321" lon="-108.09496819807367"><ele>1871.3333333333333</ele><time>2026-04-14T23:57:30Z</time></trkpt><trkpt lat="36.85907288590989" lon="-108.0949319942213"><ele>1871.0</ele><time>2026-04-14T23:57:31Z</time></trkpt><trkpt lat="36.859199268881326" lon="-108.09489919371184"><ele>1869.8</ele><time>2026-04-14T23:58:00Z</time></trkpt><trkpt lat="36.85929947991305" lon="-108.09486400636114"><ele>1868.6</ele><time>2026-04-14T23:58:01Z</time></trkpt><trkpt lat="36.85939472158987" lon="-108.09483236919789"><ele>1867.4</ele><time>2026-04-14T23:58:02Z</time></trkpt><trkpt lat="36.85946613358313" lon="-108.09483301468302"><ele>1866.2</ele><time>2026-04-14T23:58:03Z</time></trkpt><trkpt lat="36.85955142898742" lon="-108.0948199138066"><ele>1865.0</ele><time>2026-04-14T23:58:04Z</time></trkpt><trkpt lat="36.85964963447356" lon="-108.09480081423249"><ele>1864.9999999999998</ele><time>2026-04-14T23:58:05Z</time></trkpt><trkpt lat="36.85974937252899" lon="-108.09479090733501"><ele>1865.0</ele><time>2026-04-14T23:58:06Z</time></trkpt><trkpt lat="36.85981661054966" lon="-108.09480921026079"><ele>1865.0</ele><time>2026-04-14T23:58:07Z</time></trkpt><trkpt lat="36.859879171081076" lon="-108.09474538465766"><ele>1865.0</ele><time>2026-04-14T23:58:09Z</time></trkpt><trkpt lat="36.85993110458804" lon="-108.09469029811332"><ele>1864.9999999999998</ele><time>2026-04-14T23:58:10Z</time></trkpt><trkpt lat="36.859999186231505" lon="-108.09464823194165"><ele>1865.0</ele><time>2026-04-14T23:58:11Z</time></trkpt><trkpt lat="36.860079552572905" lon="-108.09465972423516"><ele>1865.8333333333333</ele><time>2026-04-14T23:58:12Z</time></trkpt><trkpt lat="36.86017649240885" lon="-108.09468044506357"><ele>1866.6666666666665</ele><time>2026-04-14T23:58:13Z</time></trkpt><trkpt lat="36.86025990211119" lon="-108.09469600886088"><ele>1867.5</ele><time>2026-04-14T23:58:14Z</time></trkpt><trkpt lat="36.86032220789424" lon="-108.094676789763"><ele>1868.3333333333335</ele><time>2026-04-14T23:58:15Z</time></trkpt><trkpt lat="36.860432002687745" lon="-108.09468959631108"><ele>1869.1666666666667</ele><time>2026-04-14T23:58:17Z</time></trkpt><trkpt lat="36.860482546913886" lon="-108.0947661269865"><ele>1870.0</ele><time>2026-04-14T23:58:18Z</time></trkpt><trkpt lat="36.86052572470851" lon="-108.09487414973613"><ele>1870.0</ele><time>2026-04-14T23:58:19Z</time></trkpt><trkpt lat="36.86058161807494" lon="-108.09492203617779"><ele>1870.0</ele><time>2026-04-14T23:58:20Z</time></trkpt><trkpt lat="36.86068568090114" lon="-108.09491484310972"><ele>1870.0</ele><time>2026-04-14T23:58:21Z</time></trkpt><trkpt lat="36.86077940119229" lon="-108.09493554260538"><ele>1870.0</ele><time>2026-04-14T23:58:22Z</time></trkpt><trkpt lat="36.86087587722882" lon="-108.09501031670244"><ele>1870.0</ele><time>2026-04-14T23:58:23Z</time></trkpt><trkpt lat="36.860965838549824" lon="-108.09506183066105"><ele>1871.6</ele><time>2026-04-14T23:58:24Z</time></trkpt><trkpt lat="36.861077136631174" lon="-108.09506827119827"><ele>1873.2</ele><time>2026-04-14T23:58:25Z</time></trkpt><trkpt lat="36.86119824686486" lon="-108.09507810368008"><ele>1874.8000000000002</ele><time>2026-04-14T23:58:26Z</time></trkpt><trkpt lat="36.861299050501096" lon="-108.09507463394024"><ele>1876.4</ele><time>2026-04-14T23:58:27Z</time></trkpt><trkpt lat="36.86137529580714" lon="-108.09507913848297"><ele>1878.0</ele><time>2026-04-14T23:58:28Z</time></trkpt><trkpt lat="36.8614521712577" lon="-108.09510318743948"><ele>1878.0</ele><time>2026-04-14T23:58:29Z</time></trkpt><trkpt lat="36.86152715201633" lon="-108.09512146009074"><ele>1878.0</ele><time>2026-04-14T23:58:30Z</time></trkpt><trkpt lat="36.86161414038175" lon="-108.09515981452832"><ele>1878.0</ele><time>2026-04-14T23:58:31Z</time></trkpt><trkpt lat="36.86167833131522" lon="-108.09519540673503"><ele>1878.0</ele><time>2026-04-14T23:58:32Z</time></trkpt><trkpt lat="36.861775420485394" lon="-108.09522763479946"><ele>1878.0</ele><time>2026-04-14T23:58:33Z</time></trkpt><trkpt lat="36.86184647669998" lon="-108.09529202508992"><ele>1878.0</ele><time>2026-04-14T23:58:34Z</time></trkpt><trkpt lat="36.861918298649506" lon="-108.09532890027879"><ele>1878.0</ele><time>2026-04-14T23:58:35Z</time></trkpt><trkpt lat="36.86201785418141" lon="-108.09536624071103"><ele>1878.0000000000002</ele><time>2026-04-14T23:58:36Z</time></trkpt><trkpt lat="36.86213091254628" lon="-108.09540941121551"><ele>1878.0000000000002</ele><time>2026-04-14T23:58:37Z</time></trkpt><trkpt lat="36.86222397451009" lon="-108.09543929571642"><ele>1878.0</ele><time>2026-04-14T23:58:38Z</time></trkpt><trkpt lat="36.86231144307233" lon="-108.09544378928165"><ele>1878.0</ele><time>2026-04-14T23:58:39Z</time></trkpt><trkpt lat="36.86241064897025" lon="-108.09540074085491"><ele>1878.0</ele><time>2026-04-14T23:58:40Z</time></trkpt><trkpt lat="36.86252175096297" lon="-108.095328053181"><ele>1878.0</ele><time>2026-04-14T23:58:41Z</time></trkpt><trkpt lat="36.862586928824406" lon="-108.0952327336058"><ele>1878.0</ele><time>2026-04-14T23:58:42Z</time></trkpt><trkpt lat="36.86262627857637" lon="-108.09515956040119"><ele>1878.0</ele><time>2026-04-14T23:58:43Z</time></trkpt><trkpt lat="36.862659708286046" lon="-108.09508121609862"><ele>1878.0</ele><time>2026-04-14T23:58:44Z</time></trkpt><trkpt lat="36.86272703992829" lon="-108.09503847481471"><ele>1878.0</ele><time>2026-04-14T23:58:45Z</time></trkpt><trkpt lat="36.86278935117735" lon="-108.09498416672388"><ele>1877.6000000000001</ele><time>2026-04-14T23:58:46Z</time></trkpt><trkpt lat="36.8628924277069" lon="-108.09485522609098"><ele>1877.2000000000003</ele><time>2026-04-14T23:58:48Z</time></trkpt><trkpt lat="36.862981527448554" lon="-108.09483127238211"><ele>1876.8</ele><time>2026-04-14T23:58:49Z</time></trkpt><trkpt lat="36.86304752251224" lon="-108.09482936377914"><ele>1876.4</ele><time>2026-04-14T23:59:17Z</time></trkpt><trkpt lat="36.86315355899984" lon="-108.09483638946054"><ele>1876.0</ele><time>2026-04-14T23:59:20Z</time></trkpt><trkpt lat="36.86323323372602" lon="-108.09478574158062"><ele>1876.0</ele><time>2026-04-14T23:59:21Z</time></trkpt><trkpt lat="36.86332108963664" lon="-108.09474429223346"><ele>1876.0</ele><time>2026-04-14T23:59:22Z</time></trkpt><trkpt lat="36.86340177158154" lon="-108.09474073647353"><ele>1876.0</ele><time>2026-04-14T23:59:23Z</time></trkpt><trkpt lat="36.86347513894253" lon="-108.09479440136667"><ele>1876.0</ele><time>2026-04-14T23:59:24Z</time></trkpt><trkpt lat="36.863561013678996" lon="-108.09486038684751"><ele>1876.0</ele><time>2026-04-14T23:59:25Z</time></trkpt><trkpt lat="36.86365883100005" lon="-108.09487721336039"><ele>1876.1999999999998</ele><time>2026-04-14T23:59:26Z</time></trkpt><trkpt lat="36.86374335016453" lon="-108.09485053016638"><ele>1876.3999999999999</ele><time>2026-04-14T23:59:27Z</time></trkpt><trkpt lat="36.86380259099913" lon="-108.09481053151029"><ele>1876.6</ele><time>2026-04-14T23:59:28Z</time></trkpt><trkpt lat="36.86388649558482" lon="-108.09470724353962"><ele>1876.8</ele><time>2026-04-14T23:59:30Z</time></trkpt><trkpt lat="36.863949842762196" lon="-108.0946273148555"><ele>1877.0</ele><time>2026-04-14T23:59:31Z</time></trkpt><trkpt lat="36.86399853859657" lon="-108.09450414289597"><ele>1876.9999999999998</ele><time>2026-04-14T23:59:32Z</time></trkpt><trkpt lat="36.864030956796284" lon="-108.09442890700208"><ele>1877.0</ele><time>2026-04-14T23:59:33Z</time></trkpt><trkpt lat="36.86409041066007" lon="-108.09438566644896"><ele>1877.0</ele><time>2026-04-14T23:59:34Z</time></trkpt><trkpt lat="36.864159116131965" lon="-108.0943546207633"><ele>1877.0</ele><time>2026-04-14T23:59:35Z</time></trkpt><trkpt lat="36.86422898044749" lon="-108.09432191340125"><ele>1876.9999999999998</ele><time>2026-04-14T23:59:36Z</time></trkpt><trkpt lat="36.86431938251522" lon="-108.09432798521901"><ele>1877.0</ele><time>2026-04-14T23:59:37Z</time></trkpt><trkpt lat="36.86440020514294" lon="-108.09433590063125"><ele>1877.3999999999999</ele><time>2026-04-14T23:59:38Z</time></trkpt><trkpt lat="36.864479940482134" lon="-108.09435498773578"><ele>1877.7999999999997</ele><time>2026-04-14T23:59:39Z</time></trkpt><trkpt lat="36.86454590787726" lon="-108.09444172903623"><ele>1878.2</ele><time>2026-04-14T23:59:40Z</time></trkpt><trkpt lat="36.86461483317987" lon="-108.09458061000568"><ele>1878.6</ele><time>2026-04-14T23:59:41Z</time></trkpt><trkpt lat="36.86470295899417" lon="-108.0946763386344"><ele>1879.0</ele><time>2026-04-14T23:59:42Z</time></trkpt><trkpt lat="36.86478423758598" lon="-108.09475138695962"><ele>1879.0000000000002</ele><time>2026-04-14T23:59:43Z</time></trkpt><trkpt lat="36.864847041489554" lon="-108.09479394417859"><ele>1879.0</ele><time>2026-04-14T23:59:44Z</time></trkpt><trkpt lat="36.86492076079138" lon="-108.09477576112992"><ele>1879.0</ele><time>2026-04-14T23:59:45Z</time></trkpt><trkpt lat="36.865014356205165" lon="-108.09471391136195"><ele>1879.0</ele><time>2026-04-14T23:59:46Z</time></trkpt><trkpt lat="36.86512135155971" lon="-108.09467277874116"><ele>1879.0000000000002</ele><time>2026-04-14T23:59:47Z</time></trkpt><trkpt lat="36.865204866899376" lon="-108.09465447448576"><ele>1879.0</ele><time>2026-04-14T23:59:48Z</time></trkpt><trkpt lat="36.86528649658405" lon="-108.09459106398019"><ele>1880.2</ele><time>2026-04-14T23:59:50Z</time></trkpt><trkpt lat="36.86540788605264" lon="-108.09451672820455"><ele>1881.4</ele><time>2026-04-14T23:59:52Z</time></trkpt><trkpt lat="36.86548956723415" lon="-108.09450970120787"><ele>1882.6</ele><time>2026-04-14T23:59:53Z</time></trkpt><trkpt lat="36.86558664191375" lon="-108.09452046717894"><ele>1883.8</ele><time>2026-04-14T23:59:54Z</time></trkpt><trkpt lat="36.865709901578924" lon="-108.09452855322844"><ele>1885.0</ele><time>2026-04-14T23:59:55Z</time></trkpt><trkpt lat="36.86584237091089" lon="-108.09451995579263"><ele>1885.8</ele><time>2026-04-14T23:59:56Z</time></trkpt><trkpt lat="36.865954728226015" lon="-108.09449376318322"><ele>1886.6</ele><time>2026-04-14T23:59:57Z</time></trkpt><trkpt lat="36.8660674010679" lon="-108.09449656891958"><ele>1887.4</ele><time>2026-04-14T23:59:58Z</time></trkpt><trkpt lat="36.86615963717817" lon="-108.09453986062653"><ele>1888.2</ele><time>2026-04-14T23:59:59Z</time></trkpt><trkpt lat="36.8662580366772" lon="-108.09460804752194"><ele>1889.0</ele><time>2026-04-15T00:00:00Z</time></trkpt><trkpt lat="36.86637069781607" lon="-108.09463861760875"><ele>1889.0</ele><time>2026-04-15T00:00:01Z</time></trkpt><trkpt lat="36.86645617404911" lon="-108.09461529767397"><ele>1889.0</ele><time>2026-04-15T00:00:02Z</time></trkpt><trkpt lat="36.86656076803183" lon="-108.09458334632289"><ele>1889.0</ele><time>2026-04-15T00:00:03Z</time></trkpt><trkpt lat="36.86668339608114" lon="-108.09458659211833"><ele>1889.0</ele><time>2026-04-15T00:00:04Z</time></trkpt><trkpt lat="36.86677941989535" lon="-108.09458868423836"><ele>1889.0</ele><time>2026-04-15T00:00:05Z</time></trkpt><trkpt lat="36.866811882639496" lon="-108.09473480366223"><ele>1889.2</ele><time>2026-04-15T00:00:07Z</time></trkpt><trkpt lat="36.86682900757121" lon="-108.09485728454827"><ele>1889.4</ele><time>2026-04-15T00:00:08Z</time></trkpt><trkpt lat="36.866896993850844" lon="-108.09498238287642"><ele>1889.6</ele><time>2026-04-15T00:00:09Z</time></trkpt><trkpt lat="36.86695722674114" lon="-108.09511868256607"><ele>1889.8</ele><time>2026-04-15T00:00:10Z</time></trkpt><trkpt lat="36.86702451933541" lon="-108.09520165096166"><ele>1890.0</ele><time>2026-04-15T00:00:11Z</time></trkpt><trkpt lat="36.86710437559341" lon="-108.09524857735786"><ele>1891.0</ele><time>2026-04-15T00:00:12Z</time></trkpt><trkpt lat="36.86721677423957" lon="-108.09526247133581"><ele>1892.0</ele><time>2026-04-15T00:00:13Z</time></trkpt><trkpt lat="36.867342047869" lon="-108.09529345028453"><ele>1893.0</ele><time>2026-04-15T00:00:14Z</time></trkpt><trkpt lat="36.867453852671986" lon="-108.09532830152172"><ele>1894.0</ele><time>2026-04-15T00:00:15Z</time></trkpt><trkpt lat="36.86753452712734" lon="-108.09543011578262"><ele>1895.0</ele><time>2026-04-15T00:00:16Z</time></trkpt><trkpt lat="36.86761228897881" lon="-108.09557310090916"><ele>1896.0</ele><time>2026-04-15T00:00:17Z</time></trkpt><trkpt lat="36.86768862607708" lon="-108.09569779421233"><ele>1897.0</ele><time>2026-04-15T00:00:18Z</time></trkpt><trkpt lat="36.86777977104168" lon="-108.09580559619872"><ele>1898.0</ele><time>2026-04-15T00:00:19Z</time></trkpt><trkpt lat="36.867862987267664" lon="-108.0959327272186"><ele>1898.6000000000001</ele><time>2026-04-15T00:00:20Z</time></trkpt><trkpt lat="36.86792434474751" lon="-108.09603414908986"><ele>1899.2000000000003</ele><time>2026-04-15T00:00:21Z</time></trkpt><trkpt lat="36.86799910895004" lon="-108.09612375349704"><ele>1899.8</ele><time>2026-04-15T00:00:22Z</time></trkpt><trkpt lat="36.86807377385282" lon="-108.09623350277326"><ele>1900.4</ele><time>2026-04-15T00:00:23Z</time></trkpt><trkpt lat="36.868146879738084" lon="-108.09633495234878"><ele>1901.0</ele><time>2026-04-15T00:00:24Z</time></trkpt><trkpt lat="36.868264020961554" lon="-108.09642671783072"><ele>1901.0</ele><time>2026-04-15T00:00:25Z</time></trkpt><trkpt lat="36.86836655081428" lon="-108.09650208037148"><ele>1901.0</ele><time>2026-04-15T00:00:26Z</time></trkpt><trkpt lat="36.86847213623684" lon="-108.09662026453866"><ele>1901.0</ele><time>2026-04-15T00:00:27Z</time></trkpt><trkpt lat="36.868570707986834" lon="-108.09674619069588"><ele>1901.0</ele><time>2026-04-15T00:00:28Z</time></trkpt><trkpt lat="36.86865370827991" lon="-108.09687562574719"><ele>1902.6</ele><time>2026-04-15T00:00:29Z</time></trkpt><trkpt lat="36.86872750576832" lon="-108.09695910092182"><ele>1904.1999999999998</ele><time>2026-04-15T00:00:30Z</time></trkpt><trkpt lat="36.868875900365" lon="-108.09691287900102"><ele>1905.8000000000002</ele><time>2026-04-15T00:00:32Z</time></trkpt><trkpt lat="36.868964055329556" lon="-108.09685927153292"><ele>1907.4</ele><time>2026-04-15T00:00:33Z</time></trkpt><trkpt lat="36.86904108080155" lon="-108.09678564215065"><ele>1909.0</ele><time>2026-04-15T00:00:34Z</time></trkpt><trkpt lat="36.86914073707466" lon="-108.09668644303198"><ele>1909.0000000000002</ele><time>2026-04-15T00:00:35Z</time></trkpt><trkpt lat="36.86923866320926" lon="-108.09669437480214"><ele>1909.0</ele><time>2026-04-15T00:00:36Z</time></trkpt><trkpt lat="36.8693035686016" lon="-108.09674162275265"><ele>1909.0</ele><time>2026-04-15T00:00:37Z</time></trkpt><trkpt lat="36.86936532063515" lon="-108.09677777681254"><ele>1909.0</ele><time>2026-04-15T00:00:38Z</time></trkpt><trkpt lat="36.86942871745365" lon="-108.0968154270053"><ele>1909.0000000000002</ele><time>2026-04-15T00:00:39Z</time></trkpt><trkpt lat="36.869518325795816" lon="-108.0968808255154"><ele>1909.0</ele><time>2026-04-15T00:00:40Z</time></trkpt><trkpt lat="36.869619851747565" lon="-108.09696081904914"><ele>1908.4</ele><time>2026-04-15T00:00:41Z</time></trkpt><trkpt lat="36.86972644535928" lon="-108.0970447105121"><ele>1907.8000000000002</ele><time>2026-04-15T00:00:42Z</time></trkpt><trkpt lat="36.86981206497299" lon="-108.09709143699003"><ele>1907.1999999999998</ele><time>2026-04-15T00:00:43Z</time></trkpt><trkpt lat="36.86987548540327" lon="-108.09710990600578"><ele>1906.6</ele><time>2026-04-15T00:00:44Z</time></trkpt><trkpt lat="36.86998995809606" lon="-108.09706720372414"><ele>1906.0</ele><time>2026-04-15T00:00:46Z</time></trkpt><trkpt lat="36.87008294783918" lon="-108.09710039350367"><ele>1905.6666666666667</ele><time>2026-04-15T00:00:47Z</time></trkpt><trkpt lat="36.87013436314362" lon="-108.097170069924"><ele>1905.3333333333335</ele><time>2026-04-15T00:00:48Z</time></trkpt><trkpt lat="36.870218621015546" lon="-108.09716699728115"><ele>1905.0</ele><time>2026-04-15T00:00:49Z</time></trkpt><trkpt lat="36.87028711865424" lon="-108.09720382163702"><ele>1904.6666666666665</ele><time>2026-04-15T00:00:50Z</time></trkpt><trkpt lat="36.87031388123983" lon="-108.09732574427709"><ele>1904.3333333333333</ele><time>2026-04-15T00:00:51Z</time></trkpt><trkpt lat="36.8703715028922" lon="-108.09743727529809"><ele>1904.0</ele><time>2026-04-15T00:00:52Z</time></trkpt><trkpt lat="36.870495633269414" lon="-108.09754028001693"><ele>1903.6666666666665</ele><time>2026-04-15T00:00:53Z</time></trkpt><trkpt lat="36.870644294977495" lon="-108.09765611283164"><ele>1903.3333333333335</ele><time>2026-04-15T00:00:54Z</time></trkpt><trkpt lat="36.87079162951946" lon="-108.09777205415708"><ele>1903.0</ele><time>2026-04-15T00:00:55Z</time></trkpt><trkpt lat="36.87092137213083" lon="-108.09789797752173"><ele>1901.75</ele><time>2026-04-15T00:00:56Z</time></trkpt><trkpt lat="36.87101018807337" lon="-108.09801840216741"><ele>1900.5</ele><time>2026-04-15T00:00:57Z</time></trkpt><trkpt lat="36.871094393662695" lon="-108.09813705438499"><ele>1899.25</ele><time>2026-04-15T00:00:58Z</time></trkpt><trkpt lat="36.87120126529602" lon="-108.09826670808701"><ele>1898.0</ele><time>2026-04-15T00:00:59Z</time></trkpt><trkpt lat="36.871302072669494" lon="-108.09839019604203"><ele>1898.0</ele><time>2026-04-15T00:01:00Z</time></trkpt><trkpt lat="36.87138301776474" lon="-108.09847201290391"><ele>1898.0000000000002</ele><time>2026-04-15T00:01:01Z</time></trkpt><trkpt lat="36.87144868375689" lon="-108.09856217067505"><ele>1898.0000000000002</ele><time>2026-04-15T00:01:02Z</time></trkpt><trkpt lat="36.871406597650434" lon="-108.09870086393094"><ele>1898.0</ele><time>2026-04-15T00:01:04Z</time></trkpt><trkpt lat="36.87134642023008" lon="-108.0987761286982"><ele>1898.0</ele><time>2026-04-15T00:01:05Z</time></trkpt><trkpt lat="36.871351691981914" lon="-108.09888085522651"><ele>1898.0</ele><time>2026-04-15T00:01:06Z</time></trkpt><trkpt lat="36.87140490984087" lon="-108.09899584441267"><ele>1898.0</ele><time>2026-04-15T00:01:07Z</time></trkpt><trkpt lat="36.871483871872115" lon="-108.09911130964855"><ele>1898.0</ele><time>2026-04-15T00:01:08Z</time></trkpt><trkpt lat="36.87158279727967" lon="-108.09920507390777"><ele>1898.0</ele><time>2026-04-15T00:01:09Z</time></trkpt><trkpt lat="36.87168576560708" lon="-108.09929287753901"><ele>1896.5</ele><time>2026-04-15T00:01:10Z</time></trkpt><trkpt lat="36.87177864151389" lon="-108.09937906511465"><ele>1895.0</ele><time>2026-04-15T00:01:11Z</time></trkpt><trkpt lat="36.871846773009025" lon="-108.09946908709617"><ele>1893.5</ele><time>2026-04-15T00:01:12Z</time></trkpt><trkpt lat="36.871879510161016" lon="-108.09962056690898"><ele>1892.0</ele><time>2026-04-15T00:01:13Z</time></trkpt><trkpt lat="36.87190436716189" lon="-108.0997566327366"><ele>1892.0</ele><time>2026-04-15T00:01:14Z</time></trkpt><trkpt lat="36.871961950046" lon="-108.09981500511269"><ele>1891.9999999999998</ele><time>2026-04-15T00:01:15Z</time></trkpt><trkpt lat="36.872066322479306" lon="-108.09988780459419"><ele>1891.9999999999998</ele><time>2026-04-15T00:01:16Z</time></trkpt><trkpt lat="36.8721585520563" lon="-108.09998657068788"><ele>1892.0</ele><time>2026-04-15T00:01:17Z</time></trkpt><trkpt lat="36.872222491539546" lon="-108.1000708502864"><ele>1892.0</ele><time>2026-04-15T00:01:18Z</time></trkpt><trkpt lat="36.87231879766669" lon="-108.10009131669193"><ele>1892.0</ele><time>2026-04-15T00:01:19Z</time></trkpt><trkpt lat="36.8724389963033" lon="-108.10011899711021"><ele>1891.9999999999998</ele><time>2026-04-15T00:01:20Z</time></trkpt><trkpt lat="36.872507594851726" lon="-108.10019791411645"><ele>1891.9999999999998</ele><time>2026-04-15T00:01:21Z</time></trkpt><trkpt lat="36.87253178316915" lon="-108.10031123148711"><ele>1892.0</ele><time>2026-04-15T00:01:22Z</time></trkpt><trkpt lat="36.872555662852584" lon="-108.10047686408664"><ele>1892.0</ele><time>2026-04-15T00:01:23Z</time></trkpt><trkpt lat="36.87258031846936" lon="-108.10066668136699"><ele>1891.0</ele><time>2026-04-15T00:01:24Z</time></trkpt><trkpt lat="36.87263745939394" lon="-108.10080058626517"><ele>1889.9999999999998</ele><time>2026-04-15T00:01:25Z</time></trkpt><trkpt lat="36.8727219553751" lon="-108.1008955074984"><ele>1888.9999999999998</ele><time>2026-04-15T00:01:26Z</time></trkpt><trkpt lat="36.872791576882854" lon="-108.1009862919836"><ele>1888.0</ele><time>2026-04-15T00:01:27Z</time></trkpt><trkpt lat="36.87280925415462" lon="-108.1010916018455"><ele>1887.0</ele><time>2026-04-15T00:01:28Z</time></trkpt><trkpt lat="36.87281117812472" lon="-108.1012243036394"><ele>1887.0</ele><time>2026-04-15T00:01:29Z</time></trkpt><trkpt lat="36.872818502170354" lon="-108.10137693828568"><ele>1887.0</ele><time>2026-04-15T00:01:30Z</time></trkpt><trkpt lat="36.872864093486136" lon="-108.10152797870924"><ele>1887.0</ele><time>2026-04-15T00:01:31Z</time></trkpt><trkpt lat="36.87291607695577" lon="-108.10165997338363"><ele>1887.0</ele><time>2026-04-15T00:01:32Z</time></trkpt><trkpt lat="36.87293075279484" lon="-108.10177894071681"><ele>1887.1999999999998</ele><time>2026-04-15T00:01:33Z</time></trkpt><trkpt lat="36.872931691394044" lon="-108.10190155235212"><ele>1887.3999999999999</ele><time>2026-04-15T00:01:34Z</time></trkpt><trkpt lat="36.872951949833634" lon="-108.10198411451536"><ele>1887.6000000000001</ele><time>2026-04-15T00:01:35Z</time></trkpt><trkpt lat="36.87304963105134" lon="-108.10203526823771"><ele>1887.8000000000002</ele><time>2026-04-15T00:01:36Z</time></trkpt><trkpt lat="36.87315784640184" lon="-108.10206095267384"><ele>1888.0</ele><time>2026-04-15T00:01:37Z</time></trkpt><trkpt lat="36.87323982785462" lon="-108.10210555305116"><ele>1888.0</ele><time>2026-04-15T00:01:38Z</time></trkpt><trkpt lat="36.87334443447735" lon="-108.10219561885572"><ele>1888.0000000000002</ele><time>2026-04-15T00:01:39Z</time></trkpt><trkpt lat="36.87345640183995" lon="-108.10226132882043"><ele>1888.0000000000002</ele><time>2026-04-15T00:01:40Z</time></trkpt><trkpt lat="36.87353449051751" lon="-108.10233371589266"><ele>1888.0</ele><time>2026-04-15T00:01:41Z</time></trkpt><trkpt lat="36.873592204237106" lon="-108.10243222917295"><ele>1888.0</ele><time>2026-04-15T00:01:42Z</time></trkpt><trkpt lat="36.8736588728803" lon="-108.10254029798604"><ele>1886.8333333333335</ele><time>2026-04-15T00:01:43Z</time></trkpt><trkpt lat="36.87371350241457" lon="-108.10260901702006"><ele>1885.6666666666667</ele><time>2026-04-15T00:01:44Z</time></trkpt><trkpt lat="36.87373478083536" lon="-108.1027476515466"><ele>1884.5</ele><time>2026-04-15T00:01:46Z</time></trkpt><trkpt lat="36.87377740965542" lon="-108.10283800735722"><ele>1883.3333333333335</ele><time>2026-04-15T00:01:47Z</time></trkpt><trkpt lat="36.87382675905052" lon="-108.10289622147512"><ele>1882.1666666666667</ele><time>2026-04-15T00:01:48Z</time></trkpt><trkpt lat="36.87382820144552" lon="-108.1029889516937"><ele>1881.0</ele><time>2026-04-15T00:01:49Z</time></trkpt><trkpt lat="36.873795026052704" lon="-108.10310237162957"><ele>1881.0</ele><time>2026-04-15T00:01:50Z</time></trkpt><trkpt lat="36.87373879897135" lon="-108.1032243036691"><ele>1881.0</ele><time>2026-04-15T00:01:51Z</time></trkpt><trkpt lat="36.87366753985228" lon="-108.10335378628903"><ele>1881.0</ele><time>2026-04-15T00:01:52Z</time></trkpt><trkpt lat="36.87358956742302" lon="-108.10345096399654"><ele>1881.0</ele><time>2026-04-15T00:01:53Z</time></trkpt><trkpt lat="36.87349419844728" lon="-108.10351513962664"><ele>1881.0</ele><time>2026-04-15T00:01:54Z</time></trkpt><trkpt lat="36.873514997996004" lon="-108.1037039555223"><ele>1881.0</ele><time>2026-04-15T00:01:56Z</time></trkpt><trkpt lat="36.87349249523464" lon="-108.10381376297897"><ele>1881.0</ele><time>2026-04-15T00:01:57Z</time></trkpt><trkpt lat="36.87343302990329" lon="-108.10387433980384"><ele>1881.0</ele><time>2026-04-15T00:01:58Z</time></trkpt><trkpt lat="36.87347825043373" lon="-108.10403050301184"><ele>1880.75</ele><time>2026-04-15T00:02:00Z</time></trkpt><trkpt lat="36.87347030684254" lon="-108.10413804876204"><ele>1880.5</ele><time>2026-04-15T00:02:02Z</time></trkpt><trkpt lat="36.873650823465155" lon="-108.10405407038422"><ele>1880.25</ele><time>2026-04-15T00:02:04Z</time></trkpt><trkpt lat="36.87376110394119" lon="-108.10396704384098"><ele>1880.0</ele><time>2026-04-15T00:02:05Z</time></trkpt><trkpt lat="36.873852247939034" lon="-108.10383834310623"><ele>1880.0</ele><time>2026-04-15T00:02:06Z</time></trkpt><trkpt lat="36.873942123393405" lon="-108.10372016975677"><ele>1880.0</ele><time>2026-04-15T00:02:07Z</time></trkpt><trkpt lat="36.87403760522138" lon="-108.10367069990173"><ele>1880.0</ele><time>2026-04-15T00:02:08Z</time></trkpt><trkpt lat="36.87413148908284" lon="-108.10360912634579"><ele>1880.0</ele><time>2026-04-15T00:02:09Z</time></trkpt><trkpt lat="36.87419752956175" lon="-108.10356056996586"><ele>1880.0</ele><time>2026-04-15T00:02:10Z</time></trkpt><trkpt lat="36.87425709210693" lon="-108.1034824200339"><ele>1878.8</ele><time>2026-04-15T00:02:11Z</time></trkpt><trkpt lat="36.87434769675983" lon="-108.10342536557599"><ele>1877.6</ele><time>2026-04-15T00:02:12Z</time></trkpt><trkpt lat="36.87443651553301" lon="-108.1033660833006"><ele>1876.4</ele><time>2026-04-15T00:02:13Z</time></trkpt><trkpt lat="36.87448111961802" lon="-108.10329716543356"><ele>1875.2</ele><time>2026-04-15T00:02:14Z</time></trkpt><trkpt lat="36.87449865198325" lon="-108.10316801852692"><ele>1874.0</ele><time>2026-04-15T00:02:15Z</time></trkpt><trkpt lat="36.87458007315151" lon="-108.10311222426526"><ele>1874.0</ele><time>2026-04-15T00:02:16Z</time></trkpt><trkpt lat="36.874664385372945" lon="-108.10306989836232"><ele>1874.0</ele><time>2026-04-15T00:02:18Z</time></trkpt><trkpt lat="36.87464966369799" lon="-108.10293607900877"><ele>1874.0</ele><time>2026-04-15T00:02:19Z</time></trkpt><trkpt lat="36.87468041901065" lon="-108.10282393600434"><ele>1874.0</ele><time>2026-04-15T00:02:20Z</time></trkpt><trkpt lat="36.87476422921273" lon="-108.1027535319749"><ele>1874.0</ele><time>2026-04-15T00:02:21Z</time></trkpt><trkpt lat="36.8748509707903" lon="-108.10274543117113"><ele>1874.0</ele><time>2026-04-15T00:02:22Z</time></trkpt><trkpt lat="36.87495395760382" lon="-108.10273269057656"><ele>1874.0</ele><time>2026-04-15T00:02:23Z</time></trkpt><trkpt lat="36.87505117733966" lon="-108.10275611182709"><ele>1874.0</ele><time>2026-04-15T00:02:24Z</time></trkpt><trkpt lat="36.875145397494244" lon="-108.10280881341063"><ele>1874.0</ele><time>2026-04-15T00:02:25Z</time></trkpt><trkpt lat="36.87525345409988" lon="-108.1028284609682"><ele>1874.0</ele><time>2026-04-15T00:02:26Z</time></trkpt><trkpt lat="36.87535403941168" lon="-108.10277440854816"><ele>1873.1666666666665</ele><time>2026-04-15T00:02:27Z</time></trkpt><trkpt lat="36.87545157472111" lon="-108.10272112266577"><ele>1872.3333333333333</ele><time>2026-04-15T00:02:28Z</time></trkpt><trkpt lat="36.875539699532695" lon="-108.10270188599395"><ele>1871.5</ele><time>2026-04-15T00:02:29Z</time></trkpt><trkpt lat="36.87559916144007" lon="-108.10267157440273"><ele>1870.6666666666665</ele><time>2026-04-15T00:02:30Z</time></trkpt><trkpt lat="36.875684572329575" lon="-108.10264099925692"><ele>1869.8333333333333</ele><time>2026-04-15T00:02:32Z</time></trkpt><trkpt lat="36.87575743893675" lon="-108.10263836564455"><ele>1869.0</ele><time>2026-04-15T00:02:34Z</time></trkpt><trkpt lat="36.875831128193326" lon="-108.10263806541761"><ele>1869.0</ele><time>2026-04-15T00:02:53Z</time></trkpt><trkpt lat="36.875892335412445" lon="-108.10266982903453"><ele>1869.0</ele><time>2026-04-15T00:02:54Z</time></trkpt><trkpt lat="36.87597834078377" lon="-108.10274679930089"><ele>1869.0</ele><time>2026-04-15T00:02:55Z</time></trkpt><trkpt lat="36.87602641605555" lon="-108.10285072271819"><ele>1869.0</ele><time>2026-04-15T00:02:56Z</time></trkpt><trkpt lat="36.87606353829079" lon="-108.10295981629206"><ele>1869.0</ele><time>2026-04-15T00:02:57Z</time></trkpt><trkpt lat="36.876111589698034" lon="-108.10307831348719"><ele>1868.6</ele><time>2026-04-15T00:02:58Z</time></trkpt><trkpt lat="36.87617004047766" lon="-108.10315104178044"><ele>1868.2</ele><time>2026-04-15T00:02:59Z</time></trkpt><trkpt lat="36.87621264690729" lon="-108.10324021310919"><ele>1867.7999999999997</ele><time>2026-04-15T00:03:00Z</time></trkpt><trkpt lat="36.876248283045506" lon="-108.10337270436352"><ele>1867.3999999999999</ele><time>2026-04-15T00:03:01Z</time></trkpt><trkpt lat="36.876288683213325" lon="-108.10351321174893"><ele>1867.0</ele><time>2026-04-15T00:03:02Z</time></trkpt><trkpt lat="36.876341422681676" lon="-108.10363418915398"><ele>1867.0</ele><time>2026-04-15T00:03:03Z</time></trkpt><trkpt lat="36.87642148933402" lon="-108.1037600962007"><ele>1866.9999999999998</ele><time>2026-04-15T00:03:04Z</time></trkpt><trkpt lat="36.876492994721055" lon="-108.10387763639223"><ele>1866.9999999999998</ele><time>2026-04-15T00:03:05Z</time></trkpt><trkpt lat="36.87656290813775" lon="-108.10395425363184"><ele>1867.0</ele><time>2026-04-15T00:03:06Z</time></trkpt><trkpt lat="36.876655809158855" lon="-108.10401787057373"><ele>1867.0</ele><time>2026-04-15T00:03:07Z</time></trkpt><trkpt lat="36.87674435278801" lon="-108.10405062911977"><ele>1867.6666666666667</ele><time>2026-04-15T00:03:08Z</time></trkpt><trkpt lat="36.87680630222953" lon="-108.10406711278449"><ele>1868.3333333333335</ele><time>2026-04-15T00:03:09Z</time></trkpt><trkpt lat="36.87683562892977" lon="-108.1039482914294"><ele>1869.0</ele><time>2026-04-15T00:03:11Z</time></trkpt><trkpt lat="36.876840828667774" lon="-108.10386593058455"><ele>1869.6666666666665</ele><time>2026-04-15T00:03:12Z</time></trkpt><trkpt lat="36.876907115174404" lon="-108.10380861836467"><ele>1870.3333333333333</ele><time>2026-04-15T00:03:14Z</time></trkpt><trkpt lat="36.87700296356164" lon="-108.10376004422011"><ele>1871.0</ele><time>2026-04-15T00:03:35Z</time></trkpt><trkpt lat="36.87708912749141" lon="-108.10368757426944"><ele>1870.9999999999998</ele><time>2026-04-15T00:03:37Z</time></trkpt><trkpt lat="36.87714816491572" lon="-108.10363027922243"><ele>1871.0</ele><time>2026-04-15T00:03:38Z</time></trkpt><trkpt lat="36.87720952193138" lon="-108.10358051668771"><ele>1871.0</ele><time>2026-04-15T00:03:39Z</time></trkpt><trkpt lat="36.87727919853804" lon="-108.10352788531645"><ele>1871.0</ele><time>2026-04-15T00:03:40Z</time></trkpt><trkpt lat="36.877354534148104" lon="-108.10345780896455"><ele>1870.9999999999998</ele><time>2026-04-15T00:03:41Z</time></trkpt><trkpt lat="36.877444848556735" lon="-108.103363537873"><ele>1871.0</ele><time>2026-04-15T00:03:42Z</time></trkpt><trkpt lat="36.87754248990537" lon="-108.10328075061943"><ele>1873.25</ele><time>2026-04-15T00:03:43Z</time></trkpt><trkpt lat="36.87763627598336" lon="-108.1032209304393"><ele>1875.5</ele><time>2026-04-15T00:03:44Z</time></trkpt><trkpt lat="36.877733779334136" lon="-108.10313960903378"><ele>1877.75</ele><time>2026-04-15T00:03:45Z</time></trkpt><trkpt lat="36.87784245701104" lon="-108.10304179754776"><ele>1880.0</ele><time>2026-04-15T00:03:46Z</time></trkpt><trkpt lat="36.877971869711615" lon="-108.1029420903446"><ele>1880.0</ele><time>2026-04-15T00:03:47Z</time></trkpt><trkpt lat="36.8780709194376" lon="-108.10285607926049"><ele>1880.0</ele><time>2026-04-15T00:03:48Z</time></trkpt><trkpt lat="36.87812712804148" lon="-108.10279681252854"><ele>1880.0</ele><time>2026-04-15T00:03:49Z</time></trkpt><trkpt lat="36.87804069644992" lon="-108.10272565521657"><ele>1880.0</ele><time>2026-04-15T00:03:51Z</time></trkpt><trkpt lat="36.87794897718995" lon="-108.10267815646947"><ele>1880.0</ele><time>2026-04-15T00:03:52Z</time></trkpt><trkpt lat="36.87789127014591" lon="-108.10263741179175"><ele>1880.0</ele><time>2026-04-15T00:03:53Z</time></trkpt><trkpt lat="36.877817663255826" lon="-108.10259096242325"><ele>1880.0</ele><time>2026-04-15T00:03:54Z</time></trkpt><trkpt lat="36.87775060149897" lon="-108.10252803919697"><ele>1880.0</ele><time>2026-04-15T00:03:55Z</time></trkpt><trkpt lat="36.8776830703145" lon="-108.10239064630296"><ele>1880.0</ele><time>2026-04-15T00:03:56Z</time></trkpt><trkpt lat="36.87764005768045" lon="-108.10228270798046"><ele>1880.0</ele><time>2026-04-15T00:03:57Z</time></trkpt><trkpt lat="36.87758028578617" lon="-108.10219911317999"><ele>1880.4</ele><time>2026-04-15T00:03:58Z</time></trkpt><trkpt lat="36.877491850097805" lon="-108.10214167683591"><ele>1880.8</ele><time>2026-04-15T00:03:59Z</time></trkpt><trkpt lat="36.877442932258894" lon="-108.10208482081455"><ele>1881.1999999999998</ele><time>2026-04-15T00:04:00Z</time></trkpt><trkpt lat="36.87744732076319" lon="-108.10193822727025"><ele>1881.6</ele><time>2026-04-15T00:04:02Z</time></trkpt><trkpt lat="36.877366892021016" lon="-108.10181816846556"><ele>1882.0</ele><time>2026-04-15T00:04:04Z</time></trkpt><trkpt lat="36.877311487992024" lon="-108.1017382345844"><ele>1882.0</ele><time>2026-04-15T00:04:05Z</time></trkpt><trkpt lat="36.87723325089948" lon="-108.1016404335018"><ele>1881.9999999999998</ele><time>2026-04-15T00:04:06Z</time></trkpt><trkpt lat="36.877155521421685" lon="-108.1015356992125"><ele>1881.9999999999998</ele><time>2026-04-15T00:04:07Z</time></trkpt><trkpt lat="36.87708459778495" lon="-108.10147938034486"><ele>1882.0</ele><time>2026-04-15T00:04:08Z</time></trkpt><trkpt lat="36.87700516326872" lon="-108.10144194246173"><ele>1882.0</ele><time>2026-04-15T00:04:09Z</time></trkpt><trkpt lat="36.87694585102822" lon="-108.10137862328091"><ele>1881.6666666666667</ele><time>2026-04-15T00:04:10Z</time></trkpt><trkpt lat="36.876876863873456" lon="-108.10130807800688"><ele>1881.3333333333335</ele><time>2026-04-15T00:04:11Z</time></trkpt><trkpt lat="36.87681584495931" lon="-108.10125945890326"><ele>1881.0</ele><time>2026-04-15T00:04:12Z</time></trkpt><trkpt lat="36.876747533903206" lon="-108.10118435346963"><ele>1880.6666666666665</ele><time>2026-04-15T00:04:13Z</time></trkpt><trkpt lat="36.876684222906086" lon="-108.10113824224196"><ele>1880.3333333333333</ele><time>2026-04-15T00:04:14Z</time></trkpt><trkpt lat="36.8766020003604" lon="-108.10110622169536"><ele>1880.0</ele><time>2026-04-15T00:04:15Z</time></trkpt><trkpt lat="36.87654475014331" lon="-108.10107154601833"><ele>1879.9999999999998</ele><time>2026-04-15T00:04:16Z</time></trkpt><trkpt lat="36.876490977833335" lon="-108.10100808841395"><ele>1880.0</ele><time>2026-04-15T00:04:17Z</time></trkpt><trkpt lat="36.87647204247576" lon="-108.10091946421285"><ele>1880.0</ele><time>2026-04-15T00:04:18Z</time></trkpt><trkpt lat="36.87653041126767" lon="-108.10083398397171"><ele>1880.0</ele><time>2026-04-15T00:04:19Z</time></trkpt><trkpt lat="36.8765954654334" lon="-108.10083592927761"><ele>1879.9999999999998</ele><time>2026-04-15T00:04:20Z</time></trkpt><trkpt lat="36.87667297816671" lon="-108.10087634744484"><ele>1880.0</ele><time>2026-04-15T00:04:21Z</time></trkpt><trkpt lat="36.876753463695664" lon="-108.10085067716227"><ele>1881.75</ele><time>2026-04-15T00:04:22Z</time></trkpt><trkpt lat="36.876793773575244" lon="-108.10076763942031"><ele>1883.5</ele><time>2026-04-15T00:04:23Z</time></trkpt><trkpt lat="36.877089941860014" lon="-108.1008187219536"><ele>1885.25</ele><time>2026-04-15T00:04:26Z</time></trkpt><trkpt lat="36.877155152973806" lon="-108.10083137335178"><ele>1887.0</ele><time>2026-04-15T00:04:27Z</time></trkpt><trkpt lat="36.87724464671209" lon="-108.10079581166596"><ele>1887.0</ele><time>2026-04-15T00:04:28Z</time></trkpt><trkpt lat="36.877327364701834" lon="-108.10070633320795"><ele>1886.9999999999998</ele><time>2026-04-15T00:04:29Z</time></trkpt><trkpt lat="36.87741024509716" lon="-108.10062505410232"><ele>1886.9999999999998</ele><time>2026-04-15T00:04:30Z</time></trkpt><trkpt lat="36.8774539883005" lon="-108.10056002586357"><ele>1887.0</ele><time>2026-04-15T00:04:31Z</time></trkpt><trkpt lat="36.87751626213408" lon="-108.10046393133935"><ele>1887.0</ele><time>2026-04-15T00:04:32Z</time></trkpt><trkpt lat="36.877581063212475" lon="-108.10038396762333"><ele>1887.6666666666667</ele><time>2026-04-15T00:04:33Z</time></trkpt><trkpt lat="36.877649562000784" lon="-108.1002859582221"><ele>1888.3333333333335</ele><time>2026-04-15T00:04:34Z</time></trkpt><trkpt lat="36.87769299499915" lon="-108.10021479451783"><ele>1889.0</ele><time>2026-04-15T00:04:35Z</time></trkpt><trkpt lat="36.8777588778698" lon="-108.10015728539717"><ele>1889.6666666666667</ele><time>2026-04-15T00:04:36Z</time></trkpt><trkpt lat="36.87785398798245" lon="-108.10014861470151"><ele>1890.3333333333335</ele><time>2026-04-15T00:04:37Z</time></trkpt><trkpt lat="36.87793933309991" lon="-108.10017673421915"><ele>1891.0</ele><time>2026-04-15T00:04:38Z</time></trkpt><trkpt lat="36.87801964500229" lon="-108.10020127196725"><ele>1891.0</ele><time>2026-04-15T00:04:39Z</time></trkpt><trkpt lat="36.87810297914923" lon="-108.10018413974409"><ele>1891.0</ele><time>2026-04-15T00:04:40Z</time></trkpt><trkpt lat="36.8781983703889" lon="-108.1001211569506"><ele>1891.0</ele><time>2026-04-15T00:04:41Z</time></trkpt><trkpt lat="36.87826885906378" lon="-108.10002607903925"><ele>1891.0</ele><time>2026-04-15T00:04:42Z</time></trkpt><trkpt lat="36.87834439509054" lon="-108.09991572876952"><ele>1891.0</ele><time>2026-04-15T00:04:43Z</time></trkpt><trkpt lat="36.878422724069566" lon="-108.09983397254774"><ele>1890.8</ele><time>2026-04-15T00:04:44Z</time></trkpt><trkpt lat="36.87848108098989" lon="-108.09978421590317"><ele>1890.6</ele><time>2026-04-15T00:04:45Z</time></trkpt><trkpt lat="36.8784891020458" lon="-108.09970305700607"><ele>1890.4</ele><time>2026-04-15T00:04:46Z</time></trkpt><trkpt lat="36.8784975197736" lon="-108.09956342255875"><ele>1890.2</ele><time>2026-04-15T00:04:47Z</time></trkpt><trkpt lat="36.87853520793159" lon="-108.09940863146858"><ele>1890.0</ele><time>2026-04-15T00:04:48Z</time></trkpt><trkpt lat="36.878608816151825" lon="-108.09926664706384"><ele>1890.0</ele><time>2026-04-15T00:04:49Z</time></trkpt><trkpt lat="36.87867798997241" lon="-108.0991482540157"><ele>1890.0</ele><time>2026-04-15T00:04:50Z</time></trkpt><trkpt lat="36.87873598859821" lon="-108.09907743048159"><ele>1890.0</ele><time>2026-04-15T00:04:51Z</time></trkpt><trkpt lat="36.87880157508034" lon="-108.09907284494585"><ele>1890.0</ele><time>2026-04-15T00:04:52Z</time></trkpt><trkpt lat="36.87888715632813" lon="-108.09911373312379"><ele>1890.0</ele><time>2026-04-15T00:04:53Z</time></trkpt><trkpt lat="36.87898906624735" lon="-108.09916256083925"><ele>1890.0</ele><time>2026-04-15T00:04:54Z</time></trkpt><trkpt lat="36.87909649889659" lon="-108.09918279284285"><ele>1890.0</ele><time>2026-04-15T00:04:55Z</time></trkpt><trkpt lat="36.87920703064659" lon="-108.0991692819555"><ele>1890.0</ele><time>2026-04-15T00:04:56Z</time></trkpt><trkpt lat="36.87930671228503" lon="-108.09920141949365"><ele>1890.0</ele><time>2026-04-15T00:04:57Z</time></trkpt><trkpt lat="36.87940015075783" lon="-108.09921091650403"><ele>1890.0</ele><time>2026-04-15T00:04:58Z</time></trkpt><trkpt lat="36.87947772731752" lon="-108.09921460414218"><ele>1888.8</ele><time>2026-04-15T00:04:59Z</time></trkpt><trkpt lat="36.87952225595341" lon="-108.099304496298"><ele>1887.6</ele><time>2026-04-15T00:05:00Z</time></trkpt><trkpt lat="36.87952997642328" lon="-108.09942853842752"><ele>1886.4</ele><time>2026-04-15T00:05:01Z</time></trkpt><trkpt lat="36.87953915626865" lon="-108.09956180415914"><ele>1885.2</ele><time>2026-04-15T00:05:02Z</time></trkpt><trkpt lat="36.87955692031" lon="-108.09964614581509"><ele>1884.0</ele><time>2026-04-15T00:05:03Z</time></trkpt><trkpt lat="36.87967668629535" lon="-108.09958064515342"><ele>1884.0</ele><time>2026-04-15T00:05:05Z</time></trkpt><trkpt lat="36.87977833671818" lon="-108.09954070216887"><ele>1884.0</ele><time>2026-04-15T00:05:06Z</time></trkpt><trkpt lat="36.87986544395269" lon="-108.09959323426847"><ele>1884.0</ele><time>2026-04-15T00:05:07Z</time></trkpt><trkpt lat="36.87995288163189" lon="-108.09965118513345"><ele>1884.0</ele><time>2026-04-15T00:05:08Z</time></trkpt><trkpt lat="36.88005242511908" lon="-108.09966186489874"><ele>1884.0</ele><time>2026-04-15T00:05:09Z</time></trkpt><trkpt lat="36.88017783529411" lon="-108.09964371125608"><ele>1883.6</ele><time>2026-04-15T00:05:10Z</time></trkpt><trkpt lat="36.88030110702091" lon="-108.09964614697269"><ele>1883.2</ele><time>2026-04-15T00:05:11Z</time></trkpt><trkpt lat="36.88039618597203" lon="-108.09965151352307"><ele>1882.7999999999997</ele><time>2026-04-15T00:05:12Z</time></trkpt><trkpt lat="36.88046293779469" lon="-108.09966108341759"><ele>1882.3999999999999</ele><time>2026-04-15T00:05:13Z</time></trkpt><trkpt lat="36.88052995451249" lon="-108.09960393238558"><ele>1882.0</ele><time>2026-04-15T00:05:14Z</time></trkpt><trkpt lat="36.88062754414232" lon="-108.09960057978113"><ele>1882.0000000000002</ele><time>2026-04-15T00:05:15Z</time></trkpt><trkpt lat="36.88069158440081" lon="-108.09960329324831"><ele>1882.0</ele><time>2026-04-15T00:05:16Z</time></trkpt><trkpt lat="36.880741799884525" lon="-108.0995397975441"><ele>1882.0</ele><time>2026-04-15T00:05:17Z</time></trkpt><trkpt lat="36.88081549278299" lon="-108.09946114028291"><ele>1882.0</ele><time>2026-04-15T00:05:18Z</time></trkpt><trkpt lat="36.88088037078285" lon="-108.09937423491677"><ele>1882.0000000000002</ele><time>2026-04-15T00:05:19Z</time></trkpt><trkpt lat="36.88094156154691" lon="-108.09927419061177"><ele>1882.0</ele><time>2026-04-15T00:05:20Z</time></trkpt><trkpt lat="36.881083788796175" lon="-108.09919136524022"><ele>1882.0000000000002</ele><time>2026-04-15T00:05:22Z</time></trkpt><trkpt lat="36.88119737094399" lon="-108.09918898005252"><ele>1882.0</ele><time>2026-04-15T00:05:23Z</time></trkpt><trkpt lat="36.88126262219325" lon="-108.09917660014548"><ele>1882.0</ele><time>2026-04-15T00:05:24Z</time></trkpt><trkpt lat="36.88132161342771" lon="-108.09910816951512"><ele>1882.0</ele><time>2026-04-15T00:05:25Z</time></trkpt><trkpt lat="36.88139318061121" lon="-108.0990567017757"><ele>1882.0000000000002</ele><time>2026-04-15T00:05:26Z</time></trkpt><trkpt lat="36.88145013976595" lon="-108.0989836107307"><ele>1882.0</ele><time>2026-04-15T00:05:27Z</time></trkpt><trkpt lat="36.88149522875995" lon="-108.09891174294374"><ele>1881.5000000000002</ele><time>2026-04-15T00:05:28Z</time></trkpt><trkpt lat="36.88155991848985" lon="-108.09892390567842"><ele>1881.0</ele><time>2026-04-15T00:05:29Z</time></trkpt><trkpt lat="36.88166245764156" lon="-108.09895809386924"><ele>1880.5</ele><time>2026-04-15T00:05:30Z</time></trkpt><trkpt lat="36.881770572344564" lon="-108.09894799659793"><ele>1880.0</ele><time>2026-04-15T00:05:31Z</time></trkpt><trkpt lat="36.881832002857244" lon="-108.09897238249073"><ele>1879.5000000000002</ele><time>2026-04-15T00:05:32Z</time></trkpt><trkpt lat="36.88186705432286" lon="-108.09906134962559"><ele>1879.0</ele><time>2026-04-15T00:05:33Z</time></trkpt><trkpt lat="36.88196743872224" lon="-108.09916875479796"><ele>1877.5</ele><time>2026-04-15T00:05:34Z</time></trkpt><trkpt lat="36.88205378278552" lon="-108.09922179506624"><ele>1876.0</ele><time>2026-04-15T00:05:35Z</time></trkpt><trkpt lat="36.882228074522835" lon="-108.09916792437654"><ele>1874.5</ele><time>2026-04-15T00:05:37Z</time></trkpt><trkpt lat="36.88232754113762" lon="-108.0991560532167"><ele>1873.0</ele><time>2026-04-15T00:05:38Z</time></trkpt><trkpt lat="36.88241460865495" lon="-108.09918942719747"><ele>1873.0000000000002</ele><time>2026-04-15T00:05:39Z</time></trkpt><trkpt lat="36.88247834331479" lon="-108.09920127470434"><ele>1873.0</ele><time>2026-04-15T00:05:40Z</time></trkpt><trkpt lat="36.882551948122114" lon="-108.0991692297217"><ele>1873.0</ele><time>2026-04-15T00:05:41Z</time></trkpt><trkpt lat="36.882620980023496" lon="-108.09911974536467"><ele>1873.0</ele><time>2026-04-15T00:05:42Z</time></trkpt><trkpt lat="36.88269641017794" lon="-108.0991544836687"><ele>1873.0000000000002</ele><time>2026-04-15T00:05:44Z</time></trkpt><trkpt lat="36.88273358451918" lon="-108.09922067335337"><ele>1873.0</ele><time>2026-04-15T00:05:45Z</time></trkpt><trkpt lat="36.882791430148835" lon="-108.09932164546761"><ele>1871.8000000000002</ele><time>2026-04-15T00:05:46Z</time></trkpt><trkpt lat="36.88288625580727" lon="-108.09943779215789"><ele>1870.6000000000001</ele><time>2026-04-15T00:05:47Z</time></trkpt><trkpt lat="36.88293793200198" lon="-108.09955011800929"><ele>1869.3999999999999</ele><time>2026-04-15T00:05:48Z</time></trkpt><trkpt lat="36.882967263464764" lon="-108.09966944367268"><ele>1868.1999999999998</ele><time>2026-04-15T00:05:49Z</time></trkpt><trkpt lat="36.883042297804735" lon="-108.09973346115905"><ele>1867.0</ele><time>2026-04-15T00:05:50Z</time></trkpt><trkpt lat="36.883150027820314" lon="-108.0997744354322"><ele>1867.0</ele><time>2026-04-15T00:05:51Z</time></trkpt><trkpt lat="36.88326452261848" lon="-108.09981940579266"><ele>1867.0</ele><time>2026-04-15T00:05:52Z</time></trkpt><trkpt lat="36.883387438202114" lon="-108.09987099904815"><ele>1867.0</ele><time>2026-04-15T00:05:53Z</time></trkpt><trkpt lat="36.88349860901078" lon="-108.09992794435365"><ele>1867.0</ele><time>2026-04-15T00:05:54Z</time></trkpt><trkpt lat="36.88359136219892" lon="-108.09995393021251"><ele>1865.75</ele><time>2026-04-15T00:05:55Z</time></trkpt><trkpt lat="36.88362244384232" lon="-108.10018621960006"><ele>1864.5</ele><time>2026-04-15T00:05:58Z</time></trkpt><trkpt lat="36.88367055112292" lon="-108.1003085999272"><ele>1863.25</ele><time>2026-04-15T00:05:59Z</time></trkpt><trkpt lat="36.88372287740217" lon="-108.10040516381687"><ele>1862.0</ele><time>2026-04-15T00:06:00Z</time></trkpt><trkpt lat="36.883754788908526" lon="-108.100537906761"><ele>1861.9999999999998</ele><time>2026-04-15T00:06:01Z</time></trkpt><trkpt lat="36.88379873849281" lon="-108.10065118481712"><ele>1862.0</ele><time>2026-04-15T00:06:02Z</time></trkpt><trkpt lat="36.88386852094346" lon="-108.10071834704215"><ele>1862.0</ele><time>2026-04-15T00:06:03Z</time></trkpt><trkpt lat="36.88394172435013" lon="-108.10076256207614"><ele>1862.0</ele><time>2026-04-15T00:06:04Z</time></trkpt><trkpt lat="36.88397682668911" lon="-108.10085051417927"><ele>1861.9999999999998</ele><time>2026-04-15T00:06:05Z</time></trkpt><trkpt lat="36.8840032103441" lon="-108.10097061675523"><ele>1862.0</ele><time>2026-04-15T00:06:06Z</time></trkpt><trkpt lat="36.88408991136873" lon="-108.1010948883489"><ele>1861.6</ele><time>2026-04-15T00:06:07Z</time></trkpt><trkpt lat="36.88418225630753" lon="-108.10122515936375"><ele>1861.1999999999998</ele><time>2026-04-15T00:06:08Z</time></trkpt><trkpt lat="36.88425267516937" lon="-108.10130470861967"><ele>1860.8</ele><time>2026-04-15T00:06:09Z</time></trkpt><trkpt lat="36.88431900959267" lon="-108.10136000618115"><ele>1860.4</ele><time>2026-04-15T00:06:10Z</time></trkpt><trkpt lat="36.88437269814738" lon="-108.10141008113615"><ele>1860.0</ele><time>2026-04-15T00:06:11Z</time></trkpt><trkpt lat="36.8844201072964" lon="-108.10147584046935"><ele>1859.0</ele><time>2026-04-15T00:06:12Z</time></trkpt><trkpt lat="36.88448337841811" lon="-108.10155252640965"><ele>1858.0</ele><time>2026-04-15T00:06:13Z</time></trkpt><trkpt lat="36.88458332129142" lon="-108.1015674594693"><ele>1857.0</ele><time>2026-04-15T00:06:14Z</time></trkpt><trkpt lat="36.884708580127686" lon="-108.10158990604357"><ele>1856.0</ele><time>2026-04-15T00:06:15Z</time></trkpt><trkpt lat="36.88484312749515" lon="-108.10163494282662"><ele>1855.6</ele><time>2026-04-15T00:06:16Z</time></trkpt><trkpt lat="36.88496636341706" lon="-108.10167911438477"><ele>1855.1999999999998</ele><time>2026-04-15T00:06:17Z</time></trkpt><trkpt lat="36.88509238521285" lon="-108.10169329281753"><ele>1854.8000000000002</ele><time>2026-04-15T00:06:19Z</time></trkpt><trkpt lat="36.88517099039037" lon="-108.1017125709399"><ele>1854.4</ele><time>2026-04-15T00:06:20Z</time></trkpt><trkpt lat="36.88522627107476" lon="-108.101788184023"><ele>1854.0</ele><time>2026-04-15T00:06:21Z</time></trkpt><trkpt lat="36.88526302779468" lon="-108.10187343874769"><ele>1854.0</ele><time>2026-04-15T00:06:22Z</time></trkpt><trkpt lat="36.88535615237625" lon="-108.10192099775564"><ele>1854.0</ele><time>2026-04-15T00:06:23Z</time></trkpt><trkpt lat="36.88545547522934" lon="-108.10195325994482"><ele>1854.0</ele><time>2026-04-15T00:06:24Z</time></trkpt><trkpt lat="36.88556798275337" lon="-108.10197584140384"><ele>1854.0</ele><time>2026-04-15T00:06:25Z</time></trkpt><trkpt lat="36.885655260043784" lon="-108.10203720021332"><ele>1854.0</ele><time>2026-04-15T00:06:26Z</time></trkpt><trkpt lat="36.88573171117144" lon="-108.10216115066724"><ele>1854.0</ele><time>2026-04-15T00:06:27Z</time></trkpt><trkpt lat="36.88577545011186" lon="-108.10229833685054"><ele>1854.0</ele><time>2026-04-15T00:06:28Z</time></trkpt><trkpt lat="36.88580137497726" lon="-108.10247163391624"><ele>1854.0</ele><time>2026-04-15T00:06:29Z</time></trkpt><trkpt lat="36.88584476060296" lon="-108.1026578641498"><ele>1854.0</ele><time>2026-04-15T00:06:30Z</time></trkpt><trkpt lat="36.88590579706372" lon="-108.10286317815523"><ele>1852.6666666666665</ele><time>2026-04-15T00:06:31Z</time></trkpt><trkpt lat="36.885977714714905" lon="-108.10307229456025"><ele>1851.3333333333333</ele><time>2026-04-15T00:06:32Z</time></trkpt><trkpt lat="36.886028658296816" lon="-108.1032403661065"><ele>1850.0</ele><time>2026-04-15T00:06:33Z</time></trkpt><trkpt lat="36.886073722141376" lon="-108.10341560566485"><ele>1849.0</ele><time>2026-04-15T00:06:34Z</time></trkpt><trkpt lat="36.88613431760273" lon="-108.10359477330046"><ele>1848.0</ele><time>2026-04-15T00:06:35Z</time></trkpt><trkpt lat="36.88622432824073" lon="-108.10376140130585"><ele>1847.0</ele><time>2026-04-15T00:06:36Z</time></trkpt><trkpt lat="36.88627104116985" lon="-108.10387876695552"><ele>1846.0</ele><time>2026-04-15T00:06:37Z</time></trkpt><trkpt lat="36.8862742835625" lon="-108.1039894944395"><ele>1845.5000000000002</ele><time>2026-04-15T00:06:38Z</time></trkpt><trkpt lat="36.88623584772158" lon="-108.1040904431044"><ele>1845.0</ele><time>2026-04-15T00:06:39Z</time></trkpt><trkpt lat="36.886175691816966" lon="-108.10416047385735"><ele>1844.5</ele><time>2026-04-15T00:06:40Z</time></trkpt><trkpt lat="36.88609389447924" lon="-108.10417863858162"><ele>1844.0</ele><time>2026-04-15T00:06:42Z</time></trkpt><trkpt lat="36.88609026986317" lon="-108.10426467236904"><ele>1843.5000000000002</ele><time>2026-04-15T00:06:44Z</time></trkpt><trkpt lat="36.8861432037975" lon="-108.10433521843412"><ele>1843.0</ele><time>2026-04-15T00:06:45Z</time></trkpt><trkpt lat="36.88615549620806" lon="-108.10445042635276"><ele>1843.0</ele><time>2026-04-15T00:06:46Z</time></trkpt><trkpt lat="36.886181257582564" lon="-108.10456110252616"><ele>1843.0000000000002</ele><time>2026-04-15T00:06:47Z</time></trkpt><trkpt lat="36.88625109452355" lon="-108.10459178108822"><ele>1843.0000000000002</ele><time>2026-04-15T00:06:48Z</time></trkpt><trkpt lat="36.88638730915024" lon="-108.10458774216127"><ele>1843.0</ele><time>2026-04-15T00:06:51Z</time></trkpt><trkpt lat="36.886475985727806" lon="-108.1046179011841"><ele>1843.0</ele><time>2026-04-15T00:06:52Z</time></trkpt><trkpt lat="36.88657183967532" lon="-108.10464837451977"><ele>1843.0</ele><time>2026-04-15T00:06:53Z</time></trkpt><trkpt lat="36.88666578531333" lon="-108.1046458059421"><ele>1843.0</ele><time>2026-04-15T00:06:54Z</time></trkpt><trkpt lat="36.88677890695834" lon="-108.10467201094421"><ele>1843.0</ele><time>2026-04-15T00:06:55Z</time></trkpt><trkpt lat="36.886855959098575" lon="-108.10477092255915"><ele>1843.0</ele><time>2026-04-15T00:06:56Z</time></trkpt><trkpt lat="36.88693344346002" lon="-108.10492174816103"><ele>1844.75</ele><time>2026-04-15T00:06:57Z</time></trkpt><trkpt lat="36.88703829823675" lon="-108.10505194705874"><ele>1846.5</ele><time>2026-04-15T00:06:58Z</time></trkpt><trkpt lat="36.88713504348481" lon="-108.10513051779081"><ele>1848.25</ele><time>2026-04-15T00:06:59Z</time></trkpt><trkpt lat="36.88723156328827" lon="-108.105188617722"><ele>1850.0</ele><time>2026-04-15T00:07:00Z</time></trkpt><trkpt lat="36.88732776600618" lon="-108.1052556071921"><ele>1850.0</ele><time>2026-04-15T00:07:01Z</time></trkpt><trkpt lat="36.88743098450212" lon="-108.1053343019599"><ele>1850.0</ele><time>2026-04-15T00:07:02Z</time></trkpt><trkpt lat="36.88751731336028" lon="-108.10543747530082"><ele>1850.0</ele><time>2026-04-15T00:07:03Z</time></trkpt><trkpt lat="36.88759872802478" lon="-108.10555457059192"><ele>1850.0</ele><time>2026-04-15T00:07:04Z</time></trkpt><trkpt lat="36.887686407569475" lon="-108.10565982684093"><ele>1851.0</ele><time>2026-04-15T00:07:05Z</time></trkpt><trkpt lat="36.8877850164961" lon="-108.1057356478289"><ele>1852.0</ele><time>2026-04-15T00:07:06Z</time></trkpt><trkpt lat="36.88786919011294" lon="-108.1057747235499"><ele>1853.0</ele><time>2026-04-15T00:07:07Z</time></trkpt><trkpt lat="36.88793451621866" lon="-108.10577121176921"><ele>1854.0</ele><time>2026-04-15T00:07:08Z</time></trkpt><trkpt lat="36.888024203285134" lon="-108.10578824440852"><ele>1855.0</ele><time>2026-04-15T00:07:10Z</time></trkpt><trkpt lat="36.88810598878021" lon="-108.10587402075666"><ele>1855.0</ele><time>2026-04-15T00:07:11Z</time></trkpt><trkpt lat="36.888170473359416" lon="-108.10588378854823"><ele>1855.0</ele><time>2026-04-15T00:07:12Z</time></trkpt><trkpt lat="36.888251577536344" lon="-108.10582582364165"><ele>1855.0</ele><time>2026-04-15T00:07:13Z</time></trkpt><trkpt lat="36.888358903874085" lon="-108.10573748822311"><ele>1855.0</ele><time>2026-04-15T00:07:14Z</time></trkpt><trkpt lat="36.88847486940241" lon="-108.10564537290894"><ele>1855.0</ele><time>2026-04-15T00:07:15Z</time></trkpt><trkpt lat="36.88857576071167" lon="-108.10555393510926"><ele>1855.8</ele><time>2026-04-15T00:07:16Z</time></trkpt><trkpt lat="36.88869403068612" lon="-108.1055213129055"><ele>1856.6</ele><time>2026-04-15T00:07:17Z</time></trkpt><trkpt lat="36.88879426213884" lon="-108.10553902773141"><ele>1857.4</ele><time>2026-04-15T00:07:18Z</time></trkpt><trkpt lat="36.88886459568258" lon="-108.10558105876882"><ele>1858.2</ele><time>2026-04-15T00:07:19Z</time></trkpt><trkpt lat="36.888929394560805" lon="-108.10564892983388"><ele>1859.0</ele><time>2026-04-15T00:07:20Z</time></trkpt><trkpt lat="36.888998518369924" lon="-108.10567334612612"><ele>1858.9999999999998</ele><time>2026-04-15T00:07:21Z</time></trkpt><trkpt lat="36.889084116989544" lon="-108.10567524484637"><ele>1859.0</ele><time>2026-04-15T00:07:22Z</time></trkpt><trkpt lat="36.88915302143285" lon="-108.10569737974633"><ele>1859.0</ele><time>2026-04-15T00:07:23Z</time></trkpt><trkpt lat="36.88920040290893" lon="-108.10575475054004"><ele>1859.0</ele><time>2026-04-15T00:07:24Z</time></trkpt><trkpt lat="36.889265869877306" lon="-108.10579819447229"><ele>1858.9999999999998</ele><time>2026-04-15T00:07:26Z</time></trkpt><trkpt lat="36.889297757464284" lon="-108.10591565760407"><ele>1859.0</ele><time>2026-04-15T00:07:29Z</time></trkpt><trkpt lat="36.889367057938664" lon="-108.10594645857775"><ele>1860.0</ele><time>2026-04-15T00:07:30Z</time></trkpt><trkpt lat="36.88945185313281" lon="-108.10594087287154"><ele>1861.0</ele><time>2026-04-15T00:07:31Z</time></trkpt><trkpt lat="36.88951649396246" lon="-108.10598605073253"><ele>1862.0</ele><time>2026-04-15T00:07:33Z</time></trkpt><trkpt lat="36.88963188595402" lon="-108.10605317241496"><ele>1863.0</ele><time>2026-04-15T00:07:35Z</time></trkpt><trkpt lat="36.889688563331646" lon="-108.1061049335892"><ele>1864.0</ele><time>2026-04-15T00:07:36Z</time></trkpt><trkpt lat="36.889760286869596" lon="-108.10622413520544"><ele>1864.0</ele><time>2026-04-15T00:07:38Z</time></trkpt><trkpt lat="36.88979256407201" lon="-108.10632446257065"><ele>1864.0</ele><time>2026-04-15T00:07:39Z</time></trkpt><trkpt lat="36.88985124565597" lon="-108.10641661768884"><ele>1864.0</ele><time>2026-04-15T00:07:40Z</time></trkpt><trkpt lat="36.88993266883254" lon="-108.1064884590342"><ele>1864.0</ele><time>2026-04-15T00:07:41Z</time></trkpt><trkpt lat="36.89001180946999" lon="-108.1065622206955"><ele>1864.0</ele><time>2026-04-15T00:07:42Z</time></trkpt><trkpt lat="36.89010397991794" lon="-108.1065894110919"><ele>1864.6</ele><time>2026-04-15T00:07:43Z</time></trkpt><trkpt lat="36.890222554728936" lon="-108.1066048420078"><ele>1865.2</ele><time>2026-04-15T00:07:44Z</time></trkpt><trkpt lat="36.89028394277331" lon="-108.10656337883319"><ele>1865.7999999999997</ele><time>2026-04-15T00:07:45Z</time></trkpt><trkpt lat="36.89036976560655" lon="-108.10662790155463"><ele>1866.3999999999999</ele><time>2026-04-15T00:07:46Z</time></trkpt><trkpt lat="36.89042247961663" lon="-108.10676237467062"><ele>1867.0</ele><time>2026-04-15T00:07:47Z</time></trkpt><trkpt lat="36.890510055571255" lon="-108.10686913072571"><ele>1867.5</ele><time>2026-04-15T00:07:48Z</time></trkpt><trkpt lat="36.890599287797514" lon="-108.10696891497781"><ele>1868.0</ele><time>2026-04-15T00:07:49Z</time></trkpt><trkpt lat="36.89068002093529" lon="-108.10709629364196"><ele>1868.5</ele><time>2026-04-15T00:07:50Z</time></trkpt><trkpt lat="36.890723328047564" lon="-108.10728566146268"><ele>1869.0</ele><time>2026-04-15T00:07:51Z</time></trkpt><trkpt lat="36.89074675189914" lon="-108.10743333859148"><ele>1870.0</ele><time>2026-04-15T00:07:52Z</time></trkpt><trkpt lat="36.89073766804951" lon="-108.10757491068985"><ele>1871.0</ele><time>2026-04-15T00:07:53Z</time></trkpt><trkpt lat="36.890790814834354" lon="-108.10768204819357"><ele>1872.0</ele><time>2026-04-15T00:07:54Z</time></trkpt><trkpt lat="36.890838275880526" lon="-108.10776735880495"><ele>1873.0</ele><time>2026-04-15T00:07:55Z</time></trkpt><trkpt lat="36.890960168873036" lon="-108.10783527120452"><ele>1874.0</ele><time>2026-04-15T00:07:57Z</time></trkpt><trkpt lat="36.8910590538812" lon="-108.10782423820862"><ele>1874.0</ele><time>2026-04-15T00:07:58Z</time></trkpt><trkpt lat="36.891163392244515" lon="-108.10781427310025"><ele>1874.0</ele><time>2026-04-15T00:07:59Z</time></trkpt><trkpt lat="36.89124684277701" lon="-108.10783240059556"><ele>1874.0</ele><time>2026-04-15T00:08:00Z</time></trkpt><trkpt lat="36.891310660383255" lon="-108.10789185449143"><ele>1874.0</ele><time>2026-04-15T00:08:01Z</time></trkpt><trkpt lat="36.89135606080781" lon="-108.107995344043"><ele>1874.0</ele><time>2026-04-15T00:08:02Z</time></trkpt><trkpt lat="36.89138980738219" lon="-108.10809926366193"><ele>1874.0</ele><time>2026-04-15T00:08:03Z</time></trkpt><trkpt lat="36.89146032459436" lon="-108.10817616169129"><ele>1874.0</ele><time>2026-04-15T00:08:04Z</time></trkpt><trkpt lat="36.891548292299085" lon="-108.10821488804459"><ele>1874.0</ele><time>2026-04-15T00:08:05Z</time></trkpt><trkpt lat="36.891626305161125" lon="-108.10830683398045"><ele>1874.0</ele><time>2026-04-15T00:08:06Z</time></trkpt><trkpt lat="36.89165129729937" lon="-108.10842385234197"><ele>1874.0</ele><time>2026-04-15T00:08:07Z</time></trkpt><trkpt lat="36.89167297496263" lon="-108.1085826642505"><ele>1874.2</ele><time>2026-04-15T00:08:08Z</time></trkpt><trkpt lat="36.89171938350672" lon="-108.10871474286867"><ele>1874.4</ele><time>2026-04-15T00:08:09Z</time></trkpt><trkpt lat="36.891767316910546" lon="-108.1087986180347"><ele>1874.6</ele><time>2026-04-15T00:08:10Z</time></trkpt><trkpt lat="36.89182155972663" lon="-108.10888895090478"><ele>1874.8</ele><time>2026-04-15T00:08:11Z</time></trkpt><trkpt lat="36.8918937619385" lon="-108.10898035220877"><ele>1875.0</ele><time>2026-04-15T00:08:12Z</time></trkpt><trkpt lat="36.89194792146974" lon="-108.10906022614147"><ele>1876.2</ele><time>2026-04-15T00:08:13Z</time></trkpt><trkpt lat="36.89194359243782" lon="-108.10918456093162"><ele>1877.4</ele><time>2026-04-15T00:08:14Z</time></trkpt><trkpt lat="36.89194542033093" lon="-108.1093028147914"><ele>1878.6</ele><time>2026-04-15T00:08:15Z</time></trkpt><trkpt lat="36.891984953771114" lon="-108.10936919852142"><ele>1879.8</ele><time>2026-04-15T00:08:16Z</time></trkpt><trkpt lat="36.892039207298794" lon="-108.10948660999374"><ele>1881.0</ele><time>2026-04-15T00:08:17Z</time></trkpt><trkpt lat="36.89209907676797" lon="-108.10961785389252"><ele>1881.0</ele><time>2026-04-15T00:08:18Z</time></trkpt><trkpt lat="36.89212685178117" lon="-108.10973762197345"><ele>1881.0</ele><time>2026-04-15T00:08:19Z</time></trkpt><trkpt lat="36.89218746770026" lon="-108.10983684555418"><ele>1881.0</ele><time>2026-04-15T00:08:20Z</time></trkpt><trkpt lat="36.89219680669121" lon="-108.11001307036318"><ele>1881.0</ele><time>2026-04-15T00:08:22Z</time></trkpt><trkpt lat="36.89217482619882" lon="-108.11013070740843"><ele>1881.0</ele><time>2026-04-15T00:08:23Z</time></trkpt><trkpt lat="36.89218251841667" lon="-108.11022443197821"><ele>1882.8</ele><time>2026-04-15T00:08:24Z</time></trkpt><trkpt lat="36.89221274268773" lon="-108.11035352064758"><ele>1884.6</ele><time>2026-04-15T00:08:25Z</time></trkpt><trkpt lat="36.89221316030838" lon="-108.11047972907186"><ele>1886.4</ele><time>2026-04-15T00:08:26Z</time></trkpt><trkpt lat="36.892236901924456" lon="-108.11058516461301"><ele>1888.2</ele><time>2026-04-15T00:08:27Z</time></trkpt><trkpt lat="36.892298448091104" lon="-108.11064469876376"><ele>1890.0</ele><time>2026-04-15T00:08:28Z</time></trkpt><trkpt lat="36.892387847180046" lon="-108.11064641788515"><ele>1890.0</ele><time>2026-04-15T00:08:29Z</time></trkpt><trkpt lat="36.89246734587551" lon="-108.11059137949299"><ele>1890.0</ele><time>2026-04-15T00:08:30Z</time></trkpt><trkpt lat="36.89256118172371" lon="-108.11054553305267"><ele>1890.0</ele><time>2026-04-15T00:08:31Z</time></trkpt><trkpt lat="36.892667585427596" lon="-108.11056079677508"><ele>1890.0</ele><time>2026-04-15T00:08:32Z</time></trkpt><trkpt lat="36.892747664344" lon="-108.11062300061569"><ele>1890.0</ele><time>2026-04-15T00:08:33Z</time></trkpt><trkpt lat="36.892805835120754" lon="-108.11068422350327"><ele>1890.0</ele><time>2026-04-15T00:08:34Z</time></trkpt><trkpt lat="36.89285512658585" lon="-108.11078570502177"><ele>1890.0</ele><time>2026-04-15T00:08:35Z</time></trkpt><trkpt lat="36.89292187144951" lon="-108.11081994019561"><ele>1890.0</ele><time>2026-04-15T00:08:36Z</time></trkpt><trkpt lat="36.89297242876199" lon="-108.11076914592732"><ele>1890.0</ele><time>2026-04-15T00:08:37Z</time></trkpt><trkpt lat="36.89305678832171" lon="-108.1107007113216"><ele>1890.0</ele><time>2026-04-15T00:08:38Z</time></trkpt><trkpt lat="36.8931449876169" lon="-108.11069230587293"><ele>1890.0</ele><time>2026-04-15T00:08:39Z</time></trkpt><trkpt lat="36.89322562330467" lon="-108.11072813510432"><ele>1890.25</ele><time>2026-04-15T00:08:40Z</time></trkpt><trkpt lat="36.89330692121573" lon="-108.11078128854575"><ele>1890.5</ele><time>2026-04-15T00:08:41Z</time></trkpt><trkpt lat="36.89344551252261" lon="-108.11075588266081"><ele>1890.75</ele><time>2026-04-15T00:08:43Z</time></trkpt><trkpt lat="36.893555575795354" lon="-108.1107119792087"><ele>1891.0</ele><time>2026-04-15T00:08:44Z</time></trkpt><trkpt lat="36.89365646918037" lon="-108.11068093960499"><ele>1891.0</ele><time>2026-04-15T00:08:45Z</time></trkpt><trkpt lat="36.89374382381147" lon="-108.11061116500636"><ele>1891.0</ele><time>2026-04-15T00:08:46Z</time></trkpt><trkpt lat="36.893826883296114" lon="-108.11054312192103"><ele>1891.0</ele><time>2026-04-15T00:08:47Z</time></trkpt><trkpt lat="36.893897243775896" lon="-108.11054623551328"><ele>1891.0</ele><time>2026-04-15T00:08:48Z</time></trkpt><trkpt lat="36.89395514257992" lon="-108.1105104866784"><ele>1891.0</ele><time>2026-04-15T00:08:49Z</time></trkpt><trkpt lat="36.89406844057839" lon="-108.11042100812877"><ele>1891.0</ele><time>2026-04-15T00:08:50Z</time></trkpt><trkpt lat="36.89416046499317" lon="-108.11034910790102"><ele>1891.0</ele><time>2026-04-15T00:08:51Z</time></trkpt><trkpt lat="36.8942407539518" lon="-108.11028409050962"><ele>1891.0</ele><time>2026-04-15T00:08:52Z</time></trkpt><trkpt lat="36.894291894699705" lon="-108.11017727059475"><ele>1891.0</ele><time>2026-04-15T00:08:53Z</time></trkpt><trkpt lat="36.894310650385584" lon="-108.11006532649432"><ele>1891.0</ele><time>2026-04-15T00:08:54Z</time></trkpt><trkpt lat="36.89439668078952" lon="-108.10997945932003"><ele>1891.0</ele><time>2026-04-15T00:08:55Z</time></trkpt><trkpt lat="36.89448840547955" lon="-108.1099313600441"><ele>1891.0</ele><time>2026-04-15T00:08:56Z</time></trkpt><trkpt lat="36.89454887894364" lon="-108.1098403407831"><ele>1891.0</ele><time>2026-04-15T00:08:57Z</time></trkpt><trkpt lat="36.894592409749144" lon="-108.10973229626114"><ele>1891.0</ele><time>2026-04-15T00:08:58Z</time></trkpt><trkpt lat="36.894649410914155" lon="-108.10963687648868"><ele>1891.0</ele><time>2026-04-15T00:08:59Z</time></trkpt><trkpt lat="36.89471085982862" lon="-108.10956632499028"><ele>1891.4</ele><time>2026-04-15T00:09:00Z</time></trkpt><trkpt lat="36.89481898955889" lon="-108.1095721313513"><ele>1891.8</ele><time>2026-04-15T00:09:01Z</time></trkpt><trkpt lat="36.894932604670046" lon="-108.10959655191424"><ele>1892.2000000000003</ele><time>2026-04-15T00:09:02Z</time></trkpt><trkpt lat="36.895016043730166" lon="-108.10961994858035"><ele>1892.6000000000001</ele><time>2026-04-15T00:09:03Z</time></trkpt><trkpt lat="36.895101067345074" lon="-108.10970260924515"><ele>1893.0</ele><time>2026-04-15T00:09:04Z</time></trkpt><trkpt lat="36.89513560113171" lon="-108.10977435081658"><ele>1893.0</ele><time>2026-04-15T00:09:05Z</time></trkpt><trkpt lat="36.895240138933204" lon="-108.10972250888676"><ele>1893.0000000000002</ele><time>2026-04-15T00:09:06Z</time></trkpt><trkpt lat="36.8953559791423" lon="-108.10964623603618"><ele>1893.0000000000002</ele><time>2026-04-15T00:09:07Z</time></trkpt><trkpt lat="36.89542260188741" lon="-108.10959676347802"><ele>1893.0</ele><time>2026-04-15T00:09:08Z</time></trkpt><trkpt lat="36.89547648662795" lon="-108.10952385703688"><ele>1893.0</ele><time>2026-04-15T00:09:09Z</time></trkpt><trkpt lat="36.89554401040016" lon="-108.10940692493789"><ele>1893.0</ele><time>2026-04-15T00:09:10Z</time></trkpt><trkpt lat="36.895657146327146" lon="-108.10934894188266"><ele>1893.0000000000002</ele><time>2026-04-15T00:09:11Z</time></trkpt><trkpt lat="36.895729905052036" lon="-108.10931386505807"><ele>1893.0000000000002</ele><time>2026-04-15T00:09:12Z</time></trkpt><trkpt lat="36.89576934583671" lon="-108.10920209158986"><ele>1893.0</ele><time>2026-04-15T00:09:13Z</time></trkpt><trkpt lat="36.89576361919168" lon="-108.10906644855277"><ele>1893.0</ele><time>2026-04-15T00:09:14Z</time></trkpt><trkpt lat="36.89579729727888" lon="-108.10895305995184"><ele>1893.2</ele><time>2026-04-15T00:09:15Z</time></trkpt><trkpt lat="36.8958905237219" lon="-108.1089027437879"><ele>1893.4</ele><time>2026-04-15T00:09:16Z</time></trkpt><trkpt lat="36.89598058624036" lon="-108.1088690476459"><ele>1893.6000000000001</ele><time>2026-04-15T00:09:17Z</time></trkpt><trkpt lat="36.89604397048076" lon="-108.10876087130042"><ele>1893.8000000000002</ele><time>2026-04-15T00:09:18Z</time></trkpt><trkpt lat="36.89610535707141" lon="-108.10868525423332"><ele>1894.0</ele><time>2026-04-15T00:09:19Z</time></trkpt><trkpt lat="36.896164758850475" lon="-108.10859348969828"><ele>1894.4</ele><time>2026-04-15T00:09:20Z</time></trkpt><trkpt lat="36.89622913525371" lon="-108.10854273353377"><ele>1894.8000000000002</ele><time>2026-04-15T00:09:21Z</time></trkpt><trkpt lat="36.89632015664697" lon="-108.108565830746"><ele>1895.1999999999998</ele><time>2026-04-15T00:09:22Z</time></trkpt><trkpt lat="36.89642990345041" lon="-108.108563854738"><ele>1895.6</ele><time>2026-04-15T00:09:23Z</time></trkpt><trkpt lat="36.89652382427909" lon="-108.10856180783176"><ele>1896.0</ele><time>2026-04-15T00:09:24Z</time></trkpt><trkpt lat="36.89660606233231" lon="-108.10858837455"><ele>1896.0</ele><time>2026-04-15T00:09:25Z</time></trkpt><trkpt lat="36.896677077173365" lon="-108.10853843521149"><ele>1896.0</ele><time>2026-04-15T00:09:26Z</time></trkpt><trkpt lat="36.89674800146413" lon="-108.10844352865551"><ele>1896.0</ele><time>2026-04-15T00:09:27Z</time></trkpt><trkpt lat="36.89682784525665" lon="-108.10836816256658"><ele>1896.0</ele><time>2026-04-15T00:09:28Z</time></trkpt><trkpt lat="36.89689523292238" lon="-108.10833660028158"><ele>1896.0</ele><time>2026-04-15T00:09:29Z</time></trkpt><trkpt lat="36.896953028929346" lon="-108.10828941530602"><ele>1896.0</ele><time>2026-04-15T00:09:30Z</time></trkpt><trkpt lat="36.8969993353211" lon="-108.10821213502936"><ele>1894.8</ele><time>2026-04-15T00:09:31Z</time></trkpt><trkpt lat="36.896994366915834" lon="-108.10809881336934"><ele>1893.6</ele><time>2026-04-15T00:09:32Z</time></trkpt><trkpt lat="36.897005127297405" lon="-108.1079651705481"><ele>1892.4</ele><time>2026-04-15T00:09:33Z</time></trkpt><trkpt lat="36.89701963788834" lon="-108.10785731946308"><ele>1891.2</ele><time>2026-04-15T00:09:34Z</time></trkpt><trkpt lat="36.89700560083359" lon="-108.10775339855782"><ele>1890.0</ele><time>2026-04-15T00:09:35Z</time></trkpt><trkpt lat="36.89705612591537" lon="-108.10765972894008"><ele>1890.0</ele><time>2026-04-15T00:09:36Z</time></trkpt><trkpt lat="36.89714885522976" lon="-108.1075524922153"><ele>1890.0</ele><time>2026-04-15T00:09:37Z</time></trkpt><trkpt lat="36.8971731130177" lon="-108.10743496291713"><ele>1890.0</ele><time>2026-04-15T00:09:38Z</time></trkpt><trkpt lat="36.897197041257726" lon="-108.10729055350754"><ele>1890.0</ele><time>2026-04-15T00:09:39Z</time></trkpt><trkpt lat="36.897273683711404" lon="-108.1071950093127"><ele>1890.8</ele><time>2026-04-15T00:09:40Z</time></trkpt><trkpt lat="36.89737342114291" lon="-108.10710928751143"><ele>1891.6</ele><time>2026-04-15T00:09:41Z</time></trkpt><trkpt lat="36.89745397335299" lon="-108.10705171497524"><ele>1892.4</ele><time>2026-04-15T00:09:42Z</time></trkpt><trkpt lat="36.8975386099794" lon="-108.10702275498092"><ele>1893.2</ele><time>2026-04-15T00:09:43Z</time></trkpt><trkpt lat="36.89761712874953" lon="-108.10703715120515"><ele>1894.0</ele><time>2026-04-15T00:09:44Z</time></trkpt><trkpt lat="36.8977309421657" lon="-108.10697708560288"><ele>1894.2</ele><time>2026-04-15T00:09:46Z</time></trkpt><trkpt lat="36.89780314577337" lon="-108.10690957352071"><ele>1894.4</ele><time>2026-04-15T00:09:47Z</time></trkpt><trkpt lat="36.89789008995754" lon="-108.10685597605242"><ele>1894.6</ele><time>2026-04-15T00:09:48Z</time></trkpt><trkpt lat="36.89797731541657" lon="-108.10679081991987"><ele>1894.8</ele><time>2026-04-15T00:09:49Z</time></trkpt><trkpt lat="36.898084708184086" lon="-108.10676398167949"><ele>1895.0</ele><time>2026-04-15T00:09:50Z</time></trkpt><trkpt lat="36.89825073852286" lon="-108.10676590513772"><ele>1895.0</ele><time>2026-04-15T00:09:51Z</time></trkpt><trkpt lat="36.89843345346326" lon="-108.10674895954534"><ele>1895.0</ele><time>2026-04-15T00:09:52Z</time></trkpt><trkpt lat="36.898528708413956" lon="-108.1067200032953"><ele>1895.0</ele><time>2026-04-15T00:09:53Z</time></trkpt><trkpt lat="36.898650457340075" lon="-108.10677705332274"><ele>1895.0</ele><time>2026-04-15T00:09:55Z</time></trkpt><trkpt lat="36.89874314059696" lon="-108.10683831468266"><ele>1895.0</ele><time>2026-04-15T00:09:56Z</time></trkpt><trkpt lat="36.89886396511598" lon="-108.10687520443466"><ele>1895.0</ele><time>2026-04-15T00:09:57Z</time></trkpt><trkpt lat="36.89894702024943" lon="-108.10685452281267"><ele>1895.0</ele><time>2026-04-15T00:09:58Z</time></trkpt><trkpt lat="36.89900311339665" lon="-108.10676094613024"><ele>1895.0</ele><time>2026-04-15T00:09:59Z</time></trkpt><trkpt lat="36.89906177523394" lon="-108.10659997008183"><ele>1895.0</ele><time>2026-04-15T00:10:00Z</time></trkpt><trkpt lat="36.89912312813478" lon="-108.1064771399801"><ele>1894.1666666666665</ele><time>2026-04-15T00:10:01Z</time></trkpt><trkpt lat="36.899184646895236" lon="-108.10642846270585"><ele>1893.3333333333333</ele><time>2026-04-15T00:10:02Z</time></trkpt><trkpt lat="36.8992638214859" lon="-108.10637197137916"><ele>1892.5</ele><time>2026-04-15T00:10:03Z</time></trkpt><trkpt lat="36.899326172541365" lon="-108.10628235267959"><ele>1891.6666666666665</ele><time>2026-04-15T00:10:04Z</time></trkpt><trkpt lat="36.89934167170028" lon="-108.10616900989986"><ele>1890.8333333333333</ele><time>2026-04-15T00:10:05Z</time></trkpt><trkpt lat="36.89937439241141" lon="-108.10609142725842"><ele>1890.0</ele><time>2026-04-15T00:10:06Z</time></trkpt><trkpt lat="36.899447273139245" lon="-108.10598084162618"><ele>1889.5</ele><time>2026-04-15T00:10:07Z</time></trkpt><trkpt lat="36.89951172653057" lon="-108.10585594408884"><ele>1889.0</ele><time>2026-04-15T00:10:08Z</time></trkpt><trkpt lat="36.89954930455497" lon="-108.10578161738884"><ele>1888.5</ele><time>2026-04-15T00:10:09Z</time></trkpt><trkpt lat="36.899668819875615" lon="-108.10565197078535"><ele>1888.0</ele><time>2026-04-15T00:10:11Z</time></trkpt><trkpt lat="36.899783083069806" lon="-108.10552155445781"><ele>1888.0</ele><time>2026-04-15T00:10:12Z</time></trkpt><trkpt lat="36.899904573892776" lon="-108.10539325421475"><ele>1888.0</ele><time>2026-04-15T00:10:13Z</time></trkpt><trkpt lat="36.8999927792024" lon="-108.10526955361243"><ele>1888.0</ele><time>2026-04-15T00:10:14Z</time></trkpt><trkpt lat="36.90003048055467" lon="-108.1051447128392"><ele>1888.0</ele><time>2026-04-15T00:10:15Z</time></trkpt><trkpt lat="36.90006756997958" lon="-108.10503486743869"><ele>1888.0</ele><time>2026-04-15T00:10:16Z</time></trkpt><trkpt lat="36.900135909510205" lon="-108.10494752689162"><ele>1888.0000000000002</ele><time>2026-04-15T00:10:17Z</time></trkpt><trkpt lat="36.90024566572225" lon="-108.1048610315029"><ele>1888.0000000000002</ele><time>2026-04-15T00:10:18Z</time></trkpt><trkpt lat="36.90032701466491" lon="-108.10479140051065"><ele>1888.0</ele><time>2026-04-15T00:10:19Z</time></trkpt><trkpt lat="36.900401674304746" lon="-108.10473497209568"><ele>1888.0</ele><time>2026-04-15T00:10:20Z</time></trkpt><trkpt lat="36.900475235894234" lon="-108.10466844153343"><ele>1888.5</ele><time>2026-04-15T00:10:21Z</time></trkpt><trkpt lat="36.90053487454421" lon="-108.1045086069442"><ele>1889.0</ele><time>2026-04-15T00:10:23Z</time></trkpt><trkpt lat="36.90063292640742" lon="-108.10435918679488"><ele>1889.5</ele><time>2026-04-15T00:10:24Z</time></trkpt><trkpt lat="36.90075744606028" lon="-108.10428697042819"><ele>1890.0</ele><time>2026-04-15T00:10:25Z</time></trkpt><trkpt lat="36.900877748598205" lon="-108.10424857592633"><ele>1890.0</ele><time>2026-04-15T00:10:26Z</time></trkpt><trkpt lat="36.90097472852739" lon="-108.10418327639071"><ele>1890.0</ele><time>2026-04-15T00:10:27Z</time></trkpt><trkpt lat="36.90102638917742" lon="-108.10410617365608"><ele>1890.0</ele><time>2026-04-15T00:10:28Z</time></trkpt><trkpt lat="36.90112192800318" lon="-108.10416610487894"><ele>1890.0</ele><time>2026-04-15T00:10:31Z</time></trkpt><trkpt lat="36.90124367631617" lon="-108.10410808060124"><ele>1890.0</ele><time>2026-04-15T00:10:33Z</time></trkpt><trkpt lat="36.90135725011623" lon="-108.10406293230666"><ele>1890.0</ele><time>2026-04-15T00:10:34Z</time></trkpt><trkpt lat="36.901444918580744" lon="-108.10399491505696"><ele>1890.0</ele><time>2026-04-15T00:10:35Z</time></trkpt><trkpt lat="36.90150478829808" lon="-108.1039293801012"><ele>1890.0</ele><time>2026-04-15T00:10:36Z</time></trkpt><trkpt lat="36.901578649310515" lon="-108.10389065401557"><ele>1890.0</ele><time>2026-04-15T00:10:37Z</time></trkpt><trkpt lat="36.9016598201926" lon="-108.1038504121635"><ele>1890.0</ele><time>2026-04-15T00:10:38Z</time></trkpt><trkpt lat="36.901707447893386" lon="-108.10378989257231"><ele>1890.0</ele><time>2026-04-15T00:10:39Z</time></trkpt><trkpt lat="36.90173258880341" lon="-108.10370700240422"><ele>1890.0</ele><time>2026-04-15T00:10:40Z</time></trkpt><trkpt lat="36.90174683851841" lon="-108.10362230547273"><ele>1890.0</ele><time>2026-04-15T00:10:41Z</time></trkpt><trkpt lat="36.90172413447411" lon="-108.10352497676888"><ele>1890.0</ele><time>2026-04-15T00:10:42Z</time></trkpt><trkpt lat="36.90172514069939" lon="-108.10340940205552"><ele>1890.0</ele><time>2026-04-15T00:10:43Z</time></trkpt><trkpt lat="36.90171424123494" lon="-108.10331023249415"><ele>1890.0</ele><time>2026-04-15T00:10:44Z</time></trkpt><trkpt lat="36.90169803723005" lon="-108.10321895121153"><ele>1890.0</ele><time>2026-04-15T00:10:45Z</time></trkpt><trkpt lat="36.901766438534594" lon="-108.10315581033727"><ele>1889.2</ele><time>2026-04-15T00:10:46Z</time></trkpt><trkpt lat="36.90183614261916" lon="-108.10305496410857"><ele>1888.4</ele><time>2026-04-15T00:10:47Z</time></trkpt><trkpt lat="36.9018889496829" lon="-108.1028862247426"><ele>1887.6</ele><time>2026-04-15T00:10:49Z</time></trkpt><trkpt lat="36.901929099714955" lon="-108.10278882124656"><ele>1886.8</ele><time>2026-04-15T00:10:50Z</time></trkpt><trkpt lat="36.901959790075985" lon="-108.10268088383302"><ele>1886.0</ele><time>2026-04-15T00:10:51Z</time></trkpt><trkpt lat="36.902042365860545" lon="-108.10259253492914"><ele>1885.5</ele><time>2026-04-15T00:10:53Z</time></trkpt><trkpt lat="36.9020498020399" lon="-108.10239268259356"><ele>1885.0</ele><time>2026-04-15T00:10:55Z</time></trkpt><trkpt lat="36.90208753695744" lon="-108.10226611923099"><ele>1884.5</ele><time>2026-04-15T00:10:56Z</time></trkpt><trkpt lat="36.90209413134245" lon="-108.10216918949826"><ele>1884.0</ele><time>2026-04-15T00:10:57Z</time></trkpt><trkpt lat="36.90207139465911" lon="-108.10203225498964"><ele>1884.0</ele><time>2026-04-15T00:10:58Z</time></trkpt><trkpt lat="36.90209126327217" lon="-108.10189185278607"><ele>1884.0</ele><time>2026-04-15T00:10:59Z</time></trkpt><trkpt lat="36.902133397898766" lon="-108.10174037649504"><ele>1884.0</ele><time>2026-04-15T00:11:00Z</time></trkpt><trkpt lat="36.90226400651834" lon="-108.10171137464988"><ele>1884.0</ele><time>2026-04-15T00:11:01Z</time></trkpt><trkpt lat="36.90232531273324" lon="-108.10162509373959"><ele>1883.4</ele><time>2026-04-15T00:11:02Z</time></trkpt><trkpt lat="36.90242238978808" lon="-108.10155558201788"><ele>1882.8000000000002</ele><time>2026-04-15T00:11:03Z</time></trkpt><trkpt lat="36.9025154534168" lon="-108.10151101087678"><ele>1882.1999999999998</ele><time>2026-04-15T00:11:04Z</time></trkpt><trkpt lat="36.90259221787432" lon="-108.10144240777534"><ele>1881.6</ele><time>2026-04-15T00:11:05Z</time></trkpt><trkpt lat="36.902696072562996" lon="-108.10136340823344"><ele>1881.0</ele><time>2026-04-15T00:11:06Z</time></trkpt><trkpt lat="36.9027991273929" lon="-108.10127166380661"><ele>1883.3333333333335</ele><time>2026-04-15T00:11:07Z</time></trkpt><trkpt lat="36.9029578041097" lon="-108.10119471313716"><ele>1885.6666666666667</ele><time>2026-04-15T00:11:08Z</time></trkpt><trkpt lat="36.9031055702929" lon="-108.1011106549137"><ele>1888.0</ele><time>2026-04-15T00:11:09Z</time></trkpt><trkpt lat="36.903224029684324" lon="-108.10099095659655"><ele>1888.0</ele><time>2026-04-15T00:11:10Z</time></trkpt><trkpt lat="36.90329647424109" lon="-108.10090342138834"><ele>1888.0000000000002</ele><time>2026-04-15T00:11:11Z</time></trkpt><trkpt lat="36.903354296578684" lon="-108.1008301397702"><ele>1888.0000000000002</ele><time>2026-04-15T00:11:12Z</time></trkpt><trkpt lat="36.90340688440149" lon="-108.10073752684929"><ele>1888.0</ele><time>2026-04-15T00:11:13Z</time></trkpt><trkpt lat="36.903454922667436" lon="-108.10061968647298"><ele>1888.0</ele><time>2026-04-15T00:11:14Z</time></trkpt><trkpt lat="36.90349101277368" lon="-108.10050682514733"><ele>1890.2</ele><time>2026-04-15T00:11:15Z</time></trkpt><trkpt lat="36.90352678936889" lon="-108.10040560655426"><ele>1892.4</ele><time>2026-04-15T00:11:16Z</time></trkpt><trkpt lat="36.903603439172656" lon="-108.10033287538515"><ele>1894.6000000000001</ele><time>2026-04-15T00:11:17Z</time></trkpt><trkpt lat="36.90365260084458" lon="-108.1002309813128"><ele>1896.8000000000002</ele><time>2026-04-15T00:11:18Z</time></trkpt><trkpt lat="36.903722221353284" lon="-108.1001190373404"><ele>1899.0</ele><time>2026-04-15T00:11:19Z</time></trkpt><trkpt lat="36.90379151121498" lon="-108.10002996414605"><ele>1899.0</ele><time>2026-04-15T00:11:20Z</time></trkpt><trkpt lat="36.903830809982416" lon="-108.09993099261182"><ele>1899.0</ele><time>2026-04-15T00:11:21Z</time></trkpt><trkpt lat="36.90389752440271" lon="-108.0998171401187"><ele>1899.0</ele><time>2026-04-15T00:11:22Z</time></trkpt><trkpt lat="36.90396354250862" lon="-108.09970970867579"><ele>1899.0</ele><time>2026-04-15T00:11:23Z</time></trkpt><trkpt lat="36.904029521257726" lon="-108.09958631473219"><ele>1899.0</ele><time>2026-04-15T00:11:24Z</time></trkpt><trkpt lat="36.90408474273366" lon="-108.09945689320746"><ele>1899.0</ele><time>2026-04-15T00:11:25Z</time></trkpt><trkpt lat="36.904121328890035" lon="-108.09938489097529"><ele>1899.0</ele><time>2026-04-15T00:11:27Z</time></trkpt><trkpt lat="36.90417834837896" lon="-108.09927796813848"><ele>1899.0</ele><time>2026-04-15T00:11:29Z</time></trkpt><trkpt lat="36.904233701712926" lon="-108.09920374074756"><ele>1899.0</ele><time>2026-04-15T00:11:30Z</time></trkpt><trkpt lat="36.90427203448264" lon="-108.09913329243078"><ele>1899.0</ele><time>2026-04-15T00:11:31Z</time></trkpt><trkpt lat="36.9043506888042" lon="-108.09908133955561"><ele>1899.0</ele><time>2026-04-15T00:11:32Z</time></trkpt><trkpt lat="36.90444394707375" lon="-108.09905981632106"><ele>1898.2</ele><time>2026-04-15T00:11:33Z</time></trkpt><trkpt lat="36.904537477682815" lon="-108.09907184678667"><ele>1897.4</ele><time>2026-04-15T00:11:34Z</time></trkpt><trkpt lat="36.90462778409226" lon="-108.09910085290963"><ele>1896.6</ele><time>2026-04-15T00:11:35Z</time></trkpt><trkpt lat="36.90472255299225" lon="-108.09908017164923"><ele>1895.8</ele><time>2026-04-15T00:11:36Z</time></trkpt><trkpt lat="36.9048402237654" lon="-108.09902120753159"><ele>1895.0</ele><time>2026-04-15T00:11:37Z</time></trkpt><trkpt lat="36.90493030427388" lon="-108.09897178862029"><ele>1895.0</ele><time>2026-04-15T00:11:38Z</time></trkpt><trkpt lat="36.90501067241366" lon="-108.09889821417222"><ele>1895.0</ele><time>2026-04-15T00:11:39Z</time></trkpt><trkpt lat="36.90511456099571" lon="-108.0988336472321"><ele>1895.0</ele><time>2026-04-15T00:11:40Z</time></trkpt><trkpt lat="36.905223797217616" lon="-108.09883864899555"><ele>1895.0</ele><time>2026-04-15T00:11:41Z</time></trkpt><trkpt lat="36.905333357325794" lon="-108.09885810285844"><ele>1895.0</ele><time>2026-04-15T00:11:42Z</time></trkpt><trkpt lat="36.90539476653999" lon="-108.09881561903741"><ele>1894.4</ele><time>2026-04-15T00:11:43Z</time></trkpt><trkpt lat="36.90544533197428" lon="-108.09870123218974"><ele>1893.8</ele><time>2026-04-15T00:11:44Z</time></trkpt><trkpt lat="36.905482246266686" lon="-108.0985834552463"><ele>1893.1999999999998</ele><time>2026-04-15T00:11:45Z</time></trkpt><trkpt lat="36.905549818738464" lon="-108.09848860524042"><ele>1892.6</ele><time>2026-04-15T00:11:46Z</time></trkpt><trkpt lat="36.90565026046661" lon="-108.09844335922463"><ele>1892.0</ele><time>2026-04-15T00:11:47Z</time></trkpt><trkpt lat="36.90574681013923" lon="-108.09839468991103"><ele>1892.0</ele><time>2026-04-15T00:11:48Z</time></trkpt><trkpt lat="36.90584774192781" lon="-108.09834361678834"><ele>1891.9999999999998</ele><time>2026-04-15T00:11:49Z</time></trkpt><trkpt lat="36.90593249036926" lon="-108.09829025674911"><ele>1891.9999999999998</ele><time>2026-04-15T00:11:50Z</time></trkpt><trkpt lat="36.905975225612146" lon="-108.09820404377373"><ele>1892.0</ele><time>2026-04-15T00:11:51Z</time></trkpt><trkpt lat="36.90596249539048" lon="-108.09801313902264"><ele>1892.0</ele><time>2026-04-15T00:11:53Z</time></trkpt><trkpt lat="36.90602692770402" lon="-108.09794154949876"><ele>1892.0</ele><time>2026-04-15T00:11:54Z</time></trkpt><trkpt lat="36.906117331726996" lon="-108.09787408612222"><ele>1891.9999999999998</ele><time>2026-04-15T00:11:55Z</time></trkpt><trkpt lat="36.90619534575779" lon="-108.09777785566565"><ele>1891.9999999999998</ele><time>2026-04-15T00:11:56Z</time></trkpt><trkpt lat="36.90626491560633" lon="-108.09771069918982"><ele>1892.0</ele><time>2026-04-15T00:11:57Z</time></trkpt><trkpt lat="36.90633273792938" lon="-108.09768967520722"><ele>1892.0</ele><time>2026-04-15T00:11:58Z</time></trkpt><trkpt lat="36.90641558863308" lon="-108.09768125166272"><ele>1892.0</ele><time>2026-04-15T00:11:59Z</time></trkpt><trkpt lat="36.906505094819664" lon="-108.09765179812487"><ele>1892.0</ele><time>2026-04-15T00:12:00Z</time></trkpt><trkpt lat="36.906613556785956" lon="-108.09756762202991"><ele>1892.0</ele><time>2026-04-15T00:12:01Z</time></trkpt><trkpt lat="36.90672400996599" lon="-108.09749767195143"><ele>1892.0</ele><time>2026-04-15T00:12:02Z</time></trkpt><trkpt lat="36.906835118781046" lon="-108.0974597241001"><ele>1892.0</ele><time>2026-04-15T00:12:03Z</time></trkpt><trkpt lat="36.906948566487756" lon="-108.09742982227435"><ele>1891.9999999999998</ele><time>2026-04-15T00:12:04Z</time></trkpt><trkpt lat="36.90705699264932" lon="-108.0973707313574"><ele>1891.9999999999998</ele><time>2026-04-15T00:12:05Z</time></trkpt><trkpt lat="36.90716260311246" lon="-108.09729711161971"><ele>1892.0</ele><time>2026-04-15T00:12:06Z</time></trkpt><trkpt lat="36.90722877932854" lon="-108.0972395827872"><ele>1892.0</ele><time>2026-04-15T00:12:07Z</time></trkpt><trkpt lat="36.907350634475286" lon="-108.09724419905059"><ele>1893.75</ele><time>2026-04-15T00:12:09Z</time></trkpt><trkpt lat="36.907496938102405" lon="-108.09729437106613"><ele>1895.5</ele><time>2026-04-15T00:12:10Z</time></trkpt><trkpt lat="36.90760823843605" lon="-108.09728616874746"><ele>1897.25</ele><time>2026-04-15T00:12:11Z</time></trkpt><trkpt lat="36.907672016283506" lon="-108.09724820476241"><ele>1899.0</ele><time>2026-04-15T00:12:12Z</time></trkpt><trkpt lat="36.90776154299137" lon="-108.09714486554026"><ele>1900.0</ele><time>2026-04-15T00:12:13Z</time></trkpt><trkpt lat="36.90790422151678" lon="-108.09704013552333"><ele>1901.0</ele><time>2026-04-15T00:12:14Z</time></trkpt><trkpt lat="36.90803833273124" lon="-108.09695073513079"><ele>1902.0</ele><time>2026-04-15T00:12:15Z</time></trkpt><trkpt lat="36.90816143332138" lon="-108.09683362343684"><ele>1902.0</ele><time>2026-04-15T00:12:16Z</time></trkpt><trkpt lat="36.908260236100595" lon="-108.0967245582033"><ele>1902.0</ele><time>2026-04-15T00:12:17Z</time></trkpt><trkpt lat="36.90836680694201" lon="-108.09666647897332"><ele>1902.0</ele><time>2026-04-15T00:12:18Z</time></trkpt><trkpt lat="36.90847610035261" lon="-108.09662500062639"><ele>1902.0</ele><time>2026-04-15T00:12:19Z</time></trkpt><trkpt lat="36.90854301416873" lon="-108.0965525366571"><ele>1904.8</ele><time>2026-04-15T00:12:20Z</time></trkpt><trkpt lat="36.90857196583709" lon="-108.09645200979978"><ele>1907.6</ele><time>2026-04-15T00:12:21Z</time></trkpt><trkpt lat="36.908630606185675" lon="-108.09638983195113"><ele>1910.3999999999999</ele><time>2026-04-15T00:12:22Z</time></trkpt><trkpt lat="36.90867821720427" lon="-108.09629777285315"><ele>1913.1999999999998</ele><time>2026-04-15T00:12:23Z</time></trkpt><trkpt lat="36.908799161964154" lon="-108.0962541110155"><ele>1916.0</ele><time>2026-04-15T00:12:24Z</time></trkpt><trkpt lat="36.9088797837111" lon="-108.09621415193158"><ele>1916.0</ele><time>2026-04-15T00:12:25Z</time></trkpt><trkpt lat="36.90902297263427" lon="-108.09617071013801"><ele>1916.0</ele><time>2026-04-15T00:12:26Z</time></trkpt><trkpt lat="36.90917203529584" lon="-108.09610829054222"><ele>1916.0</ele><time>2026-04-15T00:12:27Z</time></trkpt><trkpt lat="36.90928117628411" lon="-108.0960627100445"><ele>1916.0</ele><time>2026-04-15T00:12:28Z</time></trkpt><trkpt lat="36.90939636889501" lon="-108.09606119340789"><ele>1916.4</ele><time>2026-04-15T00:12:30Z</time></trkpt><trkpt lat="36.909463130034744" lon="-108.0960069149606"><ele>1916.8</ele><time>2026-04-15T00:12:31Z</time></trkpt><trkpt lat="36.909539320527834" lon="-108.09589288595866"><ele>1917.2000000000003</ele><time>2026-04-15T00:12:32Z</time></trkpt><trkpt lat="36.90963624346741" lon="-108.09579088658741"><ele>1917.6000000000001</ele><time>2026-04-15T00:12:33Z</time></trkpt><trkpt lat="36.90971136721423" lon="-108.09569917798058"><ele>1918.0</ele><time>2026-04-15T00:12:34Z</time></trkpt><trkpt lat="36.909778621782024" lon="-108.0956150197944"><ele>1918.4</ele><time>2026-04-15T00:12:35Z</time></trkpt><trkpt lat="36.909837744419455" lon="-108.09554974372276"><ele>1918.8000000000002</ele><time>2026-04-15T00:12:36Z</time></trkpt><trkpt lat="36.90991510389235" lon="-108.09549779507095"><ele>1919.2</ele><time>2026-04-15T00:12:37Z</time></trkpt><trkpt lat="36.91000821074289" lon="-108.09545730630042"><ele>1919.6</ele><time>2026-04-15T00:12:38Z</time></trkpt><trkpt lat="36.91008377158818" lon="-108.09548738710713"><ele>1920.0</ele><time>2026-04-15T00:12:39Z</time></trkpt><trkpt lat="36.91015248709019" lon="-108.09561050772516"><ele>1920.0</ele><time>2026-04-15T00:12:40Z</time></trkpt><trkpt lat="36.91023263643637" lon="-108.09573268630554"><ele>1920.0</ele><time>2026-04-15T00:12:41Z</time></trkpt><trkpt lat="36.91032266227838" lon="-108.09580314537315"><ele>1920.0</ele><time>2026-04-15T00:12:42Z</time></trkpt><trkpt lat="36.91041242697238" lon="-108.09587659090289"><ele>1920.0</ele><time>2026-04-15T00:12:43Z</time></trkpt><trkpt lat="36.91049354024986" lon="-108.0958930943125"><ele>1920.0</ele><time>2026-04-15T00:12:44Z</time></trkpt><trkpt lat="36.91060994545645" lon="-108.09590549661571"><ele>1920.1666666666667</ele><time>2026-04-15T00:12:45Z</time></trkpt><trkpt lat="36.910697982275465" lon="-108.09594515227863"><ele>1920.3333333333335</ele><time>2026-04-15T00:12:46Z</time></trkpt><trkpt lat="36.91076846751263" lon="-108.09596000590088"><ele>1920.5</ele><time>2026-04-15T00:12:47Z</time></trkpt><trkpt lat="36.91085183512203" lon="-108.09591752908517"><ele>1920.6666666666667</ele><time>2026-04-15T00:12:48Z</time></trkpt><trkpt lat="36.910928419113176" lon="-108.09586797416152"><ele>1920.8333333333335</ele><time>2026-04-15T00:12:49Z</time></trkpt><trkpt lat="36.91097483707755" lon="-108.09576456117443"><ele>1921.0</ele><time>2026-04-15T00:12:50Z</time></trkpt><trkpt lat="36.91098971696193" lon="-108.09564926540983"><ele>1920.5000000000002</ele><time>2026-04-15T00:12:51Z</time></trkpt><trkpt lat="36.91102312962278" lon="-108.0955728684313"><ele>1920.0</ele><time>2026-04-15T00:12:52Z</time></trkpt><trkpt lat="36.91110079212247" lon="-108.09550396945049"><ele>1919.5</ele><time>2026-04-15T00:12:53Z</time></trkpt><trkpt lat="36.91115673856659" lon="-108.09540981515175"><ele>1919.0</ele><time>2026-04-15T00:12:54Z</time></trkpt><trkpt lat="36.91120409796128" lon="-108.09530078296481"><ele>1918.5000000000002</ele><time>2026-04-15T00:12:55Z</time></trkpt><trkpt lat="36.91126494676795" lon="-108.09521632190072"><ele>1918.0</ele><time>2026-04-15T00:12:56Z</time></trkpt><trkpt lat="36.911324045034604" lon="-108.09511556480818"><ele>1918.0</ele><time>2026-04-15T00:12:57Z</time></trkpt><trkpt lat="36.91138751018579" lon="-108.09499440142167"><ele>1918.0</ele><time>2026-04-15T00:12:58Z</time></trkpt><trkpt lat="36.91144413623758" lon="-108.0948610914917"><ele>1918.0</ele><time>2026-04-15T00:12:59Z</time></trkpt><trkpt lat="36.91150601453129" lon="-108.09475068904099"><ele>1918.0</ele><time>2026-04-15T00:13:00Z</time></trkpt><trkpt lat="36.91159166860518" lon="-108.0946604352083"><ele>1918.4</ele><time>2026-04-15T00:13:01Z</time></trkpt><trkpt lat="36.91167617918982" lon="-108.09458527910121"><ele>1918.8000000000002</ele><time>2026-04-15T00:13:02Z</time></trkpt><trkpt lat="36.91176623066457" lon="-108.09450348436872"><ele>1919.2</ele><time>2026-04-15T00:13:03Z</time></trkpt><trkpt lat="36.91186698836669" lon="-108.0944445237662"><ele>1919.6</ele><time>2026-04-15T00:13:04Z</time></trkpt><trkpt lat="36.91194899442748" lon="-108.09434585784153"><ele>1920.0</ele><time>2026-04-15T00:13:05Z</time></trkpt><trkpt lat="36.912024493044534" lon="-108.09427641645773"><ele>1918.8</ele><time>2026-04-15T00:13:06Z</time></trkpt><trkpt lat="36.91213443023284" lon="-108.09422420815271"><ele>1917.6</ele><time>2026-04-15T00:13:07Z</time></trkpt><trkpt lat="36.912220733027475" lon="-108.09420004082507"><ele>1916.4</ele><time>2026-04-15T00:13:08Z</time></trkpt><trkpt lat="36.912251429247604" lon="-108.09412924197956"><ele>1915.2</ele><time>2026-04-15T00:13:09Z</time></trkpt><trkpt lat="36.912269442934" lon="-108.09402037609024"><ele>1914.0</ele><time>2026-04-15T00:13:10Z</time></trkpt><trkpt lat="36.91231232994422" lon="-108.09390357027326"><ele>1914.0</ele><time>2026-04-15T00:13:11Z</time></trkpt><trkpt lat="36.91234118077327" lon="-108.09380533291188"><ele>1914.0</ele><time>2026-04-15T00:13:12Z</time></trkpt><trkpt lat="36.91235138511284" lon="-108.09366560970842"><ele>1914.0</ele><time>2026-04-15T00:13:13Z</time></trkpt><trkpt lat="36.91235408660216" lon="-108.09352895991492"><ele>1914.0</ele><time>2026-04-15T00:13:14Z</time></trkpt><trkpt lat="36.91236274168869" lon="-108.09341389650885"><ele>1914.0</ele><time>2026-04-15T00:13:15Z</time></trkpt><trkpt lat="36.912356455899086" lon="-108.09328614888008"><ele>1914.0</ele><time>2026-04-15T00:13:16Z</time></trkpt><trkpt lat="36.91233968921434" lon="-108.09316479578969"><ele>1914.0</ele><time>2026-04-15T00:13:17Z</time></trkpt><trkpt lat="36.91232879383363" lon="-108.0930570582371"><ele>1914.0</ele><time>2026-04-15T00:13:18Z</time></trkpt><trkpt lat="36.91233846257368" lon="-108.09294520729871"><ele>1914.0</ele><time>2026-04-15T00:13:19Z</time></trkpt><trkpt lat="36.91232600525234" lon="-108.09282849235727"><ele>1914.0</ele><time>2026-04-15T00:13:20Z</time></trkpt><trkpt lat="36.9123235336805" lon="-108.09264329365905"><ele>1914.0</ele><time>2026-04-15T00:13:22Z</time></trkpt><trkpt lat="36.91232939407202" lon="-108.09252107673657"><ele>1914.0</ele><time>2026-04-15T00:13:23Z</time></trkpt><trkpt lat="36.91232892258757" lon="-108.09238269535784"><ele>1914.0</ele><time>2026-04-15T00:13:24Z</time></trkpt><trkpt lat="36.91233755087378" lon="-108.09228222374561"><ele>1914.0</ele><time>2026-04-15T00:13:25Z</time></trkpt><trkpt lat="36.91239058387707" lon="-108.09217799889859"><ele>1914.0</ele><time>2026-04-15T00:13:26Z</time></trkpt><trkpt lat="36.91245521744906" lon="-108.09208580282088"><ele>1914.75</ele><time>2026-04-15T00:13:27Z</time></trkpt><trkpt lat="36.91248203566536" lon="-108.09194653752728"><ele>1915.5</ele><time>2026-04-15T00:13:28Z</time></trkpt><trkpt lat="36.912495485601106" lon="-108.091807288236"><ele>1916.25</ele><time>2026-04-15T00:13:29Z</time></trkpt><trkpt lat="36.91251421452783" lon="-108.09166605251929"><ele>1917.0</ele><time>2026-04-15T00:13:30Z</time></trkpt><trkpt lat="36.912509250036564" lon="-108.09152994368247"><ele>1917.1999999999998</ele><time>2026-04-15T00:13:31Z</time></trkpt><trkpt lat="36.91252115833476" lon="-108.09144386454749"><ele>1917.3999999999999</ele><time>2026-04-15T00:13:32Z</time></trkpt><trkpt lat="36.91255867383288" lon="-108.09128678404097"><ele>1917.6000000000001</ele><time>2026-04-15T00:13:33Z</time></trkpt><trkpt lat="36.91259228780153" lon="-108.0911372018721"><ele>1917.8000000000002</ele><time>2026-04-15T00:13:34Z</time></trkpt><trkpt lat="36.91263369870539" lon="-108.09100246310847"><ele>1918.0</ele><time>2026-04-15T00:13:35Z</time></trkpt><trkpt lat="36.91266929874051" lon="-108.09085201277954"><ele>1917.6000000000001</ele><time>2026-04-15T00:13:36Z</time></trkpt><trkpt lat="36.91271914271068" lon="-108.09073205836943"><ele>1917.2000000000003</ele><time>2026-04-15T00:13:37Z</time></trkpt><trkpt lat="36.91272099340136" lon="-108.09062855107213"><ele>1916.8</ele><time>2026-04-15T00:13:38Z</time></trkpt><trkpt lat="36.91268316843003" lon="-108.09047768557132"><ele>1916.4</ele><time>2026-04-15T00:13:39Z</time></trkpt><trkpt lat="36.912663503779726" lon="-108.09034679957902"><ele>1916.0</ele><time>2026-04-15T00:13:40Z</time></trkpt><trkpt lat="36.912686068938086" lon="-108.09025192289872"><ele>1916.0</ele><time>2026-04-15T00:13:41Z</time></trkpt><trkpt lat="36.91268894878996" lon="-108.09016912600316"><ele>1916.0</ele><time>2026-04-15T00:13:42Z</time></trkpt><trkpt lat="36.91262162964178" lon="-108.09011415571341"><ele>1916.0</ele><time>2026-04-15T00:13:44Z</time></trkpt><trkpt lat="36.91248905677854" lon="-108.08999636994756"><ele>1916.0</ele><time>2026-04-15T00:13:46Z</time></trkpt><trkpt lat="36.91240387771134" lon="-108.08991501993629"><ele>1916.0</ele><time>2026-04-15T00:13:47Z</time></trkpt><trkpt lat="36.912316684262095" lon="-108.08985402023103"><ele>1916.5</ele><time>2026-04-15T00:13:48Z</time></trkpt><trkpt lat="36.91220846605808" lon="-108.0897821282748"><ele>1917.0</ele><time>2026-04-15T00:13:49Z</time></trkpt><trkpt lat="36.91213715010307" lon="-108.08966738800531"><ele>1917.5</ele><time>2026-04-15T00:13:50Z</time></trkpt><trkpt lat="36.91203277545837" lon="-108.08957374629836"><ele>1918.0</ele><time>2026-04-15T00:13:51Z</time></trkpt><trkpt lat="36.91190249028616" lon="-108.0894918141886"><ele>1918.0</ele><time>2026-04-15T00:13:52Z</time></trkpt><trkpt lat="36.91178012895581" lon="-108.08944732503035"><ele>1918.0000000000002</ele><time>2026-04-15T00:13:53Z</time></trkpt><trkpt lat="36.911687512614925" lon="-108.08940663920964"><ele>1918.0000000000002</ele><time>2026-04-15T00:13:54Z</time></trkpt><trkpt lat="36.911638039482824" lon="-108.08933498652215"><ele>1918.0</ele><time>2026-04-15T00:13:55Z</time></trkpt><trkpt lat="36.91157210683821" lon="-108.08922749861088"><ele>1918.0</ele><time>2026-04-15T00:13:56Z</time></trkpt><trkpt lat="36.91149082942855" lon="-108.08913922451006"><ele>1916.6000000000001</ele><time>2026-04-15T00:13:57Z</time></trkpt><trkpt lat="36.91141036990752" lon="-108.08907942404207"><ele>1915.2000000000003</ele><time>2026-04-15T00:13:58Z</time></trkpt><trkpt lat="36.91132930435583" lon="-108.08904726713388"><ele>1913.8</ele><time>2026-04-15T00:13:59Z</time></trkpt><trkpt lat="36.91123193916174" lon="-108.08901081653411"><ele>1912.4</ele><time>2026-04-15T00:14:00Z</time></trkpt><trkpt lat="36.911119493385705" lon="-108.0889395412753"><ele>1911.0</ele><time>2026-04-15T00:14:01Z</time></trkpt><trkpt lat="36.91106934216656" lon="-108.08883928914568"><ele>1911.0</ele><time>2026-04-15T00:14:02Z</time></trkpt><trkpt lat="36.91106932215341" lon="-108.08874270022439"><ele>1911.0</ele><time>2026-04-15T00:14:03Z</time></trkpt><trkpt lat="36.91109828301004" lon="-108.0886188953803"><ele>1911.0</ele><time>2026-04-15T00:14:04Z</time></trkpt><trkpt lat="36.911080824781436" lon="-108.08845523979805"><ele>1911.0</ele><time>2026-04-15T00:14:05Z</time></trkpt><trkpt lat="36.911051875657094" lon="-108.08830252446019"><ele>1911.0</ele><time>2026-04-15T00:14:06Z</time></trkpt><trkpt lat="36.91102104147576" lon="-108.08817956936066"><ele>1910.0</ele><time>2026-04-15T00:14:07Z</time></trkpt><trkpt lat="36.910969717505026" lon="-108.08805208580705"><ele>1909.0</ele><time>2026-04-15T00:14:08Z</time></trkpt><trkpt lat="36.91092037900136" lon="-108.08795115040974"><ele>1908.0</ele><time>2026-04-15T00:14:09Z</time></trkpt><trkpt lat="36.91086753089804" lon="-108.08787497399854"><ele>1907.0</ele><time>2026-04-15T00:14:10Z</time></trkpt><trkpt lat="36.9107913781742" lon="-108.08784082581388"><ele>1906.0</ele><time>2026-04-15T00:14:11Z</time></trkpt><trkpt lat="36.91069566579582" lon="-108.08776906751814"><ele>1905.6666666666667</ele><time>2026-04-15T00:14:12Z</time></trkpt><trkpt lat="36.910634362442174" lon="-108.08768338158835"><ele>1905.3333333333335</ele><time>2026-04-15T00:14:13Z</time></trkpt><trkpt lat="36.91060094716914" lon="-108.08759004696485"><ele>1905.0</ele><time>2026-04-15T00:14:14Z</time></trkpt><trkpt lat="36.91055909892247" lon="-108.08751986782825"><ele>1904.6666666666665</ele><time>2026-04-15T00:14:15Z</time></trkpt><trkpt lat="36.91051264381855" lon="-108.08746632710586"><ele>1904.3333333333333</ele><time>2026-04-15T00:14:16Z</time></trkpt><trkpt lat="36.91050462716675" lon="-108.08735135887825"><ele>1904.0</ele><time>2026-04-15T00:14:17Z</time></trkpt><trkpt lat="36.91045952036277" lon="-108.08721612646478"><ele>1902.8000000000002</ele><time>2026-04-15T00:14:18Z</time></trkpt><trkpt lat="36.910407711121" lon="-108.08707440287222"><ele>1901.6000000000001</ele><time>2026-04-15T00:14:19Z</time></trkpt><trkpt lat="36.910358425042986" lon="-108.08697481794192"><ele>1900.4</ele><time>2026-04-15T00:14:20Z</time></trkpt><trkpt lat="36.91028531323279" lon="-108.08688128506236"><ele>1899.2</ele><time>2026-04-15T00:14:21Z</time></trkpt><trkpt lat="36.91019180250746" lon="-108.08682406016658"><ele>1898.0</ele><time>2026-04-15T00:14:22Z</time></trkpt><trkpt lat="36.91008481060066" lon="-108.08684427244046"><ele>1897.0</ele><time>2026-04-15T00:14:23Z</time></trkpt><trkpt lat="36.9099301283158" lon="-108.08688802551765"><ele>1896.0</ele><time>2026-04-15T00:14:24Z</time></trkpt><trkpt lat="36.909794913681175" lon="-108.0869131925035"><ele>1895.0</ele><time>2026-04-15T00:14:25Z</time></trkpt><trkpt lat="36.90968831846316" lon="-108.08689560081032"><ele>1894.0</ele><time>2026-04-15T00:14:26Z</time></trkpt><trkpt lat="36.90958677141479" lon="-108.08688573876475"><ele>1894.0</ele><time>2026-04-15T00:14:27Z</time></trkpt><trkpt lat="36.90947271835768" lon="-108.08689014688672"><ele>1894.0</ele><time>2026-04-15T00:14:28Z</time></trkpt><trkpt lat="36.9093502427429" lon="-108.08687598105024"><ele>1894.0</ele><time>2026-04-15T00:14:29Z</time></trkpt><trkpt lat="36.90926380301683" lon="-108.08680786422016"><ele>1894.0</ele><time>2026-04-15T00:14:30Z</time></trkpt><trkpt lat="36.90917898031343" lon="-108.08674378988776"><ele>1894.0</ele><time>2026-04-15T00:14:31Z</time></trkpt><trkpt lat="36.90910147091694" lon="-108.08673899219917"><ele>1892.4</ele><time>2026-04-15T00:14:32Z</time></trkpt><trkpt lat="36.90903877742148" lon="-108.08672617158001"><ele>1890.8000000000002</ele><time>2026-04-15T00:14:33Z</time></trkpt><trkpt lat="36.908967953409174" lon="-108.08665625530477"><ele>1889.1999999999998</ele><time>2026-04-15T00:14:34Z</time></trkpt><trkpt lat="36.90886591726782" lon="-108.0866079801903"><ele>1887.6</ele><time>2026-04-15T00:14:35Z</time></trkpt><trkpt lat="36.90875082302803" lon="-108.0866074882874"><ele>1886.0</ele><time>2026-04-15T00:14:36Z</time></trkpt><trkpt lat="36.90867500551034" lon="-108.08660357514384"><ele>1885.25</ele><time>2026-04-15T00:14:37Z</time></trkpt><trkpt lat="36.90855898695072" lon="-108.0865215459975"><ele>1884.5</ele><time>2026-04-15T00:14:39Z</time></trkpt><trkpt lat="36.90848242796669" lon="-108.08652151736986"><ele>1883.75</ele><time>2026-04-15T00:14:40Z</time></trkpt><trkpt lat="36.90835542503387" lon="-108.0865813251704"><ele>1883.0</ele><time>2026-04-15T00:14:41Z</time></trkpt><trkpt lat="36.908242650422174" lon="-108.08660155275734"><ele>1882.8000000000002</ele><time>2026-04-15T00:14:42Z</time></trkpt><trkpt lat="36.908161312772265" lon="-108.08662008435566"><ele>1882.6000000000001</ele><time>2026-04-15T00:14:43Z</time></trkpt><trkpt lat="36.90807402382505" lon="-108.08664454328988"><ele>1882.3999999999999</ele><time>2026-04-15T00:14:44Z</time></trkpt><trkpt lat="36.907969542878" lon="-108.08665783417759"><ele>1882.1999999999998</ele><time>2026-04-15T00:14:45Z</time></trkpt><trkpt lat="36.90786757549004" lon="-108.08663429244278"><ele>1882.0</ele><time>2026-04-15T00:14:46Z</time></trkpt><trkpt lat="36.90776304286905" lon="-108.08655808564006"><ele>1881.5</ele><time>2026-04-15T00:14:47Z</time></trkpt><trkpt lat="36.907640863836455" lon="-108.08646669917876"><ele>1881.0</ele><time>2026-04-15T00:14:48Z</time></trkpt><trkpt lat="36.90750844559302" lon="-108.0863755357869"><ele>1880.5</ele><time>2026-04-15T00:14:49Z</time></trkpt><trkpt lat="36.90738861366624" lon="-108.08628725959471"><ele>1880.0</ele><time>2026-04-15T00:14:50Z</time></trkpt><trkpt lat="36.907296136709334" lon="-108.08619824924722"><ele>1879.25</ele><time>2026-04-15T00:14:51Z</time></trkpt><trkpt lat="36.90719825266559" lon="-108.08610890417663"><ele>1878.5</ele><time>2026-04-15T00:14:52Z</time></trkpt><trkpt lat="36.90707927481145" lon="-108.0860228011984"><ele>1877.75</ele><time>2026-04-15T00:14:53Z</time></trkpt><trkpt lat="36.90695284940562" lon="-108.08592649674814"><ele>1877.0</ele><time>2026-04-15T00:14:54Z</time></trkpt><trkpt lat="36.90682156088515" lon="-108.08581979987179"><ele>1876.8</ele><time>2026-04-15T00:14:55Z</time></trkpt><trkpt lat="36.90670379670439" lon="-108.08570491968891"><ele>1876.6</ele><time>2026-04-15T00:14:56Z</time></trkpt><trkpt lat="36.90661116776426" lon="-108.08560913688605"><ele>1876.3999999999999</ele><time>2026-04-15T00:14:57Z</time></trkpt><trkpt lat="36.906547897973304" lon="-108.08553043070424"><ele>1876.1999999999998</ele><time>2026-04-15T00:14:58Z</time></trkpt><trkpt lat="36.90650109946265" lon="-108.08546929258098"><ele>1876.0</ele><time>2026-04-15T00:14:59Z</time></trkpt><trkpt lat="36.90643570217505" lon="-108.08539234936201"><ele>1876.0</ele><time>2026-04-15T00:15:01Z</time></trkpt><trkpt lat="36.906343863449294" lon="-108.08530597652165"><ele>1876.0</ele><time>2026-04-15T00:15:03Z</time></trkpt><trkpt lat="36.90627350752861" lon="-108.08534616147067"><ele>1876.0</ele><time>2026-04-15T00:15:04Z</time></trkpt><trkpt lat="36.90621542846053" lon="-108.08539573592967"><ele>1876.0</ele><time>2026-04-15T00:15:05Z</time></trkpt><trkpt lat="36.906090282975974" lon="-108.08547463767849"><ele>1876.0</ele><time>2026-04-15T00:15:07Z</time></trkpt><trkpt lat="36.90601092065437" lon="-108.08554501146837"><ele>1876.0</ele><time>2026-04-15T00:15:08Z</time></trkpt><trkpt lat="36.90591244700794" lon="-108.08559595041687"><ele>1876.0</ele><time>2026-04-15T00:15:09Z</time></trkpt><trkpt lat="36.90579721263773" lon="-108.08566882019372"><ele>1876.0</ele><time>2026-04-15T00:15:10Z</time></trkpt><trkpt lat="36.90571942016671" lon="-108.08579167725546"><ele>1876.0</ele><time>2026-04-15T00:15:11Z</time></trkpt><trkpt lat="36.905650698523495" lon="-108.08596498737171"><ele>1875.5</ele><time>2026-04-15T00:15:12Z</time></trkpt><trkpt lat="36.90555361669097" lon="-108.08610650718887"><ele>1875.0</ele><time>2026-04-15T00:15:13Z</time></trkpt><trkpt lat="36.90541922722411" lon="-108.0861724181255"><ele>1874.5</ele><time>2026-04-15T00:15:14Z</time></trkpt><trkpt lat="36.90527526672293" lon="-108.0861932899785"><ele>1874.0</ele><time>2026-04-15T00:15:15Z</time></trkpt><trkpt lat="36.90515999829581" lon="-108.0862337318478"><ele>1874.0</ele><time>2026-04-15T00:15:16Z</time></trkpt><trkpt lat="36.90507459570601" lon="-108.08629445304955"><ele>1874.0</ele><time>2026-04-15T00:15:17Z</time></trkpt><trkpt lat="36.90500812787856" lon="-108.0863755674956"><ele>1874.0</ele><time>2026-04-15T00:15:18Z</time></trkpt><trkpt lat="36.90495589981213" lon="-108.08654311976231"><ele>1874.0</ele><time>2026-04-15T00:15:19Z</time></trkpt><trkpt lat="36.904918288889824" lon="-108.08670781745467"><ele>1874.0</ele><time>2026-04-15T00:15:20Z</time></trkpt><trkpt lat="36.90482007716137" lon="-108.08681708984561"><ele>1874.0</ele><time>2026-04-15T00:15:21Z</time></trkpt><trkpt lat="36.904697083643484" lon="-108.08690813724523"><ele>1874.0</ele><time>2026-04-15T00:15:22Z</time></trkpt><trkpt lat="36.90458904172877" lon="-108.08705295375"><ele>1874.0</ele><time>2026-04-15T00:15:23Z</time></trkpt><trkpt lat="36.90449405427587" lon="-108.08724150229888"><ele>1874.0</ele><time>2026-04-15T00:15:24Z</time></trkpt><trkpt lat="36.90439112556611" lon="-108.08742813540232"><ele>1874.0</ele><time>2026-04-15T00:15:25Z</time></trkpt><trkpt lat="36.90430378356372" lon="-108.08758462544014"><ele>1874.0</ele><time>2026-04-15T00:15:26Z</time></trkpt><trkpt lat="36.904231514175024" lon="-108.0877443401475"><ele>1874.0</ele><time>2026-04-15T00:15:27Z</time></trkpt><trkpt lat="36.90414254432055" lon="-108.08788266680482"><ele>1874.0</ele><time>2026-04-15T00:15:28Z</time></trkpt><trkpt lat="36.90405278886297" lon="-108.08798213856453"><ele>1874.0</ele><time>2026-04-15T00:15:29Z</time></trkpt><trkpt lat="36.9039309912537" lon="-108.08808283951937"><ele>1874.0</ele><time>2026-04-15T00:15:30Z</time></trkpt><trkpt lat="36.90379429572439" lon="-108.08821077620313"><ele>1873.25</ele><time>2026-04-15T00:15:31Z</time></trkpt><trkpt lat="36.90370624449838" lon="-108.08837014593664"><ele>1872.5</ele><time>2026-04-15T00:15:32Z</time></trkpt><trkpt lat="36.90364338010054" lon="-108.08851543040855"><ele>1871.75</ele><time>2026-04-15T00:15:33Z</time></trkpt><trkpt lat="36.903601936447714" lon="-108.08862688821672"><ele>1871.0</ele><time>2026-04-15T00:15:34Z</time></trkpt><trkpt lat="36.903549089616035" lon="-108.08869322449725"><ele>1871.0</ele><time>2026-04-15T00:15:35Z</time></trkpt><trkpt lat="36.903483018140584" lon="-108.08872311773352"><ele>1871.0</ele><time>2026-04-15T00:15:36Z</time></trkpt><trkpt lat="36.9033775183828" lon="-108.08872654612317"><ele>1871.0</ele><time>2026-04-15T00:15:37Z</time></trkpt><trkpt lat="36.903266581554696" lon="-108.08872521356966"><ele>1871.0</ele><time>2026-04-15T00:15:38Z</time></trkpt><trkpt lat="36.90317508650755" lon="-108.0887823041199"><ele>1871.0</ele><time>2026-04-15T00:15:39Z</time></trkpt><trkpt lat="36.903117879580996" lon="-108.08892369891996"><ele>1870.8</ele><time>2026-04-15T00:15:40Z</time></trkpt><trkpt lat="36.903069911572274" lon="-108.08907209865211"><ele>1870.6</ele><time>2026-04-15T00:15:41Z</time></trkpt><trkpt lat="36.90298035180618" lon="-108.0891710891401"><ele>1870.4</ele><time>2026-04-15T00:15:42Z</time></trkpt><trkpt lat="36.902930139995014" lon="-108.08925001705089"><ele>1870.2</ele><time>2026-04-15T00:15:43Z</time></trkpt><trkpt lat="36.90292238189876" lon="-108.08933385661656"><ele>1870.0</ele><time>2026-04-15T00:15:45Z</time></trkpt><trkpt lat="36.90306004967894" lon="-108.08936871038253"><ele>1869.6666666666667</ele><time>2026-04-15T00:15:47Z</time></trkpt><trkpt lat="36.90313227446405" lon="-108.08930776548304"><ele>1869.3333333333335</ele><time>2026-04-15T00:15:48Z</time></trkpt><trkpt lat="36.903178376899795" lon="-108.0892420897168"><ele>1869.0</ele><time>2026-04-15T00:15:49Z</time></trkpt><trkpt lat="36.90325825930516" lon="-108.08927090632169"><ele>1868.6666666666665</ele><time>2026-04-15T00:15:51Z</time></trkpt><trkpt lat="36.90322559221629" lon="-108.08941578332663"><ele>1868.3333333333333</ele><time>2026-04-15T00:15:53Z</time></trkpt><trkpt lat="36.903189455642476" lon="-108.08949853507058"><ele>1868.0</ele><time>2026-04-15T00:15:54Z</time></trkpt><trkpt lat="36.90313831766097" lon="-108.08960405450681"><ele>1868.0</ele><time>2026-04-15T00:15:55Z</time></trkpt><trkpt lat="36.903104634633166" lon="-108.08973346678702"><ele>1868.0000000000002</ele><time>2026-04-15T00:15:56Z</time></trkpt><trkpt lat="36.90302066198534" lon="-108.08986148955879"><ele>1868.0000000000002</ele><time>2026-04-15T00:15:57Z</time></trkpt><trkpt lat="36.90295411596196" lon="-108.08993419545445"><ele>1868.0</ele><time>2026-04-15T00:15:58Z</time></trkpt><trkpt lat="36.90285917134042" lon="-108.08995971009887"><ele>1868.0</ele><time>2026-04-15T00:15:59Z</time></trkpt><trkpt lat="36.90273872673711" lon="-108.0899596764152"><ele>1868.25</ele><time>2026-04-15T00:16:00Z</time></trkpt><trkpt lat="36.90260168496578" lon="-108.08994068468498"><ele>1868.5</ele><time>2026-04-15T00:16:01Z</time></trkpt><trkpt lat="36.902494619716975" lon="-108.08997590699387"><ele>1868.75</ele><time>2026-04-15T00:16:02Z</time></trkpt><trkpt lat="36.902420694001805" lon="-108.09005259567567"><ele>1869.0</ele><time>2026-04-15T00:16:03Z</time></trkpt><trkpt lat="36.90236183813235" lon="-108.09019144387345"><ele>1868.5</ele><time>2026-04-15T00:16:04Z</time></trkpt><trkpt lat="36.90230826943992" lon="-108.09036024663065"><ele>1868.0</ele><time>2026-04-15T00:16:05Z</time></trkpt><trkpt lat="36.902253186660666" lon="-108.09050480835265"><ele>1867.5</ele><time>2026-04-15T00:16:06Z</time></trkpt><trkpt lat="36.90219693699825" lon="-108.09066103185258"><ele>1867.0</ele><time>2026-04-15T00:16:07Z</time></trkpt><trkpt lat="36.90214418623332" lon="-108.09084139169173"><ele>1866.75</ele><time>2026-04-15T00:16:08Z</time></trkpt><trkpt lat="36.902112435516905" lon="-108.09102842765736"><ele>1866.5</ele><time>2026-04-15T00:16:09Z</time></trkpt><trkpt lat="36.90204755361302" lon="-108.09118390411079"><ele>1866.25</ele><time>2026-04-15T00:16:10Z</time></trkpt><trkpt lat="36.901963320064745" lon="-108.09130632624549"><ele>1866.0</ele><time>2026-04-15T00:16:11Z</time></trkpt><trkpt lat="36.901902238095396" lon="-108.09134971867297"><ele>1866.0</ele><time>2026-04-15T00:16:12Z</time></trkpt><trkpt lat="36.90181556964492" lon="-108.09134818738784"><ele>1866.0</ele><time>2026-04-15T00:16:13Z</time></trkpt><trkpt lat="36.9017213410596" lon="-108.09133092709779"><ele>1866.0</ele><time>2026-04-15T00:16:14Z</time></trkpt><trkpt lat="36.90164358857738" lon="-108.09133566553245"><ele>1866.0</ele><time>2026-04-15T00:16:15Z</time></trkpt><trkpt lat="36.901553134626326" lon="-108.09138438497241"><ele>1866.0</ele><time>2026-04-15T00:16:16Z</time></trkpt><trkpt lat="36.901510647846735" lon="-108.09144916148135"><ele>1866.0</ele><time>2026-04-15T00:16:17Z</time></trkpt><trkpt lat="36.901526781820344" lon="-108.09157529328336"><ele>1866.1999999999998</ele><time>2026-04-15T00:16:19Z</time></trkpt><trkpt lat="36.90160861187044" lon="-108.0916300002763"><ele>1866.3999999999999</ele><time>2026-04-15T00:16:20Z</time></trkpt><trkpt lat="36.90169849089413" lon="-108.09165708522451"><ele>1866.6</ele><time>2026-04-15T00:16:21Z</time></trkpt><trkpt lat="36.90181316660076" lon="-108.0916549716884"><ele>1866.8</ele><time>2026-04-15T00:16:22Z</time></trkpt><trkpt lat="36.90188185432545" lon="-108.0916696904927"><ele>1867.0</ele><time>2026-04-15T00:16:23Z</time></trkpt><trkpt lat="36.90187077484344" lon="-108.0918218557872"><ele>1867.0</ele><time>2026-04-15T00:16:25Z</time></trkpt><trkpt lat="36.90180748347715" lon="-108.0919099041183"><ele>1867.0</ele><time>2026-04-15T00:16:26Z</time></trkpt><trkpt lat="36.901714139229334" lon="-108.09197682257728"><ele>1867.0</ele><time>2026-04-15T00:16:27Z</time></trkpt><trkpt lat="36.90159378502198" lon="-108.09200848420558"><ele>1867.0</ele><time>2026-04-15T00:16:28Z</time></trkpt><trkpt lat="36.90146968611383" lon="-108.09202153850215"><ele>1867.0</ele><time>2026-04-15T00:16:29Z</time></trkpt><trkpt lat="36.901349443584046" lon="-108.09205604601807"><ele>1867.0</ele><time>2026-04-15T00:16:30Z</time></trkpt><trkpt lat="36.901225076766565" lon="-108.0921198817616"><ele>1867.0</ele><time>2026-04-15T00:16:31Z</time></trkpt><trkpt lat="36.9011079315392" lon="-108.09213968289525"><ele>1867.0</ele><time>2026-04-15T00:16:32Z</time></trkpt><trkpt lat="36.90099832874385" lon="-108.09211923681364"><ele>1867.0</ele><time>2026-04-15T00:16:33Z</time></trkpt><trkpt lat="36.90091357512386" lon="-108.09213713981025"><ele>1866.9999999999998</ele><time>2026-04-15T00:16:34Z</time></trkpt><trkpt lat="36.90090761423976" lon="-108.09229233033464"><ele>1866.9999999999998</ele><time>2026-04-15T00:16:36Z</time></trkpt><trkpt lat="36.90095604953802" lon="-108.0923800050934"><ele>1867.0</ele><time>2026-04-15T00:16:37Z</time></trkpt><trkpt lat="36.90101170611246" lon="-108.09247799976431"><ele>1867.0</ele><time>2026-04-15T00:16:38Z</time></trkpt><trkpt lat="36.90109261122647" lon="-108.092549909201"><ele>1866.3999999999999</ele><time>2026-04-15T00:16:39Z</time></trkpt><trkpt lat="36.901101574958275" lon="-108.0926563685795"><ele>1865.7999999999997</ele><time>2026-04-15T00:16:40Z</time></trkpt><trkpt lat="36.90105791839332" lon="-108.0927519747997"><ele>1865.2</ele><time>2026-04-15T00:16:41Z</time></trkpt><trkpt lat="36.90095739252216" lon="-108.0928311226254"><ele>1864.6</ele><time>2026-04-15T00:16:42Z</time></trkpt><trkpt lat="36.900851180961" lon="-108.09288981369721"><ele>1864.0</ele><time>2026-04-15T00:16:43Z</time></trkpt><trkpt lat="36.90074880894802" lon="-108.09297290204256"><ele>1863.75</ele><time>2026-04-15T00:16:44Z</time></trkpt><trkpt lat="36.9006473598739" lon="-108.09307786436989"><ele>1863.5</ele><time>2026-04-15T00:16:45Z</time></trkpt><trkpt lat="36.90055297265091" lon="-108.09318448724677"><ele>1863.25</ele><time>2026-04-15T00:16:46Z</time></trkpt><trkpt lat="36.90044983546231" lon="-108.0932956295458"><ele>1863.0</ele><time>2026-04-15T00:16:47Z</time></trkpt><trkpt lat="36.900349419436935" lon="-108.09341539088267"><ele>1862.8000000000002</ele><time>2026-04-15T00:16:48Z</time></trkpt><trkpt lat="36.90028544620602" lon="-108.09350770817497"><ele>1862.6000000000001</ele><time>2026-04-15T00:16:49Z</time></trkpt><trkpt lat="36.90026055390598" lon="-108.09358238107102"><ele>1862.3999999999999</ele><time>2026-04-15T00:16:50Z</time></trkpt><trkpt lat="36.90029963501196" lon="-108.0937199953766"><ele>1862.1999999999998</ele><time>2026-04-15T00:16:52Z</time></trkpt><trkpt lat="36.90037857383336" lon="-108.09376846581252"><ele>1862.0</ele><time>2026-04-15T00:16:53Z</time></trkpt><trkpt lat="36.90048824550743" lon="-108.0938229268513"><ele>1861.9999999999998</ele><time>2026-04-15T00:16:54Z</time></trkpt><trkpt lat="36.90053718076883" lon="-108.09392995557496"><ele>1862.0</ele><time>2026-04-15T00:16:55Z</time></trkpt><trkpt lat="36.900555833074705" lon="-108.09401949735262"><ele>1862.0</ele><time>2026-04-15T00:16:56Z</time></trkpt><trkpt lat="36.90052281909439" lon="-108.09409740325377"><ele>1862.0</ele><time>2026-04-15T00:16:57Z</time></trkpt><trkpt lat="36.90045580945327" lon="-108.09414449382338"><ele>1861.9999999999998</ele><time>2026-04-15T00:16:58Z</time></trkpt><trkpt lat="36.90036526683547" lon="-108.09418898724572"><ele>1862.0</ele><time>2026-04-15T00:16:59Z</time></trkpt><trkpt lat="36.90026981711869" lon="-108.09422365613356"><ele>1862.0</ele><time>2026-04-15T00:17:00Z</time></trkpt><trkpt lat="36.90016357242168" lon="-108.09425303208658"><ele>1862.0</ele><time>2026-04-15T00:17:01Z</time></trkpt><trkpt lat="36.90004649566728" lon="-108.09426106457006"><ele>1862.0</ele><time>2026-04-15T00:17:02Z</time></trkpt><trkpt lat="36.89992560055366" lon="-108.0942688577565"><ele>1862.0</ele><time>2026-04-15T00:17:03Z</time></trkpt><trkpt lat="36.89982614610115" lon="-108.09430653476878"><ele>1862.0</ele><time>2026-04-15T00:17:04Z</time></trkpt><trkpt lat="36.89980804360066" lon="-108.09446064027193"><ele>1861.9999999999998</ele><time>2026-04-15T00:17:06Z</time></trkpt><trkpt lat="36.8998095246409" lon="-108.0945768338812"><ele>1861.9999999999998</ele><time>2026-04-15T00:17:07Z</time></trkpt><trkpt lat="36.899754033158885" lon="-108.0946634754748"><ele>1862.0</ele><time>2026-04-15T00:17:08Z</time></trkpt><trkpt lat="36.89964179940496" lon="-108.09469118506944"><ele>1862.0</ele><time>2026-04-15T00:17:09Z</time></trkpt><trkpt lat="36.899553912906875" lon="-108.09477981203909"><ele>1861.9999999999998</ele><time>2026-04-15T00:17:10Z</time></trkpt><trkpt lat="36.89950862056922" lon="-108.09486684360706"><ele>1862.0</ele><time>2026-04-15T00:17:11Z</time></trkpt><trkpt lat="36.899512256556" lon="-108.09499259669364"><ele>1862.0</ele><time>2026-04-15T00:17:12Z</time></trkpt><trkpt lat="36.899510325161515" lon="-108.09508621531955"><ele>1862.0</ele><time>2026-04-15T00:17:13Z</time></trkpt><trkpt lat="36.899533343546324" lon="-108.09517390161591"><ele>1861.9999999999998</ele><time>2026-04-15T00:17:14Z</time></trkpt><trkpt lat="36.89953636251353" lon="-108.09528475035135"><ele>1862.0</ele><time>2026-04-15T00:17:15Z</time></trkpt><trkpt lat="36.89947334771747" lon="-108.09543721229994"><ele>1861.8333333333333</ele><time>2026-04-15T00:17:16Z</time></trkpt><trkpt lat="36.89940353484263" lon="-108.09554869343081"><ele>1861.6666666666665</ele><time>2026-04-15T00:17:17Z</time></trkpt><trkpt lat="36.89933484037927" lon="-108.09558581630449"><ele>1861.5</ele><time>2026-04-15T00:17:18Z</time></trkpt><trkpt lat="36.89926131384882" lon="-108.09555729260158"><ele>1861.3333333333335</ele><time>2026-04-15T00:17:19Z</time></trkpt><trkpt lat="36.89920376616929" lon="-108.09549862982622"><ele>1861.1666666666667</ele><time>2026-04-15T00:17:20Z</time></trkpt><trkpt lat="36.89911579071432" lon="-108.09542924383479"><ele>1861.0</ele><time>2026-04-15T00:17:22Z</time></trkpt><trkpt lat="36.898986616064654" lon="-108.0952928309168"><ele>1861.0000000000002</ele><time>2026-04-15T00:17:24Z</time></trkpt><trkpt lat="36.898899034805545" lon="-108.09530067464416"><ele>1861.0</ele><time>2026-04-15T00:17:26Z</time></trkpt><trkpt lat="36.89891328768067" lon="-108.09539342089009"><ele>1861.0</ele><time>2026-04-15T00:17:29Z</time></trkpt><trkpt lat="36.898886358628666" lon="-108.09551268396521"><ele>1861.0</ele><time>2026-04-15T00:17:31Z</time></trkpt><trkpt lat="36.898907274761406" lon="-108.09559405695995"><ele>1861.0000000000002</ele><time>2026-04-15T00:17:32Z</time></trkpt><trkpt lat="36.89894137139541" lon="-108.09566210819393"><ele>1861.0</ele><time>2026-04-15T00:17:33Z</time></trkpt><trkpt lat="36.89893302107328" lon="-108.09575162591624"><ele>1861.1666666666667</ele><time>2026-04-15T00:17:34Z</time></trkpt><trkpt lat="36.89891907717411" lon="-108.09582852392843"><ele>1861.3333333333335</ele><time>2026-04-15T00:17:35Z</time></trkpt><trkpt lat="36.898879985874906" lon="-108.09592497501525"><ele>1861.5</ele><time>2026-04-15T00:17:36Z</time></trkpt><trkpt lat="36.898782880541276" lon="-108.09598270117698"><ele>1861.6666666666665</ele><time>2026-04-15T00:17:38Z</time></trkpt><trkpt lat="36.89869929464789" lon="-108.09596132309898"><ele>1861.8333333333333</ele><time>2026-04-15T00:17:39Z</time></trkpt><trkpt lat="36.898616758037456" lon="-108.09594179227129"><ele>1862.0</ele><time>2026-04-15T00:17:40Z</time></trkpt><trkpt lat="36.89853521919003" lon="-108.09594535843293"><ele>1862.0</ele><time>2026-04-15T00:17:41Z</time></trkpt><trkpt lat="36.89845828083603" lon="-108.09596411277217"><ele>1861.9999999999998</ele><time>2026-04-15T00:17:42Z</time></trkpt><trkpt lat="36.8983733266468" lon="-108.09600738609959"><ele>1861.9999999999998</ele><time>2026-04-15T00:17:43Z</time></trkpt><trkpt lat="36.89827771982257" lon="-108.09608695605796"><ele>1862.0</ele><time>2026-04-15T00:17:44Z</time></trkpt><trkpt lat="36.89820874368117" lon="-108.0962191546991"><ele>1862.0</ele><time>2026-04-15T00:17:45Z</time></trkpt><trkpt lat="36.898171945694834" lon="-108.09635748403615"><ele>1861.5</ele><time>2026-04-15T00:17:46Z</time></trkpt><trkpt lat="36.898108135254375" lon="-108.0964877660486"><ele>1861.0</ele><time>2026-04-15T00:17:47Z</time></trkpt><trkpt lat="36.898006720589365" lon="-108.09660661392506"><ele>1860.5</ele><time>2026-04-15T00:17:48Z</time></trkpt><trkpt lat="36.897899290553" lon="-108.09671446208453"><ele>1860.0</ele><time>2026-04-15T00:17:49Z</time></trkpt><trkpt lat="36.89778504321421" lon="-108.09682333893427"><ele>1859.6666666666665</ele><time>2026-04-15T00:17:50Z</time></trkpt><trkpt lat="36.897658699815274" lon="-108.09690679149868"><ele>1859.3333333333333</ele><time>2026-04-15T00:17:51Z</time></trkpt><trkpt lat="36.89751841832713" lon="-108.0969825076774"><ele>1859.0</ele><time>2026-04-15T00:17:52Z</time></trkpt><trkpt lat="36.89736715014791" lon="-108.0970286746974"><ele>1859.0</ele><time>2026-04-15T00:17:53Z</time></trkpt><trkpt lat="36.89719291172771" lon="-108.09701891640563"><ele>1859.0</ele><time>2026-04-15T00:17:54Z</time></trkpt><trkpt lat="36.89701367968366" lon="-108.09700042907586"><ele>1859.0</ele><time>2026-04-15T00:17:55Z</time></trkpt><trkpt lat="36.896827729709315" lon="-108.0970771542888"><ele>1859.0</ele><time>2026-04-15T00:17:56Z</time></trkpt><trkpt lat="36.896651852226704" lon="-108.09716349109242"><ele>1859.0</ele><time>2026-04-15T00:17:57Z</time></trkpt><trkpt lat="36.89649895537118" lon="-108.0973086166545"><ele>1859.0</ele><time>2026-04-15T00:17:58Z</time></trkpt><trkpt lat="36.896336924949075" lon="-108.09744144714598"><ele>1858.0</ele><time>2026-04-15T00:17:59Z</time></trkpt><trkpt lat="36.896250598824864" lon="-108.0975277169185"><ele>1857.0</ele><time>2026-04-15T00:18:00Z</time></trkpt><trkpt lat="36.89618634498795" lon="-108.0976330490984"><ele>1856.0</ele><time>2026-04-15T00:18:01Z</time></trkpt><trkpt lat="36.89615106850117" lon="-108.0977745691039"><ele>1855.0</ele><time>2026-04-15T00:18:02Z</time></trkpt><trkpt lat="36.89612455281998" lon="-108.09793695228113"><ele>1855.0</ele><time>2026-04-15T00:18:03Z</time></trkpt><trkpt lat="36.896112254459204" lon="-108.09808704222118"><ele>1855.0</ele><time>2026-04-15T00:18:04Z</time></trkpt><trkpt lat="36.896123101992885" lon="-108.09826964153709"><ele>1855.0</ele><time>2026-04-15T00:18:05Z</time></trkpt><trkpt lat="36.8961525756886" lon="-108.09845390347863"><ele>1855.0</ele><time>2026-04-15T00:18:06Z</time></trkpt><trkpt lat="36.89617001495659" lon="-108.09865312485114"><ele>1855.3333333333335</ele><time>2026-04-15T00:18:07Z</time></trkpt><trkpt lat="36.896162593541575" lon="-108.098851819706"><ele>1855.6666666666665</ele><time>2026-04-15T00:18:08Z</time></trkpt><trkpt lat="36.89613928830115" lon="-108.0990207135821"><ele>1856.0</ele><time>2026-04-15T00:18:09Z</time></trkpt><trkpt lat="36.89607983091686" lon="-108.09920180792069"><ele>1856.0</ele><time>2026-04-15T00:18:10Z</time></trkpt><trkpt lat="36.89601483476257" lon="-108.09935020712965"><ele>1856.0</ele><time>2026-04-15T00:18:11Z</time></trkpt><trkpt lat="36.89592399075152" lon="-108.09945810974496"><ele>1856.0</ele><time>2026-04-15T00:18:12Z</time></trkpt><trkpt lat="36.89579698072965" lon="-108.09954778155713"><ele>1856.0</ele><time>2026-04-15T00:18:13Z</time></trkpt><trkpt lat="36.89565774926163" lon="-108.09961886782196"><ele>1855.75</ele><time>2026-04-15T00:18:14Z</time></trkpt><trkpt lat="36.895503326098186" lon="-108.09962448703232"><ele>1855.5</ele><time>2026-04-15T00:18:15Z</time></trkpt><trkpt lat="36.89535879556117" lon="-108.09963407381478"><ele>1855.25</ele><time>2026-04-15T00:18:16Z</time></trkpt><trkpt lat="36.895236077123336" lon="-108.0996742367382"><ele>1855.0</ele><time>2026-04-15T00:18:17Z</time></trkpt><trkpt lat="36.895154298145776" lon="-108.09977360340709"><ele>1854.3333333333335</ele><time>2026-04-15T00:18:18Z</time></trkpt><trkpt lat="36.89507869375915" lon="-108.09993996364209"><ele>1853.6666666666665</ele><time>2026-04-15T00:18:19Z</time></trkpt><trkpt lat="36.89497849060745" lon="-108.10009218492294"><ele>1853.0</ele><time>2026-04-15T00:18:20Z</time></trkpt><trkpt lat="36.89486352045627" lon="-108.10020377525905"><ele>1852.9999999999998</ele><time>2026-04-15T00:18:21Z</time></trkpt><trkpt lat="36.89476966418455" lon="-108.1002504499946"><ele>1853.0</ele><time>2026-04-15T00:18:22Z</time></trkpt><trkpt lat="36.894688215504615" lon="-108.10023500048739"><ele>1853.0</ele><time>2026-04-15T00:18:23Z</time></trkpt><trkpt lat="36.8945862125671" lon="-108.10020111464421"><ele>1853.0</ele><time>2026-04-15T00:18:24Z</time></trkpt><trkpt lat="36.8944972944176" lon="-108.10016665968655"><ele>1852.9999999999998</ele><time>2026-04-15T00:18:25Z</time></trkpt><trkpt lat="36.89443790247027" lon="-108.1002025261554"><ele>1853.0</ele><time>2026-04-15T00:18:26Z</time></trkpt><trkpt lat="36.894355424509826" lon="-108.10032108851156"><ele>1853.0</ele><time>2026-04-15T00:18:27Z</time></trkpt><trkpt lat="36.8943441375481" lon="-108.10045063265709"><ele>1853.0000000000002</ele><time>2026-04-15T00:18:28Z</time></trkpt><trkpt lat="36.894336096841826" lon="-108.10059270111097"><ele>1853.0000000000002</ele><time>2026-04-15T00:18:29Z</time></trkpt><trkpt lat="36.89429359099427" lon="-108.1006585209892"><ele>1853.0</ele><time>2026-04-15T00:18:30Z</time></trkpt><trkpt lat="36.89421046902738" lon="-108.10065068443988"><ele>1853.0</ele><time>2026-04-15T00:18:31Z</time></trkpt><trkpt lat="36.894112066311614" lon="-108.10050857800385"><ele>1853.0</ele><time>2026-04-15T00:18:33Z</time></trkpt><trkpt lat="36.894060205754485" lon="-108.10042787040064"><ele>1853.0000000000002</ele><time>2026-04-15T00:18:34Z</time></trkpt><trkpt lat="36.89397415858492" lon="-108.10038383550175"><ele>1853.0000000000002</ele><time>2026-04-15T00:18:35Z</time></trkpt><trkpt lat="36.89386384283103" lon="-108.10032633902921"><ele>1853.0</ele><time>2026-04-15T00:18:36Z</time></trkpt><trkpt lat="36.89374996474199" lon="-108.10029622435798"><ele>1853.0</ele><time>2026-04-15T00:18:37Z</time></trkpt><trkpt lat="36.893665178237924" lon="-108.10030686923699"><ele>1853.0</ele><time>2026-04-15T00:18:38Z</time></trkpt><trkpt lat="36.89363766651037" lon="-108.10043169269379"><ele>1853.0</ele><time>2026-04-15T00:18:40Z</time></trkpt><trkpt lat="36.89370064153425" lon="-108.10059381965937"><ele>1853.0</ele><time>2026-04-15T00:18:42Z</time></trkpt><trkpt lat="36.893685151886196" lon="-108.10072712735828"><ele>1853.0</ele><time>2026-04-15T00:18:43Z</time></trkpt><trkpt lat="36.89359411776889" lon="-108.10084861095318"><ele>1853.0</ele><time>2026-04-15T00:18:44Z</time></trkpt><trkpt lat="36.89349990368995" lon="-108.10091190086247"><ele>1853.0</ele><time>2026-04-15T00:18:45Z</time></trkpt><trkpt lat="36.89339171150177" lon="-108.10101041408504"><ele>1853.0</ele><time>2026-04-15T00:18:46Z</time></trkpt><trkpt lat="36.89328844574026" lon="-108.10111822917244"><ele>1853.0</ele><time>2026-04-15T00:18:47Z</time></trkpt><trkpt lat="36.893159251967845" lon="-108.10118114305924"><ele>1853.0</ele><time>2026-04-15T00:18:48Z</time></trkpt><trkpt lat="36.89301111895298" lon="-108.10123975959615"><ele>1853.0</ele><time>2026-04-15T00:18:49Z</time></trkpt><trkpt lat="36.89287378606155" lon="-108.10131125052943"><ele>1853.0</ele><time>2026-04-15T00:18:50Z</time></trkpt><trkpt lat="36.892725238986216" lon="-108.10138723985419"><ele>1852.3333333333333</ele><time>2026-04-15T00:18:51Z</time></trkpt><trkpt lat="36.89256400394923" lon="-108.10146623730019"><ele>1851.6666666666665</ele><time>2026-04-15T00:18:52Z</time></trkpt><trkpt lat="36.89241538141587" lon="-108.10156546600143"><ele>1851.0</ele><time>2026-04-15T00:18:53Z</time></trkpt><trkpt lat="36.89225977893755" lon="-108.101616694844"><ele>1851.0</ele><time>2026-04-15T00:18:54Z</time></trkpt><trkpt lat="36.892130578647354" lon="-108.10165334033631"><ele>1851.0</ele><time>2026-04-15T00:18:55Z</time></trkpt><trkpt lat="36.89197633870072" lon="-108.10166523902913"><ele>1851.0</ele><time>2026-04-15T00:18:56Z</time></trkpt><trkpt lat="36.891829678638246" lon="-108.10164144790426"><ele>1851.0</ele><time>2026-04-15T00:18:57Z</time></trkpt><trkpt lat="36.891675026830306" lon="-108.10162913196963"><ele>1850.5</ele><time>2026-04-15T00:18:58Z</time></trkpt><trkpt lat="36.891506531260724" lon="-108.1016351190025"><ele>1850.0</ele><time>2026-04-15T00:18:59Z</time></trkpt><trkpt lat="36.89136319987196" lon="-108.10166715190468"><ele>1849.5</ele><time>2026-04-15T00:19:00Z</time></trkpt><trkpt lat="36.891236644179216" lon="-108.1017248225256"><ele>1849.0</ele><time>2026-04-15T00:19:01Z</time></trkpt><trkpt lat="36.89112479566511" lon="-108.10181589679956"><ele>1849.0</ele><time>2026-04-15T00:19:02Z</time></trkpt><trkpt lat="36.89103102449559" lon="-108.10190974243696"><ele>1849.0</ele><time>2026-04-15T00:19:03Z</time></trkpt><trkpt lat="36.890947274615044" lon="-108.10194399583501"><ele>1849.0</ele><time>2026-04-15T00:19:04Z</time></trkpt><trkpt lat="36.89083576301691" lon="-108.10191245375874"><ele>1849.0</ele><time>2026-04-15T00:19:05Z</time></trkpt><trkpt lat="36.89071621570906" lon="-108.10183660156025"><ele>1849.0</ele><time>2026-04-15T00:19:06Z</time></trkpt><trkpt lat="36.89059733507022" lon="-108.10174894051238"><ele>1849.0</ele><time>2026-04-15T00:19:07Z</time></trkpt><trkpt lat="36.890488300029446" lon="-108.1017449050903"><ele>1849.0</ele><time>2026-04-15T00:19:08Z</time></trkpt><trkpt lat="36.890347917940105" lon="-108.10176161445631"><ele>1849.0</ele><time>2026-04-15T00:19:09Z</time></trkpt><trkpt lat="36.89021669858832" lon="-108.10178183488816"><ele>1849.0000000000002</ele><time>2026-04-15T00:19:10Z</time></trkpt><trkpt lat="36.89011846796939" lon="-108.10180343789828"><ele>1849.0</ele><time>2026-04-15T00:19:11Z</time></trkpt><trkpt lat="36.890056618947064" lon="-108.10186101622317"><ele>1849.0</ele><time>2026-04-15T00:19:12Z</time></trkpt><trkpt lat="36.89004075592509" lon="-108.10194299207672"><ele>1849.0</ele><time>2026-04-15T00:19:13Z</time></trkpt><trkpt lat="36.89005713490483" lon="-108.10207604776137"><ele>1849.0000000000002</ele><time>2026-04-15T00:19:14Z</time></trkpt><trkpt lat="36.89003703422313" lon="-108.1021881771227"><ele>1849.0</ele><time>2026-04-15T00:19:15Z</time></trkpt><trkpt lat="36.88997123903538" lon="-108.10225798338386"><ele>1849.0</ele><time>2026-04-15T00:19:16Z</time></trkpt><trkpt lat="36.88989248986996" lon="-108.10226702794202"><ele>1849.0</ele><time>2026-04-15T00:19:17Z</time></trkpt><trkpt lat="36.88978552527384" lon="-108.10226271794392"><ele>1849.0</ele><time>2026-04-15T00:19:18Z</time></trkpt><trkpt lat="36.88968135355303" lon="-108.10229846314137"><ele>1849.0</ele><time>2026-04-15T00:19:19Z</time></trkpt><trkpt lat="36.88956664091606" lon="-108.10234731446562"><ele>1849.0</ele><time>2026-04-15T00:19:20Z</time></trkpt><trkpt lat="36.88946479962527" lon="-108.1024296070824"><ele>1848.6666666666667</ele><time>2026-04-15T00:19:21Z</time></trkpt><trkpt lat="36.88933928048388" lon="-108.10253030362487"><ele>1848.3333333333335</ele><time>2026-04-15T00:19:22Z</time></trkpt><trkpt lat="36.88920698273874" lon="-108.10264383305126"><ele>1848.0</ele><time>2026-04-15T00:19:23Z</time></trkpt><trkpt lat="36.88907316276227" lon="-108.10271735928364"><ele>1848.0</ele><time>2026-04-15T00:19:24Z</time></trkpt><trkpt lat="36.888932609026355" lon="-108.10277149955091"><ele>1848.0</ele><time>2026-04-15T00:19:25Z</time></trkpt><trkpt lat="36.88877181706629" lon="-108.10280289826157"><ele>1848.0</ele><time>2026-04-15T00:19:26Z</time></trkpt><trkpt lat="36.88860562439967" lon="-108.10281781787369"><ele>1848.0</ele><time>2026-04-15T00:19:27Z</time></trkpt><trkpt lat="36.888429260033945" lon="-108.10279615884106"><ele>1848.0</ele><time>2026-04-15T00:19:28Z</time></trkpt><trkpt lat="36.888274493960544" lon="-108.10279763620194"><ele>1848.0</ele><time>2026-04-15T00:19:29Z</time></trkpt><trkpt lat="36.88814087654018" lon="-108.10285445334813"><ele>1847.75</ele><time>2026-04-15T00:19:30Z</time></trkpt><trkpt lat="36.888033832884055" lon="-108.10295976010246"><ele>1847.5</ele><time>2026-04-15T00:19:31Z</time></trkpt><trkpt lat="36.887924148255244" lon="-108.10309617242629"><ele>1847.25</ele><time>2026-04-15T00:19:32Z</time></trkpt><trkpt lat="36.88782800744778" lon="-108.10317746012689"><ele>1847.0</ele><time>2026-04-15T00:19:33Z</time></trkpt><trkpt lat="36.88772902063963" lon="-108.10316117911282"><ele>1847.0</ele><time>2026-04-15T00:19:34Z</time></trkpt><trkpt lat="36.8876569970202" lon="-108.10311057947939"><ele>1846.9999999999998</ele><time>2026-04-15T00:19:35Z</time></trkpt><trkpt lat="36.88757484977017" lon="-108.10305361006833"><ele>1846.9999999999998</ele><time>2026-04-15T00:19:36Z</time></trkpt><trkpt lat="36.88747724497717" lon="-108.10307082301705"><ele>1847.0</ele><time>2026-04-15T00:19:37Z</time></trkpt><trkpt lat="36.88738800109587" lon="-108.10318526815443"><ele>1847.0</ele><time>2026-04-15T00:19:38Z</time></trkpt><trkpt lat="36.887304700788036" lon="-108.10330426782787"><ele>1846.5</ele><time>2026-04-15T00:19:39Z</time></trkpt><trkpt lat="36.887204044479454" lon="-108.10341662000017"><ele>1846.0</ele><time>2026-04-15T00:19:40Z</time></trkpt><trkpt lat="36.88707490421556" lon="-108.10347932287748"><ele>1845.5</ele><time>2026-04-15T00:19:41Z</time></trkpt><trkpt lat="36.8869342954748" lon="-108.10349958444021"><ele>1845.0</ele><time>2026-04-15T00:19:42Z</time></trkpt><trkpt lat="36.88678952335534" lon="-108.10354950581015"><ele>1845.25</ele><time>2026-04-15T00:19:43Z</time></trkpt><trkpt lat="36.88665969555331" lon="-108.10362133506672"><ele>1845.5</ele><time>2026-04-15T00:19:44Z</time></trkpt><trkpt lat="36.8865185003557" lon="-108.10370903760773"><ele>1845.75</ele><time>2026-04-15T00:19:45Z</time></trkpt><trkpt lat="36.88641336164284" lon="-108.10380307904256"><ele>1846.0</ele><time>2026-04-15T00:19:46Z</time></trkpt><trkpt lat="36.88642973416114" lon="-108.10393468218605"><ele>1846.0</ele><time>2026-04-15T00:19:48Z</time></trkpt><trkpt lat="36.886513774286584" lon="-108.10398829288026"><ele>1846.0</ele><time>2026-04-15T00:19:49Z</time></trkpt><trkpt lat="36.886604760525664" lon="-108.10403351302263"><ele>1846.0</ele><time>2026-04-15T00:19:50Z</time></trkpt><trkpt lat="36.88667208278059" lon="-108.10410878368748"><ele>1846.0</ele><time>2026-04-15T00:19:51Z</time></trkpt><trkpt lat="36.88664640967674" lon="-108.10422810333266"><ele>1846.0</ele><time>2026-04-15T00:19:53Z</time></trkpt><trkpt lat="36.88652987540495" lon="-108.10427942757403"><ele>1845.4</ele><time>2026-04-15T00:19:54Z</time></trkpt><trkpt lat="36.88643726119294" lon="-108.10428806420154"><ele>1844.8</ele><time>2026-04-15T00:19:55Z</time></trkpt><trkpt lat="36.886331609878695" lon="-108.10431539415879"><ele>1844.2000000000003</ele><time>2026-04-15T00:19:56Z</time></trkpt><trkpt lat="36.886217050456025" lon="-108.10434085749701"><ele>1843.6000000000001</ele><time>2026-04-15T00:19:57Z</time></trkpt><trkpt lat="36.88612953070118" lon="-108.10437316638709"><ele>1843.0</ele><time>2026-04-15T00:19:58Z</time></trkpt><trkpt lat="36.88606042247128" lon="-108.10440363464454"><ele>1843.0</ele><time>2026-04-15T00:19:59Z</time></trkpt><trkpt lat="36.88599822536169" lon="-108.1044444647717"><ele>1843.0000000000002</ele><time>2026-04-15T00:20:00Z</time></trkpt><trkpt lat="36.88591544947137" lon="-108.10451262879349"><ele>1843.0000000000002</ele><time>2026-04-15T00:20:01Z</time></trkpt><trkpt lat="36.88583817562578" lon="-108.10458190496426"><ele>1843.0</ele><time>2026-04-15T00:20:02Z</time></trkpt><trkpt lat="36.88577046761929" lon="-108.10464960457156"><ele>1843.0</ele><time>2026-04-15T00:20:03Z</time></trkpt><trkpt lat="36.88569441916759" lon="-108.10474063532097"><ele>1842.75</ele><time>2026-04-15T00:20:04Z</time></trkpt><trkpt lat="36.885624845587806" lon="-108.10484379869436"><ele>1842.5</ele><time>2026-04-15T00:20:05Z</time></trkpt><trkpt lat="36.88554161592431" lon="-108.1049676868315"><ele>1842.25</ele><time>2026-04-15T00:20:06Z</time></trkpt><trkpt lat="36.885473074792664" lon="-108.10509103474378"><ele>1842.0</ele><time>2026-04-15T00:20:07Z</time></trkpt><trkpt lat="36.88539534810377" lon="-108.1051663639301"><ele>1842.0</ele><time>2026-04-15T00:20:08Z</time></trkpt><trkpt lat="36.885343878595286" lon="-108.10521439933684"><ele>1842.0</ele><time>2026-04-15T00:20:09Z</time></trkpt><trkpt lat="36.88530837226061" lon="-108.10528652066732"><ele>1842.0</ele><time>2026-04-15T00:20:10Z</time></trkpt><trkpt lat="36.88525849000096" lon="-108.1053788761411"><ele>1842.0</ele><time>2026-04-15T00:20:11Z</time></trkpt><trkpt lat="36.88522200273966" lon="-108.10549660287191"><ele>1842.0</ele><time>2026-04-15T00:20:12Z</time></trkpt><trkpt lat="36.88521314343917" lon="-108.10558879473786"><ele>1842.0</ele><time>2026-04-15T00:20:13Z</time></trkpt><trkpt lat="36.885199077592446" lon="-108.10567078546474"><ele>1842.0</ele><time>2026-04-15T00:20:14Z</time></trkpt><trkpt lat="36.88526368959671" lon="-108.10570934365093"><ele>1841.9999999999998</ele><time>2026-04-15T00:20:18Z</time></trkpt><trkpt lat="36.885255363296736" lon="-108.10556335090722"><ele>1841.9999999999998</ele><time>2026-04-15T00:20:20Z</time></trkpt><trkpt lat="36.88526152629697" lon="-108.10542954195763"><ele>1842.0</ele><time>2026-04-15T00:20:22Z</time></trkpt><trkpt lat="36.88528235997086" lon="-108.10534704369978"><ele>1842.0</ele><time>2026-04-15T00:20:23Z</time></trkpt><trkpt lat="36.88534329224091" lon="-108.10525076459228"><ele>1842.0</ele><time>2026-04-15T00:20:24Z</time></trkpt><trkpt lat="36.88542223417353" lon="-108.1051614717679"><ele>1841.9999999999998</ele><time>2026-04-15T00:20:25Z</time></trkpt><trkpt lat="36.88548939758517" lon="-108.10508088353355"><ele>1841.9999999999998</ele><time>2026-04-15T00:20:26Z</time></trkpt><trkpt lat="36.88554755438242" lon="-108.10498067623365"><ele>1842.0</ele><time>2026-04-15T00:20:27Z</time></trkpt><trkpt lat="36.885630087209016" lon="-108.10487209210415"><ele>1842.0</ele><time>2026-04-15T00:20:28Z</time></trkpt><trkpt lat="36.88572671310092" lon="-108.10475594851196"><ele>1842.25</ele><time>2026-04-15T00:20:29Z</time></trkpt><trkpt lat="36.885832598059416" lon="-108.10463130799127"><ele>1842.5</ele><time>2026-04-15T00:20:30Z</time></trkpt><trkpt lat="36.88594992910138" lon="-108.10451368882396"><ele>1842.75</ele><time>2026-04-15T00:20:31Z</time></trkpt><trkpt lat="36.88605272717098" lon="-108.10444623185361"><ele>1843.0</ele><time>2026-04-15T00:20:32Z</time></trkpt><trkpt lat="36.8861233757505" lon="-108.10441677329788"><ele>1843.0</ele><time>2026-04-15T00:20:33Z</time></trkpt><trkpt lat="36.8860963700954" lon="-108.10422290079612"><ele>1843.0000000000002</ele><time>2026-04-15T00:20:43Z</time></trkpt><trkpt lat="36.88615882528703" lon="-108.10415264151918"><ele>1843.0000000000002</ele><time>2026-04-15T00:20:45Z</time></trkpt><trkpt lat="36.886223364901504" lon="-108.104127402635"><ele>1843.0</ele><time>2026-04-15T00:20:46Z</time></trkpt><trkpt lat="36.88627362543245" lon="-108.10402386088228"><ele>1843.0</ele><time>2026-04-15T00:20:48Z</time></trkpt><trkpt lat="36.88625909306429" lon="-108.10387550553804"><ele>1843.6000000000001</ele><time>2026-04-15T00:20:50Z</time></trkpt><trkpt lat="36.88623018767869" lon="-108.1037860879041"><ele>1844.2000000000003</ele><time>2026-04-15T00:20:51Z</time></trkpt><trkpt lat="36.88618688688162" lon="-108.1036698728465"><ele>1844.8</ele><time>2026-04-15T00:20:52Z</time></trkpt><trkpt lat="36.88612644100246" lon="-108.10353990150821"><ele>1845.4</ele><time>2026-04-15T00:20:53Z</time></trkpt><trkpt lat="36.886065871909736" lon="-108.10340628701368"><ele>1846.0</ele><time>2026-04-15T00:20:54Z</time></trkpt><trkpt lat="36.88600576405599" lon="-108.10324829215341"><ele>1847.3333333333335</ele><time>2026-04-15T00:20:55Z</time></trkpt><trkpt lat="36.88595531607796" lon="-108.1030631047307"><ele>1848.6666666666665</ele><time>2026-04-15T00:20:56Z</time></trkpt><trkpt lat="36.88590351485247" lon="-108.10285653571746"><ele>1850.0</ele><time>2026-04-15T00:20:57Z</time></trkpt><trkpt lat="36.88583524578014" lon="-108.10264903715382"><ele>1850.3333333333333</ele><time>2026-04-15T00:20:58Z</time></trkpt><trkpt lat="36.88575857746069" lon="-108.1024368546428"><ele>1850.6666666666665</ele><time>2026-04-15T00:20:59Z</time></trkpt><trkpt lat="36.88570390935559" lon="-108.1022184730305"><ele>1851.0</ele><time>2026-04-15T00:21:00Z</time></trkpt><trkpt lat="36.88566537926772" lon="-108.10206590082674"><ele>1851.75</ele><time>2026-04-15T00:21:01Z</time></trkpt><trkpt lat="36.88560065375715" lon="-108.10197035868708"><ele>1852.5</ele><time>2026-04-15T00:21:02Z</time></trkpt><trkpt lat="36.885498764552665" lon="-108.10190404642216"><ele>1853.25</ele><time>2026-04-15T00:21:03Z</time></trkpt><trkpt lat="36.88536022417849" lon="-108.10186459656737"><ele>1854.0</ele><time>2026-04-15T00:21:04Z</time></trkpt><trkpt lat="36.885231237446646" lon="-108.10184995740934"><ele>1854.0</ele><time>2026-04-15T00:21:05Z</time></trkpt><trkpt lat="36.885154746782405" lon="-108.10184023408964"><ele>1854.0</ele><time>2026-04-15T00:21:06Z</time></trkpt><trkpt lat="36.88509284533709" lon="-108.10178811678924"><ele>1854.0</ele><time>2026-04-15T00:21:07Z</time></trkpt><trkpt lat="36.885027079661086" lon="-108.10170025552075"><ele>1854.0</ele><time>2026-04-15T00:21:08Z</time></trkpt><trkpt lat="36.88492422105565" lon="-108.10166921717082"><ele>1854.0</ele><time>2026-04-15T00:21:10Z</time></trkpt><trkpt lat="36.884833881401875" lon="-108.10168545401551"><ele>1854.0</ele><time>2026-04-15T00:21:11Z</time></trkpt><trkpt lat="36.884733116501515" lon="-108.10165169881923"><ele>1854.0</ele><time>2026-04-15T00:21:12Z</time></trkpt><trkpt lat="36.88462931654836" lon="-108.10161902049299"><ele>1854.0</ele><time>2026-04-15T00:21:13Z</time></trkpt><trkpt lat="36.88452271464589" lon="-108.10156679468312"><ele>1854.0</ele><time>2026-04-15T00:21:14Z</time></trkpt><trkpt lat="36.8844230993585" lon="-108.10153559541456"><ele>1854.0</ele><time>2026-04-15T00:21:15Z</time></trkpt><trkpt lat="36.884361774909046" lon="-108.10148616010748"><ele>1854.0</ele><time>2026-04-15T00:21:16Z</time></trkpt><trkpt lat="36.88430891673644" lon="-108.10142068150493"><ele>1854.4</ele><time>2026-04-15T00:21:17Z</time></trkpt><trkpt lat="36.88428362940924" lon="-108.10131136217984"><ele>1854.8000000000002</ele><time>2026-04-15T00:21:18Z</time></trkpt><trkpt lat="36.884236807953116" lon="-108.1012300153386"><ele>1855.1999999999998</ele><time>2026-04-15T00:21:19Z</time></trkpt><trkpt lat="36.88416458133844" lon="-108.10121844169143"><ele>1855.6</ele><time>2026-04-15T00:21:20Z</time></trkpt><trkpt lat="36.88409769385859" lon="-108.10113737000314"><ele>1856.0</ele><time>2026-04-15T00:21:21Z</time></trkpt><trkpt lat="36.88403156231038" lon="-108.10102064972442"><ele>1856.8</ele><time>2026-04-15T00:21:22Z</time></trkpt><trkpt lat="36.883972386651706" lon="-108.10088110237241"><ele>1857.6</ele><time>2026-04-15T00:21:23Z</time></trkpt><trkpt lat="36.88390914829689" lon="-108.10077001984638"><ele>1858.4</ele><time>2026-04-15T00:21:24Z</time></trkpt><trkpt lat="36.8838732092693" lon="-108.10068831496494"><ele>1859.2</ele><time>2026-04-15T00:21:25Z</time></trkpt><trkpt lat="36.88377059905044" lon="-108.10058626459177"><ele>1860.0</ele><time>2026-04-15T00:21:27Z</time></trkpt><trkpt lat="36.88372502716265" lon="-108.1004576150484"><ele>1860.25</ele><time>2026-04-15T00:21:28Z</time></trkpt><trkpt lat="36.88369526539421" lon="-108.10031176446556"><ele>1860.5</ele><time>2026-04-15T00:21:29Z</time></trkpt><trkpt lat="36.88363939386029" lon="-108.10016669833497"><ele>1860.75</ele><time>2026-04-15T00:21:30Z</time></trkpt><trkpt lat="36.88359774782821" lon="-108.10001943998687"><ele>1861.0</ele><time>2026-04-15T00:21:31Z</time></trkpt><trkpt lat="36.88357370567259" lon="-108.09991497105155"><ele>1862.5</ele><time>2026-04-15T00:21:32Z</time></trkpt><trkpt lat="36.88342016955667" lon="-108.09991392107084"><ele>1864.0</ele><time>2026-04-15T00:21:35Z</time></trkpt><trkpt lat="36.883306428835105" lon="-108.09986579559047"><ele>1865.5</ele><time>2026-04-15T00:21:36Z</time></trkpt><trkpt lat="36.88317674770581" lon="-108.09976660408235"><ele>1867.0</ele><time>2026-04-15T00:21:37Z</time></trkpt><trkpt lat="36.88305243190027" lon="-108.09969064995998"><ele>1867.0</ele><time>2026-04-15T00:21:38Z</time></trkpt><trkpt lat="36.88295192762135" lon="-108.09963104384984"><ele>1867.0</ele><time>2026-04-15T00:21:39Z</time></trkpt><trkpt lat="36.88289633042394" lon="-108.0995311736553"><ele>1867.0</ele><time>2026-04-15T00:21:40Z</time></trkpt><trkpt lat="36.88286533961687" lon="-108.09939210920496"><ele>1867.0</ele><time>2026-04-15T00:21:41Z</time></trkpt><trkpt lat="36.882785199064905" lon="-108.09923925965087"><ele>1867.0</ele><time>2026-04-15T00:21:42Z</time></trkpt><trkpt lat="36.88268999219176" lon="-108.09913287745725"><ele>1866.9999999999998</ele><time>2026-04-15T00:21:43Z</time></trkpt><trkpt lat="36.88260050605404" lon="-108.09907887590306"><ele>1866.9999999999998</ele><time>2026-04-15T00:21:44Z</time></trkpt><trkpt lat="36.88253554973239" lon="-108.09902695999571"><ele>1867.0</ele><time>2026-04-15T00:21:46Z</time></trkpt><trkpt lat="36.88250169195527" lon="-108.099111704812"><ele>1867.0</ele><time>2026-04-15T00:21:48Z</time></trkpt><trkpt lat="36.882429198941836" lon="-108.09917287682424"><ele>1868.1999999999998</ele><time>2026-04-15T00:21:49Z</time></trkpt><trkpt lat="36.88234964508625" lon="-108.09919773357252"><ele>1869.3999999999999</ele><time>2026-04-15T00:21:50Z</time></trkpt><trkpt lat="36.882269642111154" lon="-108.0991717331849"><ele>1870.6000000000001</ele><time>2026-04-15T00:21:51Z</time></trkpt><trkpt lat="36.88220377156168" lon="-108.09914435891693"><ele>1871.8000000000002</ele><time>2026-04-15T00:21:52Z</time></trkpt><trkpt lat="36.88202570266971" lon="-108.09917251439657"><ele>1873.0</ele><time>2026-04-15T00:21:59Z</time></trkpt><trkpt lat="36.88195746544264" lon="-108.0991435124299"><ele>1872.6000000000001</ele><time>2026-04-15T00:22:00Z</time></trkpt><trkpt lat="36.88188061495841" lon="-108.09907597774409"><ele>1872.2000000000003</ele><time>2026-04-15T00:22:01Z</time></trkpt><trkpt lat="36.881805872709116" lon="-108.09896216289211"><ele>1871.8</ele><time>2026-04-15T00:22:02Z</time></trkpt><trkpt lat="36.88173754455982" lon="-108.09886091774175"><ele>1871.4</ele><time>2026-04-15T00:22:03Z</time></trkpt><trkpt lat="36.88166073508715" lon="-108.09884225398525"><ele>1871.0</ele><time>2026-04-15T00:22:04Z</time></trkpt><trkpt lat="36.881584878865844" lon="-108.09886961816571"><ele>1872.6</ele><time>2026-04-15T00:22:05Z</time></trkpt><trkpt lat="36.88149112461814" lon="-108.09890092564935"><ele>1874.1999999999998</ele><time>2026-04-15T00:22:06Z</time></trkpt><trkpt lat="36.88142532934519" lon="-108.09895866696735"><ele>1875.8000000000002</ele><time>2026-04-15T00:22:07Z</time></trkpt><trkpt lat="36.88136890217438" lon="-108.09901481417319"><ele>1877.4</ele><time>2026-04-15T00:22:08Z</time></trkpt><trkpt lat="36.881250778516396" lon="-108.0991645860215"><ele>1879.0</ele><time>2026-04-15T00:22:10Z</time></trkpt><trkpt lat="36.881161102252605" lon="-108.0991841651717"><ele>1879.5000000000002</ele><time>2026-04-15T00:22:11Z</time></trkpt><trkpt lat="36.88109203859735" lon="-108.09918391893788"><ele>1880.0</ele><time>2026-04-15T00:22:12Z</time></trkpt><trkpt lat="36.88102195560524" lon="-108.09919123665397"><ele>1880.5</ele><time>2026-04-15T00:22:13Z</time></trkpt><trkpt lat="36.880934809343096" lon="-108.09923774811342"><ele>1881.0</ele><time>2026-04-15T00:22:14Z</time></trkpt><trkpt lat="36.88086611973891" lon="-108.09931352942415"><ele>1881.5000000000002</ele><time>2026-04-15T00:22:15Z</time></trkpt><trkpt lat="36.880808987121526" lon="-108.09941754462778"><ele>1882.0</ele><time>2026-04-15T00:22:16Z</time></trkpt><trkpt lat="36.880748942942745" lon="-108.0995048406129"><ele>1882.0</ele><time>2026-04-15T00:22:17Z</time></trkpt><trkpt lat="36.88068743834637" lon="-108.09955891148604"><ele>1881.9999999999998</ele><time>2026-04-15T00:22:18Z</time></trkpt><trkpt lat="36.88062425945564" lon="-108.09958623707284"><ele>1881.9999999999998</ele><time>2026-04-15T00:22:19Z</time></trkpt><trkpt lat="36.88048701858312" lon="-108.09961999187473"><ele>1882.0</ele><time>2026-04-15T00:22:21Z</time></trkpt><trkpt lat="36.88040078465731" lon="-108.09963877974073"><ele>1882.0</ele><time>2026-04-15T00:22:22Z</time></trkpt><trkpt lat="36.880298567285216" lon="-108.09966719403296"><ele>1882.0</ele><time>2026-04-15T00:22:23Z</time></trkpt><trkpt lat="36.88019325430472" lon="-108.09964850633885"><ele>1881.9999999999998</ele><time>2026-04-15T00:22:24Z</time></trkpt><trkpt lat="36.88008579887213" lon="-108.09962608041893"><ele>1881.9999999999998</ele><time>2026-04-15T00:22:25Z</time></trkpt><trkpt lat="36.87996711953599" lon="-108.09962294889752"><ele>1882.0</ele><time>2026-04-15T00:22:26Z</time></trkpt><trkpt lat="36.87986376986108" lon="-108.0996092227912"><ele>1882.0</ele><time>2026-04-15T00:22:27Z</time></trkpt><trkpt lat="36.879796534024244" lon="-108.0995830585996"><ele>1882.3999999999999</ele><time>2026-04-15T00:22:28Z</time></trkpt><trkpt lat="36.87972902468417" lon="-108.0995393490827"><ele>1882.7999999999997</ele><time>2026-04-15T00:22:29Z</time></trkpt><trkpt lat="36.87961396399726" lon="-108.09957319685292"><ele>1883.2</ele><time>2026-04-15T00:22:31Z</time></trkpt><trkpt lat="36.87955009277047" lon="-108.09957919310514"><ele>1883.6</ele><time>2026-04-15T00:22:32Z</time></trkpt><trkpt lat="36.87953326558168" lon="-108.09949023779481"><ele>1884.0</ele><time>2026-04-15T00:22:33Z</time></trkpt><trkpt lat="36.87948609772145" lon="-108.09930395158501"><ele>1884.0</ele><time>2026-04-15T00:22:35Z</time></trkpt><trkpt lat="36.87943640004314" lon="-108.09921414343653"><ele>1884.0</ele><time>2026-04-15T00:22:36Z</time></trkpt><trkpt lat="36.87934477567421" lon="-108.09921253067185"><ele>1884.0</ele><time>2026-04-15T00:22:37Z</time></trkpt><trkpt lat="36.879229665131284" lon="-108.09922309796676"><ele>1884.0</ele><time>2026-04-15T00:22:38Z</time></trkpt><trkpt lat="36.879133597599974" lon="-108.09922339131766"><ele>1884.0</ele><time>2026-04-15T00:22:39Z</time></trkpt><trkpt lat="36.87902796558505" lon="-108.09919323029241"><ele>1885.2</ele><time>2026-04-15T00:22:40Z</time></trkpt><trkpt lat="36.87892425980416" lon="-108.09915702624647"><ele>1886.4</ele><time>2026-04-15T00:22:41Z</time></trkpt><trkpt lat="36.87883740024082" lon="-108.09914760802332"><ele>1887.6</ele><time>2026-04-15T00:22:42Z</time></trkpt><trkpt lat="36.878689058466165" lon="-108.09919061561392"><ele>1888.8</ele><time>2026-04-15T00:22:44Z</time></trkpt><trkpt lat="36.878631558380896" lon="-108.09928012464273"><ele>1890.0</ele><time>2026-04-15T00:22:45Z</time></trkpt><trkpt lat="36.87860818042359" lon="-108.09939819804417"><ele>1890.0</ele><time>2026-04-15T00:22:46Z</time></trkpt><trkpt lat="36.878578600506835" lon="-108.09953419115396"><ele>1890.0</ele><time>2026-04-15T00:22:47Z</time></trkpt><trkpt lat="36.87854138889629" lon="-108.09966221809397"><ele>1890.0</ele><time>2026-04-15T00:22:48Z</time></trkpt><trkpt lat="36.878499714810204" lon="-108.09976949444933"><ele>1890.0</ele><time>2026-04-15T00:22:49Z</time></trkpt><trkpt lat="36.87845846925631" lon="-108.099889111237"><ele>1890.0</ele><time>2026-04-15T00:22:50Z</time></trkpt><trkpt lat="36.87836680939155" lon="-108.09996456842924"><ele>1890.2</ele><time>2026-04-15T00:22:52Z</time></trkpt><trkpt lat="36.87824971500117" lon="-108.10004991459233"><ele>1890.4</ele><time>2026-04-15T00:22:53Z</time></trkpt><trkpt lat="36.87814442363732" lon="-108.10015157135693"><ele>1890.6</ele><time>2026-04-15T00:22:54Z</time></trkpt><trkpt lat="36.87807051443306" lon="-108.10020673973767"><ele>1890.8</ele><time>2026-04-15T00:22:55Z</time></trkpt><trkpt lat="36.87799063446387" lon="-108.10020381658596"><ele>1891.0</ele><time>2026-04-15T00:22:56Z</time></trkpt><trkpt lat="36.87788239588601" lon="-108.10020314995468"><ele>1891.0000000000002</ele><time>2026-04-15T00:22:57Z</time></trkpt><trkpt lat="36.877783672721186" lon="-108.10021378911527"><ele>1891.0</ele><time>2026-04-15T00:22:58Z</time></trkpt><trkpt lat="36.87771018763904" lon="-108.10020819213358"><ele>1891.0</ele><time>2026-04-15T00:22:59Z</time></trkpt><trkpt lat="36.87764352866628" lon="-108.100236707034"><ele>1891.0</ele><time>2026-04-15T00:23:00Z</time></trkpt><trkpt lat="36.87758215085973" lon="-108.10034184799825"><ele>1891.0000000000002</ele><time>2026-04-15T00:23:01Z</time></trkpt><trkpt lat="36.877535568264676" lon="-108.10045330196982"><ele>1891.0</ele><time>2026-04-15T00:23:02Z</time></trkpt><trkpt lat="36.87748781661027" lon="-108.1005483454807"><ele>1890.1999999999998</ele><time>2026-04-15T00:23:03Z</time></trkpt><trkpt lat="36.87742248647958" lon="-108.10061936599847"><ele>1889.3999999999999</ele><time>2026-04-15T00:23:04Z</time></trkpt><trkpt lat="36.87733818272349" lon="-108.1007116159494"><ele>1888.6</ele><time>2026-04-15T00:23:05Z</time></trkpt><trkpt lat="36.87726573895048" lon="-108.10078510590738"><ele>1887.8</ele><time>2026-04-15T00:23:06Z</time></trkpt><trkpt lat="36.87717505004821" lon="-108.10084248989254"><ele>1887.0</ele><time>2026-04-15T00:23:07Z</time></trkpt><trkpt lat="36.87707544292874" lon="-108.10087098533994"><ele>1887.0</ele><time>2026-04-15T00:23:08Z</time></trkpt><trkpt lat="36.87697342282461" lon="-108.10084912620259"><ele>1887.0</ele><time>2026-04-15T00:23:09Z</time></trkpt><trkpt lat="36.876884514948614" lon="-108.10080537326859"><ele>1887.0</ele><time>2026-04-15T00:23:10Z</time></trkpt><trkpt lat="36.87678841750446" lon="-108.10079354186422"><ele>1887.0</ele><time>2026-04-15T00:23:11Z</time></trkpt><trkpt lat="36.87671313327609" lon="-108.10078397075685"><ele>1887.0</ele><time>2026-04-15T00:23:12Z</time></trkpt><trkpt lat="36.87665486945816" lon="-108.10082931111725"><ele>1887.0</ele><time>2026-04-15T00:23:13Z</time></trkpt><trkpt lat="36.8765895620809" lon="-108.10090954206136"><ele>1885.6</ele><time>2026-04-15T00:23:14Z</time></trkpt><trkpt lat="36.876512095428104" lon="-108.10090588202614"><ele>1884.1999999999998</ele><time>2026-04-15T00:23:15Z</time></trkpt><trkpt lat="36.87643517989928" lon="-108.10089779284378"><ele>1882.8</ele><time>2026-04-15T00:23:16Z</time></trkpt><trkpt lat="36.87641507066464" lon="-108.10099680012127"><ele>1881.4</ele><time>2026-04-15T00:23:17Z</time></trkpt><trkpt lat="36.876413288791404" lon="-108.10108248694628"><ele>1880.0</ele><time>2026-04-15T00:23:18Z</time></trkpt><trkpt lat="36.87658373538507" lon="-108.10114448181676"><ele>1880.0</ele><time>2026-04-15T00:23:20Z</time></trkpt><trkpt lat="36.87670063699139" lon="-108.10111959893335"><ele>1880.0</ele><time>2026-04-15T00:23:21Z</time></trkpt><trkpt lat="36.876793519608675" lon="-108.10110177848487"><ele>1880.0</ele><time>2026-04-15T00:23:22Z</time></trkpt><trkpt lat="36.87682583469433" lon="-108.10117084221997"><ele>1880.0</ele><time>2026-04-15T00:23:23Z</time></trkpt><trkpt lat="36.876910787039606" lon="-108.10130108165689"><ele>1880.0</ele><time>2026-04-15T00:23:24Z</time></trkpt><trkpt lat="36.87701561870168" lon="-108.10135635503256"><ele>1880.4</ele><time>2026-04-15T00:23:25Z</time></trkpt><trkpt lat="36.87708977054223" lon="-108.10143475372044"><ele>1880.8</ele><time>2026-04-15T00:23:26Z</time></trkpt><trkpt lat="36.87715443389484" lon="-108.1014908847862"><ele>1881.1999999999998</ele><time>2026-04-15T00:23:27Z</time></trkpt><trkpt lat="36.87722885918995" lon="-108.10156592595285"><ele>1881.6</ele><time>2026-04-15T00:23:28Z</time></trkpt><trkpt lat="36.87730086614384" lon="-108.10164470795408"><ele>1882.0</ele><time>2026-04-15T00:23:29Z</time></trkpt><trkpt lat="36.877361259318235" lon="-108.10176287593042"><ele>1882.0</ele><time>2026-04-15T00:23:30Z</time></trkpt><trkpt lat="36.87743743790589" lon="-108.10187561511043"><ele>1881.9999999999998</ele><time>2026-04-15T00:23:31Z</time></trkpt><trkpt lat="36.877438038131835" lon="-108.10202495328056"><ele>1881.9999999999998</ele><time>2026-04-15T00:23:33Z</time></trkpt><trkpt lat="36.8774041112173" lon="-108.10213378547708"><ele>1882.0</ele><time>2026-04-15T00:23:34Z</time></trkpt><trkpt lat="36.8774655579832" lon="-108.10221566950533"><ele>1882.0</ele><time>2026-04-15T00:23:35Z</time></trkpt><trkpt lat="36.87756296075672" lon="-108.10225376962804"><ele>1881.6</ele><time>2026-04-15T00:23:36Z</time></trkpt><trkpt lat="36.87765325625408" lon="-108.10233447480772"><ele>1881.1999999999998</ele><time>2026-04-15T00:23:37Z</time></trkpt><trkpt lat="36.87772474557656" lon="-108.10244056871255"><ele>1880.8</ele><time>2026-04-15T00:23:38Z</time></trkpt><trkpt lat="36.87777497943307" lon="-108.10255364034522"><ele>1880.4</ele><time>2026-04-15T00:23:39Z</time></trkpt><trkpt lat="36.87784309380983" lon="-108.10265783717333"><ele>1880.0</ele><time>2026-04-15T00:23:40Z</time></trkpt><trkpt lat="36.877939747642" lon="-108.10271513769644"><ele>1880.0</ele><time>2026-04-15T00:23:41Z</time></trkpt><trkpt lat="36.87802168757783" lon="-108.10275433554254"><ele>1880.0</ele><time>2026-04-15T00:23:42Z</time></trkpt><trkpt lat="36.878093959517805" lon="-108.10278180831506"><ele>1880.0</ele><time>2026-04-15T00:23:43Z</time></trkpt><trkpt lat="36.87811665892103" lon="-108.10289571285793"><ele>1880.0</ele><time>2026-04-15T00:23:45Z</time></trkpt><trkpt lat="36.878026755618556" lon="-108.10292946475258"><ele>1880.0</ele><time>2026-04-15T00:23:46Z</time></trkpt><trkpt lat="36.87792989281684" lon="-108.10298612380362"><ele>1880.0</ele><time>2026-04-15T00:23:47Z</time></trkpt><trkpt lat="36.877840974153735" lon="-108.10308813455204"><ele>1880.0</ele><time>2026-04-15T00:23:48Z</time></trkpt><trkpt lat="36.877731727584816" lon="-108.10318699450026"><ele>1880.0</ele><time>2026-04-15T00:23:49Z</time></trkpt><trkpt lat="36.877608216343994" lon="-108.10326951478018"><ele>1880.0</ele><time>2026-04-15T00:23:50Z</time></trkpt><trkpt lat="36.87753745926851" lon="-108.10334891224801"><ele>1878.4999999999998</ele><time>2026-04-15T00:23:51Z</time></trkpt><trkpt lat="36.87747674584276" lon="-108.10340522559306"><ele>1877.0</ele><time>2026-04-15T00:23:52Z</time></trkpt><trkpt lat="36.87740332061761" lon="-108.10345520944006"><ele>1875.5</ele><time>2026-04-15T00:23:53Z</time></trkpt><trkpt lat="36.877335930936844" lon="-108.10350796226987"><ele>1874.0</ele><time>2026-04-15T00:23:54Z</time></trkpt><trkpt lat="36.87726223483447" lon="-108.10357568894463"><ele>1872.4999999999998</ele><time>2026-04-15T00:23:55Z</time></trkpt><trkpt lat="36.87717410662137" lon="-108.10367562334704"><ele>1871.0</ele><time>2026-04-15T00:23:56Z</time></trkpt><trkpt lat="36.877076812827795" lon="-108.103726833717"><ele>1870.9999999999998</ele><time>2026-04-15T00:23:57Z</time></trkpt><trkpt lat="36.87701008122425" lon="-108.1037716983588"><ele>1871.0</ele><time>2026-04-15T00:23:58Z</time></trkpt><trkpt lat="36.87695881191171" lon="-108.1038223438157"><ele>1871.0</ele><time>2026-04-15T00:23:59Z</time></trkpt><trkpt lat="36.87689394678139" lon="-108.10384462750774"><ele>1871.0</ele><time>2026-04-15T00:24:00Z</time></trkpt><trkpt lat="36.87683089632602" lon="-108.10396042861728"><ele>1870.9999999999998</ele><time>2026-04-15T00:24:02Z</time></trkpt><trkpt lat="36.876822380628184" lon="-108.10405323675477"><ele>1871.0</ele><time>2026-04-15T00:24:03Z</time></trkpt><trkpt lat="36.87675540561129" lon="-108.10409827940407"><ele>1870.3333333333333</ele><time>2026-04-15T00:24:05Z</time></trkpt><trkpt lat="36.87670564472313" lon="-108.10402784834652"><ele>1869.6666666666665</ele><time>2026-04-15T00:24:06Z</time></trkpt><trkpt lat="36.876648391958284" lon="-108.10398201579167"><ele>1869.0</ele><time>2026-04-15T00:24:07Z</time></trkpt><trkpt lat="36.87657766327039" lon="-108.10392494940832"><ele>1868.3333333333335</ele><time>2026-04-15T00:24:08Z</time></trkpt><trkpt lat="36.876502663496666" lon="-108.10382686915597"><ele>1867.6666666666667</ele><time>2026-04-15T00:24:09Z</time></trkpt><trkpt lat="36.8764441163655" lon="-108.1037253521954"><ele>1867.0</ele><time>2026-04-15T00:24:10Z</time></trkpt><trkpt lat="36.876386419571325" lon="-108.10359315908826"><ele>1867.0</ele><time>2026-04-15T00:24:11Z</time></trkpt><trkpt lat="36.87632669604405" lon="-108.10346350017224"><ele>1867.0</ele><time>2026-04-15T00:24:12Z</time></trkpt><trkpt lat="36.876277561242425" lon="-108.1033351397502"><ele>1867.0</ele><time>2026-04-15T00:24:13Z</time></trkpt><trkpt lat="36.876236045102985" lon="-108.10320216115807"><ele>1867.0</ele><time>2026-04-15T00:24:14Z</time></trkpt><trkpt lat="36.87618488328649" lon="-108.10308352626502"><ele>1867.3999999999999</ele><time>2026-04-15T00:24:15Z</time></trkpt><trkpt lat="36.876125112856876" lon="-108.1029751236136"><ele>1867.7999999999997</ele><time>2026-04-15T00:24:16Z</time></trkpt><trkpt lat="36.876048994917305" lon="-108.1028668089041"><ele>1868.2</ele><time>2026-04-15T00:24:17Z</time></trkpt><trkpt lat="36.876010726386326" lon="-108.10277150854847"><ele>1868.6</ele><time>2026-04-15T00:24:18Z</time></trkpt><trkpt lat="36.87595522359726" lon="-108.10268906540503"><ele>1869.0</ele><time>2026-04-15T00:24:19Z</time></trkpt><trkpt lat="36.875883172011406" lon="-108.10264078853058"><ele>1869.0</ele><time>2026-04-15T00:24:20Z</time></trkpt><trkpt lat="36.875789466338205" lon="-108.1025767734189"><ele>1869.0</ele><time>2026-04-15T00:24:21Z</time></trkpt><trkpt lat="36.875705087430724" lon="-108.10263421061813"><ele>1869.0</ele><time>2026-04-15T00:24:22Z</time></trkpt><trkpt lat="36.875635132742346" lon="-108.10267131300681"><ele>1869.0</ele><time>2026-04-15T00:24:23Z</time></trkpt><trkpt lat="36.87553297542312" lon="-108.10269909478086"><ele>1869.0</ele><time>2026-04-15T00:24:25Z</time></trkpt><trkpt lat="36.8754230768242" lon="-108.10275279328523"><ele>1869.0</ele><time>2026-04-15T00:24:26Z</time></trkpt><trkpt lat="36.87531145870437" lon="-108.10278588845453"><ele>1869.0</ele><time>2026-04-15T00:24:27Z</time></trkpt><trkpt lat="36.87518348226598" lon="-108.10278403316664"><ele>1869.0</ele><time>2026-04-15T00:24:28Z</time></trkpt><trkpt lat="36.87505885466895" lon="-108.10278396856103"><ele>1869.0</ele><time>2026-04-15T00:24:29Z</time></trkpt><trkpt lat="36.874955936523705" lon="-108.10273008679104"><ele>1870.0</ele><time>2026-04-15T00:24:30Z</time></trkpt><trkpt lat="36.87487590969318" lon="-108.10268739111794"><ele>1871.0</ele><time>2026-04-15T00:24:31Z</time></trkpt><trkpt lat="36.874802789505054" lon="-108.10275537226454"><ele>1872.0</ele><time>2026-04-15T00:24:32Z</time></trkpt><trkpt lat="36.87470687903219" lon="-108.10287106070191"><ele>1873.0</ele><time>2026-04-15T00:24:33Z</time></trkpt><trkpt lat="36.8746649692194" lon="-108.10294125011994"><ele>1874.0</ele><time>2026-04-15T00:24:34Z</time></trkpt><trkpt lat="36.87467214084474" lon="-108.10307332259403"><ele>1874.0</ele><time>2026-04-15T00:24:35Z</time></trkpt><trkpt lat="36.87464350062892" lon="-108.10319820756695"><ele>1874.0</ele><time>2026-04-15T00:24:36Z</time></trkpt><trkpt lat="36.87452201854881" lon="-108.10320510831487"><ele>1874.0</ele><time>2026-04-15T00:24:38Z</time></trkpt><trkpt lat="36.87447151204917" lon="-108.10330080410462"><ele>1874.0</ele><time>2026-04-15T00:24:39Z</time></trkpt><trkpt lat="36.87442353925224" lon="-108.10344475339379"><ele>1874.0</ele><time>2026-04-15T00:24:40Z</time></trkpt><trkpt lat="36.8743505319786" lon="-108.10349389808401"><ele>1875.2</ele><time>2026-04-15T00:24:41Z</time></trkpt><trkpt lat="36.874237260337935" lon="-108.10352966384562"><ele>1876.4</ele><time>2026-04-15T00:24:42Z</time></trkpt><trkpt lat="36.874155727981105" lon="-108.10361507673886"><ele>1877.6</ele><time>2026-04-15T00:24:43Z</time></trkpt><trkpt lat="36.87408218372286" lon="-108.10369110980612"><ele>1878.8</ele><time>2026-04-15T00:24:44Z</time></trkpt><trkpt lat="36.87399473384427" lon="-108.10375667756122"><ele>1880.0</ele><time>2026-04-15T00:24:45Z</time></trkpt><trkpt lat="36.87387790204325" lon="-108.10382246185159"><ele>1880.0</ele><time>2026-04-15T00:24:46Z</time></trkpt><trkpt lat="36.87379573456057" lon="-108.10392996726544"><ele>1880.0</ele><time>2026-04-15T00:24:47Z</time></trkpt><trkpt lat="36.873706544935544" lon="-108.10405307174666"><ele>1880.0</ele><time>2026-04-15T00:24:48Z</time></trkpt><trkpt lat="36.873623063125265" lon="-108.1041316114349"><ele>1880.0</ele><time>2026-04-15T00:24:49Z</time></trkpt><trkpt lat="36.87353861516558" lon="-108.10413527164211"><ele>1880.0</ele><time>2026-04-15T00:24:50Z</time></trkpt><trkpt lat="36.873501194253556" lon="-108.10404695129158"><ele>1879.9999999999998</ele><time>2026-04-15T00:24:52Z</time></trkpt><trkpt lat="36.87350560211571" lon="-108.1039356995447"><ele>1880.0</ele><time>2026-04-15T00:25:03Z</time></trkpt><trkpt lat="36.873504483606936" lon="-108.10384818272706"><ele>1880.0</ele><time>2026-04-15T00:25:04Z</time></trkpt><trkpt lat="36.87346581135995" lon="-108.10373540063672"><ele>1880.0</ele><time>2026-04-15T00:25:06Z</time></trkpt><trkpt lat="36.87351604090125" lon="-108.10367883359022"><ele>1879.9999999999998</ele><time>2026-04-15T00:25:07Z</time></trkpt><trkpt lat="36.873567071818165" lon="-108.10357151513395"><ele>1880.0</ele><time>2026-04-15T00:25:08Z</time></trkpt><trkpt lat="36.873551191521045" lon="-108.10347578018015"><ele>1879.9999999999998</ele><time>2026-04-15T00:25:09Z</time></trkpt><trkpt lat="36.87359895966954" lon="-108.10340258164015"><ele>1880.0</ele><time>2026-04-15T00:25:11Z</time></trkpt><trkpt lat="36.87367451796643" lon="-108.10334902951546"><ele>1880.0</ele><time>2026-04-15T00:25:12Z</time></trkpt><trkpt lat="36.87372414381813" lon="-108.10328167012572"><ele>1880.0</ele><time>2026-04-15T00:25:13Z</time></trkpt><trkpt lat="36.873752586668694" lon="-108.10319177950112"><ele>1879.9999999999998</ele><time>2026-04-15T00:25:14Z</time></trkpt><trkpt lat="36.87377656526093" lon="-108.10309580376293"><ele>1880.0</ele><time>2026-04-15T00:25:15Z</time></trkpt><trkpt lat="36.87379962349727" lon="-108.10300462937734"><ele>1880.1666666666665</ele><time>2026-04-15T00:25:16Z</time></trkpt><trkpt lat="36.873809555878765" lon="-108.10290465013932"><ele>1880.3333333333333</ele><time>2026-04-15T00:25:17Z</time></trkpt><trkpt lat="36.87380331534276" lon="-108.10279076986335"><ele>1880.5</ele><time>2026-04-15T00:25:18Z</time></trkpt><trkpt lat="36.87375942249345" lon="-108.10269220251368"><ele>1880.6666666666665</ele><time>2026-04-15T00:25:19Z</time></trkpt><trkpt lat="36.87371021702639" lon="-108.10261015793584"><ele>1880.8333333333333</ele><time>2026-04-15T00:25:20Z</time></trkpt><trkpt lat="36.873657742808355" lon="-108.10252641719103"><ele>1881.0</ele><time>2026-04-15T00:25:21Z</time></trkpt><trkpt lat="36.87362099049568" lon="-108.10246195296648"><ele>1881.0</ele><time>2026-04-15T00:25:22Z</time></trkpt><trkpt lat="36.87349512656875" lon="-108.10239941645726"><ele>1881.0</ele><time>2026-04-15T00:25:24Z</time></trkpt><trkpt lat="36.873428933372644" lon="-108.10227140168242"><ele>1881.0</ele><time>2026-04-15T00:25:25Z</time></trkpt><trkpt lat="36.87332990491647" lon="-108.10218037533411"><ele>1881.0</ele><time>2026-04-15T00:25:26Z</time></trkpt><trkpt lat="36.87322329177898" lon="-108.10212349381986"><ele>1882.4</ele><time>2026-04-15T00:25:27Z</time></trkpt><trkpt lat="36.87311182170237" lon="-108.10206655675624"><ele>1883.8</ele><time>2026-04-15T00:25:28Z</time></trkpt><trkpt lat="36.8730244288668" lon="-108.10198431058299"><ele>1885.2000000000003</ele><time>2026-04-15T00:25:29Z</time></trkpt><trkpt lat="36.872963401473235" lon="-108.10191471556266"><ele>1886.6000000000001</ele><time>2026-04-15T00:25:30Z</time></trkpt><trkpt lat="36.87287654649649" lon="-108.10179928941234"><ele>1888.0</ele><time>2026-04-15T00:25:32Z</time></trkpt><trkpt lat="36.87286812119008" lon="-108.10170900368352"><ele>1888.0</ele><time>2026-04-15T00:25:33Z</time></trkpt><trkpt lat="36.87288381961935" lon="-108.10161376708884"><ele>1888.0000000000002</ele><time>2026-04-15T00:25:34Z</time></trkpt><trkpt lat="36.87287410677865" lon="-108.10146416550431"><ele>1888.0000000000002</ele><time>2026-04-15T00:25:35Z</time></trkpt><trkpt lat="36.8728098567801" lon="-108.10132196326295"><ele>1888.0</ele><time>2026-04-15T00:25:36Z</time></trkpt><trkpt lat="36.872761440918154" lon="-108.10119620322965"><ele>1888.0</ele><time>2026-04-15T00:25:37Z</time></trkpt><trkpt lat="36.872744014168234" lon="-108.1010743349333"><ele>1887.8000000000002</ele><time>2026-04-15T00:25:38Z</time></trkpt><trkpt lat="36.872714386646926" lon="-108.10095554653842"><ele>1887.6000000000001</ele><time>2026-04-15T00:25:39Z</time></trkpt><trkpt lat="36.872699046631745" lon="-108.1008665573447"><ele>1887.3999999999999</ele><time>2026-04-15T00:25:40Z</time></trkpt><trkpt lat="36.872663733575884" lon="-108.10077749925954"><ele>1887.1999999999998</ele><time>2026-04-15T00:25:41Z</time></trkpt><trkpt lat="36.87256073446219" lon="-108.10067220493063"><ele>1887.0</ele><time>2026-04-15T00:25:42Z</time></trkpt><trkpt lat="36.872506579166824" lon="-108.10054515673788"><ele>1888.25</ele><time>2026-04-15T00:25:43Z</time></trkpt><trkpt lat="36.87246719126895" lon="-108.10035485441703"><ele>1889.5</ele><time>2026-04-15T00:25:44Z</time></trkpt><trkpt lat="36.87243226688963" lon="-108.10017618501277"><ele>1890.75</ele><time>2026-04-15T00:25:45Z</time></trkpt><trkpt lat="36.87237109434408" lon="-108.10005064434259"><ele>1892.0</ele><time>2026-04-15T00:25:46Z</time></trkpt><trkpt lat="36.87229217496296" lon="-108.100019055276"><ele>1892.0</ele><time>2026-04-15T00:25:47Z</time></trkpt><trkpt lat="36.872179449735654" lon="-108.09999852010921"><ele>1891.9999999999998</ele><time>2026-04-15T00:25:48Z</time></trkpt><trkpt lat="36.87207343426863" lon="-108.09996679299927"><ele>1891.9999999999998</ele><time>2026-04-15T00:25:49Z</time></trkpt><trkpt lat="36.872012944386114" lon="-108.09990255577246"><ele>1892.0</ele><time>2026-04-15T00:25:50Z</time></trkpt><trkpt lat="36.87197745804009" lon="-108.09980711984507"><ele>1892.0</ele><time>2026-04-15T00:25:51Z</time></trkpt><trkpt lat="36.87191654584924" lon="-108.09969055517782"><ele>1892.0</ele><time>2026-04-15T00:25:52Z</time></trkpt><trkpt lat="36.87185203887935" lon="-108.09962304045948"><ele>1891.9999999999998</ele><time>2026-04-15T00:25:53Z</time></trkpt><trkpt lat="36.87183736259499" lon="-108.09951835513753"><ele>1891.9999999999998</ele><time>2026-04-15T00:25:54Z</time></trkpt><trkpt lat="36.871804215980994" lon="-108.09935620316872"><ele>1892.0</ele><time>2026-04-15T00:25:55Z</time></trkpt><trkpt lat="36.871720910004136" lon="-108.09925680045407"><ele>1892.0</ele><time>2026-04-15T00:25:56Z</time></trkpt><trkpt lat="36.87160697620966" lon="-108.09917765347767"><ele>1893.25</ele><time>2026-04-15T00:25:57Z</time></trkpt><trkpt lat="36.871494258749614" lon="-108.09909493873101"><ele>1894.5</ele><time>2026-04-15T00:25:58Z</time></trkpt><trkpt lat="36.871405459228015" lon="-108.09896640692209"><ele>1895.75</ele><time>2026-04-15T00:25:59Z</time></trkpt><trkpt lat="36.87134847293243" lon="-108.09883433294064"><ele>1897.0</ele><time>2026-04-15T00:26:00Z</time></trkpt><trkpt lat="36.871338735356744" lon="-108.09868098133995"><ele>1897.1999999999998</ele><time>2026-04-15T00:26:01Z</time></trkpt><trkpt lat="36.87132705536362" lon="-108.09851052055579"><ele>1897.3999999999999</ele><time>2026-04-15T00:26:02Z</time></trkpt><trkpt lat="36.87130241309577" lon="-108.09837324112398"><ele>1897.6000000000001</ele><time>2026-04-15T00:26:03Z</time></trkpt><trkpt lat="36.871278000558654" lon="-108.09827744748704"><ele>1897.8000000000002</ele><time>2026-04-15T00:26:04Z</time></trkpt><trkpt lat="36.87120783603891" lon="-108.09820191345582"><ele>1898.0</ele><time>2026-04-15T00:26:05Z</time></trkpt><trkpt lat="36.87108353779831" lon="-108.09811813771833"><ele>1898.0</ele><time>2026-04-15T00:26:06Z</time></trkpt><trkpt lat="36.87099706556039" lon="-108.09799350405177"><ele>1898.0</ele><time>2026-04-15T00:26:07Z</time></trkpt><trkpt lat="36.87088817782269" lon="-108.09785285965707"><ele>1898.0</ele><time>2026-04-15T00:26:08Z</time></trkpt><trkpt lat="36.87078694521037" lon="-108.09772318816034"><ele>1898.0</ele><time>2026-04-15T00:26:09Z</time></trkpt><trkpt lat="36.870652018593425" lon="-108.09760323194934"><ele>1899.25</ele><time>2026-04-15T00:26:10Z</time></trkpt><trkpt lat="36.870508429319884" lon="-108.09750622382641"><ele>1900.5</ele><time>2026-04-15T00:26:11Z</time></trkpt><trkpt lat="36.87038038983711" lon="-108.09739024835699"><ele>1901.75</ele><time>2026-04-15T00:26:12Z</time></trkpt><trkpt lat="36.870291509281344" lon="-108.09728091265391"><ele>1903.0</ele><time>2026-04-15T00:26:13Z</time></trkpt><trkpt lat="36.87022294266802" lon="-108.09720807078017"><ele>1903.1666666666667</ele><time>2026-04-15T00:26:14Z</time></trkpt><trkpt lat="36.87018428252513" lon="-108.09710781943028"><ele>1903.3333333333335</ele><time>2026-04-15T00:26:15Z</time></trkpt><trkpt lat="36.87011270243258" lon="-108.0970373921017"><ele>1903.5</ele><time>2026-04-15T00:26:16Z</time></trkpt><trkpt lat="36.870012727853556" lon="-108.0970726911302"><ele>1903.6666666666665</ele><time>2026-04-15T00:26:17Z</time></trkpt><trkpt lat="36.869937042291326" lon="-108.09704794395097"><ele>1903.8333333333333</ele><time>2026-04-15T00:26:18Z</time></trkpt><trkpt lat="36.86988102767244" lon="-108.09698053629951"><ele>1904.0</ele><time>2026-04-15T00:26:19Z</time></trkpt><trkpt lat="36.86980285306549" lon="-108.09697673035632"><ele>1904.5</ele><time>2026-04-15T00:26:20Z</time></trkpt><trkpt lat="36.86969828351956" lon="-108.09698039548638"><ele>1905.0</ele><time>2026-04-15T00:26:21Z</time></trkpt><trkpt lat="36.8695892896624" lon="-108.09693038319591"><ele>1905.5</ele><time>2026-04-15T00:26:22Z</time></trkpt><trkpt lat="36.8694894241788" lon="-108.09684706388155"><ele>1906.0</ele><time>2026-04-15T00:26:23Z</time></trkpt><trkpt lat="36.86936190834737" lon="-108.09673607202306"><ele>1906.75</ele><time>2026-04-15T00:26:24Z</time></trkpt><trkpt lat="36.86919927270213" lon="-108.09668462188893"><ele>1907.5</ele><time>2026-04-15T00:26:25Z</time></trkpt><trkpt lat="36.86904384232354" lon="-108.09666986545734"><ele>1908.25</ele><time>2026-04-15T00:26:26Z</time></trkpt><trkpt lat="36.86895694659628" lon="-108.09672348238738"><ele>1909.0</ele><time>2026-04-15T00:26:27Z</time></trkpt><trkpt lat="36.868889707565856" lon="-108.09681111284118"><ele>1909.0000000000002</ele><time>2026-04-15T00:26:28Z</time></trkpt><trkpt lat="36.86882343876977" lon="-108.09690396016508"><ele>1909.0</ele><time>2026-04-15T00:26:29Z</time></trkpt><trkpt lat="36.868758289115085" lon="-108.09693140386787"><ele>1909.0</ele><time>2026-04-15T00:26:30Z</time></trkpt><trkpt lat="36.86867956378787" lon="-108.09688100786938"><ele>1909.0</ele><time>2026-04-15T00:26:31Z</time></trkpt><trkpt lat="36.868610374424996" lon="-108.09682839080826"><ele>1909.0000000000002</ele><time>2026-04-15T00:26:32Z</time></trkpt><trkpt lat="36.8685345179821" lon="-108.09673327004035"><ele>1909.0</ele><time>2026-04-15T00:26:33Z</time></trkpt><trkpt lat="36.86846347291527" lon="-108.09662236780527"><ele>1907.0</ele><time>2026-04-15T00:26:34Z</time></trkpt><trkpt lat="36.86835903177913" lon="-108.09648977993066"><ele>1905.0</ele><time>2026-04-15T00:26:35Z</time></trkpt><trkpt lat="36.868264485595574" lon="-108.0963905196505"><ele>1903.0</ele><time>2026-04-15T00:26:36Z</time></trkpt><trkpt lat="36.86816462875888" lon="-108.09632058854082"><ele>1901.0</ele><time>2026-04-15T00:26:37Z</time></trkpt><trkpt lat="36.86805499595262" lon="-108.09621106375539"><ele>1901.0</ele><time>2026-04-15T00:26:38Z</time></trkpt><trkpt lat="36.86796571692555" lon="-108.0961055794835"><ele>1901.0</ele><time>2026-04-15T00:26:39Z</time></trkpt><trkpt lat="36.86788954228649" lon="-108.09599144478452"><ele>1901.0</ele><time>2026-04-15T00:26:40Z</time></trkpt><trkpt lat="36.867826386130474" lon="-108.09586258604814"><ele>1901.0</ele><time>2026-04-15T00:26:41Z</time></trkpt><trkpt lat="36.867748528590205" lon="-108.09575178191007"><ele>1900.25</ele><time>2026-04-15T00:26:42Z</time></trkpt><trkpt lat="36.86766197668416" lon="-108.09564688834979"><ele>1899.5</ele><time>2026-04-15T00:26:43Z</time></trkpt><trkpt lat="36.86760546423104" lon="-108.0955603268872"><ele>1898.75</ele><time>2026-04-15T00:26:44Z</time></trkpt><trkpt lat="36.8675150073778" lon="-108.09545852734192"><ele>1898.0</ele><time>2026-04-15T00:26:45Z</time></trkpt><trkpt lat="36.86742406449709" lon="-108.09533218259091"><ele>1897.2</ele><time>2026-04-15T00:26:46Z</time></trkpt><trkpt lat="36.867345106611744" lon="-108.09524962903012"><ele>1896.4</ele><time>2026-04-15T00:26:47Z</time></trkpt><trkpt lat="36.86725434285092" lon="-108.09520717846448"><ele>1895.6000000000001</ele><time>2026-04-15T00:26:48Z</time></trkpt><trkpt lat="36.86713353668311" lon="-108.09520261943052"><ele>1894.8000000000002</ele><time>2026-04-15T00:26:49Z</time></trkpt><trkpt lat="36.86701640488755" lon="-108.09519766617663"><ele>1894.0</ele><time>2026-04-15T00:26:50Z</time></trkpt><trkpt lat="36.86692573291544" lon="-108.09516247144198"><ele>1894.0</ele><time>2026-04-15T00:26:51Z</time></trkpt><trkpt lat="36.866864532832615" lon="-108.09507047393657"><ele>1894.0</ele><time>2026-04-15T00:26:52Z</time></trkpt><trkpt lat="36.86682719793031" lon="-108.09492664040748"><ele>1894.0</ele><time>2026-04-15T00:26:53Z</time></trkpt><trkpt lat="36.866781133087" lon="-108.09477216725084"><ele>1894.0</ele><time>2026-04-15T00:26:54Z</time></trkpt><trkpt lat="36.8667372951816" lon="-108.09464796537156"><ele>1893.0</ele><time>2026-04-15T00:26:55Z</time></trkpt><trkpt lat="36.86671150626687" lon="-108.09456429617036"><ele>1892.0</ele><time>2026-04-15T00:26:56Z</time></trkpt><trkpt lat="36.866586762560985" lon="-108.09454885904263"><ele>1891.0</ele><time>2026-04-15T00:26:58Z</time></trkpt><trkpt lat="36.866471440465816" lon="-108.09460857056679"><ele>1890.0</ele><time>2026-04-15T00:26:59Z</time></trkpt><trkpt lat="36.86636262813058" lon="-108.09459271230428"><ele>1889.0</ele><time>2026-04-15T00:27:00Z</time></trkpt><trkpt lat="36.86627114475555" lon="-108.09458316245507"><ele>1889.0</ele><time>2026-04-15T00:27:01Z</time></trkpt><trkpt lat="36.8661905878503" lon="-108.09459686824104"><ele>1889.0</ele><time>2026-04-15T00:27:02Z</time></trkpt><trkpt lat="36.86609462699886" lon="-108.09453694619927"><ele>1889.0</ele><time>2026-04-15T00:27:03Z</time></trkpt><trkpt lat="36.86599156670702" lon="-108.09446434054513"><ele>1889.0</ele><time>2026-04-15T00:27:04Z</time></trkpt><trkpt lat="36.865896982550595" lon="-108.09444799999436"><ele>1889.0</ele><time>2026-04-15T00:27:05Z</time></trkpt><trkpt lat="36.86579969741303" lon="-108.09447228159151"><ele>1888.2</ele><time>2026-04-15T00:27:06Z</time></trkpt><trkpt lat="36.86569995035177" lon="-108.09450234969458"><ele>1887.4</ele><time>2026-04-15T00:27:07Z</time></trkpt><trkpt lat="36.86556976959272" lon="-108.0945191495096"><ele>1886.6</ele><time>2026-04-15T00:27:08Z</time></trkpt><trkpt lat="36.86545928905887" lon="-108.09452441926543"><ele>1885.8</ele><time>2026-04-15T00:27:09Z</time></trkpt><trkpt lat="36.86536162965957" lon="-108.09453074741087"><ele>1885.0</ele><time>2026-04-15T00:27:10Z</time></trkpt><trkpt lat="36.86528007384272" lon="-108.09457012725997"><ele>1885.0</ele><time>2026-04-15T00:27:11Z</time></trkpt><trkpt lat="36.8652241256676" lon="-108.09461925101982"><ele>1885.0</ele><time>2026-04-15T00:27:12Z</time></trkpt><trkpt lat="36.86513109065548" lon="-108.09469199589248"><ele>1885.0</ele><time>2026-04-15T00:27:14Z</time></trkpt><trkpt lat="36.8650489585685" lon="-108.0947048420916"><ele>1885.0</ele><time>2026-04-15T00:27:15Z</time></trkpt><trkpt lat="36.864945902912716" lon="-108.0947177035218"><ele>1885.0</ele><time>2026-04-15T00:27:16Z</time></trkpt><trkpt lat="36.864849987080056" lon="-108.09474908023704"><ele>1883.8</ele><time>2026-04-15T00:27:17Z</time></trkpt><trkpt lat="36.86478869859069" lon="-108.0947693129257"><ele>1882.6</ele><time>2026-04-15T00:27:18Z</time></trkpt><trkpt lat="36.86472016678074" lon="-108.09472718692575"><ele>1881.4</ele><time>2026-04-15T00:27:19Z</time></trkpt><trkpt lat="36.86465114299825" lon="-108.09462176691429"><ele>1880.2</ele><time>2026-04-15T00:27:20Z</time></trkpt><trkpt lat="36.86458565283739" lon="-108.09450176014981"><ele>1879.0</ele><time>2026-04-15T00:27:21Z</time></trkpt><trkpt lat="36.8644919106302" lon="-108.0943930007963"><ele>1879.0</ele><time>2026-04-15T00:27:22Z</time></trkpt><trkpt lat="36.86441795412981" lon="-108.09431009908465"><ele>1879.0</ele><time>2026-04-15T00:27:23Z</time></trkpt><trkpt lat="36.864346800580556" lon="-108.09428867235371"><ele>1879.0</ele><time>2026-04-15T00:27:24Z</time></trkpt><trkpt lat="36.864238451477824" lon="-108.09430857059245"><ele>1879.0</ele><time>2026-04-15T00:27:25Z</time></trkpt><trkpt lat="36.86413411860769" lon="-108.0943386394879"><ele>1879.0</ele><time>2026-04-15T00:27:26Z</time></trkpt><trkpt lat="36.86407463267255" lon="-108.09437098040188"><ele>1878.6666666666667</ele><time>2026-04-15T00:27:27Z</time></trkpt><trkpt lat="36.86400782311569" lon="-108.09443454759287"><ele>1878.3333333333335</ele><time>2026-04-15T00:27:28Z</time></trkpt><trkpt lat="36.863952359069685" lon="-108.09452381142647"><ele>1878.0</ele><time>2026-04-15T00:27:29Z</time></trkpt><trkpt lat="36.86391369677105" lon="-108.09461311080806"><ele>1877.6666666666665</ele><time>2026-04-15T00:27:30Z</time></trkpt><trkpt lat="36.86387014693957" lon="-108.09472334309501"><ele>1877.3333333333333</ele><time>2026-04-15T00:27:31Z</time></trkpt><trkpt lat="36.86380672060291" lon="-108.0948100883217"><ele>1877.0</ele><time>2026-04-15T00:27:32Z</time></trkpt><trkpt lat="36.86373096931379" lon="-108.09480592066576"><ele>1877.0</ele><time>2026-04-15T00:27:33Z</time></trkpt><trkpt lat="36.86361938645743" lon="-108.09485654634328"><ele>1877.0</ele><time>2026-04-15T00:27:35Z</time></trkpt><trkpt lat="36.86347470246544" lon="-108.09482563200477"><ele>1877.0</ele><time>2026-04-15T00:27:37Z</time></trkpt><trkpt lat="36.86336736469134" lon="-108.09478915943167"><ele>1877.0</ele><time>2026-04-15T00:27:38Z</time></trkpt><trkpt lat="36.86327371257616" lon="-108.09474143116904"><ele>1876.8</ele><time>2026-04-15T00:27:39Z</time></trkpt><trkpt lat="36.863140705812995" lon="-108.09483595934644"><ele>1876.6</ele><time>2026-04-15T00:27:41Z</time></trkpt><trkpt lat="36.863047455472945" lon="-108.0948688137423"><ele>1876.3999999999999</ele><time>2026-04-15T00:27:42Z</time></trkpt><trkpt lat="36.86297855342982" lon="-108.09486565824994"><ele>1876.1999999999998</ele><time>2026-04-15T00:27:43Z</time></trkpt><trkpt lat="36.8629110814309" lon="-108.09485108240047"><ele>1876.0</ele><time>2026-04-15T00:27:44Z</time></trkpt><trkpt lat="36.86279280194501" lon="-108.09488257410526"><ele>1876.3333333333335</ele><time>2026-04-15T00:27:46Z</time></trkpt><trkpt lat="36.86273118582372" lon="-108.09496333033958"><ele>1876.6666666666667</ele><time>2026-04-15T00:27:47Z</time></trkpt><trkpt lat="36.86269591632539" lon="-108.09506137047723"><ele>1877.0</ele><time>2026-04-15T00:27:48Z</time></trkpt><trkpt lat="36.86263738412413" lon="-108.09512874423619"><ele>1877.3333333333335</ele><time>2026-04-15T00:27:49Z</time></trkpt><trkpt lat="36.86255974015489" lon="-108.0951719226437"><ele>1877.6666666666667</ele><time>2026-04-15T00:27:50Z</time></trkpt><trkpt lat="36.86251931590672" lon="-108.09523839808455"><ele>1878.0</ele><time>2026-04-15T00:27:51Z</time></trkpt><trkpt lat="36.862460864534405" lon="-108.09532336888718"><ele>1878.0</ele><time>2026-04-15T00:27:52Z</time></trkpt><trkpt lat="36.86237280218443" lon="-108.09537039964243"><ele>1878.0000000000002</ele><time>2026-04-15T00:27:53Z</time></trkpt><trkpt lat="36.86226585306701" lon="-108.09539802145585"><ele>1878.0000000000002</ele><time>2026-04-15T00:27:54Z</time></trkpt><trkpt lat="36.86216217150715" lon="-108.09539910213611"><ele>1878.0</ele><time>2026-04-15T00:27:55Z</time></trkpt><trkpt lat="36.862074021704096" lon="-108.09538501849622"><ele>1878.0</ele><time>2026-04-15T00:27:56Z</time></trkpt><trkpt lat="36.861978145317835" lon="-108.09532320293005"><ele>1878.0</ele><time>2026-04-15T00:27:57Z</time></trkpt><trkpt lat="36.86189005711772" lon="-108.09526248804757"><ele>1878.0</ele><time>2026-04-15T00:27:58Z</time></trkpt><trkpt lat="36.86180726017638" lon="-108.09523917298375"><ele>1878.0</ele><time>2026-04-15T00:27:59Z</time></trkpt><trkpt lat="36.861766963058926" lon="-108.09517468465422"><ele>1878.0</ele><time>2026-04-15T00:28:00Z</time></trkpt><trkpt lat="36.861692386176536" lon="-108.09517775348735"><ele>1878.0</ele><time>2026-04-15T00:28:01Z</time></trkpt><trkpt lat="36.861582450357155" lon="-108.09514599213425"><ele>1878.0</ele><time>2026-04-15T00:28:02Z</time></trkpt><trkpt lat="36.861512257158424" lon="-108.09512795785838"><ele>1878.0</ele><time>2026-04-15T00:28:03Z</time></trkpt><trkpt lat="36.86141982002384" lon="-108.09506576559187"><ele>1878.0000000000002</ele><time>2026-04-15T00:28:04Z</time></trkpt><trkpt lat="36.8613458373331" lon="-108.09503154516341"><ele>1878.0000000000002</ele><time>2026-04-15T00:28:05Z</time></trkpt><trkpt lat="36.86125460734353" lon="-108.09506851196986"><ele>1878.0</ele><time>2026-04-15T00:28:06Z</time></trkpt><trkpt lat="36.86115543914084" lon="-108.09502655873867"><ele>1878.0</ele><time>2026-04-15T00:28:07Z</time></trkpt><trkpt lat="36.86107336684653" lon="-108.09501303525823"><ele>1878.0</ele><time>2026-04-15T00:28:08Z</time></trkpt><trkpt lat="36.8609684225698" lon="-108.09503087977086"><ele>1878.0000000000002</ele><time>2026-04-15T00:28:09Z</time></trkpt><trkpt lat="36.86085965573421" lon="-108.0950064539209"><ele>1878.0000000000002</ele><time>2026-04-15T00:28:10Z</time></trkpt><trkpt lat="36.8607641115188" lon="-108.09494628718743"><ele>1878.0</ele><time>2026-04-15T00:28:11Z</time></trkpt><trkpt lat="36.860673113279624" lon="-108.09491043060329"><ele>1878.0</ele><time>2026-04-15T00:28:12Z</time></trkpt><trkpt lat="36.86059443290569" lon="-108.09484571919906"><ele>1876.6666666666667</ele><time>2026-04-15T00:28:13Z</time></trkpt><trkpt lat="36.86050351871927" lon="-108.09484194370405"><ele>1875.3333333333335</ele><time>2026-04-15T00:28:14Z</time></trkpt><trkpt lat="36.860422233328265" lon="-108.09480558366809"><ele>1874.0</ele><time>2026-04-15T00:28:15Z</time></trkpt><trkpt lat="36.860392126498134" lon="-108.09472443866501"><ele>1872.6666666666667</ele><time>2026-04-15T00:28:16Z</time></trkpt><trkpt lat="36.86035890063941" lon="-108.09464088561401"><ele>1871.3333333333335</ele><time>2026-04-15T00:28:17Z</time></trkpt><trkpt lat="36.86025012256641" lon="-108.09464893564511"><ele>1870.0</ele><time>2026-04-15T00:28:19Z</time></trkpt><trkpt lat="36.86018618383809" lon="-108.09467892179778"><ele>1869.1666666666667</ele><time>2026-04-15T00:28:19.999Z</time></trkpt><trkpt lat="36.860112883586346" lon="-108.09468125459323"><ele>1868.3333333333335</ele><time>2026-04-15T00:28:20.999Z</time></trkpt><trkpt lat="36.860011420162714" lon="-108.09467895821435"><ele>1867.5</ele><time>2026-04-15T00:28:21.999Z</time></trkpt><trkpt lat="36.859915690892926" lon="-108.09468972200548"><ele>1866.6666666666665</ele><time>2026-04-15T00:28:22.999Z</time></trkpt><trkpt lat="36.8598404641908" lon="-108.09473677199286"><ele>1865.8333333333333</ele><time>2026-04-15T00:28:23.999Z</time></trkpt><trkpt lat="36.859774441927776" lon="-108.09480196736143"><ele>1865.0</ele><time>2026-04-15T00:28:24.999Z</time></trkpt><trkpt lat="36.859695936055665" lon="-108.09481477191503"><ele>1864.9999999999998</ele><time>2026-04-15T00:28:26.999Z</time></trkpt><trkpt lat="36.85957718779712" lon="-108.09481684777303"><ele>1865.0</ele><time>2026-04-15T00:28:29.999Z</time></trkpt><trkpt lat="36.8595054205714" lon="-108.09483810384603"><ele>1865.0</ele><time>2026-04-15T00:28:30.999Z</time></trkpt><trkpt lat="36.85941955336725" lon="-108.09485959687616"><ele>1865.0</ele><time>2026-04-15T00:28:31.999Z</time></trkpt><trkpt lat="36.85933629900154" lon="-108.0948695077324"><ele>1864.9999999999998</ele><time>2026-04-15T00:28:32.999Z</time></trkpt><trkpt lat="36.859260923093984" lon="-108.09488831695593"><ele>1865.0</ele><time>2026-04-15T00:28:33.999Z</time></trkpt><trkpt lat="36.85919311291914" lon="-108.0948990193957"><ele>1866.2</ele><time>2026-04-15T00:28:34.999Z</time></trkpt><trkpt lat="36.85912053589848" lon="-108.09494178623436"><ele>1867.4</ele><time>2026-04-15T00:28:35.999Z</time></trkpt><trkpt lat="36.85902186515282" lon="-108.09497958185864"><ele>1868.6</ele><time>2026-04-15T00:28:36.999Z</time></trkpt><trkpt lat="36.858934160473744" lon="-108.0950267146306"><ele>1869.8</ele><time>2026-04-15T00:28:37.999Z</time></trkpt><trkpt lat="36.85885972593702" lon="-108.09509197785042"><ele>1871.0</ele><time>2026-04-15T00:28:38.999Z</time></trkpt><trkpt lat="36.85879239287754" lon="-108.09516893975785"><ele>1870.9999999999998</ele><time>2026-04-15T00:28:39.999Z</time></trkpt><trkpt lat="36.85872038596981" lon="-108.09523006980635"><ele>1871.0</ele><time>2026-04-15T00:28:40.999Z</time></trkpt><trkpt lat="36.85865106804122" lon="-108.09526931982575"><ele>1871.0</ele><time>2026-04-15T00:28:41.999Z</time></trkpt><trkpt lat="36.85858538584426" lon="-108.0953097906783"><ele>1871.0</ele><time>2026-04-15T00:28:42.999Z</time></trkpt><trkpt lat="36.85850652082533" lon="-108.09537239590294"><ele>1870.9999999999998</ele><time>2026-04-15T00:28:43.999Z</time></trkpt><trkpt lat="36.85842743657466" lon="-108.09544230060636"><ele>1871.0</ele><time>2026-04-15T00:28:44.999Z</time></trkpt><trkpt lat="36.858381026741625" lon="-108.09550718620143"><ele>1871.4</ele><time>2026-04-15T00:28:45.999Z</time></trkpt><trkpt lat="36.85831496253123" lon="-108.09556734447051"><ele>1871.8</ele><time>2026-04-15T00:28:46.999Z</time></trkpt><trkpt lat="36.85825894114795" lon="-108.09564146024664"><ele>1872.2000000000003</ele><time>2026-04-15T00:28:47.999Z</time></trkpt><trkpt lat="36.85815798942763" lon="-108.09568387193173"><ele>1872.6000000000001</ele><time>2026-04-15T00:28:49.999Z</time></trkpt><trkpt lat="36.85805600054282" lon="-108.09572938741958"><ele>1873.0</ele><time>2026-04-15T00:28:50.999Z</time></trkpt><trkpt lat="36.857948228117685" lon="-108.09577353784476"><ele>1874.0000000000002</ele><time>2026-04-15T00:28:51.999Z</time></trkpt><trkpt lat="36.85786011424763" lon="-108.09580671431691"><ele>1875.0</ele><time>2026-04-15T00:28:52.999Z</time></trkpt><trkpt lat="36.85777910033028" lon="-108.09585075978153"><ele>1876.0</ele><time>2026-04-15T00:28:53.999Z</time></trkpt><trkpt lat="36.85771089467284" lon="-108.09591156709946"><ele>1877.0</ele><time>2026-04-15T00:28:54.999Z</time></trkpt><trkpt lat="36.857635519120024" lon="-108.09596361154993"><ele>1878.0000000000002</ele><time>2026-04-15T00:28:55.999Z</time></trkpt><trkpt lat="36.85756706493288" lon="-108.0960123510801"><ele>1879.0</ele><time>2026-04-15T00:28:56.999Z</time></trkpt><trkpt lat="36.85747100879809" lon="-108.09602681293312"><ele>1879.2</ele><time>2026-04-15T00:28:57.999Z</time></trkpt><trkpt lat="36.857384898392766" lon="-108.09602480564061"><ele>1879.4</ele><time>2026-04-15T00:28:58.999Z</time></trkpt><trkpt lat="36.85731278383636" lon="-108.0959927670595"><ele>1879.6</ele><time>2026-04-15T00:28:59.999Z</time></trkpt><trkpt lat="36.8571816615144" lon="-108.0960029755842"><ele>1879.8</ele><time>2026-04-15T00:29:01.999Z</time></trkpt><trkpt lat="36.857098851211525" lon="-108.09601796353208"><ele>1880.0</ele><time>2026-04-15T00:29:02.999Z</time></trkpt><trkpt lat="36.857018784425016" lon="-108.09603635650372"><ele>1879.9999999999998</ele><time>2026-04-15T00:29:03.999Z</time></trkpt><trkpt lat="36.85694037318874" lon="-108.09606735588083"><ele>1880.0</ele><time>2026-04-15T00:29:04.999Z</time></trkpt><trkpt lat="36.85684878810168" lon="-108.09606541000913"><ele>1880.0</ele><time>2026-04-15T00:29:05.999Z</time></trkpt><trkpt lat="36.85675793841352" lon="-108.09607151829951"><ele>1880.0</ele><time>2026-04-15T00:29:06.999Z</time></trkpt><trkpt lat="36.85667381351808" lon="-108.09608782117228"><ele>1879.9999999999998</ele><time>2026-04-15T00:29:07.999Z</time></trkpt><trkpt lat="36.85659142841295" lon="-108.09610939788854"><ele>1880.0</ele><time>2026-04-15T00:29:08.999Z</time></trkpt><trkpt lat="36.85651050880641" lon="-108.09614081137944"><ele>1879.2</ele><time>2026-04-15T00:29:09.999Z</time></trkpt><trkpt lat="36.85642471925417" lon="-108.0961647629887"><ele>1878.4</ele><time>2026-04-15T00:29:10.999Z</time></trkpt><trkpt lat="36.856305357650534" lon="-108.09617867192826"><ele>1877.6</ele><time>2026-04-15T00:29:11.999Z</time></trkpt><trkpt lat="36.856218655727766" lon="-108.09618512160591"><ele>1876.8</ele><time>2026-04-15T00:29:12.999Z</time></trkpt><trkpt lat="36.85615464010139" lon="-108.09605535156452"><ele>1876.0</ele><time>2026-04-15T00:29:15Z</time></trkpt><trkpt lat="36.85616556392915" lon="-108.09595464639159"><ele>1876.0</ele><time>2026-04-15T00:29:16Z</time></trkpt><trkpt lat="36.85615517889928" lon="-108.09584372038267"><ele>1876.0</ele><time>2026-04-15T00:29:17Z</time></trkpt><trkpt lat="36.85613106906428" lon="-108.09572858231994"><ele>1876.0</ele><time>2026-04-15T00:29:18Z</time></trkpt><trkpt lat="36.85609199907711" lon="-108.09563088893636"><ele>1876.0</ele><time>2026-04-15T00:29:19Z</time></trkpt><trkpt lat="36.85604426620775" lon="-108.09556649140927"><ele>1876.0</ele><time>2026-04-15T00:29:20Z</time></trkpt><trkpt lat="36.8559529168502" lon="-108.09549167435026"><ele>1874.5000000000002</ele><time>2026-04-15T00:29:21Z</time></trkpt><trkpt lat="36.855866806425894" lon="-108.09541024428673"><ele>1873.0</ele><time>2026-04-15T00:29:22Z</time></trkpt><trkpt lat="36.85580620353415" lon="-108.09531029743496"><ele>1871.5</ele><time>2026-04-15T00:29:23Z</time></trkpt><trkpt lat="36.85575256253295" lon="-108.09525058344724"><ele>1870.0</ele><time>2026-04-15T00:29:24Z</time></trkpt><trkpt lat="36.855689882130406" lon="-108.09519351570103"><ele>1868.5000000000002</ele><time>2026-04-15T00:29:25Z</time></trkpt><trkpt lat="36.85561290902969" lon="-108.09513247674693"><ele>1867.0</ele><time>2026-04-15T00:29:26Z</time></trkpt><trkpt lat="36.85551627498459" lon="-108.09508328395084"><ele>1867.0000000000002</ele><time>2026-04-15T00:29:27Z</time></trkpt><trkpt lat="36.85543165575881" lon="-108.09503051300554"><ele>1867.0</ele><time>2026-04-15T00:29:28Z</time></trkpt><trkpt lat="36.85536414949271" lon="-108.09500288925248"><ele>1867.0</ele><time>2026-04-15T00:29:29Z</time></trkpt><trkpt lat="36.85530373636493" lon="-108.09497311977971"><ele>1867.0</ele><time>2026-04-15T00:29:30Z</time></trkpt><trkpt lat="36.85525508064754" lon="-108.09489590262386"><ele>1867.0000000000002</ele><time>2026-04-15T00:29:31Z</time></trkpt><trkpt lat="36.855205474283586" lon="-108.0948289347295"><ele>1867.0</ele><time>2026-04-15T00:29:32Z</time></trkpt><trkpt lat="36.85506306072298" lon="-108.09488226240045"><ele>1865.5000000000002</ele><time>2026-04-15T00:29:34Z</time></trkpt><trkpt lat="36.85498067799753" lon="-108.09493858623284"><ele>1864.0</ele><time>2026-04-15T00:29:35Z</time></trkpt><trkpt lat="36.854922222209666" lon="-108.09497633479066"><ele>1862.5</ele><time>2026-04-15T00:29:36Z</time></trkpt><trkpt lat="36.854853718217285" lon="-108.09497088017484"><ele>1861.0</ele><time>2026-04-15T00:29:37Z</time></trkpt><trkpt lat="36.85476865816445" lon="-108.09494770081358"><ele>1859.5000000000002</ele><time>2026-04-15T00:29:38Z</time></trkpt><trkpt lat="36.85468899219742" lon="-108.09496256387823"><ele>1858.0</ele><time>2026-04-15T00:29:39Z</time></trkpt><trkpt lat="36.85460021429526" lon="-108.09497697048906"><ele>1858.0000000000002</ele><time>2026-04-15T00:29:40Z</time></trkpt><trkpt lat="36.854512012889664" lon="-108.09493183016355"><ele>1858.0</ele><time>2026-04-15T00:29:42Z</time></trkpt><trkpt lat="36.85444101380779" lon="-108.09488219302311"><ele>1858.0</ele><time>2026-04-15T00:29:43Z</time></trkpt><trkpt lat="36.854380996818264" lon="-108.09481213511644"><ele>1858.0</ele><time>2026-04-15T00:29:44Z</time></trkpt><trkpt lat="36.854288490921675" lon="-108.09480431245572"><ele>1858.0000000000002</ele><time>2026-04-15T00:29:45Z</time></trkpt><trkpt lat="36.854205056210176" lon="-108.09483971479133"><ele>1858.0</ele><time>2026-04-15T00:29:46Z</time></trkpt><trkpt lat="36.85411595398067" lon="-108.0948647780285"><ele>1857.4</ele><time>2026-04-15T00:29:46.999Z</time></trkpt><trkpt lat="36.85403662608358" lon="-108.09490154904753"><ele>1856.8000000000002</ele><time>2026-04-15T00:29:47.999Z</time></trkpt><trkpt lat="36.85395246755442" lon="-108.09497945721239"><ele>1856.2</ele><time>2026-04-15T00:29:48.999Z</time></trkpt><trkpt lat="36.853850128465936" lon="-108.09502446902975"><ele>1855.6</ele><time>2026-04-15T00:29:49.999Z</time></trkpt><trkpt lat="36.85376231413281" lon="-108.09504332225214"><ele>1855.0</ele><time>2026-04-15T00:29:50.999Z</time></trkpt><trkpt lat="36.853675640823305" lon="-108.09506483087955"><ele>1854.6666666666667</ele><time>2026-04-15T00:29:51.999Z</time></trkpt><trkpt lat="36.853596770883485" lon="-108.0951250887381"><ele>1854.3333333333335</ele><time>2026-04-15T00:29:52.999Z</time></trkpt><trkpt lat="36.85351890511758" lon="-108.09522702596196"><ele>1854.0</ele><time>2026-04-15T00:29:53.999Z</time></trkpt><trkpt lat="36.85344970206832" lon="-108.0952888628709"><ele>1853.6666666666665</ele><time>2026-04-15T00:29:54.999Z</time></trkpt><trkpt lat="36.8534017252208" lon="-108.09535472325035"><ele>1853.3333333333333</ele><time>2026-04-15T00:29:55.999Z</time></trkpt><trkpt lat="36.8533356510197" lon="-108.09539668322297"><ele>1853.0</ele><time>2026-04-15T00:29:56.999Z</time></trkpt><trkpt lat="36.85325125269338" lon="-108.0954074486547"><ele>1851.8333333333333</ele><time>2026-04-15T00:29:57.999Z</time></trkpt><trkpt lat="36.85317948534244" lon="-108.09545242449218"><ele>1850.6666666666665</ele><time>2026-04-15T00:29:58.999Z</time></trkpt><trkpt lat="36.853120588027934" lon="-108.09555580337594"><ele>1849.5</ele><time>2026-04-15T00:29:59.999Z</time></trkpt><trkpt lat="36.853057046098925" lon="-108.09560997960463"><ele>1848.3333333333335</ele><time>2026-04-15T00:30:00.999Z</time></trkpt><trkpt lat="36.852981072614696" lon="-108.09562665857796"><ele>1847.1666666666667</ele><time>2026-04-15T00:30:01.999Z</time></trkpt><trkpt lat="36.85291033629332" lon="-108.0955616583933"><ele>1846.0</ele><time>2026-04-15T00:30:02.999Z</time></trkpt><trkpt lat="36.85287580685132" lon="-108.09545999025019"><ele>1846.0</ele><time>2026-04-15T00:30:03.999Z</time></trkpt><trkpt lat="36.852862282436256" lon="-108.09532524763364"><ele>1846.0</ele><time>2026-04-15T00:30:04.999Z</time></trkpt><trkpt lat="36.85281482857072" lon="-108.09525330959573"><ele>1846.0</ele><time>2026-04-15T00:30:05.999Z</time></trkpt><trkpt lat="36.852750229710324" lon="-108.09521036568297"><ele>1846.0</ele><time>2026-04-15T00:30:06.999Z</time></trkpt><trkpt lat="36.85265669343384" lon="-108.0951947490412"><ele>1846.0</ele><time>2026-04-15T00:30:07.999Z</time></trkpt><trkpt lat="36.85256184928931" lon="-108.09513086388526"><ele>1844.8</ele><time>2026-04-15T00:30:08.999Z</time></trkpt><trkpt lat="36.85248555389235" lon="-108.09503579977252"><ele>1843.6</ele><time>2026-04-15T00:30:09.999Z</time></trkpt><trkpt lat="36.852428109541236" lon="-108.09494665407638"><ele>1842.4</ele><time>2026-04-15T00:30:10.999Z</time></trkpt><trkpt lat="36.852351503673276" lon="-108.09487283236838"><ele>1841.2</ele><time>2026-04-15T00:30:11.999Z</time></trkpt><trkpt lat="36.852274515314896" lon="-108.09483495795872"><ele>1840.0</ele><time>2026-04-15T00:30:12.999Z</time></trkpt><trkpt lat="36.8522147317122" lon="-108.0947045747699"><ele>1840.0</ele><time>2026-04-15T00:30:14.999Z</time></trkpt><trkpt lat="36.85223294512849" lon="-108.09458201768868"><ele>1840.0</ele><time>2026-04-15T00:30:15.999Z</time></trkpt><trkpt lat="36.852225230166646" lon="-108.09444932775007"><ele>1840.0</ele><time>2026-04-15T00:30:16.999Z</time></trkpt><trkpt lat="36.85219715715088" lon="-108.09435243773083"><ele>1840.0</ele><time>2026-04-15T00:30:17.999Z</time></trkpt><trkpt lat="36.852125075439616" lon="-108.09434371872462"><ele>1840.0</ele><time>2026-04-15T00:30:18.999Z</time></trkpt><trkpt lat="36.85203347441631" lon="-108.0944308235549"><ele>1840.0</ele><time>2026-04-15T00:30:19.999Z</time></trkpt><trkpt lat="36.85190985239809" lon="-108.09450946014933"><ele>1840.0</ele><time>2026-04-15T00:30:20.999Z</time></trkpt><trkpt lat="36.85179484940445" lon="-108.09457344129468"><ele>1840.0</ele><time>2026-04-15T00:30:21.999Z</time></trkpt><trkpt lat="36.85167756235227" lon="-108.09463773437723"><ele>1840.0</ele><time>2026-04-15T00:30:22.999Z</time></trkpt><trkpt lat="36.85158611697907" lon="-108.09472866422686"><ele>1839.4</ele><time>2026-04-15T00:30:23.999Z</time></trkpt><trkpt lat="36.85150918443237" lon="-108.09477344318229"><ele>1838.8</ele><time>2026-04-15T00:30:24.999Z</time></trkpt><trkpt lat="36.85141703250559" lon="-108.09477601790098"><ele>1838.1999999999998</ele><time>2026-04-15T00:30:25.999Z</time></trkpt><trkpt lat="36.85131688306465" lon="-108.09478786512335"><ele>1837.6</ele><time>2026-04-15T00:30:26.999Z</time></trkpt><trkpt lat="36.85122363975808" lon="-108.09482239967973"><ele>1837.0</ele><time>2026-04-15T00:30:27.999Z</time></trkpt><trkpt lat="36.85110786352426" lon="-108.09484118160088"><ele>1837.0</ele><time>2026-04-15T00:30:28.999Z</time></trkpt><trkpt lat="36.851014733848956" lon="-108.09484941978825"><ele>1836.9999999999998</ele><time>2026-04-15T00:30:29.999Z</time></trkpt><trkpt lat="36.85095920718597" lon="-108.09488861070184"><ele>1836.9999999999998</ele><time>2026-04-15T00:30:30.999Z</time></trkpt><trkpt lat="36.85096599270788" lon="-108.09501364387877"><ele>1837.0</ele><time>2026-04-15T00:30:31.999Z</time></trkpt><trkpt lat="36.850941886149386" lon="-108.09516747422619"><ele>1837.0</ele><time>2026-04-15T00:30:32.999Z</time></trkpt><trkpt lat="36.850903184562995" lon="-108.09527536640246"><ele>1836.0</ele><time>2026-04-15T00:30:33.999Z</time></trkpt><trkpt lat="36.85087866271653" lon="-108.09538624580472"><ele>1834.9999999999998</ele><time>2026-04-15T00:30:34.999Z</time></trkpt><trkpt lat="36.85083221829944" lon="-108.09549773623813"><ele>1833.9999999999998</ele><time>2026-04-15T00:30:35.999Z</time></trkpt><trkpt lat="36.850795180116975" lon="-108.09560358691584"><ele>1833.0</ele><time>2026-04-15T00:30:36.999Z</time></trkpt><trkpt lat="36.85077325557192" lon="-108.0957261162273"><ele>1832.0</ele><time>2026-04-15T00:30:37.999Z</time></trkpt><trkpt lat="36.8507168053502" lon="-108.09581607875805"><ele>1830.3999999999999</ele><time>2026-04-15T00:30:38.999Z</time></trkpt><trkpt lat="36.850651652369784" lon="-108.0958663639038"><ele>1828.7999999999997</ele><time>2026-04-15T00:30:39.999Z</time></trkpt><trkpt lat="36.85056189010308" lon="-108.09590975530814"><ele>1827.2</ele><time>2026-04-15T00:30:40.999Z</time></trkpt><trkpt lat="36.85048516786821" lon="-108.09594669721494"><ele>1825.6</ele><time>2026-04-15T00:30:41.999Z</time></trkpt><trkpt lat="36.85046469023349" lon="-108.09604644690029"><ele>1824.0</ele><time>2026-04-15T00:30:42.999Z</time></trkpt><trkpt lat="36.850443193054865" lon="-108.09619695846825"><ele>1824.0</ele><time>2026-04-15T00:30:43.999Z</time></trkpt><trkpt lat="36.85039607853102" lon="-108.0962994243175"><ele>1824.0</ele><time>2026-04-15T00:30:44.999Z</time></trkpt><trkpt lat="36.850325974521084" lon="-108.09635717768855"><ele>1824.0</ele><time>2026-04-15T00:30:45.999Z</time></trkpt><trkpt lat="36.85026205623624" lon="-108.09641633713558"><ele>1824.0</ele><time>2026-04-15T00:30:46.999Z</time></trkpt><trkpt lat="36.8502160947136" lon="-108.09649747913025"><ele>1824.0</ele><time>2026-04-15T00:30:47.999Z</time></trkpt><trkpt lat="36.850196525193915" lon="-108.09661442622966"><ele>1824.0</ele><time>2026-04-15T00:30:48.999Z</time></trkpt><trkpt lat="36.850168536329804" lon="-108.09673586300632"><ele>1823.6</ele><time>2026-04-15T00:30:49.999Z</time></trkpt><trkpt lat="36.85014792797063" lon="-108.09686514293126"><ele>1823.2</ele><time>2026-04-15T00:30:50.999Z</time></trkpt><trkpt lat="36.85010046910965" lon="-108.09699578821456"><ele>1822.7999999999997</ele><time>2026-04-15T00:30:51.999Z</time></trkpt><trkpt lat="36.85005791647123" lon="-108.09712695369272"><ele>1822.3999999999999</ele><time>2026-04-15T00:30:52.999Z</time></trkpt><trkpt lat="36.85004540961118" lon="-108.09724735035233"><ele>1822.0</ele><time>2026-04-15T00:30:53.999Z</time></trkpt><trkpt lat="36.850036867498616" lon="-108.09734608720954"><ele>1821.5</ele><time>2026-04-15T00:30:54.999Z</time></trkpt><trkpt lat="36.84994666235244" lon="-108.09741061839294"><ele>1821.0</ele><time>2026-04-15T00:30:55.999Z</time></trkpt><trkpt lat="36.84981795069924" lon="-108.09745635796928"><ele>1820.5</ele><time>2026-04-15T00:30:56.999Z</time></trkpt><trkpt lat="36.84971314641422" lon="-108.09748600764702"><ele>1820.0</ele><time>2026-04-15T00:30:57.999Z</time></trkpt><trkpt lat="36.849593344309596" lon="-108.09752450521634"><ele>1818.25</ele><time>2026-04-15T00:30:58.999Z</time></trkpt><trkpt lat="36.849469308572026" lon="-108.09756788659305"><ele>1816.5</ele><time>2026-04-15T00:30:59.999Z</time></trkpt><trkpt lat="36.84935360446295" lon="-108.09761206241923"><ele>1814.75</ele><time>2026-04-15T00:31:00.999Z</time></trkpt><trkpt lat="36.84923576551832" lon="-108.09761895838578"><ele>1813.0</ele><time>2026-04-15T00:31:01.999Z</time></trkpt><trkpt lat="36.84912271062914" lon="-108.09762366852597"><ele>1813.0</ele><time>2026-04-15T00:31:02.999Z</time></trkpt><trkpt lat="36.84904228277412" lon="-108.09769509409902"><ele>1813.0000000000002</ele><time>2026-04-15T00:31:04.999Z</time></trkpt><trkpt lat="36.84904167784421" lon="-108.09783138068104"><ele>1813.0000000000002</ele><time>2026-04-15T00:31:05.999Z</time></trkpt><trkpt lat="36.84903136003993" lon="-108.0979540939768"><ele>1813.0</ele><time>2026-04-15T00:31:06.999Z</time></trkpt><trkpt lat="36.84896237751837" lon="-108.09805845592372"><ele>1813.0</ele><time>2026-04-15T00:31:08.999Z</time></trkpt><trkpt lat="36.848886586293865" lon="-108.09806210881779"><ele>1813.0</ele><time>2026-04-15T00:31:09.999Z</time></trkpt><trkpt lat="36.848799130464144" lon="-108.09806351310063"><ele>1813.0000000000002</ele><time>2026-04-15T00:31:10.999Z</time></trkpt><trkpt lat="36.8487110386511" lon="-108.09808278610397"><ele>1813.0000000000002</ele><time>2026-04-15T00:31:11.999Z</time></trkpt><trkpt lat="36.84861481351419" lon="-108.09809630247034"><ele>1813.0</ele><time>2026-04-15T00:31:12.999Z</time></trkpt><trkpt lat="36.848529616762775" lon="-108.09809964440528"><ele>1813.0</ele><time>2026-04-15T00:31:13.999Z</time></trkpt><trkpt lat="36.8484404023075" lon="-108.09813987079805"><ele>1812.4</ele><time>2026-04-15T00:31:14.999Z</time></trkpt><trkpt lat="36.8483389312192" lon="-108.09820928819366"><ele>1811.8000000000002</ele><time>2026-04-15T00:31:15.999Z</time></trkpt><trkpt lat="36.848235014727145" lon="-108.09825442431911"><ele>1811.2</ele><time>2026-04-15T00:31:16.999Z</time></trkpt><trkpt lat="36.848154712438465" lon="-108.09828912506812"><ele>1810.6</ele><time>2026-04-15T00:31:17.999Z</time></trkpt><trkpt lat="36.848074981490015" lon="-108.098358933482"><ele>1810.0</ele><time>2026-04-15T00:31:18.999Z</time></trkpt><trkpt lat="36.847966951973774" lon="-108.09844301198295"><ele>1809.25</ele><time>2026-04-15T00:31:19.999Z</time></trkpt><trkpt lat="36.84787339156728" lon="-108.09849700775486"><ele>1808.5</ele><time>2026-04-15T00:31:21Z</time></trkpt><trkpt lat="36.847797143673034" lon="-108.09860152147233"><ele>1807.75</ele><time>2026-04-15T00:31:22Z</time></trkpt><trkpt lat="36.84771512888826" lon="-108.09872889638837"><ele>1807.0</ele><time>2026-04-15T00:31:23Z</time></trkpt><trkpt lat="36.847619871644866" lon="-108.09884758986618"><ele>1806.3333333333335</ele><time>2026-04-15T00:31:24Z</time></trkpt><trkpt lat="36.847539671829516" lon="-108.09899445336364"><ele>1805.6666666666665</ele><time>2026-04-15T00:31:25Z</time></trkpt><trkpt lat="36.8474769466336" lon="-108.09917637674532"><ele>1805.0</ele><time>2026-04-15T00:31:26Z</time></trkpt><trkpt lat="36.84739891385446" lon="-108.09933619963063"><ele>1804.3333333333333</ele><time>2026-04-15T00:31:27Z</time></trkpt><trkpt lat="36.84728458755741" lon="-108.09945608949603"><ele>1803.6666666666665</ele><time>2026-04-15T00:31:28Z</time></trkpt><trkpt lat="36.8471402515233" lon="-108.0995494202799"><ele>1803.0</ele><time>2026-04-15T00:31:29Z</time></trkpt><trkpt lat="36.84700828853127" lon="-108.09968350926157"><ele>1803.0</ele><time>2026-04-15T00:31:30Z</time></trkpt><trkpt lat="36.8469095167889" lon="-108.09981018303533"><ele>1803.0</ele><time>2026-04-15T00:31:31Z</time></trkpt><trkpt lat="36.8468450374495" lon="-108.0999500760495"><ele>1803.0</ele><time>2026-04-15T00:31:32Z</time></trkpt><trkpt lat="36.8468071054693" lon="-108.10009769641815"><ele>1803.0</ele><time>2026-04-15T00:31:33Z</time></trkpt><trkpt lat="36.84674503931359" lon="-108.10020705579694"><ele>1802.75</ele><time>2026-04-15T00:31:34Z</time></trkpt><trkpt lat="36.84665094312728" lon="-108.10022859728855"><ele>1802.5</ele><time>2026-04-15T00:31:35Z</time></trkpt><trkpt lat="36.84652789224758" lon="-108.10018450098241"><ele>1802.25</ele><time>2026-04-15T00:31:36Z</time></trkpt><trkpt lat="36.8463918069782" lon="-108.10013191268104"><ele>1802.0</ele><time>2026-04-15T00:31:37Z</time></trkpt><trkpt lat="36.84625749375963" lon="-108.1000826643772"><ele>1802.0</ele><time>2026-04-15T00:31:38Z</time></trkpt><trkpt lat="36.84613770137151" lon="-108.10004914763716"><ele>1802.0</ele><time>2026-04-15T00:31:39Z</time></trkpt><trkpt lat="36.84601971674014" lon="-108.10000670849767"><ele>1802.0</ele><time>2026-04-15T00:31:40Z</time></trkpt><trkpt lat="36.84590943440727" lon="-108.0999893876591"><ele>1802.0</ele><time>2026-04-15T00:31:41Z</time></trkpt><trkpt lat="36.84581709852695" lon="-108.09992368584467"><ele>1801.75</ele><time>2026-04-15T00:31:42Z</time></trkpt><trkpt lat="36.84577124647669" lon="-108.09982181107675"><ele>1801.5</ele><time>2026-04-15T00:31:43Z</time></trkpt><trkpt lat="36.845631161748365" lon="-108.09993960955303"><ele>1801.25</ele><time>2026-04-15T00:31:45Z</time></trkpt><trkpt lat="36.84554071140418" lon="-108.10003514262517"><ele>1801.0</ele><time>2026-04-15T00:31:46Z</time></trkpt><trkpt lat="36.84544450788772" lon="-108.10012000554514"><ele>1801.0</ele><time>2026-04-15T00:31:47Z</time></trkpt><trkpt lat="36.84533107059787" lon="-108.10017585577003"><ele>1801.0</ele><time>2026-04-15T00:31:48Z</time></trkpt><trkpt lat="36.84524156349153" lon="-108.1002084773057"><ele>1801.0</ele><time>2026-04-15T00:31:49Z</time></trkpt><trkpt lat="36.84515745226796" lon="-108.10020860253175"><ele>1801.0</ele><time>2026-04-15T00:31:50Z</time></trkpt><trkpt lat="36.845073641080766" lon="-108.10019295181317"><ele>1801.0</ele><time>2026-04-15T00:31:51Z</time></trkpt><trkpt lat="36.84499555043778" lon="-108.10022851062676"><ele>1802.0</ele><time>2026-04-15T00:31:52Z</time></trkpt><trkpt lat="36.844936174769835" lon="-108.10028103199473"><ele>1803.0</ele><time>2026-04-15T00:31:53Z</time></trkpt><trkpt lat="36.84485797130771" lon="-108.10024312232478"><ele>1804.0</ele><time>2026-04-15T00:31:54Z</time></trkpt><trkpt lat="36.84478529994054" lon="-108.1001650503681"><ele>1805.0</ele><time>2026-04-15T00:31:55Z</time></trkpt><trkpt lat="36.844702486460264" lon="-108.10007137639498"><ele>1806.0</ele><time>2026-04-15T00:31:56Z</time></trkpt><trkpt lat="36.84462217454901" lon="-108.09998443564379"><ele>1806.0</ele><time>2026-04-15T00:31:57Z</time></trkpt><trkpt lat="36.84455533363087" lon="-108.09990494406102"><ele>1806.0</ele><time>2026-04-15T00:31:58Z</time></trkpt><trkpt lat="36.84450619977776" lon="-108.09985071873243"><ele>1806.0</ele><time>2026-04-15T00:31:59Z</time></trkpt><trkpt lat="36.84443120936724" lon="-108.09989829905714"><ele>1806.0</ele><time>2026-04-15T00:32:00Z</time></trkpt><trkpt lat="36.84432624557582" lon="-108.09998129167128"><ele>1806.0</ele><time>2026-04-15T00:32:01Z</time></trkpt><trkpt lat="36.84425905293452" lon="-108.10004501647421"><ele>1806.1666666666667</ele><time>2026-04-15T00:32:02Z</time></trkpt><trkpt lat="36.84418940116482" lon="-108.10011609808134"><ele>1806.3333333333335</ele><time>2026-04-15T00:32:03Z</time></trkpt><trkpt lat="36.844119492875166" lon="-108.10014472079614"><ele>1806.5</ele><time>2026-04-15T00:32:04Z</time></trkpt><trkpt lat="36.84405397076961" lon="-108.10016843366633"><ele>1806.6666666666667</ele><time>2026-04-15T00:32:05Z</time></trkpt><trkpt lat="36.843973865244315" lon="-108.10023859656602"><ele>1806.8333333333335</ele><time>2026-04-15T00:32:06Z</time></trkpt><trkpt lat="36.843927219825176" lon="-108.10033008554868"><ele>1807.0</ele><time>2026-04-15T00:32:07Z</time></trkpt><trkpt lat="36.843824278024634" lon="-108.10046172600889"><ele>1807.0</ele><time>2026-04-15T00:32:08.999Z</time></trkpt><trkpt lat="36.843716557623566" lon="-108.10052171296441"><ele>1806.9999999999998</ele><time>2026-04-15T00:32:09.999Z</time></trkpt><trkpt lat="36.84362673205879" lon="-108.10061546513478"><ele>1806.9999999999998</ele><time>2026-04-15T00:32:10.999Z</time></trkpt><trkpt lat="36.84358666525708" lon="-108.10068977852802"><ele>1807.0</ele><time>2026-04-15T00:32:11.999Z</time></trkpt><trkpt lat="36.84355911615831" lon="-108.10077392613724"><ele>1807.0</ele><time>2026-04-15T00:32:12.999Z</time></trkpt><trkpt lat="36.843587879484204" lon="-108.1008619872083"><ele>1806.1999999999998</ele><time>2026-04-15T00:32:13.999Z</time></trkpt><trkpt lat="36.84354836200676" lon="-108.10103785148475"><ele>1805.3999999999999</ele><time>2026-04-15T00:32:15.999Z</time></trkpt><trkpt lat="36.843508019994566" lon="-108.10114894042371"><ele>1804.6000000000001</ele><time>2026-04-15T00:32:16.999Z</time></trkpt><trkpt lat="36.843511649660655" lon="-108.10126445806546"><ele>1803.8000000000002</ele><time>2026-04-15T00:32:17.999Z</time></trkpt><trkpt lat="36.84353287394041" lon="-108.10138617215965"><ele>1803.0</ele><time>2026-04-15T00:32:18.999Z</time></trkpt><trkpt lat="36.843540253285134" lon="-108.10151076531308"><ele>1801.8000000000002</ele><time>2026-04-15T00:32:19.999Z</time></trkpt><trkpt lat="36.84353806431197" lon="-108.10163166699509"><ele>1800.6000000000001</ele><time>2026-04-15T00:32:20.999Z</time></trkpt><trkpt lat="36.8434994497146" lon="-108.10173268805052"><ele>1799.3999999999999</ele><time>2026-04-15T00:32:21.999Z</time></trkpt><trkpt lat="36.84347630434387" lon="-108.10182408698238"><ele>1798.1999999999998</ele><time>2026-04-15T00:32:22.999Z</time></trkpt><trkpt lat="36.843499225007456" lon="-108.10195156731407"><ele>1797.0</ele><time>2026-04-15T00:32:23.999Z</time></trkpt><trkpt lat="36.84349216873828" lon="-108.10206830291976"><ele>1796.8</ele><time>2026-04-15T00:32:24.999Z</time></trkpt><trkpt lat="36.843445948267096" lon="-108.10218908412607"><ele>1796.6</ele><time>2026-04-15T00:32:26.999Z</time></trkpt><trkpt lat="36.8434165139434" lon="-108.10231482245499"><ele>1796.3999999999999</ele><time>2026-04-15T00:32:27.999Z</time></trkpt><trkpt lat="36.84335349964286" lon="-108.10243859920311"><ele>1796.1999999999998</ele><time>2026-04-15T00:32:28.999Z</time></trkpt><trkpt lat="36.84332039237289" lon="-108.10253997628867"><ele>1796.0</ele><time>2026-04-15T00:32:29.999Z</time></trkpt><trkpt lat="36.84330720600845" lon="-108.10263087150688"><ele>1794.75</ele><time>2026-04-15T00:32:30.999Z</time></trkpt><trkpt lat="36.84326973399857" lon="-108.10276999593755"><ele>1793.5</ele><time>2026-04-15T00:32:31.999Z</time></trkpt><trkpt lat="36.84321622295494" lon="-108.10295582752771"><ele>1792.25</ele><time>2026-04-15T00:32:32.999Z</time></trkpt><trkpt lat="36.843151217258736" lon="-108.10310643656727"><ele>1791.0</ele><time>2026-04-15T00:32:33.999Z</time></trkpt><trkpt lat="36.843117478778105" lon="-108.10327929493248"><ele>1789.6666666666665</ele><time>2026-04-15T00:32:34.999Z</time></trkpt><trkpt lat="36.84304942739385" lon="-108.10349028232552"><ele>1788.3333333333333</ele><time>2026-04-15T00:32:35.999Z</time></trkpt><trkpt lat="36.84298467898979" lon="-108.10369788112433"><ele>1787.0</ele><time>2026-04-15T00:32:36.999Z</time></trkpt><trkpt lat="36.84291643432425" lon="-108.103933463707"><ele>1788.0</ele><time>2026-04-15T00:32:37.999Z</time></trkpt><trkpt lat="36.84283666404223" lon="-108.10416453789469"><ele>1789.0</ele><time>2026-04-15T00:32:38.999Z</time></trkpt><trkpt lat="36.84276855839991" lon="-108.10437683419788"><ele>1790.0</ele><time>2026-04-15T00:32:39.999Z</time></trkpt><trkpt lat="36.84273342727962" lon="-108.1045161945169"><ele>1789.9999999999998</ele><time>2026-04-15T00:32:40.999Z</time></trkpt><trkpt lat="36.84271443490157" lon="-108.10462099978507"><ele>1790.0</ele><time>2026-04-15T00:32:41.999Z</time></trkpt><trkpt lat="36.84272209513319" lon="-108.10470161810134"><ele>1790.0</ele><time>2026-04-15T00:32:42.999Z</time></trkpt><trkpt lat="36.84266678830366" lon="-108.10475946104522"><ele>1790.0</ele><time>2026-04-15T00:32:44.999Z</time></trkpt><trkpt lat="36.84259970533122" lon="-108.10477286518662"><ele>1789.9999999999998</ele><time>2026-04-15T00:32:45.999Z</time></trkpt><trkpt lat="36.84250013274752" lon="-108.10479960557872"><ele>1790.0</ele><time>2026-04-15T00:32:47.999Z</time></trkpt><trkpt lat="36.842410661560365" lon="-108.10489000583948"><ele>1789.0</ele><time>2026-04-15T00:32:49.999Z</time></trkpt><trkpt lat="36.84235480264738" lon="-108.10497062295693"><ele>1788.0</ele><time>2026-04-15T00:32:50.999Z</time></trkpt><trkpt lat="36.84224882850879" lon="-108.10498395916142"><ele>1787.0</ele><time>2026-04-15T00:32:51.999Z</time></trkpt><trkpt lat="36.84214055524288" lon="-108.10502722701972"><ele>1786.0</ele><time>2026-04-15T00:32:52.999Z</time></trkpt><trkpt lat="36.84202130833784" lon="-108.10511390707542"><ele>1785.0</ele><time>2026-04-15T00:32:53.999Z</time></trkpt><trkpt lat="36.841947529529044" lon="-108.10516876426416"><ele>1785.0</ele><time>2026-04-15T00:32:54.999Z</time></trkpt><trkpt lat="36.84193235444687" lon="-108.10529024117558"><ele>1785.0</ele><time>2026-04-15T00:32:56.999Z</time></trkpt><trkpt lat="36.841972068427864" lon="-108.10537520682203"><ele>1785.0</ele><time>2026-04-15T00:32:57.999Z</time></trkpt><trkpt lat="36.84206048052141" lon="-108.10545626320241"><ele>1785.0</ele><time>2026-04-15T00:32:58.999Z</time></trkpt><trkpt lat="36.84215045934121" lon="-108.10553243095352"><ele>1785.0</ele><time>2026-04-15T00:32:59.999Z</time></trkpt><trkpt lat="36.84224572521689" lon="-108.10564289290957"><ele>1785.2</ele><time>2026-04-15T00:33:00.999Z</time></trkpt><trkpt lat="36.842338697201996" lon="-108.10576322975243"><ele>1785.4</ele><time>2026-04-15T00:33:01.999Z</time></trkpt><trkpt lat="36.842398187986674" lon="-108.10587332315706"><ele>1785.6</ele><time>2026-04-15T00:33:02.999Z</time></trkpt><trkpt lat="36.84242947636497" lon="-108.10598709412652"><ele>1785.8</ele><time>2026-04-15T00:33:03.999Z</time></trkpt><trkpt lat="36.84242128126159" lon="-108.10610137190835"><ele>1786.0</ele><time>2026-04-15T00:33:04.999Z</time></trkpt><trkpt lat="36.84237293061332" lon="-108.10622901906144"><ele>1786.0</ele><time>2026-04-15T00:33:05.999Z</time></trkpt><trkpt lat="36.84229173873689" lon="-108.1063830550603"><ele>1786.0</ele><time>2026-04-15T00:33:06.999Z</time></trkpt><trkpt lat="36.842220792849425" lon="-108.10654312785553"><ele>1786.0</ele><time>2026-04-15T00:33:07.999Z</time></trkpt><trkpt lat="36.84211492757634" lon="-108.1066736251261"><ele>1786.0</ele><time>2026-04-15T00:33:08.999Z</time></trkpt><trkpt lat="36.84197334043342" lon="-108.1068001787413"><ele>1786.5</ele><time>2026-04-15T00:33:09.999Z</time></trkpt><trkpt lat="36.84185903335555" lon="-108.10692647950127"><ele>1787.0</ele><time>2026-04-15T00:33:10.999Z</time></trkpt><trkpt lat="36.841798937985274" lon="-108.10706480234322"><ele>1787.5</ele><time>2026-04-15T00:33:11.999Z</time></trkpt><trkpt lat="36.84174397862844" lon="-108.10720069921788"><ele>1788.0</ele><time>2026-04-15T00:33:12.999Z</time></trkpt><trkpt lat="36.84171235275922" lon="-108.10727510610408"><ele>1788.75</ele><time>2026-04-15T00:33:13.999Z</time></trkpt><trkpt lat="36.841826901682516" lon="-108.10742226631884"><ele>1789.5</ele><time>2026-04-15T00:33:15.999Z</time></trkpt><trkpt lat="36.841834303134426" lon="-108.10756595052955"><ele>1790.25</ele><time>2026-04-15T00:33:16.999Z</time></trkpt><trkpt lat="36.841861272785664" lon="-108.10770374683025"><ele>1791.0</ele><time>2026-04-15T00:33:17.999Z</time></trkpt><trkpt lat="36.8418937911722" lon="-108.10781204178518"><ele>1791.0</ele><time>2026-04-15T00:33:18.999Z</time></trkpt><trkpt lat="36.84194901663166" lon="-108.10787826582896"><ele>1791.0</ele><time>2026-04-15T00:33:19.999Z</time></trkpt><trkpt lat="36.84206893537546" lon="-108.10790932556056"><ele>1791.0</ele><time>2026-04-15T00:33:20.999Z</time></trkpt><trkpt lat="36.842200983493676" lon="-108.10795546214523"><ele>1791.0</ele><time>2026-04-15T00:33:21.999Z</time></trkpt><trkpt lat="36.842280791742304" lon="-108.10806424968794"><ele>1791.0</ele><time>2026-04-15T00:33:22.999Z</time></trkpt><trkpt lat="36.84235048338408" lon="-108.10816014175599"><ele>1791.0</ele><time>2026-04-15T00:33:23.999Z</time></trkpt><trkpt lat="36.84245754903349" lon="-108.10821750249785"><ele>1791.0</ele><time>2026-04-15T00:33:24.999Z</time></trkpt><trkpt lat="36.84254889498959" lon="-108.10828834528793"><ele>1791.0</ele><time>2026-04-15T00:33:25.999Z</time></trkpt><trkpt lat="36.842604119903164" lon="-108.10839702626483"><ele>1791.0</ele><time>2026-04-15T00:33:27Z</time></trkpt><trkpt lat="36.84258944579883" lon="-108.10850852151812"><ele>1792.3333333333333</ele><time>2026-04-15T00:33:28Z</time></trkpt><trkpt lat="36.8425493909154" lon="-108.10861415193251"><ele>1793.6666666666665</ele><time>2026-04-15T00:33:29Z</time></trkpt><trkpt lat="36.842491942709394" lon="-108.10868346832693"><ele>1795.0</ele><time>2026-04-15T00:33:31Z</time></trkpt><trkpt lat="36.842484009661284" lon="-108.108778554427"><ele>1796.3333333333333</ele><time>2026-04-15T00:33:32Z</time></trkpt><trkpt lat="36.84245325558931" lon="-108.1088725469784"><ele>1797.6666666666665</ele><time>2026-04-15T00:33:33Z</time></trkpt><trkpt lat="36.842410086174354" lon="-108.10897582480473"><ele>1799.0</ele><time>2026-04-15T00:33:34Z</time></trkpt><trkpt lat="36.84238023816091" lon="-108.10909797990645"><ele>1800.6</ele><time>2026-04-15T00:33:35Z</time></trkpt><trkpt lat="36.842360543474165" lon="-108.1092299039714"><ele>1802.2</ele><time>2026-04-15T00:33:36Z</time></trkpt><trkpt lat="36.84231754128233" lon="-108.10934717430987"><ele>1803.7999999999997</ele><time>2026-04-15T00:33:37Z</time></trkpt><trkpt lat="36.84225970051573" lon="-108.10945724846411"><ele>1805.3999999999999</ele><time>2026-04-15T00:33:38Z</time></trkpt><trkpt lat="36.842236556780975" lon="-108.10957210566903"><ele>1807.0</ele><time>2026-04-15T00:33:40Z</time></trkpt><trkpt lat="36.84227280762882" lon="-108.10963817353546"><ele>1807.0</ele><time>2026-04-15T00:33:41Z</time></trkpt><trkpt lat="36.84230732058436" lon="-108.10975689416047"><ele>1806.9999999999998</ele><time>2026-04-15T00:33:42Z</time></trkpt><trkpt lat="36.842290178190844" lon="-108.10990589371127"><ele>1806.9999999999998</ele><time>2026-04-15T00:33:43Z</time></trkpt><trkpt lat="36.842236431220805" lon="-108.1100039523298"><ele>1807.0</ele><time>2026-04-15T00:33:44Z</time></trkpt><trkpt lat="36.84216732844385" lon="-108.1101147924211"><ele>1807.0</ele><time>2026-04-15T00:33:45Z</time></trkpt><trkpt lat="36.84211723629838" lon="-108.11025272980157"><ele>1806.3999999999999</ele><time>2026-04-15T00:33:46Z</time></trkpt><trkpt lat="36.84208791083397" lon="-108.11037736118037"><ele>1805.7999999999997</ele><time>2026-04-15T00:33:47Z</time></trkpt><trkpt lat="36.84204949265572" lon="-108.11047193568817"><ele>1805.2</ele><time>2026-04-15T00:33:48Z</time></trkpt><trkpt lat="36.84200197649689" lon="-108.1105728833515"><ele>1804.6</ele><time>2026-04-15T00:33:49Z</time></trkpt><trkpt lat="36.842119527903414" lon="-108.11061041567514"><ele>1804.0</ele><time>2026-04-15T00:33:56Z</time></trkpt><trkpt lat="36.84220641432877" lon="-108.11063830821634"><ele>1804.0</ele><time>2026-04-15T00:33:59Z</time></trkpt><trkpt lat="36.842301328861964" lon="-108.11066213059198"><ele>1804.0</ele><time>2026-04-15T00:34:01Z</time></trkpt><trkpt lat="36.842294250864605" lon="-108.11074234000041"><ele>1804.0</ele><time>2026-04-15T00:34:02Z</time></trkpt><trkpt lat="36.84236611677148" lon="-108.1107803477922"><ele>1804.0</ele><time>2026-04-15T00:34:03Z</time></trkpt><trkpt lat="36.842455683375796" lon="-108.11082464682484"><ele>1804.0</ele><time>2026-04-15T00:34:04Z</time></trkpt><trkpt lat="36.842569567952516" lon="-108.11089757400049"><ele>1805.25</ele><time>2026-04-15T00:34:05Z</time></trkpt><trkpt lat="36.842676640935046" lon="-108.11097538535445"><ele>1806.5</ele><time>2026-04-15T00:34:06Z</time></trkpt><trkpt lat="36.84277632270081" lon="-108.11106036181584"><ele>1807.75</ele><time>2026-04-15T00:34:07Z</time></trkpt><trkpt lat="36.842860958506755" lon="-108.11114889276894"><ele>1809.0</ele><time>2026-04-15T00:34:08Z</time></trkpt><trkpt lat="36.84293399246486" lon="-108.11124366395107"><ele>1809.0</ele><time>2026-04-15T00:34:09Z</time></trkpt><trkpt lat="36.84299420726284" lon="-108.11134716233279"><ele>1809.0</ele><time>2026-04-15T00:34:10Z</time></trkpt><trkpt lat="36.843049672287584" lon="-108.11143370859595"><ele>1809.0</ele><time>2026-04-15T00:34:11Z</time></trkpt><trkpt lat="36.843121377484465" lon="-108.11148796320309"><ele>1809.0</ele><time>2026-04-15T00:34:12Z</time></trkpt><trkpt lat="36.84321587020329" lon="-108.11152842492432"><ele>1809.0</ele><time>2026-04-15T00:34:13Z</time></trkpt><trkpt lat="36.84329305878264" lon="-108.11156878434092"><ele>1809.0</ele><time>2026-04-15T00:34:14Z</time></trkpt><trkpt lat="36.84337539589768" lon="-108.11160069609423"><ele>1809.0</ele><time>2026-04-15T00:34:15Z</time></trkpt><trkpt lat="36.84345955998833" lon="-108.11163868477679"><ele>1809.0</ele><time>2026-04-15T00:34:16Z</time></trkpt><trkpt lat="36.84352375589824" lon="-108.11166463140522"><ele>1809.0</ele><time>2026-04-15T00:34:17Z</time></trkpt><trkpt lat="36.84358755607141" lon="-108.1116594166879"><ele>1809.0</ele><time>2026-04-15T00:34:18Z</time></trkpt><trkpt lat="36.84365959962986" lon="-108.11163759632775"><ele>1809.0</ele><time>2026-04-15T00:34:19Z</time></trkpt><trkpt lat="36.84373338232516" lon="-108.1116415769889"><ele>1810.25</ele><time>2026-04-15T00:34:20Z</time></trkpt><trkpt lat="36.84381914522281" lon="-108.11160468193094"><ele>1811.5</ele><time>2026-04-15T00:34:21Z</time></trkpt><trkpt lat="36.84395516064858" lon="-108.1114888420094"><ele>1812.75</ele><time>2026-04-15T00:34:22Z</time></trkpt><trkpt lat="36.84405477421235" lon="-108.11144423605124"><ele>1814.0</ele><time>2026-04-15T00:34:23Z</time></trkpt><trkpt lat="36.844148799075555" lon="-108.11142389602759"><ele>1814.0</ele><time>2026-04-15T00:34:24Z</time></trkpt><trkpt lat="36.84422435926713" lon="-108.11141971116471"><ele>1814.0</ele><time>2026-04-15T00:34:25Z</time></trkpt><trkpt lat="36.844276815968364" lon="-108.11146666104774"><ele>1814.0</ele><time>2026-04-15T00:34:26Z</time></trkpt><trkpt lat="36.84431893472826" lon="-108.11154981225313"><ele>1814.0</ele><time>2026-04-15T00:34:27Z</time></trkpt><trkpt lat="36.844358670802926" lon="-108.11169002462556"><ele>1814.0</ele><time>2026-04-15T00:34:28Z</time></trkpt><trkpt lat="36.84435796595532" lon="-108.11185818866822"><ele>1814.5</ele><time>2026-04-15T00:34:29Z</time></trkpt><trkpt lat="36.84435912744166" lon="-108.11203981603705"><ele>1815.0</ele><time>2026-04-15T00:34:30Z</time></trkpt><trkpt lat="36.84436924814628" lon="-108.11222942873042"><ele>1815.5</ele><time>2026-04-15T00:34:31Z</time></trkpt><trkpt lat="36.84438241552325" lon="-108.11240873858844"><ele>1816.0</ele><time>2026-04-15T00:34:32Z</time></trkpt><trkpt lat="36.8443603370845" lon="-108.11260864265796"><ele>1816.0</ele><time>2026-04-15T00:34:33Z</time></trkpt><trkpt lat="36.844378143899895" lon="-108.11274624620376"><ele>1816.0</ele><time>2026-04-15T00:34:34Z</time></trkpt><trkpt lat="36.84442323247972" lon="-108.11284763962645"><ele>1816.0</ele><time>2026-04-15T00:34:35Z</time></trkpt><trkpt lat="36.844492648998106" lon="-108.11293592558624"><ele>1816.0</ele><time>2026-04-15T00:34:36Z</time></trkpt><trkpt lat="36.844563716345895" lon="-108.11303569776804"><ele>1816.0</ele><time>2026-04-15T00:34:37Z</time></trkpt><trkpt lat="36.84462278939564" lon="-108.11313390520489"><ele>1816.0</ele><time>2026-04-15T00:34:38Z</time></trkpt><trkpt lat="36.84466987143835" lon="-108.1132561747246"><ele>1816.0</ele><time>2026-04-15T00:34:39Z</time></trkpt><trkpt lat="36.84474408612946" lon="-108.11337613350499"><ele>1816.0</ele><time>2026-04-15T00:34:40Z</time></trkpt><trkpt lat="36.84484496379301" lon="-108.11346661603912"><ele>1816.0</ele><time>2026-04-15T00:34:41Z</time></trkpt><trkpt lat="36.844930420575636" lon="-108.11354994488023"><ele>1816.0</ele><time>2026-04-15T00:34:42Z</time></trkpt><trkpt lat="36.84496247766" lon="-108.1136945689068"><ele>1816.0</ele><time>2026-04-15T00:34:44Z</time></trkpt><trkpt lat="36.84496419467608" lon="-108.1138138238325"><ele>1816.0</ele><time>2026-04-15T00:34:45Z</time></trkpt><trkpt lat="36.84494357623181" lon="-108.11394126703277"><ele>1816.0</ele><time>2026-04-15T00:34:46Z</time></trkpt><trkpt lat="36.844906937493775" lon="-108.11402645901305"><ele>1816.0</ele><time>2026-04-15T00:34:47Z</time></trkpt><trkpt lat="36.844974499338576" lon="-108.11415396394888"><ele>1815.0</ele><time>2026-04-15T00:34:49Z</time></trkpt><trkpt lat="36.84497548795658" lon="-108.11429118424292"><ele>1814.0</ele><time>2026-04-15T00:34:50Z</time></trkpt><trkpt lat="36.844954035756345" lon="-108.1144332993008"><ele>1813.0</ele><time>2026-04-15T00:34:51Z</time></trkpt><trkpt lat="36.84494519058552" lon="-108.11454804758284"><ele>1812.0</ele><time>2026-04-15T00:34:52Z</time></trkpt><trkpt lat="36.8449206707738" lon="-108.1146295708574"><ele>1811.0</ele><time>2026-04-15T00:34:53Z</time></trkpt><trkpt lat="36.844936143188356" lon="-108.11471716084833"><ele>1810.9999999999998</ele><time>2026-04-15T00:34:54Z</time></trkpt><trkpt lat="36.84497552621617" lon="-108.11482090671075"><ele>1811.0</ele><time>2026-04-15T00:34:55Z</time></trkpt><trkpt lat="36.84496494070585" lon="-108.1149041572432"><ele>1811.0</ele><time>2026-04-15T00:34:56Z</time></trkpt><trkpt lat="36.84495641666857" lon="-108.11499578994058"><ele>1811.0</ele><time>2026-04-15T00:34:57Z</time></trkpt><trkpt lat="36.84494181764985" lon="-108.11511282236758"><ele>1810.9999999999998</ele><time>2026-04-15T00:34:58Z</time></trkpt><trkpt lat="36.84490699517604" lon="-108.11524340120707"><ele>1811.0</ele><time>2026-04-15T00:34:59Z</time></trkpt><trkpt lat="36.84488484205305" lon="-108.11535519177846"><ele>1809.75</ele><time>2026-04-15T00:35:00Z</time></trkpt><trkpt lat="36.844893872532325" lon="-108.11547014424902"><ele>1808.5</ele><time>2026-04-15T00:35:01Z</time></trkpt><trkpt lat="36.844954205501004" lon="-108.1155789739695"><ele>1807.25</ele><time>2026-04-15T00:35:02Z</time></trkpt><trkpt lat="36.84505049864786" lon="-108.1157068066483"><ele>1806.0</ele><time>2026-04-15T00:35:03Z</time></trkpt><trkpt lat="36.845150088989556" lon="-108.11581470504824"><ele>1805.8</ele><time>2026-04-15T00:35:04Z</time></trkpt><trkpt lat="36.845242306929045" lon="-108.11591832219149"><ele>1805.6</ele><time>2026-04-15T00:35:05Z</time></trkpt><trkpt lat="36.84530567315081" lon="-108.11601358992075"><ele>1805.4</ele><time>2026-04-15T00:35:06Z</time></trkpt><trkpt lat="36.84529011724138" lon="-108.11612000068416"><ele>1805.2</ele><time>2026-04-15T00:35:07Z</time></trkpt><trkpt lat="36.845240086801894" lon="-108.11620637394083"><ele>1805.0</ele><time>2026-04-15T00:35:08Z</time></trkpt><trkpt lat="36.845174221508834" lon="-108.11628185721435"><ele>1804.25</ele><time>2026-04-15T00:35:09Z</time></trkpt><trkpt lat="36.84509132714" lon="-108.11639939683542"><ele>1803.5</ele><time>2026-04-15T00:35:09.999Z</time></trkpt><trkpt lat="36.84498233441126" lon="-108.11652464001592"><ele>1802.75</ele><time>2026-04-15T00:35:10.999Z</time></trkpt><trkpt lat="36.84485475307716" lon="-108.11660221514886"><ele>1802.0</ele><time>2026-04-15T00:35:11.999Z</time></trkpt><trkpt lat="36.844759974226" lon="-108.11664942918941"><ele>1800.75</ele><time>2026-04-15T00:35:12.999Z</time></trkpt><trkpt lat="36.844700433750994" lon="-108.11675103163462"><ele>1799.5</ele><time>2026-04-15T00:35:13.999Z</time></trkpt><trkpt lat="36.844640652748126" lon="-108.11689946155167"><ele>1798.25</ele><time>2026-04-15T00:35:14.999Z</time></trkpt><trkpt lat="36.84458903611357" lon="-108.11705656461359"><ele>1797.0</ele><time>2026-04-15T00:35:15.999Z</time></trkpt><trkpt lat="36.84452744049595" lon="-108.117205105226"><ele>1797.0</ele><time>2026-04-15T00:35:16.999Z</time></trkpt><trkpt lat="36.84445676919896" lon="-108.11733245622506"><ele>1796.9999999999998</ele><time>2026-04-15T00:35:17.999Z</time></trkpt><trkpt lat="36.84440508807104" lon="-108.11744199551863"><ele>1796.9999999999998</ele><time>2026-04-15T00:35:18.999Z</time></trkpt><trkpt lat="36.84431963125765" lon="-108.11747671062803"><ele>1797.0</ele><time>2026-04-15T00:35:19.999Z</time></trkpt><trkpt lat="36.84423620550903" lon="-108.11752878451425"><ele>1797.0</ele><time>2026-04-15T00:35:20.999Z</time></trkpt><trkpt lat="36.84416949574768" lon="-108.11761320590283"><ele>1798.1999999999998</ele><time>2026-04-15T00:35:21.999Z</time></trkpt><trkpt lat="36.84411409180067" lon="-108.11772215650451"><ele>1799.3999999999999</ele><time>2026-04-15T00:35:22.999Z</time></trkpt><trkpt lat="36.84404648461191" lon="-108.11782799778109"><ele>1800.6000000000001</ele><time>2026-04-15T00:35:23.999Z</time></trkpt><trkpt lat="36.84395384754818" lon="-108.11789725944583"><ele>1801.8000000000002</ele><time>2026-04-15T00:35:24.999Z</time></trkpt><trkpt lat="36.84384913203661" lon="-108.11798042412671"><ele>1803.0</ele><time>2026-04-15T00:35:25.999Z</time></trkpt><trkpt lat="36.843783943993685" lon="-108.11806241846188"><ele>1803.0</ele><time>2026-04-15T00:35:26.999Z</time></trkpt><trkpt lat="36.843739349836845" lon="-108.11816984960753"><ele>1803.0000000000002</ele><time>2026-04-15T00:35:27.999Z</time></trkpt><trkpt lat="36.84370150851868" lon="-108.118286461371"><ele>1803.0000000000002</ele><time>2026-04-15T00:35:28.999Z</time></trkpt><trkpt lat="36.843652257588204" lon="-108.11838825861112"><ele>1803.0</ele><time>2026-04-15T00:35:29.999Z</time></trkpt><trkpt lat="36.84356968401981" lon="-108.1184838878569"><ele>1803.0</ele><time>2026-04-15T00:35:30.999Z</time></trkpt><trkpt lat="36.84348440597391" lon="-108.1185382975622"><ele>1803.8000000000002</ele><time>2026-04-15T00:35:31.999Z</time></trkpt><trkpt lat="36.843362094196365" lon="-108.11854914053092"><ele>1804.6000000000001</ele><time>2026-04-15T00:35:33Z</time></trkpt><trkpt lat="36.84321820445716" lon="-108.11859743867619"><ele>1805.3999999999999</ele><time>2026-04-15T00:35:34Z</time></trkpt><trkpt lat="36.84313098934513" lon="-108.11863109916837"><ele>1806.1999999999998</ele><time>2026-04-15T00:35:35Z</time></trkpt><trkpt lat="36.843070304231766" lon="-108.11866655042132"><ele>1807.0</ele><time>2026-04-15T00:35:36Z</time></trkpt><trkpt lat="36.84304752783014" lon="-108.11879599289806"><ele>1807.0</ele><time>2026-04-15T00:35:37Z</time></trkpt><trkpt lat="36.84302036168914" lon="-108.11894897050742"><ele>1807.0</ele><time>2026-04-15T00:35:38Z</time></trkpt><trkpt lat="36.842946330641716" lon="-108.11905944997017"><ele>1807.0</ele><time>2026-04-15T00:35:39Z</time></trkpt><trkpt lat="36.8428605995876" lon="-108.11914173703732"><ele>1807.0</ele><time>2026-04-15T00:35:40Z</time></trkpt><trkpt lat="36.84278076064431" lon="-108.11925416000572"><ele>1806.8</ele><time>2026-04-15T00:35:41Z</time></trkpt><trkpt lat="36.842700037763755" lon="-108.11935812059781"><ele>1806.6</ele><time>2026-04-15T00:35:42Z</time></trkpt><trkpt lat="36.84265934256376" lon="-108.11945036996529"><ele>1806.3999999999999</ele><time>2026-04-15T00:35:43Z</time></trkpt><trkpt lat="36.84261051427422" lon="-108.11953645068179"><ele>1806.1999999999998</ele><time>2026-04-15T00:35:44Z</time></trkpt><trkpt lat="36.84253000749308" lon="-108.11959685440621"><ele>1806.0</ele><time>2026-04-15T00:35:45Z</time></trkpt><trkpt lat="36.8424570145518" lon="-108.11962305642938"><ele>1806.0</ele><time>2026-04-15T00:35:46Z</time></trkpt><trkpt lat="36.84237549347925" lon="-108.11967624928805"><ele>1806.0</ele><time>2026-04-15T00:35:47Z</time></trkpt><trkpt lat="36.84229185405616" lon="-108.11970213529544"><ele>1806.0</ele><time>2026-04-15T00:35:48Z</time></trkpt><trkpt lat="36.842184112369225" lon="-108.11968122221955"><ele>1806.0</ele><time>2026-04-15T00:35:49Z</time></trkpt><trkpt lat="36.84206285712028" lon="-108.1197121457825"><ele>1806.0</ele><time>2026-04-15T00:35:50Z</time></trkpt><trkpt lat="36.84195165005219" lon="-108.1197932478475"><ele>1806.0</ele><time>2026-04-15T00:35:51Z</time></trkpt><trkpt lat="36.84184658542618" lon="-108.11984084980124"><ele>1806.0</ele><time>2026-04-15T00:35:52Z</time></trkpt><trkpt lat="36.84172681358396" lon="-108.11982960224923"><ele>1806.0</ele><time>2026-04-15T00:35:53Z</time></trkpt><trkpt lat="36.84163396029761" lon="-108.11981929081631"><ele>1806.0</ele><time>2026-04-15T00:35:54Z</time></trkpt><trkpt lat="36.84152967052486" lon="-108.11981333132351"><ele>1806.0</ele><time>2026-04-15T00:35:55Z</time></trkpt><trkpt lat="36.8414017253747" lon="-108.11982843391002"><ele>1806.25</ele><time>2026-04-15T00:35:56Z</time></trkpt><trkpt lat="36.84126166360094" lon="-108.11984381960248"><ele>1806.5</ele><time>2026-04-15T00:35:57Z</time></trkpt><trkpt lat="36.84113481968832" lon="-108.11987100811554"><ele>1806.75</ele><time>2026-04-15T00:35:58Z</time></trkpt><trkpt lat="36.84101046736748" lon="-108.11993877865656"><ele>1807.0</ele><time>2026-04-15T00:35:59Z</time></trkpt><trkpt lat="36.84091014001053" lon="-108.12004787567436"><ele>1807.0</ele><time>2026-04-15T00:36:00Z</time></trkpt><trkpt lat="36.84083906286702" lon="-108.1201314977083"><ele>1806.9999999999998</ele><time>2026-04-15T00:36:01Z</time></trkpt><trkpt lat="36.84078394372682" lon="-108.12020001039856"><ele>1806.9999999999998</ele><time>2026-04-15T00:36:02Z</time></trkpt><trkpt lat="36.84071026802525" lon="-108.12029323241916"><ele>1807.0</ele><time>2026-04-15T00:36:03Z</time></trkpt><trkpt lat="36.8406041321601" lon="-108.12039288668805"><ele>1807.0</ele><time>2026-04-15T00:36:04Z</time></trkpt><trkpt lat="36.840543332374565" lon="-108.12050503684316"><ele>1807.0</ele><time>2026-04-15T00:36:05Z</time></trkpt><trkpt lat="36.84050504289426" lon="-108.12063944688396"><ele>1806.9999999999998</ele><time>2026-04-15T00:36:06Z</time></trkpt><trkpt lat="36.840467437177814" lon="-108.12075718317921"><ele>1806.9999999999998</ele><time>2026-04-15T00:36:07Z</time></trkpt><trkpt lat="36.84043769673962" lon="-108.12086792539348"><ele>1807.0</ele><time>2026-04-15T00:36:08Z</time></trkpt><trkpt lat="36.840392542006" lon="-108.12097971381878"><ele>1807.0</ele><time>2026-04-15T00:36:09Z</time></trkpt><trkpt lat="36.84032336942971" lon="-108.12109729951155"><ele>1808.0</ele><time>2026-04-15T00:36:10Z</time></trkpt><trkpt lat="36.84023374424554" lon="-108.12121518161416"><ele>1809.0</ele><time>2026-04-15T00:36:11Z</time></trkpt><trkpt lat="36.84014825248035" lon="-108.12127394709829"><ele>1810.0</ele><time>2026-04-15T00:36:12Z</time></trkpt><trkpt lat="36.8400451189951" lon="-108.1213017613995"><ele>1811.0</ele><time>2026-04-15T00:36:13Z</time></trkpt><trkpt lat="36.83992702730982" lon="-108.12135135739051"><ele>1812.0</ele><time>2026-04-15T00:36:14Z</time></trkpt><trkpt lat="36.83982266749685" lon="-108.12140638456438"><ele>1813.0</ele><time>2026-04-15T00:36:15Z</time></trkpt><trkpt lat="36.83972763950443" lon="-108.12144391152354"><ele>1814.0</ele><time>2026-04-15T00:36:16Z</time></trkpt><trkpt lat="36.839649763128264" lon="-108.12144203243368"><ele>1815.0</ele><time>2026-04-15T00:36:17Z</time></trkpt><trkpt lat="36.839577661367265" lon="-108.12140580273659"><ele>1816.0</ele><time>2026-04-15T00:36:18Z</time></trkpt><trkpt lat="36.839490266870655" lon="-108.12138975567917"><ele>1816.0000000000002</ele><time>2026-04-15T00:36:19Z</time></trkpt><trkpt lat="36.83943737747062" lon="-108.12143840278185"><ele>1816.0</ele><time>2026-04-15T00:36:20Z</time></trkpt><trkpt lat="36.839389665367726" lon="-108.12153158591923"><ele>1816.0</ele><time>2026-04-15T00:36:21Z</time></trkpt><trkpt lat="36.83934368099356" lon="-108.1216243204799"><ele>1816.0</ele><time>2026-04-15T00:36:22Z</time></trkpt><trkpt lat="36.839308342287744" lon="-108.12172136425997"><ele>1816.0000000000002</ele><time>2026-04-15T00:36:23Z</time></trkpt><trkpt lat="36.83925262860953" lon="-108.12182109228071"><ele>1816.0</ele><time>2026-04-15T00:36:24Z</time></trkpt><trkpt lat="36.83914877585684" lon="-108.1218841050753"><ele>1815.0</ele><time>2026-04-15T00:36:25Z</time></trkpt><trkpt lat="36.83900085649687" lon="-108.12195144207678"><ele>1814.0</ele><time>2026-04-15T00:36:26Z</time></trkpt><trkpt lat="36.83884507789826" lon="-108.12199637074278"><ele>1813.0</ele><time>2026-04-15T00:36:27Z</time></trkpt><trkpt lat="36.83872982596498" lon="-108.12204946367376"><ele>1812.0</ele><time>2026-04-15T00:36:28Z</time></trkpt><trkpt lat="36.8385992582966" lon="-108.1220976178257"><ele>1810.0</ele><time>2026-04-15T00:36:29Z</time></trkpt><trkpt lat="36.83846045441917" lon="-108.12211343691158"><ele>1808.0</ele><time>2026-04-15T00:36:30Z</time></trkpt><trkpt lat="36.83831363551797" lon="-108.12211157178868"><ele>1806.0</ele><time>2026-04-15T00:36:31Z</time></trkpt><trkpt lat="36.83817564716593" lon="-108.12213007474392"><ele>1804.0</ele><time>2026-04-15T00:36:32Z</time></trkpt><trkpt lat="36.8380601075542" lon="-108.1221683417689"><ele>1804.0</ele><time>2026-04-15T00:36:33Z</time></trkpt><trkpt lat="36.837918004550495" lon="-108.12215267779722"><ele>1804.0</ele><time>2026-04-15T00:36:34Z</time></trkpt><trkpt lat="36.837787729056735" lon="-108.12212215068782"><ele>1804.0</ele><time>2026-04-15T00:36:35Z</time></trkpt><trkpt lat="36.8376609703569" lon="-108.12210263609673"><ele>1804.0</ele><time>2026-04-15T00:36:36Z</time></trkpt><trkpt lat="36.837581045822674" lon="-108.12211240165557"><ele>1803.2</ele><time>2026-04-15T00:36:37Z</time></trkpt><trkpt lat="36.837485954032985" lon="-108.12212523683412"><ele>1802.4</ele><time>2026-04-15T00:36:38Z</time></trkpt><trkpt lat="36.83737891752003" lon="-108.12217050833883"><ele>1801.6</ele><time>2026-04-15T00:36:39Z</time></trkpt><trkpt lat="36.83726828072701" lon="-108.12220894578472"><ele>1800.8</ele><time>2026-04-15T00:36:40Z</time></trkpt><trkpt lat="36.837143805650165" lon="-108.12219711455175"><ele>1800.0</ele><time>2026-04-15T00:36:41Z</time></trkpt><trkpt lat="36.837032555880896" lon="-108.1221658379534"><ele>1800.0</ele><time>2026-04-15T00:36:42Z</time></trkpt><trkpt lat="36.83694874066441" lon="-108.12217759299617"><ele>1800.0</ele><time>2026-04-15T00:36:43Z</time></trkpt><trkpt lat="36.83686326649005" lon="-108.12217208080088"><ele>1800.0</ele><time>2026-04-15T00:36:44Z</time></trkpt><trkpt lat="36.83678646934701" lon="-108.12217500947342"><ele>1800.0</ele><time>2026-04-15T00:36:45Z</time></trkpt><trkpt lat="36.83671154151085" lon="-108.1221759586114"><ele>1800.0</ele><time>2026-04-15T00:36:46Z</time></trkpt><trkpt lat="36.836587020964245" lon="-108.12221361146972"><ele>1800.0</ele><time>2026-04-15T00:36:47Z</time></trkpt><trkpt lat="36.8364684922473" lon="-108.1222408096802"><ele>1800.0</ele><time>2026-04-15T00:36:48Z</time></trkpt><trkpt lat="36.836360190566715" lon="-108.12226232492928"><ele>1800.0</ele><time>2026-04-15T00:36:49Z</time></trkpt><trkpt lat="36.83623565383557" lon="-108.12227364429769"><ele>1800.0</ele><time>2026-04-15T00:36:50Z</time></trkpt><trkpt lat="36.83610374970415" lon="-108.12230165234162"><ele>1800.0</ele><time>2026-04-15T00:36:51Z</time></trkpt><trkpt lat="36.83602621378341" lon="-108.12233654883697"><ele>1800.0</ele><time>2026-04-15T00:36:52Z</time></trkpt><trkpt lat="36.835916539547085" lon="-108.12233369270359"><ele>1800.0</ele><time>2026-04-15T00:36:53Z</time></trkpt><trkpt lat="36.83580473113246" lon="-108.12235501434549"><ele>1800.0</ele><time>2026-04-15T00:36:54Z</time></trkpt><trkpt lat="36.835705227581705" lon="-108.1223937480768"><ele>1800.0</ele><time>2026-04-15T00:36:55Z</time></trkpt><trkpt lat="36.835576029792364" lon="-108.12244324003677"><ele>1800.3333333333335</ele><time>2026-04-15T00:36:56Z</time></trkpt><trkpt lat="36.83544122903675" lon="-108.12247623448896"><ele>1800.6666666666667</ele><time>2026-04-15T00:36:57Z</time></trkpt><trkpt lat="36.835288721011565" lon="-108.12246204360746"><ele>1801.0</ele><time>2026-04-15T00:36:58Z</time></trkpt><trkpt lat="36.83511418153375" lon="-108.12240825229559"><ele>1800.5</ele><time>2026-04-15T00:36:59Z</time></trkpt><trkpt lat="36.834974717872214" lon="-108.12238560642864"><ele>1800.0</ele><time>2026-04-15T00:37:00Z</time></trkpt><trkpt lat="36.8348824548352" lon="-108.12242196279388"><ele>1799.5</ele><time>2026-04-15T00:37:01Z</time></trkpt><trkpt lat="36.83477261807778" lon="-108.12248703515357"><ele>1799.0</ele><time>2026-04-15T00:37:02Z</time></trkpt><trkpt lat="36.834649141406246" lon="-108.12253961236594"><ele>1799.0</ele><time>2026-04-15T00:37:03Z</time></trkpt><trkpt lat="36.834518724506715" lon="-108.12256561762068"><ele>1799.0</ele><time>2026-04-15T00:37:04Z</time></trkpt><trkpt lat="36.83438409800881" lon="-108.1225964970569"><ele>1799.0</ele><time>2026-04-15T00:37:05Z</time></trkpt><trkpt lat="36.83426797303575" lon="-108.12265803591634"><ele>1799.0</ele><time>2026-04-15T00:37:06Z</time></trkpt><trkpt lat="36.834148210122756" lon="-108.12270895381707"><ele>1798.2</ele><time>2026-04-15T00:37:07Z</time></trkpt><trkpt lat="36.83406554642999" lon="-108.12272553243056"><ele>1797.4</ele><time>2026-04-15T00:37:08Z</time></trkpt><trkpt lat="36.83396876211011" lon="-108.1226932493807"><ele>1796.6</ele><time>2026-04-15T00:37:10Z</time></trkpt><trkpt lat="36.83391719876915" lon="-108.122555293815"><ele>1795.8</ele><time>2026-04-15T00:37:11Z</time></trkpt><trkpt lat="36.83384382162153" lon="-108.12240177748588"><ele>1795.0</ele><time>2026-04-15T00:37:12Z</time></trkpt><trkpt lat="36.83377753997393" lon="-108.12230331423238"><ele>1795.0</ele><time>2026-04-15T00:37:13Z</time></trkpt><trkpt lat="36.83371833013473" lon="-108.12224148093895"><ele>1795.0</ele><time>2026-04-15T00:37:14Z</time></trkpt><trkpt lat="36.83365134854358" lon="-108.12222327910675"><ele>1795.0</ele><time>2026-04-15T00:37:15Z</time></trkpt><trkpt lat="36.833547991920696" lon="-108.12221125616374"><ele>1795.0</ele><time>2026-04-15T00:37:16Z</time></trkpt><trkpt lat="36.833426291652806" lon="-108.12217246599164"><ele>1795.0</ele><time>2026-04-15T00:37:17Z</time></trkpt><trkpt lat="36.833316428576644" lon="-108.12210753544655"><ele>1793.4</ele><time>2026-04-15T00:37:18Z</time></trkpt><trkpt lat="36.83322111641161" lon="-108.12208286093869"><ele>1791.8</ele><time>2026-04-15T00:37:18.999Z</time></trkpt><trkpt lat="36.83314715424608" lon="-108.12208069914438"><ele>1790.1999999999998</ele><time>2026-04-15T00:37:19.999Z</time></trkpt><trkpt lat="36.83304216560142" lon="-108.1220703856651"><ele>1788.6</ele><time>2026-04-15T00:37:20.999Z</time></trkpt><trkpt lat="36.83294565930844" lon="-108.12201341264829"><ele>1787.0</ele><time>2026-04-15T00:37:21.999Z</time></trkpt><trkpt lat="36.83282904153344" lon="-108.12190323479179"><ele>1787.0</ele><time>2026-04-15T00:37:22.999Z</time></trkpt><trkpt lat="36.832700358739004" lon="-108.121834583125"><ele>1787.0</ele><time>2026-04-15T00:37:23.999Z</time></trkpt><trkpt lat="36.832554681082854" lon="-108.12173762376558"><ele>1787.0</ele><time>2026-04-15T00:37:24.999Z</time></trkpt><trkpt lat="36.832390201648444" lon="-108.12160289505678"><ele>1786.6666666666665</ele><time>2026-04-15T00:37:25.999Z</time></trkpt><trkpt lat="36.83220376842631" lon="-108.12151687738968"><ele>1786.3333333333335</ele><time>2026-04-15T00:37:26.999Z</time></trkpt><trkpt lat="36.83202200231543" lon="-108.12147373092928"><ele>1786.0</ele><time>2026-04-15T00:37:27.999Z</time></trkpt><trkpt lat="36.83187002835391" lon="-108.12143765946789"><ele>1785.5</ele><time>2026-04-15T00:37:28.999Z</time></trkpt><trkpt lat="36.83173517500924" lon="-108.12139865362174"><ele>1785.0</ele><time>2026-04-15T00:37:29.999Z</time></trkpt><trkpt lat="36.831603611021315" lon="-108.12137268329177"><ele>1784.5</ele><time>2026-04-15T00:37:30.999Z</time></trkpt><trkpt lat="36.83147730920436" lon="-108.12135493082249"><ele>1784.0</ele><time>2026-04-15T00:37:31.999Z</time></trkpt><trkpt lat="36.83136711928291" lon="-108.12133819446964"><ele>1784.0</ele><time>2026-04-15T00:37:32.999Z</time></trkpt><trkpt lat="36.83124526941503" lon="-108.12130512864039"><ele>1784.0</ele><time>2026-04-15T00:37:33.999Z</time></trkpt><trkpt lat="36.831117447614545" lon="-108.12126686239533"><ele>1784.0</ele><time>2026-04-15T00:37:34.999Z</time></trkpt><trkpt lat="36.831011447012656" lon="-108.12125206119724"><ele>1784.0</ele><time>2026-04-15T00:37:35.999Z</time></trkpt><trkpt lat="36.83087847361318" lon="-108.12127022968133"><ele>1784.0</ele><time>2026-04-15T00:37:36.999Z</time></trkpt><trkpt lat="36.83078006979204" lon="-108.12128507230729"><ele>1784.0</ele><time>2026-04-15T00:37:37.999Z</time></trkpt><trkpt lat="36.830707680887016" lon="-108.12127890570595"><ele>1784.0</ele><time>2026-04-15T00:37:39Z</time></trkpt><trkpt lat="36.830639961144456" lon="-108.12123701156803"><ele>1784.0</ele><time>2026-04-15T00:37:40Z</time></trkpt><trkpt lat="36.830552773134706" lon="-108.12119296510886"><ele>1784.0</ele><time>2026-04-15T00:37:41Z</time></trkpt><trkpt lat="36.8304355848467" lon="-108.1211624688973"><ele>1784.0</ele><time>2026-04-15T00:37:42Z</time></trkpt><trkpt lat="36.830314567273405" lon="-108.12116010405876"><ele>1784.0</ele><time>2026-04-15T00:37:43Z</time></trkpt><trkpt lat="36.83020418208101" lon="-108.12116768908523"><ele>1784.0</ele><time>2026-04-15T00:37:44Z</time></trkpt><trkpt lat="36.830078247627526" lon="-108.12117628017937"><ele>1784.0</ele><time>2026-04-15T00:37:45Z</time></trkpt><trkpt lat="36.82992412801277" lon="-108.12118998865597"><ele>1785.0</ele><time>2026-04-15T00:37:46Z</time></trkpt><trkpt lat="36.82979211398606" lon="-108.1212044975196"><ele>1786.0</ele><time>2026-04-15T00:37:47Z</time></trkpt><trkpt lat="36.82968875724106" lon="-108.12122054127398"><ele>1787.0</ele><time>2026-04-15T00:37:48Z</time></trkpt><trkpt lat="36.82958403955227" lon="-108.12119831105112"><ele>1788.0</ele><time>2026-04-15T00:37:49Z</time></trkpt><trkpt lat="36.82948727818171" lon="-108.12119958435753"><ele>1789.0</ele><time>2026-04-15T00:37:50Z</time></trkpt><trkpt lat="36.82940850247588" lon="-108.12121580717788"><ele>1789.0</ele><time>2026-04-15T00:37:51Z</time></trkpt><trkpt lat="36.82933550711739" lon="-108.12132244748727"><ele>1789.0</ele><time>2026-04-15T00:37:53Z</time></trkpt><trkpt lat="36.82928247742547" lon="-108.12139617620765"><ele>1789.0</ele><time>2026-04-15T00:37:54Z</time></trkpt><trkpt lat="36.829189263252196" lon="-108.12148663273477"><ele>1789.0</ele><time>2026-04-15T00:37:55Z</time></trkpt><trkpt lat="36.82907784727645" lon="-108.12155170357985"><ele>1789.0</ele><time>2026-04-15T00:37:56Z</time></trkpt><trkpt lat="36.828941057189375" lon="-108.12163424119211"><ele>1790.3333333333335</ele><time>2026-04-15T00:37:57Z</time></trkpt><trkpt lat="36.828824226187855" lon="-108.12175539637128"><ele>1791.6666666666665</ele><time>2026-04-15T00:37:58Z</time></trkpt><trkpt lat="36.82867909071431" lon="-108.12190649813314"><ele>1793.0</ele><time>2026-04-15T00:37:59Z</time></trkpt><trkpt lat="36.828541921189746" lon="-108.1220391454782"><ele>1792.5</ele><time>2026-04-15T00:38:00Z</time></trkpt><trkpt lat="36.82843588738407" lon="-108.12212915908817"><ele>1792.0</ele><time>2026-04-15T00:38:01Z</time></trkpt><trkpt lat="36.828325182020684" lon="-108.12221708604133"><ele>1791.5</ele><time>2026-04-15T00:38:02Z</time></trkpt><trkpt lat="36.828206440268936" lon="-108.12225889924623"><ele>1791.0</ele><time>2026-04-15T00:38:03Z</time></trkpt><trkpt lat="36.82808849104962" lon="-108.1223112168376"><ele>1791.5</ele><time>2026-04-15T00:38:04Z</time></trkpt><trkpt lat="36.82799562928399" lon="-108.1224146889542"><ele>1792.0</ele><time>2026-04-15T00:38:05Z</time></trkpt><trkpt lat="36.82790262228101" lon="-108.12251721713773"><ele>1792.5</ele><time>2026-04-15T00:38:06Z</time></trkpt><trkpt lat="36.8278048559797" lon="-108.12263471477213"><ele>1793.0</ele><time>2026-04-15T00:38:07Z</time></trkpt><trkpt lat="36.82771881711886" lon="-108.12278344378349"><ele>1793.75</ele><time>2026-04-15T00:38:08Z</time></trkpt><trkpt lat="36.82763554037591" lon="-108.12290611256758"><ele>1794.5</ele><time>2026-04-15T00:38:09Z</time></trkpt><trkpt lat="36.82754080137739" lon="-108.12301216575419"><ele>1795.25</ele><time>2026-04-15T00:38:10Z</time></trkpt><trkpt lat="36.8274116092576" lon="-108.12311633770508"><ele>1796.0</ele><time>2026-04-15T00:38:11Z</time></trkpt><trkpt lat="36.82729179962569" lon="-108.12323662614797"><ele>1796.3333333333333</ele><time>2026-04-15T00:38:12Z</time></trkpt><trkpt lat="36.82718287204708" lon="-108.1233720961043"><ele>1796.6666666666665</ele><time>2026-04-15T00:38:13Z</time></trkpt><trkpt lat="36.82705995319611" lon="-108.12349815650684"><ele>1797.0</ele><time>2026-04-15T00:38:14Z</time></trkpt><trkpt lat="36.82692086155537" lon="-108.12362336508637"><ele>1797.0</ele><time>2026-04-15T00:38:15Z</time></trkpt><trkpt lat="36.826774224129046" lon="-108.12375226824875"><ele>1797.0</ele><time>2026-04-15T00:38:16Z</time></trkpt><trkpt lat="36.82664506706291" lon="-108.12389048566433"><ele>1797.0</ele><time>2026-04-15T00:38:17Z</time></trkpt><trkpt lat="36.82652963126209" lon="-108.1240185527747"><ele>1797.3333333333335</ele><time>2026-04-15T00:38:18Z</time></trkpt><trkpt lat="36.82639750641411" lon="-108.12414071178968"><ele>1797.6666666666667</ele><time>2026-04-15T00:38:19Z</time></trkpt><trkpt lat="36.82625424398877" lon="-108.12427812426436"><ele>1798.0</ele><time>2026-04-15T00:38:20Z</time></trkpt><trkpt lat="36.82610900518881" lon="-108.12440833766613"><ele>1797.0</ele><time>2026-04-15T00:38:21Z</time></trkpt><trkpt lat="36.82596476010059" lon="-108.12454393564714"><ele>1796.0</ele><time>2026-04-15T00:38:22Z</time></trkpt><trkpt lat="36.82581600814488" lon="-108.12466791648266"><ele>1795.0</ele><time>2026-04-15T00:38:23Z</time></trkpt><trkpt lat="36.825673278258414" lon="-108.12478556007915"><ele>1795.0</ele><time>2026-04-15T00:38:24Z</time></trkpt><trkpt lat="36.82554293241356" lon="-108.1248813349257"><ele>1795.0</ele><time>2026-04-15T00:38:25Z</time></trkpt><trkpt lat="36.82542642682753" lon="-108.12494777442839"><ele>1795.0</ele><time>2026-04-15T00:38:26Z</time></trkpt><trkpt lat="36.82533751082465" lon="-108.12502186033183"><ele>1795.0</ele><time>2026-04-15T00:38:27Z</time></trkpt><trkpt lat="36.8252644975387" lon="-108.12506595967588"><ele>1795.2</ele><time>2026-04-15T00:38:28Z</time></trkpt><trkpt lat="36.82516789999831" lon="-108.1250150264197"><ele>1795.4</ele><time>2026-04-15T00:38:30Z</time></trkpt><trkpt lat="36.82510951317202" lon="-108.12493018156857"><ele>1795.6</ele><time>2026-04-15T00:38:31Z</time></trkpt><trkpt lat="36.8250319351317" lon="-108.12482588132477"><ele>1795.8</ele><time>2026-04-15T00:38:32Z</time></trkpt><trkpt lat="36.82491699536932" lon="-108.12475896502508"><ele>1796.0</ele><time>2026-04-15T00:38:33Z</time></trkpt><trkpt lat="36.824828595141675" lon="-108.12473111697533"><ele>1794.8</ele><time>2026-04-15T00:38:34Z</time></trkpt><trkpt lat="36.824759347892936" lon="-108.12468256116672"><ele>1793.6</ele><time>2026-04-15T00:38:35Z</time></trkpt><trkpt lat="36.824700311831634" lon="-108.12459631310197"><ele>1792.4</ele><time>2026-04-15T00:38:36Z</time></trkpt><trkpt lat="36.824620766119466" lon="-108.12453292216735"><ele>1791.2</ele><time>2026-04-15T00:38:37Z</time></trkpt><trkpt lat="36.82453053702765" lon="-108.12451531242051"><ele>1790.0</ele><time>2026-04-15T00:38:38Z</time></trkpt><trkpt lat="36.824427971585614" lon="-108.12450080070789"><ele>1790.0</ele><time>2026-04-15T00:38:39Z</time></trkpt><trkpt lat="36.82433604789575" lon="-108.12440581254336"><ele>1790.0</ele><time>2026-04-15T00:38:40Z</time></trkpt><trkpt lat="36.824260570315516" lon="-108.12432170318858"><ele>1790.0</ele><time>2026-04-15T00:38:41Z</time></trkpt><trkpt lat="36.82415165670093" lon="-108.12424984870596"><ele>1790.0</ele><time>2026-04-15T00:38:42Z</time></trkpt><trkpt lat="36.82405552145389" lon="-108.12417157130696"><ele>1790.25</ele><time>2026-04-15T00:38:43Z</time></trkpt><trkpt lat="36.823993292812524" lon="-108.12410040730346"><ele>1790.5</ele><time>2026-04-15T00:38:44Z</time></trkpt><trkpt lat="36.82388768684289" lon="-108.12408826586991"><ele>1790.75</ele><time>2026-04-15T00:38:46Z</time></trkpt><trkpt lat="36.823768604113404" lon="-108.1241757001633"><ele>1791.0</ele><time>2026-04-15T00:38:47Z</time></trkpt><trkpt lat="36.82364113504228" lon="-108.12425004262474"><ele>1791.0</ele><time>2026-04-15T00:38:48Z</time></trkpt><trkpt lat="36.82353088469408" lon="-108.124278567929"><ele>1791.0</ele><time>2026-04-15T00:38:49Z</time></trkpt><trkpt lat="36.8234471131792" lon="-108.12431057176812"><ele>1791.0</ele><time>2026-04-15T00:38:50Z</time></trkpt><trkpt lat="36.823376254772874" lon="-108.12440717530689"><ele>1791.0</ele><time>2026-04-15T00:38:51Z</time></trkpt><trkpt lat="36.82336407342899" lon="-108.1245090217643"><ele>1791.0</ele><time>2026-04-15T00:38:52Z</time></trkpt><trkpt lat="36.823359989421895" lon="-108.12464659024842"><ele>1791.0</ele><time>2026-04-15T00:38:53Z</time></trkpt><trkpt lat="36.82334669662294" lon="-108.12474221097405"><ele>1791.0</ele><time>2026-04-15T00:38:54Z</time></trkpt><trkpt lat="36.823307568400494" lon="-108.1248223077947"><ele>1791.0</ele><time>2026-04-15T00:38:55Z</time></trkpt><trkpt lat="36.82325723969142" lon="-108.12489193992579"><ele>1791.0</ele><time>2026-04-15T00:38:56Z</time></trkpt><trkpt lat="36.82316436663789" lon="-108.12494238735492"><ele>1791.0</ele><time>2026-04-15T00:38:57Z</time></trkpt><trkpt lat="36.82307123036211" lon="-108.12496845055485"><ele>1791.0</ele><time>2026-04-15T00:38:58Z</time></trkpt><trkpt lat="36.82297074546849" lon="-108.12498997179034"><ele>1790.6</ele><time>2026-04-15T00:38:59Z</time></trkpt><trkpt lat="36.822905216516645" lon="-108.12505107958343"><ele>1790.1999999999998</ele><time>2026-04-15T00:39:00Z</time></trkpt><trkpt lat="36.82284857317588" lon="-108.12511636166998"><ele>1789.8000000000002</ele><time>2026-04-15T00:39:01Z</time></trkpt><trkpt lat="36.822782861754845" lon="-108.12520888860021"><ele>1789.4</ele><time>2026-04-15T00:39:02Z</time></trkpt><trkpt lat="36.822679833754655" lon="-108.1253174370225"><ele>1789.0</ele><time>2026-04-15T00:39:03Z</time></trkpt><trkpt lat="36.82256974084196" lon="-108.12543218950577"><ele>1789.0</ele><time>2026-04-15T00:39:04Z</time></trkpt><trkpt lat="36.82247690001551" lon="-108.12549974907513"><ele>1789.0</ele><time>2026-04-15T00:39:05Z</time></trkpt><trkpt lat="36.82239552416649" lon="-108.12556283210951"><ele>1789.0</ele><time>2026-04-15T00:39:06Z</time></trkpt><trkpt lat="36.82231654886237" lon="-108.12563440929797"><ele>1789.0</ele><time>2026-04-15T00:39:07Z</time></trkpt><trkpt lat="36.822262481335365" lon="-108.12570761540607"><ele>1789.0</ele><time>2026-04-15T00:39:08Z</time></trkpt><trkpt lat="36.82219580389624" lon="-108.12577570392872"><ele>1788.8000000000002</ele><time>2026-04-15T00:39:09Z</time></trkpt><trkpt lat="36.82212869984401" lon="-108.12585545349489"><ele>1788.6000000000001</ele><time>2026-04-15T00:39:10Z</time></trkpt><trkpt lat="36.822095992362" lon="-108.12597092714809"><ele>1788.4</ele><time>2026-04-15T00:39:11Z</time></trkpt><trkpt lat="36.82211773696332" lon="-108.12611705513413"><ele>1788.2</ele><time>2026-04-15T00:39:12Z</time></trkpt><trkpt lat="36.82216719254065" lon="-108.12625675562717"><ele>1788.0</ele><time>2026-04-15T00:39:13Z</time></trkpt><trkpt lat="36.822243990412815" lon="-108.12639952528369"><ele>1789.0</ele><time>2026-04-15T00:39:14Z</time></trkpt><trkpt lat="36.82226518470329" lon="-108.12656700472452"><ele>1790.0000000000002</ele><time>2026-04-15T00:39:15Z</time></trkpt><trkpt lat="36.82225284510883" lon="-108.12672112080121"><ele>1791.0000000000002</ele><time>2026-04-15T00:39:16Z</time></trkpt><trkpt lat="36.82223706014211" lon="-108.12681480860127"><ele>1792.0</ele><time>2026-04-15T00:39:17Z</time></trkpt><trkpt lat="36.82218969778573" lon="-108.12691190545235"><ele>1793.0</ele><time>2026-04-15T00:39:18Z</time></trkpt><trkpt lat="36.822107342576736" lon="-108.12702456581927"><ele>1793.0</ele><time>2026-04-15T00:39:19Z</time></trkpt><trkpt lat="36.8220205336255" lon="-108.12709994615787"><ele>1793.0000000000002</ele><time>2026-04-15T00:39:20Z</time></trkpt><trkpt lat="36.82194665964983" lon="-108.1271001002452"><ele>1793.0000000000002</ele><time>2026-04-15T00:39:21Z</time></trkpt><trkpt lat="36.82186416841645" lon="-108.12706425795285"><ele>1793.0</ele><time>2026-04-15T00:39:22Z</time></trkpt><trkpt lat="36.82175444888496" lon="-108.12701582008343"><ele>1793.0</ele><time>2026-04-15T00:39:23Z</time></trkpt><trkpt lat="36.82165932046751" lon="-108.12691103280436"><ele>1792.0</ele><time>2026-04-15T00:39:24Z</time></trkpt><trkpt lat="36.8215807616611" lon="-108.12677582251955"><ele>1791.0</ele><time>2026-04-15T00:39:25Z</time></trkpt><trkpt lat="36.82149478961694" lon="-108.12667772332486"><ele>1790.0</ele><time>2026-04-15T00:39:26Z</time></trkpt><trkpt lat="36.82138701312212" lon="-108.12660756921693"><ele>1789.0</ele><time>2026-04-15T00:39:27Z</time></trkpt><trkpt lat="36.821273307407644" lon="-108.12653725807216"><ele>1788.5</ele><time>2026-04-15T00:39:28Z</time></trkpt><trkpt lat="36.821177056162945" lon="-108.12651945372632"><ele>1788.0</ele><time>2026-04-15T00:39:29Z</time></trkpt><trkpt lat="36.82104008496267" lon="-108.12654185479849"><ele>1787.5</ele><time>2026-04-15T00:39:30Z</time></trkpt><trkpt lat="36.82092597152087" lon="-108.12648937059501"><ele>1787.0</ele><time>2026-04-15T00:39:31Z</time></trkpt><trkpt lat="36.820827340201895" lon="-108.12645265419724"><ele>1786.0</ele><time>2026-04-15T00:39:32Z</time></trkpt><trkpt lat="36.820720574868105" lon="-108.12639899443721"><ele>1785.0</ele><time>2026-04-15T00:39:33Z</time></trkpt><trkpt lat="36.82061854632149" lon="-108.12631778838839"><ele>1784.0</ele><time>2026-04-15T00:39:34Z</time></trkpt><trkpt lat="36.82053818800641" lon="-108.12619832202067"><ele>1783.0</ele><time>2026-04-15T00:39:35Z</time></trkpt><trkpt lat="36.820459115767925" lon="-108.12611927488277"><ele>1783.0</ele><time>2026-04-15T00:39:36Z</time></trkpt><trkpt lat="36.8203366923401" lon="-108.12604340791134"><ele>1783.0000000000002</ele><time>2026-04-15T00:39:37Z</time></trkpt><trkpt lat="36.82023267791453" lon="-108.12599127553153"><ele>1783.0000000000002</ele><time>2026-04-15T00:39:38Z</time></trkpt><trkpt lat="36.82016934749151" lon="-108.1259905538723"><ele>1783.0</ele><time>2026-04-15T00:39:39Z</time></trkpt><trkpt lat="36.820097067973634" lon="-108.12602198455373"><ele>1783.0</ele><time>2026-04-15T00:39:39.999Z</time></trkpt><trkpt lat="36.820013960085845" lon="-108.12609500639964"><ele>1783.2</ele><time>2026-04-15T00:39:40.999Z</time></trkpt><trkpt lat="36.81992425318111" lon="-108.12615034040383"><ele>1783.4</ele><time>2026-04-15T00:39:41.999Z</time></trkpt><trkpt lat="36.81985271816077" lon="-108.1261111595037"><ele>1783.6000000000001</ele><time>2026-04-15T00:39:42.999Z</time></trkpt><trkpt lat="36.81977061437993" lon="-108.12601803344155"><ele>1783.8000000000002</ele><time>2026-04-15T00:39:43.999Z</time></trkpt><trkpt lat="36.81967000161149" lon="-108.1259748542109"><ele>1784.0</ele><time>2026-04-15T00:39:45Z</time></trkpt><trkpt lat="36.819569913884706" lon="-108.12593228881012"><ele>1784.0</ele><time>2026-04-15T00:39:46Z</time></trkpt><trkpt lat="36.81948847661447" lon="-108.12589927324363"><ele>1784.0</ele><time>2026-04-15T00:39:47Z</time></trkpt><trkpt lat="36.81940938695827" lon="-108.12591741833639"><ele>1784.0</ele><time>2026-04-15T00:39:48Z</time></trkpt><trkpt lat="36.81929823183829" lon="-108.1259337557051"><ele>1784.0</ele><time>2026-04-15T00:39:49Z</time></trkpt><trkpt lat="36.81919710940463" lon="-108.12597819190701"><ele>1784.0</ele><time>2026-04-15T00:39:50Z</time></trkpt><trkpt lat="36.81908293130093" lon="-108.12599463226763"><ele>1785.25</ele><time>2026-04-15T00:39:51Z</time></trkpt><trkpt lat="36.81895776216824" lon="-108.12599216760654"><ele>1786.5</ele><time>2026-04-15T00:39:52Z</time></trkpt><trkpt lat="36.818830652767815" lon="-108.12597835196586"><ele>1787.75</ele><time>2026-04-15T00:39:53Z</time></trkpt><trkpt lat="36.81869178118681" lon="-108.12596958886868"><ele>1789.0</ele><time>2026-04-15T00:39:54Z</time></trkpt><trkpt lat="36.81856084091327" lon="-108.12597147041316"><ele>1790.25</ele><time>2026-04-15T00:39:55Z</time></trkpt><trkpt lat="36.818453086020874" lon="-108.12596801351822"><ele>1791.5</ele><time>2026-04-15T00:39:56Z</time></trkpt><trkpt lat="36.81832671101207" lon="-108.12596232451462"><ele>1792.75</ele><time>2026-04-15T00:39:57Z</time></trkpt><trkpt lat="36.8181754627997" lon="-108.12597576673694"><ele>1794.0</ele><time>2026-04-15T00:39:58Z</time></trkpt><trkpt lat="36.81804603753566" lon="-108.12599095526087"><ele>1794.0</ele><time>2026-04-15T00:39:59Z</time></trkpt><trkpt lat="36.817906706298565" lon="-108.12597222363661"><ele>1794.0</ele><time>2026-04-15T00:40:00Z</time></trkpt><trkpt lat="36.81781210335581" lon="-108.12592020673357"><ele>1794.0</ele><time>2026-04-15T00:40:01Z</time></trkpt><trkpt lat="36.81772450753728" lon="-108.12592264826866"><ele>1794.0</ele><time>2026-04-15T00:40:02Z</time></trkpt><trkpt lat="36.81761019428984" lon="-108.1259099065106"><ele>1794.0</ele><time>2026-04-15T00:40:03Z</time></trkpt><trkpt lat="36.81752736595622" lon="-108.125831395334"><ele>1793.75</ele><time>2026-04-15T00:40:04Z</time></trkpt><trkpt lat="36.81745152111733" lon="-108.1256929413951"><ele>1793.5</ele><time>2026-04-15T00:40:05Z</time></trkpt><trkpt lat="36.81736524939291" lon="-108.12554520643391"><ele>1793.25</ele><time>2026-04-15T00:40:06Z</time></trkpt><trkpt lat="36.8173091288793" lon="-108.12541940204254"><ele>1793.0</ele><time>2026-04-15T00:40:07Z</time></trkpt><trkpt lat="36.81727362712532" lon="-108.12531331037133"><ele>1793.0</ele><time>2026-04-15T00:40:08Z</time></trkpt><trkpt lat="36.81716608618871" lon="-108.12524577351942"><ele>1793.0</ele><time>2026-04-15T00:40:10Z</time></trkpt><trkpt lat="36.81702302313724" lon="-108.1252037784639"><ele>1793.0</ele><time>2026-04-15T00:40:11Z</time></trkpt><trkpt lat="36.81689789155308" lon="-108.12518357690702"><ele>1793.0</ele><time>2026-04-15T00:40:12Z</time></trkpt><trkpt lat="36.816779369420445" lon="-108.12516621251447"><ele>1792.25</ele><time>2026-04-15T00:40:13Z</time></trkpt><trkpt lat="36.81667407862173" lon="-108.12518187340063"><ele>1791.5</ele><time>2026-04-15T00:40:14Z</time></trkpt><trkpt lat="36.81655730928895" lon="-108.12524913590205"><ele>1790.75</ele><time>2026-04-15T00:40:15Z</time></trkpt><trkpt lat="36.816440118624456" lon="-108.1253083319536"><ele>1790.0</ele><time>2026-04-15T00:40:16Z</time></trkpt><trkpt lat="36.81633798705853" lon="-108.1253719736529"><ele>1790.0</ele><time>2026-04-15T00:40:17Z</time></trkpt><trkpt lat="36.81625886403109" lon="-108.12544397221068"><ele>1790.0</ele><time>2026-04-15T00:40:18Z</time></trkpt><trkpt lat="36.816174841734835" lon="-108.12546417159069"><ele>1790.0</ele><time>2026-04-15T00:40:19Z</time></trkpt><trkpt lat="36.81607319260741" lon="-108.12544775584217"><ele>1790.0</ele><time>2026-04-15T00:40:20Z</time></trkpt><trkpt lat="36.815941782254" lon="-108.12539676081522"><ele>1790.0</ele><time>2026-04-15T00:40:21Z</time></trkpt><trkpt lat="36.8157969760245" lon="-108.12538057951156"><ele>1789.25</ele><time>2026-04-15T00:40:22Z</time></trkpt><trkpt lat="36.81565444327381" lon="-108.12538335003532"><ele>1788.5</ele><time>2026-04-15T00:40:23Z</time></trkpt><trkpt lat="36.81551644384318" lon="-108.12538877714027"><ele>1787.75</ele><time>2026-04-15T00:40:24Z</time></trkpt><trkpt lat="36.81537466394221" lon="-108.12540435387909"><ele>1787.0</ele><time>2026-04-15T00:40:25Z</time></trkpt><trkpt lat="36.815218428659" lon="-108.12536719927591"><ele>1787.6</ele><time>2026-04-15T00:40:26Z</time></trkpt><trkpt lat="36.81512122306858" lon="-108.12533176803302"><ele>1788.1999999999998</ele><time>2026-04-15T00:40:27Z</time></trkpt><trkpt lat="36.81503405110796" lon="-108.12536260009988"><ele>1788.8</ele><time>2026-04-15T00:40:28Z</time></trkpt><trkpt lat="36.814926061470544" lon="-108.125413563767"><ele>1789.4</ele><time>2026-04-15T00:40:29Z</time></trkpt><trkpt lat="36.8148018216772" lon="-108.12546789095403"><ele>1790.0</ele><time>2026-04-15T00:40:30Z</time></trkpt><trkpt lat="36.814684379134675" lon="-108.12546195025124"><ele>1790.0</ele><time>2026-04-15T00:40:31Z</time></trkpt><trkpt lat="36.81457223855779" lon="-108.12548050765632"><ele>1790.0</ele><time>2026-04-15T00:40:32Z</time></trkpt><trkpt lat="36.81445795404068" lon="-108.12553224606924"><ele>1790.0</ele><time>2026-04-15T00:40:33Z</time></trkpt><trkpt lat="36.814385578638145" lon="-108.1255450501092"><ele>1790.0</ele><time>2026-04-15T00:40:34Z</time></trkpt><trkpt lat="36.81432733656198" lon="-108.12548084092792"><ele>1790.0</ele><time>2026-04-15T00:40:35Z</time></trkpt><trkpt lat="36.81423733993034" lon="-108.12537028826064"><ele>1790.6</ele><time>2026-04-15T00:40:36Z</time></trkpt><trkpt lat="36.81416431846472" lon="-108.12533872352182"><ele>1791.2</ele><time>2026-04-15T00:40:37Z</time></trkpt><trkpt lat="36.814101015819055" lon="-108.12539695419356"><ele>1791.8000000000002</ele><time>2026-04-15T00:40:38Z</time></trkpt><trkpt lat="36.814004595378364" lon="-108.12545384342985"><ele>1792.4</ele><time>2026-04-15T00:40:39Z</time></trkpt><trkpt lat="36.81388849139514" lon="-108.1254959171964"><ele>1793.0</ele><time>2026-04-15T00:40:40Z</time></trkpt><trkpt lat="36.81380040521673" lon="-108.12554114643667"><ele>1793.0</ele><time>2026-04-15T00:40:41Z</time></trkpt><trkpt lat="36.81369270153709" lon="-108.12559566311877"><ele>1793.0</ele><time>2026-04-15T00:40:42Z</time></trkpt><trkpt lat="36.81355566138545" lon="-108.12565287137461"><ele>1793.0</ele><time>2026-04-15T00:40:43Z</time></trkpt><trkpt lat="36.81344789744124" lon="-108.12568414920727"><ele>1793.0</ele><time>2026-04-15T00:40:44Z</time></trkpt><trkpt lat="36.81335373356538" lon="-108.12572214839365"><ele>1793.75</ele><time>2026-04-15T00:40:45Z</time></trkpt><trkpt lat="36.81328247375523" lon="-108.12584023403667"><ele>1794.5</ele><time>2026-04-15T00:40:46Z</time></trkpt><trkpt lat="36.81320239747905" lon="-108.12597982200678"><ele>1795.25</ele><time>2026-04-15T00:40:47Z</time></trkpt><trkpt lat="36.813111151307105" lon="-108.12611394906342"><ele>1796.0</ele><time>2026-04-15T00:40:48Z</time></trkpt><trkpt lat="36.81301057966721" lon="-108.12619742188934"><ele>1796.0</ele><time>2026-04-15T00:40:49Z</time></trkpt><trkpt lat="36.81289430739271" lon="-108.12627235088105"><ele>1796.0</ele><time>2026-04-15T00:40:50Z</time></trkpt><trkpt lat="36.812779251195664" lon="-108.12631520962397"><ele>1796.0</ele><time>2026-04-15T00:40:51Z</time></trkpt><trkpt lat="36.81265068124974" lon="-108.12630911239503"><ele>1796.0</ele><time>2026-04-15T00:40:52Z</time></trkpt><trkpt lat="36.812534950951246" lon="-108.12627982491904"><ele>1796.0</ele><time>2026-04-15T00:40:53Z</time></trkpt><trkpt lat="36.81240618985867" lon="-108.12626157878033"><ele>1796.0</ele><time>2026-04-15T00:40:54Z</time></trkpt><trkpt lat="36.812260637039394" lon="-108.12625052419796"><ele>1796.0</ele><time>2026-04-15T00:40:55Z</time></trkpt><trkpt lat="36.81211670400306" lon="-108.12626268143951"><ele>1796.0</ele><time>2026-04-15T00:40:56Z</time></trkpt><trkpt lat="36.81198977488722" lon="-108.12633002835112"><ele>1796.0</ele><time>2026-04-15T00:40:57Z</time></trkpt><trkpt lat="36.811850745486225" lon="-108.12641654246221"><ele>1796.0</ele><time>2026-04-15T00:40:58Z</time></trkpt><trkpt lat="36.81172110423957" lon="-108.12647149312701"><ele>1796.0</ele><time>2026-04-15T00:40:59Z</time></trkpt><trkpt lat="36.81159509929419" lon="-108.12651970192306"><ele>1796.0</ele><time>2026-04-15T00:41:00Z</time></trkpt><trkpt lat="36.81144364390566" lon="-108.12654597260425"><ele>1797.0</ele><time>2026-04-15T00:41:01Z</time></trkpt><trkpt lat="36.81129457922243" lon="-108.12656524281054"><ele>1798.0</ele><time>2026-04-15T00:41:02Z</time></trkpt><trkpt lat="36.811208041700894" lon="-108.12658408942947"><ele>1799.0</ele><time>2026-04-15T00:41:03Z</time></trkpt><trkpt lat="36.81116702352432" lon="-108.12665436937624"><ele>1800.0</ele><time>2026-04-15T00:41:04Z</time></trkpt><trkpt lat="36.81111147546043" lon="-108.1267708922286"><ele>1801.0</ele><time>2026-04-15T00:41:05Z</time></trkpt><trkpt lat="36.811024202256455" lon="-108.12684856042367"><ele>1801.0</ele><time>2026-04-15T00:41:06Z</time></trkpt><trkpt lat="36.81093993832153" lon="-108.12691088048258"><ele>1801.0</ele><time>2026-04-15T00:41:07Z</time></trkpt><trkpt lat="36.81085780291048" lon="-108.1269660727181"><ele>1801.0</ele><time>2026-04-15T00:41:08Z</time></trkpt><trkpt lat="36.81078447750639" lon="-108.12692004831626"><ele>1801.0</ele><time>2026-04-15T00:41:09Z</time></trkpt><trkpt lat="36.81073790849705" lon="-108.12681142569019"><ele>1801.0</ele><time>2026-04-15T00:41:10Z</time></trkpt><trkpt lat="36.81065609152963" lon="-108.1267066025477"><ele>1801.0</ele><time>2026-04-15T00:41:11Z</time></trkpt><trkpt lat="36.81053916057889" lon="-108.12664153924497"><ele>1801.0</ele><time>2026-04-15T00:41:12Z</time></trkpt><trkpt lat="36.810415390388165" lon="-108.12657145183356"><ele>1801.0</ele><time>2026-04-15T00:41:13Z</time></trkpt><trkpt lat="36.810294650403044" lon="-108.12652421900181"><ele>1801.0</ele><time>2026-04-15T00:41:14Z</time></trkpt><trkpt lat="36.81019717794749" lon="-108.12646978624643"><ele>1799.75</ele><time>2026-04-15T00:41:15Z</time></trkpt><trkpt lat="36.81008458564643" lon="-108.12638995057627"><ele>1798.5</ele><time>2026-04-15T00:41:16Z</time></trkpt><trkpt lat="36.810006757931674" lon="-108.12635121963537"><ele>1797.25</ele><time>2026-04-15T00:41:17Z</time></trkpt><trkpt lat="36.8098744563616" lon="-108.1263371246579"><ele>1796.0</ele><time>2026-04-15T00:41:19Z</time></trkpt><trkpt lat="36.80973846912008" lon="-108.1263048505438"><ele>1796.0</ele><time>2026-04-15T00:41:20Z</time></trkpt><trkpt lat="36.80957036684947" lon="-108.1262958974045"><ele>1796.0</ele><time>2026-04-15T00:41:21Z</time></trkpt><trkpt lat="36.80944573295235" lon="-108.12631511762703"><ele>1796.0</ele><time>2026-04-15T00:41:22Z</time></trkpt><trkpt lat="36.809296931563246" lon="-108.1264155912205"><ele>1793.6666666666665</ele><time>2026-04-15T00:41:23Z</time></trkpt><trkpt lat="36.809130046252314" lon="-108.12653631725341"><ele>1791.3333333333335</ele><time>2026-04-15T00:41:24Z</time></trkpt><trkpt lat="36.808958776985314" lon="-108.12666922046141"><ele>1789.0</ele><time>2026-04-15T00:41:25Z</time></trkpt><trkpt lat="36.80878759503101" lon="-108.12678965118556"><ele>1789.0</ele><time>2026-04-15T00:41:26Z</time></trkpt><trkpt lat="36.80864348276653" lon="-108.12689211164864"><ele>1789.0</ele><time>2026-04-15T00:41:27Z</time></trkpt><trkpt lat="36.80853669669137" lon="-108.12699468054599"><ele>1789.0</ele><time>2026-04-15T00:41:28Z</time></trkpt><trkpt lat="36.80844157417994" lon="-108.12711201731952"><ele>1789.0</ele><time>2026-04-15T00:41:29Z</time></trkpt><trkpt lat="36.80837131572475" lon="-108.12726088090903"><ele>1789.75</ele><time>2026-04-15T00:41:30Z</time></trkpt><trkpt lat="36.808269866192234" lon="-108.12741988289838"><ele>1790.5</ele><time>2026-04-15T00:41:31Z</time></trkpt><trkpt lat="36.80815660263471" lon="-108.12755349498296"><ele>1791.25</ele><time>2026-04-15T00:41:32Z</time></trkpt><trkpt lat="36.80806541167114" lon="-108.12763544928443"><ele>1792.0</ele><time>2026-04-15T00:41:33Z</time></trkpt><trkpt lat="36.80797651158762" lon="-108.12773900203564"><ele>1792.0</ele><time>2026-04-15T00:41:34Z</time></trkpt><trkpt lat="36.80787919871069" lon="-108.1278328787194"><ele>1791.9999999999998</ele><time>2026-04-15T00:41:35Z</time></trkpt><trkpt lat="36.807814223422554" lon="-108.12790173647782"><ele>1791.9999999999998</ele><time>2026-04-15T00:41:36Z</time></trkpt><trkpt lat="36.80779619511594" lon="-108.12798219247686"><ele>1792.0</ele><time>2026-04-15T00:41:37Z</time></trkpt><trkpt lat="36.80781177032536" lon="-108.12809271716324"><ele>1792.0</ele><time>2026-04-15T00:41:38Z</time></trkpt><trkpt lat="36.807793794561654" lon="-108.1282057061252"><ele>1793.0</ele><time>2026-04-15T00:41:40Z</time></trkpt><trkpt lat="36.80771241200003" lon="-108.12824274361306"><ele>1794.0</ele><time>2026-04-15T00:41:41Z</time></trkpt><trkpt lat="36.80761302296596" lon="-108.12819170418966"><ele>1795.0</ele><time>2026-04-15T00:41:42Z</time></trkpt><trkpt lat="36.80747192948467" lon="-108.1281436234175"><ele>1796.0</ele><time>2026-04-15T00:41:43Z</time></trkpt><trkpt lat="36.807331685186284" lon="-108.12816340108792"><ele>1793.0</ele><time>2026-04-15T00:41:44Z</time></trkpt><trkpt lat="36.80719559634611" lon="-108.12821275001636"><ele>1790.0</ele><time>2026-04-15T00:41:45Z</time></trkpt><trkpt lat="36.80702633390275" lon="-108.12821216437997"><ele>1787.0</ele><time>2026-04-15T00:41:46Z</time></trkpt><trkpt lat="36.80688062762674" lon="-108.12818528854008"><ele>1786.75</ele><time>2026-04-15T00:41:47Z</time></trkpt><trkpt lat="36.806767275615464" lon="-108.12817278555285"><ele>1786.5</ele><time>2026-04-15T00:41:48Z</time></trkpt><trkpt lat="36.80664319581582" lon="-108.12817981788889"><ele>1786.25</ele><time>2026-04-15T00:41:49Z</time></trkpt><trkpt lat="36.80652098865124" lon="-108.12821046358803"><ele>1786.0</ele><time>2026-04-15T00:41:50Z</time></trkpt><trkpt lat="36.80642614100535" lon="-108.12829450275612"><ele>1786.6666666666667</ele><time>2026-04-15T00:41:51Z</time></trkpt><trkpt lat="36.806342188568344" lon="-108.12843769853355"><ele>1787.3333333333335</ele><time>2026-04-15T00:41:52Z</time></trkpt><trkpt lat="36.80620978291414" lon="-108.1285792001684"><ele>1788.0</ele><time>2026-04-15T00:41:53Z</time></trkpt><trkpt lat="36.80605529066587" lon="-108.12861638831521"><ele>1787.0</ele><time>2026-04-15T00:41:54Z</time></trkpt><trkpt lat="36.80593020783246" lon="-108.12865765806255"><ele>1786.0</ele><time>2026-04-15T00:41:55Z</time></trkpt><trkpt lat="36.80579644860438" lon="-108.128766542975"><ele>1785.0</ele><time>2026-04-15T00:41:56Z</time></trkpt><trkpt lat="36.805660073026274" lon="-108.12886167406018"><ele>1784.0</ele><time>2026-04-15T00:41:57Z</time></trkpt><trkpt lat="36.80551631718922" lon="-108.12889625694085"><ele>1784.0</ele><time>2026-04-15T00:41:58Z</time></trkpt><trkpt lat="36.805379263043996" lon="-108.12894592412819"><ele>1784.0</ele><time>2026-04-15T00:41:59Z</time></trkpt><trkpt lat="36.8052761263193" lon="-108.12899664446977"><ele>1784.0</ele><time>2026-04-15T00:42:00Z</time></trkpt><trkpt lat="36.80520161733445" lon="-108.12906962822566"><ele>1784.0</ele><time>2026-04-15T00:42:01Z</time></trkpt><trkpt lat="36.80513212008489" lon="-108.12916138292104"><ele>1784.0</ele><time>2026-04-15T00:42:02Z</time></trkpt><trkpt lat="36.805073756022715" lon="-108.1292232143523"><ele>1782.6</ele><time>2026-04-15T00:42:03Z</time></trkpt><trkpt lat="36.80504111166001" lon="-108.12929778658643"><ele>1781.2</ele><time>2026-04-15T00:42:04Z</time></trkpt><trkpt lat="36.80503615561578" lon="-108.12942434898628"><ele>1779.7999999999997</ele><time>2026-04-15T00:42:05Z</time></trkpt><trkpt lat="36.805003359548934" lon="-108.12958018027963"><ele>1778.3999999999999</ele><time>2026-04-15T00:42:06Z</time></trkpt><trkpt lat="36.80497609920915" lon="-108.12968647905622"><ele>1777.0</ele><time>2026-04-15T00:42:07Z</time></trkpt><trkpt lat="36.80496166902654" lon="-108.12976642859746"><ele>1777.0</ele><time>2026-04-15T00:42:08Z</time></trkpt><trkpt lat="36.80499870659659" lon="-108.1298882559334"><ele>1777.0</ele><time>2026-04-15T00:42:09Z</time></trkpt><trkpt lat="36.80503400128033" lon="-108.13005083069697"><ele>1777.0</ele><time>2026-04-15T00:42:10Z</time></trkpt><trkpt lat="36.8050202439455" lon="-108.1302258479615"><ele>1777.0</ele><time>2026-04-15T00:42:11Z</time></trkpt><trkpt lat="36.805014854706265" lon="-108.13040281384195"><ele>1777.0</ele><time>2026-04-15T00:42:12Z</time></trkpt><trkpt lat="36.80500991261954" lon="-108.13058449469553"><ele>1777.0</ele><time>2026-04-15T00:42:13Z</time></trkpt><trkpt lat="36.80501078705939" lon="-108.13076227341601"><ele>1777.0</ele><time>2026-04-15T00:42:14Z</time></trkpt><trkpt lat="36.80501072457671" lon="-108.13094200925082"><ele>1777.0</ele><time>2026-04-15T00:42:15Z</time></trkpt><trkpt lat="36.80500896723375" lon="-108.13110916385943"><ele>1777.0</ele><time>2026-04-15T00:42:16Z</time></trkpt><trkpt lat="36.80500825424579" lon="-108.13129174139284"><ele>1777.0</ele><time>2026-04-15T00:42:17Z</time></trkpt><trkpt lat="36.805007057166364" lon="-108.13146430778379"><ele>1777.0</ele><time>2026-04-15T00:42:18Z</time></trkpt><trkpt lat="36.80500733988759" lon="-108.13164211455477"><ele>1777.0</ele><time>2026-04-15T00:42:19Z</time></trkpt><trkpt lat="36.805010024363085" lon="-108.13181547688038"><ele>1777.25</ele><time>2026-04-15T00:42:20Z</time></trkpt><trkpt lat="36.80501313750877" lon="-108.13199052420488"><ele>1777.5</ele><time>2026-04-15T00:42:21Z</time></trkpt><trkpt lat="36.805013435812334" lon="-108.13215706414218"><ele>1777.75</ele><time>2026-04-15T00:42:22Z</time></trkpt><trkpt lat="36.805013460336575" lon="-108.132323135868"><ele>1778.0</ele><time>2026-04-15T00:42:23Z</time></trkpt><trkpt lat="36.80500627539003" lon="-108.13248242110848"><ele>1779.0</ele><time>2026-04-15T00:42:24Z</time></trkpt><trkpt lat="36.80498351221277" lon="-108.13263436578539"><ele>1780.0</ele><time>2026-04-15T00:42:25Z</time></trkpt><trkpt lat="36.80490820668453" lon="-108.13275310425247"><ele>1781.0</ele><time>2026-04-15T00:42:26Z</time></trkpt><trkpt lat="36.804758474169425" lon="-108.13277778411748"><ele>1782.0</ele><time>2026-04-15T00:42:27Z</time></trkpt><trkpt lat="36.80462016424862" lon="-108.13276786136423"><ele>1782.0</ele><time>2026-04-15T00:42:28Z</time></trkpt><trkpt lat="36.804479826843604" lon="-108.13277164659821"><ele>1782.0</ele><time>2026-04-15T00:42:29Z</time></trkpt><trkpt lat="36.80433105340076" lon="-108.13277538268794"><ele>1782.0</ele><time>2026-04-15T00:42:30Z</time></trkpt><trkpt lat="36.80417267973654" lon="-108.13278053977342"><ele>1782.0</ele><time>2026-04-15T00:42:31Z</time></trkpt><trkpt lat="36.80400392458814" lon="-108.13278753643105"><ele>1781.6666666666665</ele><time>2026-04-15T00:42:32Z</time></trkpt><trkpt lat="36.80382486538803" lon="-108.13279376376485"><ele>1781.3333333333333</ele><time>2026-04-15T00:42:33Z</time></trkpt><trkpt lat="36.80367034743021" lon="-108.13279799289927"><ele>1781.0</ele><time>2026-04-15T00:42:34Z</time></trkpt><trkpt lat="36.803506483645194" lon="-108.1328014853564"><ele>1779.3333333333333</ele><time>2026-04-15T00:42:35Z</time></trkpt><trkpt lat="36.80334551593486" lon="-108.13280555172666"><ele>1777.6666666666665</ele><time>2026-04-15T00:42:36Z</time></trkpt><trkpt lat="36.80319470781353" lon="-108.13280936144474"><ele>1776.0</ele><time>2026-04-15T00:42:37Z</time></trkpt><trkpt lat="36.803034653027346" lon="-108.13281340475373"><ele>1776.0</ele><time>2026-04-15T00:42:38Z</time></trkpt><trkpt lat="36.80287090155416" lon="-108.13281754144968"><ele>1776.0</ele><time>2026-04-15T00:42:39Z</time></trkpt><trkpt lat="36.80270926588657" lon="-108.13282249385186"><ele>1776.0</ele><time>2026-04-15T00:42:40Z</time></trkpt><trkpt lat="36.802561988702834" lon="-108.13282891208696"><ele>1775.3333333333335</ele><time>2026-04-15T00:42:41Z</time></trkpt><trkpt lat="36.8024074089398" lon="-108.13283485223835"><ele>1774.6666666666667</ele><time>2026-04-15T00:42:42Z</time></trkpt><trkpt lat="36.80224450365227" lon="-108.13287732682345"><ele>1774.0</ele><time>2026-04-15T00:42:43Z</time></trkpt><trkpt lat="36.802111946046075" lon="-108.13298918562498"><ele>1774.0</ele><time>2026-04-15T00:42:44Z</time></trkpt><trkpt lat="36.8020097857365" lon="-108.13306784343416"><ele>1774.0</ele><time>2026-04-15T00:42:45Z</time></trkpt><trkpt lat="36.80194152659977" lon="-108.13312434255498"><ele>1774.0</ele><time>2026-04-15T00:42:46Z</time></trkpt><trkpt lat="36.801843465173135" lon="-108.13321267270095"><ele>1774.0</ele><time>2026-04-15T00:42:48Z</time></trkpt><trkpt lat="36.80170243335893" lon="-108.13309193128352"><ele>1773.0</ele><time>2026-04-15T00:42:50Z</time></trkpt><trkpt lat="36.80164437612851" lon="-108.13295753214206"><ele>1772.0</ele><time>2026-04-15T00:42:51Z</time></trkpt><trkpt lat="36.801562883441875" lon="-108.13280909921937"><ele>1771.0</ele><time>2026-04-15T00:42:52Z</time></trkpt><trkpt lat="36.80147945847377" lon="-108.13263194008329"><ele>1770.0</ele><time>2026-04-15T00:42:53Z</time></trkpt><trkpt lat="36.801406842699826" lon="-108.13242234323681"><ele>1769.0</ele><time>2026-04-15T00:42:54Z</time></trkpt><trkpt lat="36.80134584151508" lon="-108.13221805170653"><ele>1768.0</ele><time>2026-04-15T00:42:55Z</time></trkpt><trkpt lat="36.80131660122661" lon="-108.13202511997258"><ele>1767.0</ele><time>2026-04-15T00:42:56Z</time></trkpt><trkpt lat="36.80130071402149" lon="-108.131818133647"><ele>1767.0</ele><time>2026-04-15T00:42:57Z</time></trkpt><trkpt lat="36.8012914162872" lon="-108.13160879968066"><ele>1767.0</ele><time>2026-04-15T00:42:58Z</time></trkpt><trkpt lat="36.80128360061513" lon="-108.13139393580086"><ele>1767.0</ele><time>2026-04-15T00:42:59Z</time></trkpt><trkpt lat="36.80127089225373" lon="-108.13118713106697"><ele>1766.0</ele><time>2026-04-15T00:43:00Z</time></trkpt><trkpt lat="36.801252388304896" lon="-108.13098405309549"><ele>1765.0</ele><time>2026-04-15T00:43:01Z</time></trkpt><trkpt lat="36.80121903692731" lon="-108.13078598719063"><ele>1764.0</ele><time>2026-04-15T00:43:02Z</time></trkpt><trkpt lat="36.80113653491938" lon="-108.13059257104436"><ele>1763.3333333333335</ele><time>2026-04-15T00:43:03Z</time></trkpt><trkpt lat="36.8010389234994" lon="-108.13039469509185"><ele>1762.6666666666667</ele><time>2026-04-15T00:43:04Z</time></trkpt><trkpt lat="36.80092024365306" lon="-108.13017740684592"><ele>1762.0</ele><time>2026-04-15T00:43:05Z</time></trkpt><trkpt lat="36.80074738750059" lon="-108.12999774285657"><ele>1760.6666666666667</ele><time>2026-04-15T00:43:06Z</time></trkpt><trkpt lat="36.80057828180384" lon="-108.12985945741387"><ele>1759.3333333333335</ele><time>2026-04-15T00:43:07Z</time></trkpt><trkpt lat="36.8003830115986" lon="-108.12975744028688"><ele>1758.0</ele><time>2026-04-15T00:43:08Z</time></trkpt><trkpt lat="36.800151954036515" lon="-108.12968081207674"><ele>1756.5</ele><time>2026-04-15T00:43:09Z</time></trkpt><trkpt lat="36.79990429690323" lon="-108.12960429742952"><ele>1755.0</ele><time>2026-04-15T00:43:10Z</time></trkpt><trkpt lat="36.79963910935954" lon="-108.12955645286075"><ele>1755.0</ele><time>2026-04-15T00:43:11Z</time></trkpt><trkpt lat="36.79936947943106" lon="-108.12949705743311"><ele>1755.0</ele><time>2026-04-15T00:43:12Z</time></trkpt><trkpt lat="36.79914491657005" lon="-108.12938083837133"><ele>1754.3333333333335</ele><time>2026-04-15T00:43:13Z</time></trkpt><trkpt lat="36.79896241884905" lon="-108.12920493592665"><ele>1753.6666666666667</ele><time>2026-04-15T00:43:14Z</time></trkpt><trkpt lat="36.798797216344106" lon="-108.1290430011477"><ele>1753.0</ele><time>2026-04-15T00:43:15Z</time></trkpt><trkpt lat="36.79865729157558" lon="-108.12886651762825"><ele>1753.0</ele><time>2026-04-15T00:43:16Z</time></trkpt><trkpt lat="36.79854509790833" lon="-108.1286935508659"><ele>1753.0</ele><time>2026-04-15T00:43:17Z</time></trkpt><trkpt lat="36.798458685922746" lon="-108.12853495213753"><ele>1753.0</ele><time>2026-04-15T00:43:18Z</time></trkpt><trkpt lat="36.79837872275153" lon="-108.12836583372776"><ele>1754.3333333333335</ele><time>2026-04-15T00:43:19Z</time></trkpt><trkpt lat="36.79830920186092" lon="-108.12816771389399"><ele>1755.6666666666665</ele><time>2026-04-15T00:43:20Z</time></trkpt><trkpt lat="36.79826450437882" lon="-108.12796112633333"><ele>1757.0</ele><time>2026-04-15T00:43:21Z</time></trkpt><trkpt lat="36.79823931348706" lon="-108.12775292381234"><ele>1757.0</ele><time>2026-04-15T00:43:22Z</time></trkpt><trkpt lat="36.798227336777686" lon="-108.12755742009993"><ele>1757.0</ele><time>2026-04-15T00:43:23Z</time></trkpt><trkpt lat="36.79821938631696" lon="-108.12738583022974"><ele>1757.0</ele><time>2026-04-15T00:43:24Z</time></trkpt><trkpt lat="36.79820068214474" lon="-108.12722370331618"><ele>1757.0</ele><time>2026-04-15T00:43:25Z</time></trkpt><trkpt lat="36.798199355352885" lon="-108.12706448036806"><ele>1754.75</ele><time>2026-04-15T00:43:26Z</time></trkpt><trkpt lat="36.79821798641448" lon="-108.12691206262383"><ele>1752.5</ele><time>2026-04-15T00:43:27Z</time></trkpt><trkpt lat="36.7982192868115" lon="-108.12675706652686"><ele>1750.25</ele><time>2026-04-15T00:43:28Z</time></trkpt><trkpt lat="36.79820963398535" lon="-108.12661925038928"><ele>1748.0</ele><time>2026-04-15T00:43:29Z</time></trkpt><trkpt lat="36.79820825604798" lon="-108.12649709997312"><ele>1746.5</ele><time>2026-04-15T00:43:30Z</time></trkpt><trkpt lat="36.79820699685902" lon="-108.12640865681125"><ele>1745.0</ele><time>2026-04-15T00:43:31Z</time></trkpt><trkpt lat="36.7984238673981" lon="-108.12639561099913"><ele>1743.5</ele><time>2026-04-15T00:43:32Z</time></trkpt><trkpt lat="36.79852638720166" lon="-108.12639378594878"><ele>1742.0</ele><time>2026-04-15T00:43:33Z</time></trkpt><trkpt lat="36.79865216113014" lon="-108.12638180579445"><ele>1742.0</ele><time>2026-04-15T00:43:34Z</time></trkpt><trkpt lat="36.79880048347639" lon="-108.12638600031016"><ele>1742.0</ele><time>2026-04-15T00:43:35Z</time></trkpt><trkpt lat="36.79896638547717" lon="-108.12638545608456"><ele>1742.0</ele><time>2026-04-15T00:43:36Z</time></trkpt><trkpt lat="36.79910861107899" lon="-108.12639127291907"><ele>1741.9999999999998</ele><time>2026-04-15T00:43:37Z</time></trkpt><trkpt lat="36.7992198428728" lon="-108.1264042934879"><ele>1742.0</ele><time>2026-04-15T00:43:38Z</time></trkpt><trkpt lat="36.799310935843266" lon="-108.12640318327439"><ele>1742.0</ele><time>2026-04-15T00:43:39Z</time></trkpt><trkpt lat="36.799391708599806" lon="-108.1264016735026"><ele>1742.0</ele><time>2026-04-15T00:43:40Z</time></trkpt><trkpt lat="36.799469695670005" lon="-108.126400771712"><ele>1741.9999999999998</ele><time>2026-04-15T00:43:41Z</time></trkpt><trkpt lat="36.799555673328435" lon="-108.12640000642125"><ele>1742.0</ele><time>2026-04-15T00:43:42Z</time></trkpt><trkpt lat="36.799676681875404" lon="-108.12639892931787"><ele>1743.6666666666665</ele><time>2026-04-15T00:43:43Z</time></trkpt><trkpt lat="36.79974136576309" lon="-108.12638105069666"><ele>1745.3333333333335</ele><time>2026-04-15T00:43:44Z</time></trkpt><trkpt lat="36.799808658002455" lon="-108.12636773165252"><ele>1747.0</ele><time>2026-04-15T00:43:46Z</time></trkpt><trkpt lat="36.79981039452971" lon="-108.12597329215731"><ele>1747.0</ele><time>2026-04-15T00:43:47Z</time></trkpt><trkpt lat="36.799773262751465" lon="-108.12586240522555"><ele>1747.0</ele><time>2026-04-15T00:43:48Z</time></trkpt><trkpt lat="36.79973440968015" lon="-108.12578667995253"><ele>1747.0</ele><time>2026-04-15T00:43:49Z</time></trkpt><trkpt lat="36.799741816666845" lon="-108.12570326985265"><ele>1746.0</ele><time>2026-04-15T00:43:51Z</time></trkpt></trkseg></trk></gpx>